<?xml version="1.0" encoding="UTF-8" standalone="no" ?>
<gpx xmlns="http://www.topografix.com/GPX/1/1" xmlns:xsi="http://www.w3.org/2001/XMLSchema-instance" xsi:schemaLocation="http://www.topografix.com/GPX/1/1 http://www.topografix.com/GPX/1/1/gpx.xsd" version="1.1" creator="VisuGPX - https://www.visugpx.com">
  <metadata>
    <name>Ceuse toujours</name>
  </metadata>
  <trk>
    <name><![CDATA[Ceuse toujours_1]]></name>
    <trkseg>
      <trkpt lat="44.49366" lon="5.96441">
        <ele>1338.6</ele>
        <time>2026-08-13T11:15:55.000Z</time>
      </trkpt>
      <trkpt lat="44.49358" lon="5.96435">
        <ele>1338.7</ele>
        <time>2026-08-13T11:16:04.002Z</time>
      </trkpt>
      <trkpt lat="44.49353" lon="5.96427">
        <ele>1340</ele>
        <time>2026-08-13T11:16:15.921Z</time>
      </trkpt>
      <trkpt lat="44.49346" lon="5.96419">
        <ele>1341.3</ele>
        <time>2026-08-13T11:16:28.897Z</time>
      </trkpt>
      <trkpt lat="44.49344" lon="5.96417">
        <ele>1341.7</ele>
        <time>2026-08-13T11:16:32.647Z</time>
      </trkpt>
      <trkpt lat="44.49343" lon="5.96416">
        <ele>1341.9</ele>
        <time>2026-08-13T11:16:34.522Z</time>
      </trkpt>
      <trkpt lat="44.49338" lon="5.96414">
        <ele>1342.1</ele>
        <time>2026-08-13T11:16:40.244Z</time>
      </trkpt>
      <trkpt lat="44.49335" lon="5.96413">
        <ele>1342.2</ele>
        <time>2026-08-13T11:16:43.599Z</time>
      </trkpt>
      <trkpt lat="44.49331" lon="5.96413">
        <ele>1341.7</ele>
        <time>2026-08-13T11:16:47.244Z</time>
      </trkpt>
      <trkpt lat="44.49328" lon="5.96413">
        <ele>1341.3</ele>
        <time>2026-08-13T11:16:49.972Z</time>
      </trkpt>
      <trkpt lat="44.49326" lon="5.96413">
        <ele>1341.1</ele>
        <time>2026-08-13T11:16:51.814Z</time>
      </trkpt>
      <trkpt lat="44.49323" lon="5.96412">
        <ele>1341</ele>
        <time>2026-08-13T11:16:54.839Z</time>
      </trkpt>
      <trkpt lat="44.49318" lon="5.9641">
        <ele>1341</ele>
        <time>2026-08-13T11:17:00.182Z</time>
      </trkpt>
      <trkpt lat="44.4931" lon="5.964">
        <ele>1343.4</ele>
        <time>2026-08-13T11:17:20.674Z</time>
      </trkpt>
      <trkpt lat="44.49302" lon="5.96388">
        <ele>1346</ele>
        <time>2026-08-13T11:17:42.893Z</time>
      </trkpt>
      <trkpt lat="44.49294" lon="5.96375">
        <ele>1346.9</ele>
        <time>2026-08-13T11:17:57.430Z</time>
      </trkpt>
      <trkpt lat="44.49286" lon="5.96365">
        <ele>1346.5</ele>
        <time>2026-08-13T11:18:07.880Z</time>
      </trkpt>
      <trkpt lat="44.49281" lon="5.96359">
        <ele>1345.8</ele>
        <time>2026-08-13T11:18:13.923Z</time>
      </trkpt>
      <trkpt lat="44.49277" lon="5.96353">
        <ele>1345.1</ele>
        <time>2026-08-13T11:18:19.271Z</time>
      </trkpt>
      <trkpt lat="44.49276" lon="5.96347">
        <ele>1345.7</ele>
        <time>2026-08-13T11:18:25.444Z</time>
      </trkpt>
      <trkpt lat="44.49275" lon="5.96337">
        <ele>1347</ele>
        <time>2026-08-13T11:18:37.124Z</time>
      </trkpt>
      <trkpt lat="44.49275" lon="5.96326">
        <ele>1348.2</ele>
        <time>2026-08-13T11:18:48.722Z</time>
      </trkpt>
      <trkpt lat="44.49272" lon="5.96312">
        <ele>1347.9</ele>
        <time>2026-08-13T11:18:58.999Z</time>
      </trkpt>
      <trkpt lat="44.49267" lon="5.96298">
        <ele>1347.9</ele>
        <time>2026-08-13T11:19:10.475Z</time>
      </trkpt>
      <trkpt lat="44.49263" lon="5.96287">
        <ele>1348.7</ele>
        <time>2026-08-13T11:19:21.378Z</time>
      </trkpt>
      <trkpt lat="44.49259" lon="5.9628">
        <ele>1349.1</ele>
        <time>2026-08-13T11:19:28.785Z</time>
      </trkpt>
      <trkpt lat="44.49256" lon="5.96275">
        <ele>1349.6</ele>
        <time>2026-08-13T11:19:34.807Z</time>
      </trkpt>
      <trkpt lat="44.49252" lon="5.96272">
        <ele>1349.4</ele>
        <time>2026-08-13T11:19:39.194Z</time>
      </trkpt>
      <trkpt lat="44.49248" lon="5.96271">
        <ele>1348.8</ele>
        <time>2026-08-13T11:19:42.883Z</time>
      </trkpt>
      <trkpt lat="44.49238" lon="5.96266">
        <ele>1348.4</ele>
        <time>2026-08-13T11:19:53.229Z</time>
      </trkpt>
      <trkpt lat="44.49229" lon="5.96262">
        <ele>1348</ele>
        <time>2026-08-13T11:20:02.379Z</time>
      </trkpt>
      <trkpt lat="44.49222" lon="5.96256">
        <ele>1348.8</ele>
        <time>2026-08-13T11:20:12.710Z</time>
      </trkpt>
      <trkpt lat="44.49215" lon="5.96247">
        <ele>1349.3</ele>
        <time>2026-08-13T11:20:23.472Z</time>
      </trkpt>
      <trkpt lat="44.4921" lon="5.96237">
        <ele>1349.7</ele>
        <time>2026-08-13T11:20:33.205Z</time>
      </trkpt>
      <trkpt lat="44.49209" lon="5.96227">
        <ele>1351.3</ele>
        <time>2026-08-13T11:20:46.877Z</time>
      </trkpt>
      <trkpt lat="44.49209" lon="5.96217">
        <ele>1352.5</ele>
        <time>2026-08-13T11:20:57.965Z</time>
      </trkpt>
      <trkpt lat="44.49211" lon="5.96207">
        <ele>1353.8</ele>
        <time>2026-08-13T11:21:09.770Z</time>
      </trkpt>
      <trkpt lat="44.49216" lon="5.9618">
        <ele>1357.3</ele>
        <time>2026-08-13T11:21:41.523Z</time>
      </trkpt>
      <trkpt lat="44.49219" lon="5.96156">
        <ele>1359.3</ele>
        <time>2026-08-13T11:22:04.465Z</time>
      </trkpt>
      <trkpt lat="44.49221" lon="5.96143">
        <ele>1360.4</ele>
        <time>2026-08-13T11:22:17.017Z</time>
      </trkpt>
      <trkpt lat="44.49222" lon="5.96136">
        <ele>1361.1</ele>
        <time>2026-08-13T11:22:24.190Z</time>
      </trkpt>
      <trkpt lat="44.49222" lon="5.96128">
        <ele>1361.7</ele>
        <time>2026-08-13T11:22:31.522Z</time>
      </trkpt>
      <trkpt lat="44.49219" lon="5.96119">
        <ele>1361.1</ele>
        <time>2026-08-13T11:22:38.117Z</time>
      </trkpt>
      <trkpt lat="44.49214" lon="5.96096">
        <ele>1362.3</ele>
        <time>2026-08-13T11:22:58.309Z</time>
      </trkpt>
      <trkpt lat="44.4921" lon="5.96076">
        <ele>1363.8</ele>
        <time>2026-08-13T11:23:17.149Z</time>
      </trkpt>
      <trkpt lat="44.49208" lon="5.96053">
        <ele>1366</ele>
        <time>2026-08-13T11:23:40.127Z</time>
      </trkpt>
      <trkpt lat="44.49207" lon="5.96033">
        <ele>1367</ele>
        <time>2026-08-13T11:23:56.963Z</time>
      </trkpt>
      <trkpt lat="44.49208" lon="5.96018">
        <ele>1368.2</ele>
        <time>2026-08-13T11:24:11.015Z</time>
      </trkpt>
      <trkpt lat="44.49209" lon="5.96007">
        <ele>1369</ele>
        <time>2026-08-13T11:24:21.070Z</time>
      </trkpt>
      <trkpt lat="44.4921" lon="5.96001">
        <ele>1369.7</ele>
        <time>2026-08-13T11:24:27.701Z</time>
      </trkpt>
      <trkpt lat="44.4921" lon="5.95993">
        <ele>1370.2</ele>
        <time>2026-08-13T11:24:34.709Z</time>
      </trkpt>
      <trkpt lat="44.4921" lon="5.95986">
        <ele>1370.7</ele>
        <time>2026-08-13T11:24:41.040Z</time>
      </trkpt>
      <trkpt lat="44.49209" lon="5.95977">
        <ele>1370.9</ele>
        <time>2026-08-13T11:24:48.085Z</time>
      </trkpt>
      <trkpt lat="44.49206" lon="5.95961">
        <ele>1371.4</ele>
        <time>2026-08-13T11:25:01.176Z</time>
      </trkpt>
      <trkpt lat="44.49202" lon="5.95952">
        <ele>1371</ele>
        <time>2026-08-13T11:25:08.420Z</time>
      </trkpt>
      <trkpt lat="44.49198" lon="5.95944">
        <ele>1370.5</ele>
        <time>2026-08-13T11:25:14.974Z</time>
      </trkpt>
      <trkpt lat="44.49197" lon="5.95939">
        <ele>1371.2</ele>
        <time>2026-08-13T11:25:21.166Z</time>
      </trkpt>
      <trkpt lat="44.49193" lon="5.95927">
        <ele>1372.3</ele>
        <time>2026-08-13T11:25:33.684Z</time>
      </trkpt>
      <trkpt lat="44.4919" lon="5.95912">
        <ele>1374</ele>
        <time>2026-08-13T11:25:50.112Z</time>
      </trkpt>
      <trkpt lat="44.49188" lon="5.95902">
        <ele>1374.5</ele>
        <time>2026-08-13T11:25:58.785Z</time>
      </trkpt>
      <trkpt lat="44.49186" lon="5.95894">
        <ele>1374.7</ele>
        <time>2026-08-13T11:26:05.371Z</time>
      </trkpt>
      <trkpt lat="44.49184" lon="5.95881">
        <ele>1374.9</ele>
        <time>2026-08-13T11:26:15.474Z</time>
      </trkpt>
      <trkpt lat="44.49184" lon="5.95872">
        <ele>1375.5</ele>
        <time>2026-08-13T11:26:23.475Z</time>
      </trkpt>
      <trkpt lat="44.49185" lon="5.95859">
        <ele>1376.6</ele>
        <time>2026-08-13T11:26:35.885Z</time>
      </trkpt>
      <trkpt lat="44.49187" lon="5.95847">
        <ele>1377.4</ele>
        <time>2026-08-13T11:26:46.772Z</time>
      </trkpt>
      <trkpt lat="44.4919" lon="5.95837">
        <ele>1378.8</ele>
        <time>2026-08-13T11:26:59.340Z</time>
      </trkpt>
      <trkpt lat="44.49193" lon="5.95823">
        <ele>1379.9</ele>
        <time>2026-08-13T11:27:12.749Z</time>
      </trkpt>
      <trkpt lat="44.49197" lon="5.95808">
        <ele>1381.6</ele>
        <time>2026-08-13T11:27:29.414Z</time>
      </trkpt>
      <trkpt lat="44.492" lon="5.95792">
        <ele>1382.3</ele>
        <time>2026-08-13T11:27:42.979Z</time>
      </trkpt>
      <trkpt lat="44.49203" lon="5.95775">
        <ele>1383</ele>
        <time>2026-08-13T11:27:57.237Z</time>
      </trkpt>
      <trkpt lat="44.49209" lon="5.95754">
        <ele>1385.2</ele>
        <time>2026-08-13T11:28:19.889Z</time>
      </trkpt>
      <trkpt lat="44.49216" lon="5.95735">
        <ele>1387</ele>
        <time>2026-08-13T11:28:40.190Z</time>
      </trkpt>
      <trkpt lat="44.49223" lon="5.95714">
        <ele>1388.7</ele>
        <time>2026-08-13T11:29:01.302Z</time>
      </trkpt>
      <trkpt lat="44.49228" lon="5.95694">
        <ele>1389.9</ele>
        <time>2026-08-13T11:29:19.497Z</time>
      </trkpt>
      <trkpt lat="44.49231" lon="5.95682">
        <ele>1390.7</ele>
        <time>2026-08-13T11:29:30.652Z</time>
      </trkpt>
      <trkpt lat="44.49238" lon="5.95662">
        <ele>1392.2</ele>
        <time>2026-08-13T11:29:50.502Z</time>
      </trkpt>
      <trkpt lat="44.49244" lon="5.95646">
        <ele>1392.8</ele>
        <time>2026-08-13T11:30:04.927Z</time>
      </trkpt>
      <trkpt lat="44.49248" lon="5.95635">
        <ele>1393.1</ele>
        <time>2026-08-13T11:30:14.538Z</time>
        <extensions>
          <visugpx:TrkExtension xmlns:visugpx="https://www.visugpx.com/editgpx/">
            <visugpx:node>1</visugpx:node>
            </visugpx:TrkExtension>
        </extensions>
      </trkpt>
      <trkpt lat="44.4925" lon="5.95629">
        <ele>1393.2</ele>
        <time>2026-08-13T11:30:19.570Z</time>
      </trkpt>
      <trkpt lat="44.49252" lon="5.95622">
        <ele>1393.1</ele>
        <time>2026-08-13T11:30:24.945Z</time>
      </trkpt>
      <trkpt lat="44.49254" lon="5.95615">
        <ele>1392.9</ele>
        <time>2026-08-13T11:30:30.190Z</time>
      </trkpt>
      <trkpt lat="44.49256" lon="5.95605">
        <ele>1392.2</ele>
        <time>2026-08-13T11:30:37.039Z</time>
      </trkpt>
      <trkpt lat="44.49264" lon="5.95588">
        <ele>1393.8</ele>
        <time>2026-08-13T11:30:55.956Z</time>
      </trkpt>
      <trkpt lat="44.4927" lon="5.95571">
        <ele>1395.8</ele>
        <time>2026-08-13T11:31:15.632Z</time>
      </trkpt>
      <trkpt lat="44.49273" lon="5.95557">
        <ele>1396.5</ele>
        <time>2026-08-13T11:31:27.829Z</time>
      </trkpt>
      <trkpt lat="44.49274" lon="5.95546">
        <ele>1396.7</ele>
        <time>2026-08-13T11:31:36.318Z</time>
      </trkpt>
      <trkpt lat="44.49273" lon="5.95539">
        <ele>1395.9</ele>
        <time>2026-08-13T11:31:40.942Z</time>
      </trkpt>
      <trkpt lat="44.49271" lon="5.95531">
        <ele>1394.7</ele>
        <time>2026-08-13T11:31:46.513Z</time>
      </trkpt>
      <trkpt lat="44.49269" lon="5.95527">
        <ele>1393.6</ele>
        <time>2026-08-13T11:31:50.439Z</time>
      </trkpt>
      <trkpt lat="44.49267" lon="5.95519">
        <ele>1393</ele>
        <time>2026-08-13T11:31:56.013Z</time>
      </trkpt>
      <trkpt lat="44.49266" lon="5.95507">
        <ele>1393.1</ele>
        <time>2026-08-13T11:32:05.040Z</time>
      </trkpt>
      <trkpt lat="44.49267" lon="5.95494">
        <ele>1394</ele>
        <time>2026-08-13T11:32:16.754Z</time>
      </trkpt>
      <trkpt lat="44.49268" lon="5.95485">
        <ele>1394.4</ele>
        <time>2026-08-13T11:32:24.260Z</time>
      </trkpt>
      <trkpt lat="44.49269" lon="5.9548">
        <ele>1394.9</ele>
        <time>2026-08-13T11:32:29.439Z</time>
      </trkpt>
      <trkpt lat="44.49273" lon="5.95473">
        <ele>1396.8</ele>
        <time>2026-08-13T11:32:46.449Z</time>
      </trkpt>
      <trkpt lat="44.49277" lon="5.95466">
        <ele>1398.6</ele>
        <time>2026-08-13T11:33:02.215Z</time>
      </trkpt>
      <trkpt lat="44.49278" lon="5.9546">
        <ele>1399.1</ele>
        <time>2026-08-13T11:33:07.995Z</time>
      </trkpt>
      <trkpt lat="44.4928" lon="5.95451">
        <ele>1400.1</ele>
        <time>2026-08-13T11:33:17.802Z</time>
      </trkpt>
      <trkpt lat="44.4928" lon="5.95438">
        <ele>1400.6</ele>
        <time>2026-08-13T11:33:28.338Z</time>
      </trkpt>
      <trkpt lat="44.49278" lon="5.95424">
        <ele>1400.6</ele>
        <time>2026-08-13T11:33:38.804Z</time>
      </trkpt>
      <trkpt lat="44.49277" lon="5.95411">
        <ele>1400.6</ele>
        <time>2026-08-13T11:33:48.388Z</time>
      </trkpt>
      <trkpt lat="44.49277" lon="5.95402">
        <ele>1400.6</ele>
        <time>2026-08-13T11:33:54.985Z</time>
      </trkpt>
      <trkpt lat="44.49278" lon="5.9539">
        <ele>1401.1</ele>
        <time>2026-08-13T11:34:04.863Z</time>
      </trkpt>
      <trkpt lat="44.49282" lon="5.95376">
        <ele>1402.9</ele>
        <time>2026-08-13T11:34:21.534Z</time>
      </trkpt>
      <trkpt lat="44.49286" lon="5.9536">
        <ele>1404.5</ele>
        <time>2026-08-13T11:34:38.307Z</time>
      </trkpt>
      <trkpt lat="44.49289" lon="5.95349">
        <ele>1405.4</ele>
        <time>2026-08-13T11:34:49.157Z</time>
      </trkpt>
      <trkpt lat="44.4929" lon="5.9534">
        <ele>1405.5</ele>
        <time>2026-08-13T11:34:56.008Z</time>
      </trkpt>
      <trkpt lat="44.49292" lon="5.95327">
        <ele>1406</ele>
        <time>2026-08-13T11:35:06.758Z</time>
      </trkpt>
      <trkpt lat="44.49293" lon="5.95315">
        <ele>1406.2</ele>
        <time>2026-08-13T11:35:15.972Z</time>
      </trkpt>
      <trkpt lat="44.49294" lon="5.95302">
        <ele>1406.6</ele>
        <time>2026-08-13T11:35:26.329Z</time>
      </trkpt>
      <trkpt lat="44.49294" lon="5.95291">
        <ele>1407</ele>
        <time>2026-08-13T11:35:35.188Z</time>
      </trkpt>
      <trkpt lat="44.49294" lon="5.95278">
        <ele>1407.6</ele>
        <time>2026-08-13T11:35:45.976Z</time>
      </trkpt>
      <trkpt lat="44.49293" lon="5.95267">
        <ele>1407.7</ele>
        <time>2026-08-13T11:35:54.276Z</time>
      </trkpt>
      <trkpt lat="44.49291" lon="5.95256">
        <ele>1407.4</ele>
        <time>2026-08-13T11:36:02.173Z</time>
      </trkpt>
      <trkpt lat="44.49289" lon="5.95246">
        <ele>1407.1</ele>
        <time>2026-08-13T11:36:09.369Z</time>
      </trkpt>
      <trkpt lat="44.49289" lon="5.95239">
        <ele>1407.6</ele>
        <time>2026-08-13T11:36:15.700Z</time>
      </trkpt>
      <trkpt lat="44.49288" lon="5.9523">
        <ele>1407.9</ele>
        <time>2026-08-13T11:36:22.963Z</time>
      </trkpt>
      <trkpt lat="44.49289" lon="5.95223">
        <ele>1408.8</ele>
        <time>2026-08-13T11:36:31.113Z</time>
      </trkpt>
      <trkpt lat="44.4929" lon="5.95215">
        <ele>1409.9</ele>
        <time>2026-08-13T11:36:40.829Z</time>
      </trkpt>
      <trkpt lat="44.4929" lon="5.95209">
        <ele>1410.4</ele>
        <time>2026-08-13T11:36:46.506Z</time>
      </trkpt>
      <trkpt lat="44.4929" lon="5.95204">
        <ele>1410.9</ele>
        <time>2026-08-13T11:36:51.571Z</time>
      </trkpt>
      <trkpt lat="44.49289" lon="5.95198">
        <ele>1410.9</ele>
        <time>2026-08-13T11:36:56.088Z</time>
      </trkpt>
      <trkpt lat="44.49283" lon="5.95182">
        <ele>1410.2</ele>
        <time>2026-08-13T11:37:08.419Z</time>
      </trkpt>
      <trkpt lat="44.49275" lon="5.95159">
        <ele>1410.5</ele>
        <time>2026-08-13T11:37:27.699Z</time>
      </trkpt>
      <trkpt lat="44.49267" lon="5.95135">
        <ele>1412.3</ele>
        <time>2026-08-13T11:37:51.356Z</time>
      </trkpt>
      <trkpt lat="44.49258" lon="5.95111">
        <ele>1413.8</ele>
        <time>2026-08-13T11:38:14.534Z</time>
      </trkpt>
      <trkpt lat="44.4925" lon="5.9509">
        <ele>1413.8</ele>
        <time>2026-08-13T11:38:31.985Z</time>
      </trkpt>
      <trkpt lat="44.49241" lon="5.95067">
        <ele>1413.5</ele>
        <time>2026-08-13T11:38:50.753Z</time>
      </trkpt>
      <trkpt lat="44.49235" lon="5.9505">
        <ele>1413.1</ele>
        <time>2026-08-13T11:39:04.074Z</time>
      </trkpt>
      <trkpt lat="44.4923" lon="5.95035">
        <ele>1412.6</ele>
        <time>2026-08-13T11:39:15.520Z</time>
      </trkpt>
      <trkpt lat="44.49228" lon="5.95025">
        <ele>1413</ele>
        <time>2026-08-13T11:39:23.938Z</time>
      </trkpt>
      <trkpt lat="44.49227" lon="5.9502">
        <ele>1413.5</ele>
        <time>2026-08-13T11:39:29.117Z</time>
      </trkpt>
      <trkpt lat="44.49232" lon="5.9502">
        <ele>1415.7</ele>
        <time>2026-08-13T11:39:56.573Z</time>
      </trkpt>
      <trkpt lat="44.49236" lon="5.95022">
        <ele>1417.1</ele>
        <time>2026-08-13T11:40:09.919Z</time>
      </trkpt>
      <trkpt lat="44.49238" lon="5.95025">
        <ele>1417.4</ele>
        <time>2026-08-13T11:40:13.655Z</time>
      </trkpt>
      <trkpt lat="44.49245" lon="5.9504">
        <ele>1418.5</ele>
        <time>2026-08-13T11:40:29.295Z</time>
      </trkpt>
      <trkpt lat="44.49248" lon="5.9505">
        <ele>1418.7</ele>
        <time>2026-08-13T11:40:37.609Z</time>
      </trkpt>
      <trkpt lat="44.49252" lon="5.9506">
        <ele>1419.5</ele>
        <time>2026-08-13T11:40:47.916Z</time>
      </trkpt>
      <trkpt lat="44.49258" lon="5.95068">
        <ele>1421.7</ele>
        <time>2026-08-13T11:41:06.879Z</time>
      </trkpt>
      <trkpt lat="44.49265" lon="5.95078">
        <ele>1424</ele>
        <time>2026-08-13T11:41:26.480Z</time>
      </trkpt>
      <trkpt lat="44.49274" lon="5.95093">
        <ele>1425.6</ele>
        <time>2026-08-13T11:41:44.903Z</time>
      </trkpt>
      <trkpt lat="44.49282" lon="5.95106">
        <ele>1426.4</ele>
        <time>2026-08-13T11:41:59.170Z</time>
      </trkpt>
      <trkpt lat="44.49287" lon="5.95113">
        <ele>1427.1</ele>
        <time>2026-08-13T11:42:08.104Z</time>
      </trkpt>
      <trkpt lat="44.4929" lon="5.95117">
        <ele>1427.6</ele>
        <time>2026-08-13T11:42:13.657Z</time>
      </trkpt>
      <trkpt lat="44.49297" lon="5.95122">
        <ele>1429.7</ele>
        <time>2026-08-13T11:42:31.783Z</time>
      </trkpt>
      <trkpt lat="44.49304" lon="5.95129">
        <ele>1431.1</ele>
        <time>2026-08-13T11:42:44.908Z</time>
      </trkpt>
      <trkpt lat="44.49312" lon="5.95138">
        <ele>1432</ele>
        <time>2026-08-13T11:42:57.508Z</time>
      </trkpt>
      <trkpt lat="44.49319" lon="5.95147">
        <ele>1432.9</ele>
        <time>2026-08-13T11:43:09.384Z</time>
      </trkpt>
      <trkpt lat="44.49324" lon="5.95158">
        <ele>1432.6</ele>
        <time>2026-08-13T11:43:18.513Z</time>
      </trkpt>
      <trkpt lat="44.49327" lon="5.95164">
        <ele>1432.6</ele>
        <time>2026-08-13T11:43:23.884Z</time>
      </trkpt>
      <trkpt lat="44.49331" lon="5.95178">
        <ele>1432.7</ele>
        <time>2026-08-13T11:43:35.108Z</time>
      </trkpt>
      <trkpt lat="44.49337" lon="5.95191">
        <ele>1434.2</ele>
        <time>2026-08-13T11:43:50.588Z</time>
      </trkpt>
      <trkpt lat="44.4934" lon="5.95202">
        <ele>1434.5</ele>
        <time>2026-08-13T11:43:59.784Z</time>
      </trkpt>
      <trkpt lat="44.49343" lon="5.95214">
        <ele>1434.8</ele>
        <time>2026-08-13T11:44:09.663Z</time>
      </trkpt>
      <trkpt lat="44.49348" lon="5.95229">
        <ele>1435.8</ele>
        <time>2026-08-13T11:44:24.061Z</time>
      </trkpt>
      <trkpt lat="44.49349" lon="5.95233">
        <ele>1435.9</ele>
        <time>2026-08-13T11:44:27.354Z</time>
      </trkpt>
      <trkpt lat="44.49354" lon="5.95246">
        <ele>1437.1</ele>
        <time>2026-08-13T11:44:41.215Z</time>
      </trkpt>
      <trkpt lat="44.49359" lon="5.95264">
        <ele>1437.1</ele>
        <time>2026-08-13T11:44:55.374Z</time>
      </trkpt>
      <trkpt lat="44.49364" lon="5.95287">
        <ele>1437.6</ele>
        <time>2026-08-13T11:45:13.914Z</time>
      </trkpt>
      <trkpt lat="44.49368" lon="5.9531">
        <ele>1440</ele>
        <time>2026-08-13T11:45:38.041Z</time>
      </trkpt>
      <trkpt lat="44.49371" lon="5.95332">
        <ele>1443.2</ele>
        <time>2026-08-13T11:46:05.890Z</time>
      </trkpt>
      <trkpt lat="44.49372" lon="5.95351">
        <ele>1443.6</ele>
        <time>2026-08-13T11:46:20.588Z</time>
      </trkpt>
      <trkpt lat="44.49372" lon="5.9536">
        <ele>1443.5</ele>
        <time>2026-08-13T11:46:27.031Z</time>
      </trkpt>
      <trkpt lat="44.49371" lon="5.95368">
        <ele>1443.2</ele>
        <time>2026-08-13T11:46:32.586Z</time>
      </trkpt>
      <trkpt lat="44.4937" lon="5.95377">
        <ele>1443.1</ele>
        <time>2026-08-13T11:46:39.109Z</time>
      </trkpt>
      <trkpt lat="44.49368" lon="5.95386">
        <ele>1442.4</ele>
        <time>2026-08-13T11:46:45.290Z</time>
      </trkpt>
      <trkpt lat="44.49368" lon="5.95394">
        <ele>1442.7</ele>
        <time>2026-08-13T11:46:51.755Z</time>
      </trkpt>
      <trkpt lat="44.49368" lon="5.95401">
        <ele>1442.9</ele>
        <time>2026-08-13T11:46:57.268Z</time>
      </trkpt>
      <trkpt lat="44.49369" lon="5.95408">
        <ele>1443.7</ele>
        <time>2026-08-13T11:47:04.896Z</time>
      </trkpt>
      <trkpt lat="44.49371" lon="5.95416">
        <ele>1445</ele>
        <time>2026-08-13T11:47:16.051Z</time>
      </trkpt>
      <trkpt lat="44.49372" lon="5.95425">
        <ele>1445.8</ele>
        <time>2026-08-13T11:47:24.825Z</time>
      </trkpt>
      <trkpt lat="44.49372" lon="5.95435">
        <ele>1446.1</ele>
        <time>2026-08-13T11:47:32.732Z</time>
      </trkpt>
      <trkpt lat="44.49371" lon="5.95454">
        <ele>1446.1</ele>
        <time>2026-08-13T11:47:46.697Z</time>
      </trkpt>
      <trkpt lat="44.49372" lon="5.95478">
        <ele>1446.7</ele>
        <time>2026-08-13T11:48:05.443Z</time>
      </trkpt>
      <trkpt lat="44.49374" lon="5.95492">
        <ele>1447.2</ele>
        <time>2026-08-13T11:48:16.897Z</time>
      </trkpt>
      <trkpt lat="44.49375" lon="5.95505">
        <ele>1447.6</ele>
        <time>2026-08-13T11:48:27.253Z</time>
      </trkpt>
      <trkpt lat="44.49378" lon="5.95515">
        <ele>1449.4</ele>
        <time>2026-08-13T11:48:42.587Z</time>
        <extensions>
          <visugpx:TrkExtension xmlns:visugpx="https://www.visugpx.com/editgpx/">
            <visugpx:node>2</visugpx:node>
            </visugpx:TrkExtension>
        </extensions>
      </trkpt>
      <trkpt lat="44.49379" lon="5.95519">
        <ele>1450.1</ele>
        <time>2026-08-13T11:48:48.551Z</time>
      </trkpt>
      <trkpt lat="44.4938" lon="5.95525">
        <ele>1450.8</ele>
        <time>2026-08-13T11:48:55.182Z</time>
      </trkpt>
      <trkpt lat="44.49381" lon="5.95532">
        <ele>1451.7</ele>
        <time>2026-08-13T11:49:03.332Z</time>
      </trkpt>
      <trkpt lat="44.49381" lon="5.95538">
        <ele>1451.9</ele>
        <time>2026-08-13T11:49:08.122Z</time>
      </trkpt>
      <trkpt lat="44.49379" lon="5.95544">
        <ele>1451.1</ele>
        <time>2026-08-13T11:49:12.419Z</time>
      </trkpt>
      <trkpt lat="44.49376" lon="5.95549">
        <ele>1449.7</ele>
        <time>2026-08-13T11:49:17.443Z</time>
      </trkpt>
      <trkpt lat="44.49372" lon="5.95555">
        <ele>1447.8</ele>
        <time>2026-08-13T11:49:24.234Z</time>
      </trkpt>
      <trkpt lat="44.49371" lon="5.95562">
        <ele>1448</ele>
        <time>2026-08-13T11:49:29.848Z</time>
      </trkpt>
      <trkpt lat="44.49371" lon="5.95568">
        <ele>1448.7</ele>
        <time>2026-08-13T11:49:36.397Z</time>
      </trkpt>
      <trkpt lat="44.49371" lon="5.95577">
        <ele>1449.7</ele>
        <time>2026-08-13T11:49:45.973Z</time>
      </trkpt>
      <trkpt lat="44.4937" lon="5.95588">
        <ele>1450.6</ele>
        <time>2026-08-13T11:49:56.376Z</time>
      </trkpt>
      <trkpt lat="44.49368" lon="5.95602">
        <ele>1452.1</ele>
        <time>2026-08-13T11:50:11.163Z</time>
      </trkpt>
      <trkpt lat="44.49365" lon="5.95618">
        <ele>1453.6</ele>
        <time>2026-08-13T11:50:27.282Z</time>
      </trkpt>
      <trkpt lat="44.49359" lon="5.95639">
        <ele>1454.9</ele>
        <time>2026-08-13T11:50:46.759Z</time>
      </trkpt>
      <trkpt lat="44.49353" lon="5.95657">
        <ele>1456.8</ele>
        <time>2026-08-13T11:51:06.519Z</time>
      </trkpt>
      <trkpt lat="44.49348" lon="5.95674">
        <ele>1458.6</ele>
        <time>2026-08-13T11:51:24.981Z</time>
      </trkpt>
      <trkpt lat="44.49342" lon="5.95685">
        <ele>1458.1</ele>
        <time>2026-08-13T11:51:34.465Z</time>
      </trkpt>
      <trkpt lat="44.49335" lon="5.95698">
        <ele>1457.3</ele>
        <time>2026-08-13T11:51:45.419Z</time>
      </trkpt>
      <trkpt lat="44.49329" lon="5.95713">
        <ele>1456.4</ele>
        <time>2026-08-13T11:51:56.939Z</time>
      </trkpt>
      <trkpt lat="44.49327" lon="5.9572">
        <ele>1456.5</ele>
        <time>2026-08-13T11:52:02.642Z</time>
      </trkpt>
      <trkpt lat="44.49326" lon="5.95727">
        <ele>1456.3</ele>
        <time>2026-08-13T11:52:07.595Z</time>
      </trkpt>
      <trkpt lat="44.49327" lon="5.95735">
        <ele>1456.8</ele>
        <time>2026-08-13T11:52:14.687Z</time>
      </trkpt>
      <trkpt lat="44.4933" lon="5.95745">
        <ele>1458.3</ele>
        <time>2026-08-13T11:52:27.855Z</time>
      </trkpt>
      <trkpt lat="44.49334" lon="5.95754">
        <ele>1459.7</ele>
        <time>2026-08-13T11:52:40.323Z</time>
      </trkpt>
      <trkpt lat="44.49339" lon="5.95766">
        <ele>1460.3</ele>
        <time>2026-08-13T11:52:51.748Z</time>
      </trkpt>
      <trkpt lat="44.49345" lon="5.95785">
        <ele>1460.3</ele>
        <time>2026-08-13T11:53:06.978Z</time>
      </trkpt>
      <trkpt lat="44.49353" lon="5.95804">
        <ele>1461.2</ele>
        <time>2026-08-13T11:53:24.985Z</time>
      </trkpt>
      <trkpt lat="44.49359" lon="5.9582">
        <ele>1461.9</ele>
        <time>2026-08-13T11:53:39.646Z</time>
      </trkpt>
      <trkpt lat="44.49377" lon="5.95865">
        <ele>1464.7</ele>
        <time>2026-08-13T11:54:23.594Z</time>
      </trkpt>
      <trkpt lat="44.49385" lon="5.95884">
        <ele>1465</ele>
        <time>2026-08-13T11:54:40.295Z</time>
      </trkpt>
      <trkpt lat="44.4939" lon="5.95903">
        <ele>1466.1</ele>
        <time>2026-08-13T11:54:57.549Z</time>
      </trkpt>
      <trkpt lat="44.49392" lon="5.95912">
        <ele>1466.9</ele>
        <time>2026-08-13T11:55:06.522Z</time>
      </trkpt>
      <trkpt lat="44.49393" lon="5.95919">
        <ele>1467.1</ele>
        <time>2026-08-13T11:55:12.136Z</time>
      </trkpt>
      <trkpt lat="44.49393" lon="5.95928">
        <ele>1466.8</ele>
        <time>2026-08-13T11:55:18.326Z</time>
      </trkpt>
      <trkpt lat="44.49392" lon="5.95939">
        <ele>1465.9</ele>
        <time>2026-08-13T11:55:25.563Z</time>
      </trkpt>
      <trkpt lat="44.49391" lon="5.95953">
        <ele>1465.1</ele>
        <time>2026-08-13T11:55:34.939Z</time>
      </trkpt>
      <trkpt lat="44.49391" lon="5.95965">
        <ele>1465.1</ele>
        <time>2026-08-13T11:55:43.735Z</time>
      </trkpt>
      <trkpt lat="44.49391" lon="5.95977">
        <ele>1464.8</ele>
        <time>2026-08-13T11:55:52.104Z</time>
      </trkpt>
      <trkpt lat="44.49391" lon="5.95986">
        <ele>1464.2</ele>
        <time>2026-08-13T11:55:58.043Z</time>
      </trkpt>
      <trkpt lat="44.49393" lon="5.95991">
        <ele>1465</ele>
        <time>2026-08-13T11:56:05.047Z</time>
      </trkpt>
      <trkpt lat="44.49394" lon="5.96">
        <ele>1464.9</ele>
        <time>2026-08-13T11:56:11.570Z</time>
      </trkpt>
      <trkpt lat="44.49395" lon="5.96014">
        <ele>1464.9</ele>
        <time>2026-08-13T11:56:21.883Z</time>
      </trkpt>
      <trkpt lat="44.49397" lon="5.96027">
        <ele>1465.4</ele>
        <time>2026-08-13T11:56:32.633Z</time>
      </trkpt>
      <trkpt lat="44.49399" lon="5.96036">
        <ele>1465.7</ele>
        <time>2026-08-13T11:56:40.126Z</time>
      </trkpt>
      <trkpt lat="44.49403" lon="5.96044">
        <ele>1467.2</ele>
        <time>2026-08-13T11:56:52.994Z</time>
      </trkpt>
      <trkpt lat="44.49406" lon="5.96056">
        <ele>1467.8</ele>
        <time>2026-08-13T11:57:03.580Z</time>
      </trkpt>
      <trkpt lat="44.49409" lon="5.96071">
        <ele>1468.1</ele>
        <time>2026-08-13T11:57:15.544Z</time>
      </trkpt>
      <trkpt lat="44.4941" lon="5.96082">
        <ele>1467.5</ele>
        <time>2026-08-13T11:57:22.956Z</time>
      </trkpt>
      <trkpt lat="44.49412" lon="5.96091">
        <ele>1466.2</ele>
        <time>2026-08-13T11:57:29.132Z</time>
      </trkpt>
      <trkpt lat="44.49418" lon="5.96106">
        <ele>1464</ele>
        <time>2026-08-13T11:57:40.326Z</time>
      </trkpt>
      <trkpt lat="44.49419" lon="5.96109">
        <ele>1463.3</ele>
        <time>2026-08-13T11:57:42.846Z</time>
      </trkpt>
      <trkpt lat="44.49422" lon="5.96111">
        <ele>1463.4</ele>
        <time>2026-08-13T11:57:46.443Z</time>
      </trkpt>
      <trkpt lat="44.49427" lon="5.96112">
        <ele>1464.2</ele>
        <time>2026-08-13T11:57:54.041Z</time>
      </trkpt>
      <trkpt lat="44.49434" lon="5.96113">
        <ele>1465.6</ele>
        <time>2026-08-13T11:58:06.245Z</time>
      </trkpt>
      <trkpt lat="44.49446" lon="5.96115">
        <ele>1467.6</ele>
        <time>2026-08-13T11:58:24.857Z</time>
      </trkpt>
      <trkpt lat="44.49453" lon="5.96117">
        <ele>1468.4</ele>
        <time>2026-08-13T11:58:34.207Z</time>
      </trkpt>
      <trkpt lat="44.49461" lon="5.96121">
        <ele>1468.5</ele>
        <time>2026-08-13T11:58:43.106Z</time>
      </trkpt>
      <trkpt lat="44.49468" lon="5.96126">
        <ele>1468</ele>
        <time>2026-08-13T11:58:50.549Z</time>
      </trkpt>
      <trkpt lat="44.49476" lon="5.96134">
        <ele>1466.2</ele>
        <time>2026-08-13T11:58:59.529Z</time>
      </trkpt>
      <trkpt lat="44.4948" lon="5.96139">
        <ele>1464.9</ele>
        <time>2026-08-13T11:59:04.686Z</time>
      </trkpt>
      <trkpt lat="44.49485" lon="5.96143">
        <ele>1464.6</ele>
        <time>2026-08-13T11:59:10.204Z</time>
      </trkpt>
      <trkpt lat="44.49489" lon="5.96146">
        <ele>1464.4</ele>
        <time>2026-08-13T11:59:14.591Z</time>
      </trkpt>
      <trkpt lat="44.49499" lon="5.9615">
        <ele>1465.3</ele>
        <time>2026-08-13T11:59:27.327Z</time>
      </trkpt>
      <trkpt lat="44.49502" lon="5.96151">
        <ele>1465.6</ele>
        <time>2026-08-13T11:59:31.208Z</time>
      </trkpt>
      <trkpt lat="44.49509" lon="5.96153">
        <ele>1466.2</ele>
        <time>2026-08-13T11:59:39.903Z</time>
      </trkpt>
      <trkpt lat="44.49522" lon="5.96156">
        <ele>1467.5</ele>
        <time>2026-08-13T11:59:56.543Z</time>
      </trkpt>
      <trkpt lat="44.49528" lon="5.96157">
        <ele>1468.2</ele>
        <time>2026-08-13T12:00:04.536Z</time>
      </trkpt>
      <trkpt lat="44.49534" lon="5.9616">
        <ele>1468.4</ele>
        <time>2026-08-13T12:00:11.451Z</time>
      </trkpt>
      <trkpt lat="44.4954" lon="5.96165">
        <ele>1467.8</ele>
        <time>2026-08-13T12:00:17.941Z</time>
      </trkpt>
      <trkpt lat="44.49545" lon="5.9617">
        <ele>1467</ele>
        <time>2026-08-13T12:00:23.530Z</time>
      </trkpt>
      <trkpt lat="44.49553" lon="5.96177">
        <ele>1466.3</ele>
        <time>2026-08-13T12:00:32.379Z</time>
      </trkpt>
      <trkpt lat="44.49561" lon="5.96182">
        <ele>1466.6</ele>
        <time>2026-08-13T12:00:41.940Z</time>
      </trkpt>
      <trkpt lat="44.49569" lon="5.96188">
        <ele>1466.5</ele>
        <time>2026-08-13T12:00:51.106Z</time>
      </trkpt>
      <trkpt lat="44.49578" lon="5.96194">
        <ele>1466.7</ele>
        <time>2026-08-13T12:01:01.700Z</time>
      </trkpt>
      <trkpt lat="44.49586" lon="5.96201">
        <ele>1466</ele>
        <time>2026-08-13T12:01:10.550Z</time>
      </trkpt>
      <trkpt lat="44.49598" lon="5.9621">
        <ele>1464.9</ele>
        <time>2026-08-13T12:01:23.252Z</time>
      </trkpt>
      <trkpt lat="44.4961" lon="5.96215">
        <ele>1465.2</ele>
        <time>2026-08-13T12:01:36.655Z</time>
      </trkpt>
      <trkpt lat="44.49615" lon="5.96216">
        <ele>1466.1</ele>
        <time>2026-08-13T12:01:44.779Z</time>
      </trkpt>
      <trkpt lat="44.4962" lon="5.96219">
        <ele>1466.3</ele>
        <time>2026-08-13T12:01:50.745Z</time>
      </trkpt>
      <trkpt lat="44.49626" lon="5.96225">
        <ele>1465.8</ele>
        <time>2026-08-13T12:01:57.700Z</time>
      </trkpt>
      <trkpt lat="44.49635" lon="5.96233">
        <ele>1465.9</ele>
        <time>2026-08-13T12:02:08.820Z</time>
      </trkpt>
      <trkpt lat="44.49642" lon="5.96242">
        <ele>1465</ele>
        <time>2026-08-13T12:02:17.599Z</time>
      </trkpt>
      <trkpt lat="44.49654" lon="5.96249">
        <ele>1466.3</ele>
        <time>2026-08-13T12:02:34.072Z</time>
      </trkpt>
      <trkpt lat="44.49666" lon="5.96254">
        <ele>1468.5</ele>
        <time>2026-08-13T12:02:54.038Z</time>
      </trkpt>
      <trkpt lat="44.49674" lon="5.96258">
        <ele>1469.4</ele>
        <time>2026-08-13T12:03:04.974Z</time>
      </trkpt>
      <trkpt lat="44.4968" lon="5.96261">
        <ele>1470.1</ele>
        <time>2026-08-13T12:03:13.263Z</time>
      </trkpt>
      <trkpt lat="44.49684" lon="5.96265">
        <ele>1469.8</ele>
        <time>2026-08-13T12:03:17.930Z</time>
      </trkpt>
      <trkpt lat="44.49688" lon="5.9627">
        <ele>1469.1</ele>
        <time>2026-08-13T12:03:22.806Z</time>
      </trkpt>
      <trkpt lat="44.49693" lon="5.96282">
        <ele>1466.4</ele>
        <time>2026-08-13T12:03:32.824Z</time>
      </trkpt>
      <trkpt lat="44.49696" lon="5.96291">
        <ele>1464.6</ele>
        <time>2026-08-13T12:03:39.757Z</time>
      </trkpt>
      <trkpt lat="44.49702" lon="5.96298">
        <ele>1464.4</ele>
        <time>2026-08-13T12:03:47.482Z</time>
      </trkpt>
      <trkpt lat="44.49708" lon="5.96304">
        <ele>1464.4</ele>
        <time>2026-08-13T12:03:55.055Z</time>
      </trkpt>
      <trkpt lat="44.49716" lon="5.96308">
        <ele>1465.4</ele>
        <time>2026-08-13T12:04:06.350Z</time>
      </trkpt>
      <trkpt lat="44.49726" lon="5.96313">
        <ele>1466.7</ele>
        <time>2026-08-13T12:04:20.658Z</time>
      </trkpt>
      <trkpt lat="44.49731" lon="5.96317">
        <ele>1467.1</ele>
        <time>2026-08-13T12:04:27.428Z</time>
      </trkpt>
      <trkpt lat="44.49734" lon="5.9632">
        <ele>1467.2</ele>
        <time>2026-08-13T12:04:31.396Z</time>
      </trkpt>
      <trkpt lat="44.49739" lon="5.96324">
        <ele>1467.7</ele>
        <time>2026-08-13T12:04:38.452Z</time>
      </trkpt>
      <trkpt lat="44.49745" lon="5.96332">
        <ele>1467.6</ele>
        <time>2026-08-13T12:04:46.804Z</time>
      </trkpt>
      <trkpt lat="44.49754" lon="5.96344">
        <ele>1467.5</ele>
        <time>2026-08-13T12:04:59.408Z</time>
      </trkpt>
      <trkpt lat="44.49761" lon="5.96358">
        <ele>1466.3</ele>
        <time>2026-08-13T12:05:10.654Z</time>
      </trkpt>
      <trkpt lat="44.49768" lon="5.96371">
        <ele>1465.4</ele>
        <time>2026-08-13T12:05:21.527Z</time>
      </trkpt>
      <trkpt lat="44.49774" lon="5.96386">
        <ele>1463.5</ele>
        <time>2026-08-13T12:05:32.663Z</time>
      </trkpt>
      <trkpt lat="44.49779" lon="5.96397">
        <ele>1462.4</ele>
        <time>2026-08-13T12:05:41.161Z</time>
      </trkpt>
      <trkpt lat="44.49784" lon="5.96411">
        <ele>1460.7</ele>
        <time>2026-08-13T12:05:51.299Z</time>
      </trkpt>
      <trkpt lat="44.49788" lon="5.96424">
        <ele>1458.8</ele>
        <time>2026-08-13T12:06:00.548Z</time>
      </trkpt>
      <trkpt lat="44.49794" lon="5.9644">
        <ele>1457</ele>
        <time>2026-08-13T12:06:12.261Z</time>
      </trkpt>
      <trkpt lat="44.49798" lon="5.96451">
        <ele>1455.7</ele>
        <time>2026-08-13T12:06:20.256Z</time>
      </trkpt>
      <trkpt lat="44.49802" lon="5.96461">
        <ele>1454.6</ele>
        <time>2026-08-13T12:06:27.690Z</time>
      </trkpt>
      <trkpt lat="44.49808" lon="5.96469">
        <ele>1454.9</ele>
        <time>2026-08-13T12:06:36.763Z</time>
      </trkpt>
      <trkpt lat="44.49813" lon="5.96478">
        <ele>1454.8</ele>
        <time>2026-08-13T12:06:44.969Z</time>
      </trkpt>
      <trkpt lat="44.49818" lon="5.96487">
        <ele>1454.7</ele>
        <time>2026-08-13T12:06:53.174Z</time>
      </trkpt>
      <trkpt lat="44.49821" lon="5.96497">
        <ele>1453.4</ele>
        <time>2026-08-13T12:07:00.211Z</time>
      </trkpt>
      <trkpt lat="44.49826" lon="5.96507">
        <ele>1452.6</ele>
        <time>2026-08-13T12:07:08.277Z</time>
      </trkpt>
      <trkpt lat="44.49833" lon="5.96517">
        <ele>1452.4</ele>
        <time>2026-08-13T12:07:18.244Z</time>
      </trkpt>
      <trkpt lat="44.49839" lon="5.96524">
        <ele>1452.9</ele>
        <time>2026-08-13T12:07:27.311Z</time>
      </trkpt>
      <trkpt lat="44.49847" lon="5.96531">
        <ele>1454.1</ele>
        <time>2026-08-13T12:07:40.197Z</time>
      </trkpt>
      <trkpt lat="44.49854" lon="5.96538">
        <ele>1454.4</ele>
        <time>2026-08-13T12:07:49.594Z</time>
      </trkpt>
      <trkpt lat="44.49858" lon="5.96547">
        <ele>1452.4</ele>
        <time>2026-08-13T12:07:57.125Z</time>
      </trkpt>
      <trkpt lat="44.49865" lon="5.96559">
        <ele>1450.9</ele>
        <time>2026-08-13T12:08:07.175Z</time>
      </trkpt>
      <trkpt lat="44.49871" lon="5.96573">
        <ele>1449.5</ele>
        <time>2026-08-13T12:08:17.808Z</time>
      </trkpt>
      <trkpt lat="44.49879" lon="5.96584">
        <ele>1449.5</ele>
        <time>2026-08-13T12:08:29.322Z</time>
      </trkpt>
      <trkpt lat="44.4989" lon="5.966">
        <ele>1448.5</ele>
        <time>2026-08-13T12:08:44.347Z</time>
      </trkpt>
      <trkpt lat="44.49898" lon="5.9661">
        <ele>1448.7</ele>
        <time>2026-08-13T12:08:55.712Z</time>
      </trkpt>
      <trkpt lat="44.49905" lon="5.96622">
        <ele>1448.4</ele>
        <time>2026-08-13T12:09:06.633Z</time>
      </trkpt>
      <trkpt lat="44.49911" lon="5.96633">
        <ele>1448</ele>
        <time>2026-08-13T12:09:16.226Z</time>
      </trkpt>
      <trkpt lat="44.49919" lon="5.96641">
        <ele>1449.6</ele>
        <time>2026-08-13T12:09:31.226Z</time>
      </trkpt>
      <trkpt lat="44.49925" lon="5.96648">
        <ele>1450.8</ele>
        <time>2026-08-13T12:09:42.793Z</time>
      </trkpt>
      <trkpt lat="44.4993" lon="5.96658">
        <ele>1451</ele>
        <time>2026-08-13T12:09:52.102Z</time>
      </trkpt>
      <trkpt lat="44.49933" lon="5.96668">
        <ele>1450.4</ele>
        <time>2026-08-13T12:09:59.343Z</time>
      </trkpt>
      <trkpt lat="44.49934" lon="5.96677">
        <ele>1449.8</ele>
        <time>2026-08-13T12:10:05.357Z</time>
      </trkpt>
      <trkpt lat="44.49936" lon="5.96708">
        <ele>1447.9</ele>
        <time>2026-08-13T12:10:26.004Z</time>
      </trkpt>
      <trkpt lat="44.49943" lon="5.9675">
        <ele>1448</ele>
        <time>2026-08-13T12:10:57.782Z</time>
      </trkpt>
      <trkpt lat="44.4995" lon="5.96781">
        <ele>1447</ele>
        <time>2026-08-13T12:11:20.238Z</time>
      </trkpt>
      <trkpt lat="44.49959" lon="5.96801">
        <ele>1445.6</ele>
        <time>2026-08-13T12:11:35.954Z</time>
      </trkpt>
      <trkpt lat="44.49966" lon="5.9681">
        <ele>1444.9</ele>
        <time>2026-08-13T12:11:44.871Z</time>
      </trkpt>
      <trkpt lat="44.49976" lon="5.96813">
        <ele>1446.2</ele>
        <time>2026-08-13T12:11:58.840Z</time>
      </trkpt>
      <trkpt lat="44.4999" lon="5.96813">
        <ele>1447.5</ele>
        <time>2026-08-13T12:12:16.260Z</time>
      </trkpt>
      <trkpt lat="44.50005" lon="5.96812">
        <ele>1448.9</ele>
        <time>2026-08-13T12:12:34.963Z</time>
      </trkpt>
      <trkpt lat="44.50025" lon="5.96806">
        <ele>1451.8</ele>
        <time>2026-08-13T12:13:04.154Z</time>
      </trkpt>
      <trkpt lat="44.50042" lon="5.968">
        <ele>1455.4</ele>
        <time>2026-08-13T12:13:35.304Z</time>
      </trkpt>
      <trkpt lat="44.50058" lon="5.96796">
        <ele>1458.2</ele>
        <time>2026-08-13T12:14:00.917Z</time>
      </trkpt>
      <trkpt lat="44.50066" lon="5.96795">
        <ele>1459.8</ele>
        <time>2026-08-13T12:14:14.860Z</time>
      </trkpt>
      <trkpt lat="44.50075" lon="5.96798">
        <ele>1459.6</ele>
        <time>2026-08-13T12:14:24.065Z</time>
      </trkpt>
      <trkpt lat="44.50086" lon="5.96802">
        <ele>1459.5</ele>
        <time>2026-08-13T12:14:35.584Z</time>
      </trkpt>
      <trkpt lat="44.50095" lon="5.96805">
        <ele>1460.2</ele>
        <time>2026-08-13T12:14:46.621Z</time>
      </trkpt>
      <trkpt lat="44.50105" lon="5.96813">
        <ele>1459.2</ele>
        <time>2026-08-13T12:14:57.318Z</time>
      </trkpt>
      <trkpt lat="44.50115" lon="5.96822">
        <ele>1457.7</ele>
        <time>2026-08-13T12:15:08.143Z</time>
      </trkpt>
      <trkpt lat="44.5012" lon="5.96824">
        <ele>1458</ele>
        <time>2026-08-13T12:15:14.099Z</time>
      </trkpt>
      <trkpt lat="44.50132" lon="5.96826">
        <ele>1459.7</ele>
        <time>2026-08-13T12:15:31.287Z</time>
      </trkpt>
      <trkpt lat="44.50154" lon="5.96831">
        <ele>1461.7</ele>
        <time>2026-08-13T12:15:58.801Z</time>
      </trkpt>
      <trkpt lat="44.50173" lon="5.96833">
        <ele>1464.3</ele>
        <time>2026-08-13T12:16:25.558Z</time>
      </trkpt>
      <trkpt lat="44.50187" lon="5.96833">
        <ele>1466.8</ele>
        <time>2026-08-13T12:16:48.108Z</time>
      </trkpt>
      <trkpt lat="44.50196" lon="5.96836">
        <ele>1467.4</ele>
        <time>2026-08-13T12:16:58.873Z</time>
      </trkpt>
      <trkpt lat="44.50209" lon="5.96844">
        <ele>1467.4</ele>
        <time>2026-08-13T12:17:13.461Z</time>
      </trkpt>
      <trkpt lat="44.50227" lon="5.96855">
        <ele>1466.9</ele>
        <time>2026-08-13T12:17:32.898Z</time>
      </trkpt>
      <trkpt lat="44.50241" lon="5.96863">
        <ele>1467</ele>
        <time>2026-08-13T12:17:48.601Z</time>
      </trkpt>
      <trkpt lat="44.50253" lon="5.96868">
        <ele>1467.7</ele>
        <time>2026-08-13T12:18:02.885Z</time>
      </trkpt>
      <trkpt lat="44.50277" lon="5.96876">
        <ele>1469.4</ele>
        <time>2026-08-13T12:18:31.857Z</time>
      </trkpt>
      <trkpt lat="44.50298" lon="5.96882">
        <ele>1471.9</ele>
        <time>2026-08-13T12:19:00.270Z</time>
      </trkpt>
      <trkpt lat="44.50308" lon="5.96886">
        <ele>1472.8</ele>
        <time>2026-08-13T12:19:13.006Z</time>
      </trkpt>
      <trkpt lat="44.50317" lon="5.96894">
        <ele>1472.5</ele>
        <time>2026-08-13T12:19:23.517Z</time>
      </trkpt>
      <trkpt lat="44.5032" lon="5.96897">
        <ele>1472.2</ele>
        <time>2026-08-13T12:19:26.955Z</time>
      </trkpt>
      <trkpt lat="44.50326" lon="5.96901">
        <ele>1472.5</ele>
        <time>2026-08-13T12:19:34.366Z</time>
      </trkpt>
      <trkpt lat="44.50338" lon="5.96907">
        <ele>1473.8</ele>
        <time>2026-08-13T12:19:50.599Z</time>
      </trkpt>
      <trkpt lat="44.50345" lon="5.96909">
        <ele>1474.9</ele>
        <time>2026-08-13T12:20:01.194Z</time>
      </trkpt>
      <trkpt lat="44.50361" lon="5.96914">
        <ele>1477.1</ele>
        <time>2026-08-13T12:20:24.058Z</time>
      </trkpt>
      <trkpt lat="44.50381" lon="5.9692">
        <ele>1478.3</ele>
        <time>2026-08-13T12:20:47.535Z</time>
      </trkpt>
      <trkpt lat="44.50399" lon="5.96925">
        <ele>1478.1</ele>
        <time>2026-08-13T12:21:06.077Z</time>
      </trkpt>
      <trkpt lat="44.50414" lon="5.96928">
        <ele>1477.4</ele>
        <time>2026-08-13T12:21:20.696Z</time>
      </trkpt>
      <trkpt lat="44.50424" lon="5.96927">
        <ele>1477.4</ele>
        <time>2026-08-13T12:21:30.997Z</time>
      </trkpt>
      <trkpt lat="44.50435" lon="5.96922">
        <ele>1479</ele>
        <time>2026-08-13T12:21:47.330Z</time>
      </trkpt>
      <trkpt lat="44.50444" lon="5.96913">
        <ele>1482.7</ele>
        <time>2026-08-13T12:22:23.006Z</time>
      </trkpt>
      <trkpt lat="44.50453" lon="5.96907">
        <ele>1485</ele>
        <time>2026-08-13T12:22:42.605Z</time>
      </trkpt>
      <trkpt lat="44.50462" lon="5.96905">
        <ele>1485.5</ele>
        <time>2026-08-13T12:22:52.979Z</time>
      </trkpt>
      <trkpt lat="44.50474" lon="5.96907">
        <ele>1483.8</ele>
        <time>2026-08-13T12:23:03.955Z</time>
      </trkpt>
      <trkpt lat="44.50483" lon="5.96907">
        <ele>1483.4</ele>
        <time>2026-08-13T12:23:12.655Z</time>
      </trkpt>
      <trkpt lat="44.50494" lon="5.96905">
        <ele>1484</ele>
        <time>2026-08-13T12:23:25.262Z</time>
      </trkpt>
      <trkpt lat="44.50505" lon="5.96906">
        <ele>1483.1</ele>
        <time>2026-08-13T12:23:35.544Z</time>
      </trkpt>
      <trkpt lat="44.50514" lon="5.96906">
        <ele>1483</ele>
        <time>2026-08-13T12:23:44.636Z</time>
      </trkpt>
      <trkpt lat="44.50527" lon="5.969">
        <ele>1486</ele>
        <time>2026-08-13T12:24:10.309Z</time>
      </trkpt>
      <trkpt lat="44.50537" lon="5.96895">
        <ele>1489.3</ele>
        <time>2026-08-13T12:24:40.572Z</time>
      </trkpt>
      <trkpt lat="44.50546" lon="5.96892">
        <ele>1491.3</ele>
        <time>2026-08-13T12:24:57.719Z</time>
      </trkpt>
      <trkpt lat="44.50551" lon="5.96892">
        <ele>1491.5</ele>
        <time>2026-08-13T12:25:03.239Z</time>
      </trkpt>
      <trkpt lat="44.50555" lon="5.96896">
        <ele>1490.1</ele>
        <time>2026-08-13T12:25:08.337Z</time>
      </trkpt>
      <trkpt lat="44.50561" lon="5.96907">
        <ele>1487.8</ele>
        <time>2026-08-13T12:25:17.723Z</time>
      </trkpt>
      <trkpt lat="44.50568" lon="5.96917">
        <ele>1486.8</ele>
        <time>2026-08-13T12:25:26.930Z</time>
      </trkpt>
      <trkpt lat="44.50575" lon="5.96923">
        <ele>1487.8</ele>
        <time>2026-08-13T12:25:37.969Z</time>
      </trkpt>
      <trkpt lat="44.50581" lon="5.96933">
        <ele>1487.3</ele>
        <time>2026-08-13T12:25:46.888Z</time>
      </trkpt>
      <trkpt lat="44.50588" lon="5.96942">
        <ele>1487.6</ele>
        <time>2026-08-13T12:25:57.202Z</time>
      </trkpt>
      <trkpt lat="44.50593" lon="5.96949">
        <ele>1487.5</ele>
        <time>2026-08-13T12:26:04.307Z</time>
      </trkpt>
      <trkpt lat="44.50596" lon="5.96954">
        <ele>1487.1</ele>
        <time>2026-08-13T12:26:08.640Z</time>
      </trkpt>
      <trkpt lat="44.506" lon="5.96963">
        <ele>1485.9</ele>
        <time>2026-08-13T12:26:15.508Z</time>
      </trkpt>
      <trkpt lat="44.50603" lon="5.9697">
        <ele>1484.8</ele>
        <time>2026-08-13T12:26:20.845Z</time>
      </trkpt>
      <trkpt lat="44.50606" lon="5.9698">
        <ele>1482.7</ele>
        <time>2026-08-13T12:26:28.650Z</time>
      </trkpt>
      <trkpt lat="44.50609" lon="5.96986">
        <ele>1481.8</ele>
        <time>2026-08-13T12:26:33.408Z</time>
      </trkpt>
      <trkpt lat="44.50614" lon="5.96993">
        <ele>1481</ele>
        <time>2026-08-13T12:26:39.874Z</time>
      </trkpt>
      <trkpt lat="44.5062" lon="5.96995">
        <ele>1481.9</ele>
        <time>2026-08-13T12:26:48.790Z</time>
      </trkpt>
      <trkpt lat="44.50634" lon="5.96999">
        <ele>1484.1</ele>
        <time>2026-08-13T12:27:09.979Z</time>
      </trkpt>
      <trkpt lat="44.50651" lon="5.97004">
        <ele>1486.6</ele>
        <time>2026-08-13T12:27:34.934Z</time>
      </trkpt>
      <trkpt lat="44.50668" lon="5.97008">
        <ele>1489.4</ele>
        <time>2026-08-13T12:28:01.214Z</time>
      </trkpt>
      <trkpt lat="44.50673" lon="5.9701">
        <ele>1489.9</ele>
        <time>2026-08-13T12:28:07.738Z</time>
      </trkpt>
      <trkpt lat="44.50691" lon="5.97016">
        <ele>1491.9</ele>
        <time>2026-08-13T12:28:31.697Z</time>
      </trkpt>
      <trkpt lat="44.507" lon="5.9702">
        <ele>1492.3</ele>
        <time>2026-08-13T12:28:42.170Z</time>
      </trkpt>
      <trkpt lat="44.50706" lon="5.97023">
        <ele>1492.4</ele>
        <time>2026-08-13T12:28:48.889Z</time>
      </trkpt>
      <trkpt lat="44.5072" lon="5.97034">
        <ele>1491.1</ele>
        <time>2026-08-13T12:29:03.866Z</time>
      </trkpt>
      <trkpt lat="44.50735" lon="5.9704">
        <ele>1491.7</ele>
        <time>2026-08-13T12:29:21.033Z</time>
      </trkpt>
      <trkpt lat="44.50752" lon="5.97046">
        <ele>1492.8</ele>
        <time>2026-08-13T12:29:41.337Z</time>
      </trkpt>
      <trkpt lat="44.50768" lon="5.97048">
        <ele>1495.1</ele>
        <time>2026-08-13T12:30:04.362Z</time>
      </trkpt>
      <trkpt lat="44.50779" lon="5.97049">
        <ele>1496.7</ele>
        <time>2026-08-13T12:30:20.260Z</time>
      </trkpt>
      <trkpt lat="44.50793" lon="5.97048">
        <ele>1498.8</ele>
        <time>2026-08-13T12:30:40.774Z</time>
      </trkpt>
      <trkpt lat="44.50802" lon="5.97048">
        <ele>1499.8</ele>
        <time>2026-08-13T12:30:52.525Z</time>
      </trkpt>
      <trkpt lat="44.50808" lon="5.97047">
        <ele>1501.2</ele>
        <time>2026-08-13T12:31:04.452Z</time>
      </trkpt>
      <trkpt lat="44.50814" lon="5.97048">
        <ele>1501.9</ele>
        <time>2026-08-13T12:31:12.445Z</time>
      </trkpt>
      <trkpt lat="44.50822" lon="5.97052">
        <ele>1501.6</ele>
        <time>2026-08-13T12:31:20.746Z</time>
      </trkpt>
      <trkpt lat="44.50844" lon="5.97067">
        <ele>1499.4</ele>
        <time>2026-08-13T12:31:43.427Z</time>
      </trkpt>
      <trkpt lat="44.5087" lon="5.97087">
        <ele>1496</ele>
        <time>2026-08-13T12:32:10.551Z</time>
      </trkpt>
      <trkpt lat="44.50875" lon="5.9709">
        <ele>1496.1</ele>
        <time>2026-08-13T12:32:16.315Z</time>
        <extensions>
          <visugpx:TrkExtension xmlns:visugpx="https://www.visugpx.com/editgpx/">
            <visugpx:node>3</visugpx:node>
            </visugpx:TrkExtension>
        </extensions>
      </trkpt>
      <trkpt lat="44.50885" lon="5.97095">
        <ele>1496.8</ele>
        <time>2026-08-13T12:32:28.700Z</time>
      </trkpt>
      <trkpt lat="44.50892" lon="5.97096">
        <ele>1498.3</ele>
        <time>2026-08-13T12:32:41.587Z</time>
      </trkpt>
      <trkpt lat="44.50899" lon="5.97097">
        <ele>1499.6</ele>
        <time>2026-08-13T12:32:53.172Z</time>
      </trkpt>
      <trkpt lat="44.50913" lon="5.971">
        <ele>1501.9</ele>
        <time>2026-08-13T12:33:14.761Z</time>
      </trkpt>
      <trkpt lat="44.50922" lon="5.97101">
        <ele>1503.3</ele>
        <time>2026-08-13T12:33:28.197Z</time>
      </trkpt>
      <trkpt lat="44.50913" lon="5.97094">
        <ele>1504.5</ele>
        <time>2026-08-13T12:33:41.839Z</time>
      </trkpt>
      <trkpt lat="44.5091" lon="5.97092">
        <ele>1504.6</ele>
        <time>2026-08-13T12:33:45.437Z</time>
      </trkpt>
      <trkpt lat="44.509" lon="5.97084">
        <ele>1505.5</ele>
        <time>2026-08-13T12:33:59.253Z</time>
      </trkpt>
      <trkpt lat="44.50882" lon="5.97075">
        <ele>1505.2</ele>
        <time>2026-08-13T12:34:18.428Z</time>
      </trkpt>
      <trkpt lat="44.50874" lon="5.97069">
        <ele>1505.9</ele>
        <time>2026-08-13T12:34:29.290Z</time>
      </trkpt>
      <trkpt lat="44.50864" lon="5.97061">
        <ele>1507.1</ele>
        <time>2026-08-13T12:34:44.045Z</time>
      </trkpt>
      <trkpt lat="44.50854" lon="5.97048">
        <ele>1511.1</ele>
        <time>2026-08-13T12:35:19.657Z</time>
      </trkpt>
      <trkpt lat="44.50842" lon="5.97033">
        <ele>1515.2</ele>
        <time>2026-08-13T12:35:54.745Z</time>
      </trkpt>
      <trkpt lat="44.50829" lon="5.97021">
        <ele>1517.9</ele>
        <time>2026-08-13T12:36:19.374Z</time>
      </trkpt>
      <trkpt lat="44.50819" lon="5.97007">
        <ele>1522.7</ele>
        <time>2026-08-13T12:37:06.200Z</time>
      </trkpt>
      <trkpt lat="44.50805" lon="5.96996">
        <ele>1523.9</ele>
        <time>2026-08-13T12:37:25.306Z</time>
      </trkpt>
      <trkpt lat="44.50788" lon="5.96986">
        <ele>1524.6</ele>
        <time>2026-08-13T12:37:45.576Z</time>
      </trkpt>
      <trkpt lat="44.5077" lon="5.96973">
        <ele>1526</ele>
        <time>2026-08-13T12:38:09.367Z</time>
      </trkpt>
      <trkpt lat="44.50754" lon="5.9696">
        <ele>1528.6</ele>
        <time>2026-08-13T12:38:35.664Z</time>
      </trkpt>
      <trkpt lat="44.50745" lon="5.96952">
        <ele>1530.4</ele>
        <time>2026-08-13T12:38:52.266Z</time>
      </trkpt>
      <trkpt lat="44.50723" lon="5.96938">
        <ele>1532</ele>
        <time>2026-08-13T12:39:20.467Z</time>
      </trkpt>
      <trkpt lat="44.50711" lon="5.96931">
        <ele>1532.4</ele>
        <time>2026-08-13T12:39:34.560Z</time>
      </trkpt>
      <trkpt lat="44.50705" lon="5.96928">
        <ele>1532.4</ele>
        <time>2026-08-13T12:39:41.106Z</time>
      </trkpt>
      <trkpt lat="44.50699" lon="5.96923">
        <ele>1533.2</ele>
        <time>2026-08-13T12:39:50.307Z</time>
      </trkpt>
      <trkpt lat="44.50695" lon="5.96915">
        <ele>1535.8</ele>
        <time>2026-08-13T12:40:17.944Z</time>
      </trkpt>
      <trkpt lat="44.50692" lon="5.96911">
        <ele>1536.7</ele>
        <time>2026-08-13T12:40:25.654Z</time>
      </trkpt>
      <trkpt lat="44.50684" lon="5.96908">
        <ele>1535.7</ele>
        <time>2026-08-13T12:40:33.211Z</time>
      </trkpt>
      <trkpt lat="44.50676" lon="5.96906">
        <ele>1534.3</ele>
        <time>2026-08-13T12:40:40.609Z</time>
      </trkpt>
      <trkpt lat="44.50671" lon="5.96905">
        <ele>1533.3</ele>
        <time>2026-08-13T12:40:45.261Z</time>
      </trkpt>
      <trkpt lat="44.50667" lon="5.96902">
        <ele>1533.4</ele>
        <time>2026-08-13T12:40:50.100Z</time>
      </trkpt>
      <trkpt lat="44.5066" lon="5.96897">
        <ele>1532.9</ele>
        <time>2026-08-13T12:40:57.543Z</time>
      </trkpt>
      <trkpt lat="44.50654" lon="5.96892">
        <ele>1532.7</ele>
        <time>2026-08-13T12:41:04.423Z</time>
      </trkpt>
      <trkpt lat="44.50652" lon="5.9689">
        <ele>1532.7</ele>
        <time>2026-08-13T12:41:06.947Z</time>
      </trkpt>
      <trkpt lat="44.5065" lon="5.96888">
        <ele>1532.7</ele>
        <time>2026-08-13T12:41:09.471Z</time>
      </trkpt>
      <trkpt lat="44.50649" lon="5.96886">
        <ele>1533</ele>
        <time>2026-08-13T12:41:12.216Z</time>
      </trkpt>
      <trkpt lat="44.50648" lon="5.96879">
        <ele>1534.9</ele>
        <time>2026-08-13T12:41:32.415Z</time>
      </trkpt>
      <trkpt lat="44.50643" lon="5.96871">
        <ele>1535.5</ele>
        <time>2026-08-13T12:41:41.539Z</time>
      </trkpt>
      <trkpt lat="44.5064" lon="5.96861">
        <ele>1537.5</ele>
        <time>2026-08-13T12:41:58.689Z</time>
      </trkpt>
      <trkpt lat="44.50638" lon="5.96848">
        <ele>1540.3</ele>
        <time>2026-08-13T12:42:23.689Z</time>
      </trkpt>
      <trkpt lat="44.50637" lon="5.96832">
        <ele>1544.5</ele>
        <time>2026-08-13T12:43:07.567Z</time>
      </trkpt>
      <trkpt lat="44.50635" lon="5.96821">
        <ele>1547.1</ele>
        <time>2026-08-13T12:43:31.903Z</time>
      </trkpt>
      <trkpt lat="44.50633" lon="5.96814">
        <ele>1548.4</ele>
        <time>2026-08-13T12:43:42.978Z</time>
      </trkpt>
      <trkpt lat="44.50629" lon="5.96803">
        <ele>1550.3</ele>
        <time>2026-08-13T12:43:59.272Z</time>
      </trkpt>
      <trkpt lat="44.50626" lon="5.96793">
        <ele>1552.7</ele>
        <time>2026-08-13T12:44:21.255Z</time>
      </trkpt>
      <trkpt lat="44.5062" lon="5.96787">
        <ele>1552.3</ele>
        <time>2026-08-13T12:44:28.303Z</time>
      </trkpt>
      <trkpt lat="44.50612" lon="5.96783">
        <ele>1550.3</ele>
        <time>2026-08-13T12:44:36.400Z</time>
      </trkpt>
      <trkpt lat="44.50603" lon="5.96777">
        <ele>1550.9</ele>
        <time>2026-08-13T12:44:47.878Z</time>
      </trkpt>
      <trkpt lat="44.50595" lon="5.96773">
        <ele>1551.5</ele>
        <time>2026-08-13T12:44:57.892Z</time>
      </trkpt>
      <trkpt lat="44.50588" lon="5.96773">
        <ele>1550.4</ele>
        <time>2026-08-13T12:45:04.248Z</time>
      </trkpt>
      <trkpt lat="44.50583" lon="5.96771">
        <ele>1550.7</ele>
        <time>2026-08-13T12:45:10.204Z</time>
      </trkpt>
      <trkpt lat="44.50579" lon="5.96773">
        <ele>1549.8</ele>
        <time>2026-08-13T12:45:14.155Z</time>
      </trkpt>
      <trkpt lat="44.50571" lon="5.96775">
        <ele>1549</ele>
        <time>2026-08-13T12:45:21.649Z</time>
      </trkpt>
      <trkpt lat="44.50565" lon="5.96772">
        <ele>1550.9</ele>
        <time>2026-08-13T12:45:38.695Z</time>
      </trkpt>
      <trkpt lat="44.50561" lon="5.96768">
        <ele>1553.4</ele>
        <time>2026-08-13T12:46:08.377Z</time>
      </trkpt>
      <trkpt lat="44.50558" lon="5.96768">
        <ele>1553.5</ele>
        <time>2026-08-13T12:46:11.646Z</time>
      </trkpt>
      <trkpt lat="44.50554" lon="5.96771">
        <ele>1552.1</ele>
        <time>2026-08-13T12:46:16.650Z</time>
      </trkpt>
      <trkpt lat="44.5055" lon="5.96772">
        <ele>1552.1</ele>
        <time>2026-08-13T12:46:20.825Z</time>
      </trkpt>
      <trkpt lat="44.50547" lon="5.96771">
        <ele>1553.1</ele>
        <time>2026-08-13T12:46:30.247Z</time>
      </trkpt>
      <trkpt lat="44.50537" lon="5.96772">
        <ele>1553.9</ele>
        <time>2026-08-13T12:46:42.325Z</time>
      </trkpt>
      <trkpt lat="44.50531" lon="5.96772">
        <ele>1554.7</ele>
        <time>2026-08-13T12:46:50.672Z</time>
      </trkpt>
      <trkpt lat="44.50525" lon="5.96774">
        <ele>1554.4</ele>
        <time>2026-08-13T12:46:56.606Z</time>
      </trkpt>
      <trkpt lat="44.50519" lon="5.96777">
        <ele>1553.7</ele>
        <time>2026-08-13T12:47:02.445Z</time>
      </trkpt>
      <trkpt lat="44.5051" lon="5.96781">
        <ele>1552.6</ele>
        <time>2026-08-13T12:47:11.074Z</time>
      </trkpt>
      <trkpt lat="44.50505" lon="5.9678">
        <ele>1553.9</ele>
        <time>2026-08-13T12:47:22.214Z</time>
      </trkpt>
      <trkpt lat="44.50497" lon="5.96778">
        <ele>1555.9</ele>
        <time>2026-08-13T12:47:39.268Z</time>
      </trkpt>
      <trkpt lat="44.5049" lon="5.96775">
        <ele>1557.5</ele>
        <time>2026-08-13T12:47:52.966Z</time>
      </trkpt>
      <trkpt lat="44.50481" lon="5.96773">
        <ele>1558.5</ele>
        <time>2026-08-13T12:48:04.818Z</time>
      </trkpt>
      <trkpt lat="44.50469" lon="5.96769">
        <ele>1559.9</ele>
        <time>2026-08-13T12:48:21.029Z</time>
      </trkpt>
      <trkpt lat="44.50458" lon="5.96764">
        <ele>1560.1</ele>
        <time>2026-08-13T12:48:33.261Z</time>
      </trkpt>
      <trkpt lat="44.50448" lon="5.96759">
        <ele>1560.2</ele>
        <time>2026-08-13T12:48:44.341Z</time>
      </trkpt>
      <trkpt lat="44.50441" lon="5.96751">
        <ele>1561.7</ele>
        <time>2026-08-13T12:48:58.277Z</time>
      </trkpt>
      <trkpt lat="44.50435" lon="5.96742">
        <ele>1563.6</ele>
        <time>2026-08-13T12:49:14.567Z</time>
      </trkpt>
      <trkpt lat="44.50428" lon="5.96735">
        <ele>1564.2</ele>
        <time>2026-08-13T12:49:24.684Z</time>
      </trkpt>
      <trkpt lat="44.50422" lon="5.9673">
        <ele>1564.1</ele>
        <time>2026-08-13T12:49:31.702Z</time>
      </trkpt>
      <trkpt lat="44.50421" lon="5.96727">
        <ele>1564.8</ele>
        <time>2026-08-13T12:49:37.963Z</time>
      </trkpt>
      <trkpt lat="44.50416" lon="5.9672">
        <ele>1565.9</ele>
        <time>2026-08-13T12:49:48.499Z</time>
      </trkpt>
      <trkpt lat="44.50412" lon="5.96715">
        <ele>1567.5</ele>
        <time>2026-08-13T12:50:02.861Z</time>
      </trkpt>
      <trkpt lat="44.50407" lon="5.9671">
        <ele>1569</ele>
        <time>2026-08-13T12:50:15.646Z</time>
      </trkpt>
      <trkpt lat="44.504" lon="5.96709">
        <ele>1568.6</ele>
        <time>2026-08-13T12:50:22.357Z</time>
      </trkpt>
      <trkpt lat="44.50391" lon="5.96707">
        <ele>1568.4</ele>
        <time>2026-08-13T12:50:31.420Z</time>
      </trkpt>
      <trkpt lat="44.50378" lon="5.96705">
        <ele>1567</ele>
        <time>2026-08-13T12:50:43.424Z</time>
      </trkpt>
      <trkpt lat="44.50371" lon="5.96703">
        <ele>1566.6</ele>
        <time>2026-08-13T12:50:50.243Z</time>
      </trkpt>
      <trkpt lat="44.50364" lon="5.96701">
        <ele>1566.2</ele>
        <time>2026-08-13T12:50:57.063Z</time>
      </trkpt>
      <trkpt lat="44.50357" lon="5.96697">
        <ele>1566.4</ele>
        <time>2026-08-13T12:51:05.193Z</time>
      </trkpt>
      <trkpt lat="44.50348" lon="5.96692">
        <ele>1565.8</ele>
        <time>2026-08-13T12:51:14.379Z</time>
      </trkpt>
      <trkpt lat="44.50341" lon="5.96689">
        <ele>1564.7</ele>
        <time>2026-08-13T12:51:21.024Z</time>
      </trkpt>
      <trkpt lat="44.50334" lon="5.96687">
        <ele>1563.2</ele>
        <time>2026-08-13T12:51:27.660Z</time>
      </trkpt>
      <trkpt lat="44.50327" lon="5.96681">
        <ele>1562.9</ele>
        <time>2026-08-13T12:51:35.667Z</time>
      </trkpt>
      <trkpt lat="44.50321" lon="5.96675">
        <ele>1562.9</ele>
        <time>2026-08-13T12:51:43.239Z</time>
      </trkpt>
      <trkpt lat="44.50313" lon="5.9667">
        <ele>1561.7</ele>
        <time>2026-08-13T12:51:51.199Z</time>
      </trkpt>
      <trkpt lat="44.50305" lon="5.96665">
        <ele>1560.3</ele>
        <time>2026-08-13T12:51:59.154Z</time>
      </trkpt>
      <trkpt lat="44.50299" lon="5.96659">
        <ele>1560</ele>
        <time>2026-08-13T12:52:06.310Z</time>
      </trkpt>
      <trkpt lat="44.50298" lon="5.96654">
        <ele>1561.2</ele>
        <time>2026-08-13T12:52:17.609Z</time>
      </trkpt>
      <trkpt lat="44.50297" lon="5.96647">
        <ele>1563</ele>
        <time>2026-08-13T12:52:35.779Z</time>
      </trkpt>
      <trkpt lat="44.50296" lon="5.96641">
        <ele>1564.6</ele>
        <time>2026-08-13T12:52:52.381Z</time>
      </trkpt>
      <trkpt lat="44.50293" lon="5.96638">
        <ele>1564.7</ele>
        <time>2026-08-13T12:52:56.349Z</time>
      </trkpt>
      <trkpt lat="44.50287" lon="5.96633">
        <ele>1564.9</ele>
        <time>2026-08-13T12:53:03.887Z</time>
      </trkpt>
      <trkpt lat="44.50283" lon="5.96628">
        <ele>1565.7</ele>
        <time>2026-08-13T12:53:11.716Z</time>
      </trkpt>
      <trkpt lat="44.50275" lon="5.9662">
        <ele>1566.8</ele>
        <time>2026-08-13T12:53:24.575Z</time>
      </trkpt>
      <trkpt lat="44.50264" lon="5.96612">
        <ele>1567.7</ele>
        <time>2026-08-13T12:53:39.254Z</time>
      </trkpt>
      <trkpt lat="44.50256" lon="5.96607">
        <ele>1568</ele>
        <time>2026-08-13T12:53:48.814Z</time>
      </trkpt>
      <trkpt lat="44.50248" lon="5.96602">
        <ele>1568.1</ele>
        <time>2026-08-13T12:53:57.986Z</time>
      </trkpt>
      <trkpt lat="44.50241" lon="5.96596">
        <ele>1568.5</ele>
        <time>2026-08-13T12:54:07.206Z</time>
      </trkpt>
      <trkpt lat="44.50236" lon="5.96591">
        <ele>1569.1</ele>
        <time>2026-08-13T12:54:14.943Z</time>
      </trkpt>
      <trkpt lat="44.5023" lon="5.96583">
        <ele>1570.4</ele>
        <time>2026-08-13T12:54:27.343Z</time>
      </trkpt>
      <trkpt lat="44.50224" lon="5.96575">
        <ele>1571.3</ele>
        <time>2026-08-13T12:54:38.083Z</time>
      </trkpt>
      <trkpt lat="44.50222" lon="5.96568">
        <ele>1572.9</ele>
        <time>2026-08-13T12:54:52.420Z</time>
      </trkpt>
      <trkpt lat="44.50219" lon="5.96561">
        <ele>1574.4</ele>
        <time>2026-08-13T12:55:05.275Z</time>
      </trkpt>
      <trkpt lat="44.50215" lon="5.96557">
        <ele>1574.7</ele>
        <time>2026-08-13T12:55:10.944Z</time>
      </trkpt>
      <trkpt lat="44.50212" lon="5.96555">
        <ele>1574.6</ele>
        <time>2026-08-13T12:55:14.212Z</time>
      </trkpt>
      <trkpt lat="44.50207" lon="5.96547">
        <ele>1575.6</ele>
        <time>2026-08-13T12:55:24.719Z</time>
      </trkpt>
      <trkpt lat="44.50201" lon="5.96539">
        <ele>1576.4</ele>
        <time>2026-08-13T12:55:35.121Z</time>
      </trkpt>
      <trkpt lat="44.50193" lon="5.96532">
        <ele>1576.6</ele>
        <time>2026-08-13T12:55:45.166Z</time>
      </trkpt>
      <trkpt lat="44.50185" lon="5.96523">
        <ele>1578.6</ele>
        <time>2026-08-13T12:56:02.694Z</time>
      </trkpt>
      <trkpt lat="44.50179" lon="5.96517">
        <ele>1580.3</ele>
        <time>2026-08-13T12:56:17.180Z</time>
      </trkpt>
      <trkpt lat="44.50173" lon="5.96515">
        <ele>1580.5</ele>
        <time>2026-08-13T12:56:23.889Z</time>
      </trkpt>
      <trkpt lat="44.50165" lon="5.96513">
        <ele>1580.9</ele>
        <time>2026-08-13T12:56:33.030Z</time>
      </trkpt>
      <trkpt lat="44.50156" lon="5.9651">
        <ele>1582</ele>
        <time>2026-08-13T12:56:45.372Z</time>
      </trkpt>
      <trkpt lat="44.50148" lon="5.96507">
        <ele>1583.2</ele>
        <time>2026-08-13T12:56:57.306Z</time>
      </trkpt>
      <trkpt lat="44.5014" lon="5.96508">
        <ele>1582.8</ele>
        <time>2026-08-13T12:57:05.024Z</time>
      </trkpt>
      <trkpt lat="44.50131" lon="5.96509">
        <ele>1582.3</ele>
        <time>2026-08-13T12:57:13.648Z</time>
      </trkpt>
      <trkpt lat="44.50122" lon="5.9651">
        <ele>1581.9</ele>
        <time>2026-08-13T12:57:22.378Z</time>
      </trkpt>
      <trkpt lat="44.50116" lon="5.96509">
        <ele>1582.1</ele>
        <time>2026-08-13T12:57:28.959Z</time>
      </trkpt>
      <trkpt lat="44.5011" lon="5.96505">
        <ele>1583.1</ele>
        <time>2026-08-13T12:57:38.703Z</time>
      </trkpt>
      <trkpt lat="44.50107" lon="5.965">
        <ele>1583.8</ele>
        <time>2026-08-13T12:57:45.532Z</time>
      </trkpt>
      <trkpt lat="44.50105" lon="5.96495">
        <ele>1584.6</ele>
        <time>2026-08-13T12:57:52.536Z</time>
      </trkpt>
      <trkpt lat="44.50102" lon="5.96483">
        <ele>1586.9</ele>
        <time>2026-08-13T12:58:12.205Z</time>
      </trkpt>
      <trkpt lat="44.50098" lon="5.96474">
        <ele>1587.8</ele>
        <time>2026-08-13T12:58:22.299Z</time>
      </trkpt>
      <trkpt lat="44.50096" lon="5.96466">
        <ele>1589</ele>
        <time>2026-08-13T12:58:32.766Z</time>
      </trkpt>
      <trkpt lat="44.50092" lon="5.96453">
        <ele>1590.5</ele>
        <time>2026-08-13T12:58:47.485Z</time>
      </trkpt>
      <trkpt lat="44.50091" lon="5.96444">
        <ele>1592.1</ele>
        <time>2026-08-13T12:59:01.129Z</time>
      </trkpt>
      <trkpt lat="44.5009" lon="5.96438">
        <ele>1593.1</ele>
        <time>2026-08-13T12:59:09.657Z</time>
      </trkpt>
      <trkpt lat="44.50088" lon="5.96435">
        <ele>1592.9</ele>
        <time>2026-08-13T12:59:12.419Z</time>
      </trkpt>
      <trkpt lat="44.50086" lon="5.96431">
        <ele>1593</ele>
        <time>2026-08-13T12:59:16.183Z</time>
      </trkpt>
      <trkpt lat="44.50085" lon="5.96426">
        <ele>1593.7</ele>
        <time>2026-08-13T12:59:22.374Z</time>
      </trkpt>
      <trkpt lat="44.50082" lon="5.96416">
        <ele>1594.6</ele>
        <time>2026-08-13T12:59:32.623Z</time>
      </trkpt>
      <trkpt lat="44.5008" lon="5.96408">
        <ele>1595.4</ele>
        <time>2026-08-13T12:59:41.009Z</time>
      </trkpt>
      <trkpt lat="44.50078" lon="5.96404">
        <ele>1595.4</ele>
        <time>2026-08-13T12:59:44.589Z</time>
      </trkpt>
      <trkpt lat="44.50074" lon="5.96403">
        <ele>1593.9</ele>
        <time>2026-08-13T12:59:50.322Z</time>
      </trkpt>
      <trkpt lat="44.5007" lon="5.96403">
        <ele>1592.2</ele>
        <time>2026-08-13T12:59:59.143Z</time>
      </trkpt>
      <trkpt lat="44.50067" lon="5.96401">
        <ele>1591.3</ele>
        <time>2026-08-13T13:00:02.491Z</time>
      </trkpt>
      <trkpt lat="44.50065" lon="5.96397">
        <ele>1591.3</ele>
        <time>2026-08-13T13:00:06.071Z</time>
      </trkpt>
      <trkpt lat="44.50063" lon="5.96389">
        <ele>1592.2</ele>
        <time>2026-08-13T13:00:14.893Z</time>
      </trkpt>
      <trkpt lat="44.5006" lon="5.96381">
        <ele>1592.9</ele>
        <time>2026-08-13T13:00:23.252Z</time>
      </trkpt>
      <trkpt lat="44.50056" lon="5.96375">
        <ele>1592.7</ele>
        <time>2026-08-13T13:00:28.985Z</time>
      </trkpt>
      <trkpt lat="44.50045" lon="5.9636">
        <ele>1591.4</ele>
        <time>2026-08-13T13:00:43.265Z</time>
      </trkpt>
      <trkpt lat="44.5004" lon="5.96353">
        <ele>1590.9</ele>
        <time>2026-08-13T13:00:49.916Z</time>
      </trkpt>
      <trkpt lat="44.50035" lon="5.96343">
        <ele>1591.1</ele>
        <time>2026-08-13T13:00:59.224Z</time>
      </trkpt>
      <trkpt lat="44.5003" lon="5.96327">
        <ele>1593</ele>
        <time>2026-08-13T13:01:17.614Z</time>
      </trkpt>
      <trkpt lat="44.50028" lon="5.96316">
        <ele>1595.1</ele>
        <time>2026-08-13T13:01:35.632Z</time>
      </trkpt>
      <trkpt lat="44.50025" lon="5.96308">
        <ele>1595.8</ele>
        <time>2026-08-13T13:01:43.991Z</time>
      </trkpt>
      <trkpt lat="44.50021" lon="5.96298">
        <ele>1596.4</ele>
        <time>2026-08-13T13:01:53.695Z</time>
      </trkpt>
      <trkpt lat="44.50017" lon="5.9629">
        <ele>1596.4</ele>
        <time>2026-08-13T13:02:00.855Z</time>
      </trkpt>
      <trkpt lat="44.50013" lon="5.96281">
        <ele>1596.6</ele>
        <time>2026-08-13T13:02:08.990Z</time>
      </trkpt>
      <trkpt lat="44.5001" lon="5.96268">
        <ele>1598</ele>
        <time>2026-08-13T13:02:22.979Z</time>
      </trkpt>
      <trkpt lat="44.50006" lon="5.96248">
        <ele>1600</ele>
        <time>2026-08-13T13:02:43.693Z</time>
      </trkpt>
      <trkpt lat="44.50003" lon="5.96228">
        <ele>1601.1</ele>
        <time>2026-08-13T13:03:01.075Z</time>
      </trkpt>
      <trkpt lat="44.50001" lon="5.96215">
        <ele>1601.9</ele>
        <time>2026-08-13T13:03:12.629Z</time>
      </trkpt>
      <trkpt lat="44.5" lon="5.96209">
        <ele>1602.4</ele>
        <time>2026-08-13T13:03:18.409Z</time>
      </trkpt>
      <trkpt lat="44.49998" lon="5.962">
        <ele>1602.9</ele>
        <time>2026-08-13T13:03:26.406Z</time>
      </trkpt>
      <trkpt lat="44.49993" lon="5.96191">
        <ele>1601.9</ele>
        <time>2026-08-13T13:03:33.826Z</time>
      </trkpt>
      <trkpt lat="44.49989" lon="5.96182">
        <ele>1601.7</ele>
        <time>2026-08-13T13:03:41.303Z</time>
      </trkpt>
      <trkpt lat="44.49986" lon="5.96173">
        <ele>1602.1</ele>
        <time>2026-08-13T13:03:49.397Z</time>
      </trkpt>
      <trkpt lat="44.49985" lon="5.96166">
        <ele>1603.1</ele>
        <time>2026-08-13T13:03:58.144Z</time>
      </trkpt>
      <trkpt lat="44.49983" lon="5.96161">
        <ele>1603.3</ele>
        <time>2026-08-13T13:04:02.740Z</time>
        <extensions>
          <visugpx:TrkExtension xmlns:visugpx="https://www.visugpx.com/editgpx/">
            <visugpx:node>4</visugpx:node>
            </visugpx:TrkExtension>
        </extensions>
      </trkpt>
      <trkpt lat="44.49983" lon="5.9616">
        <ele>1603.5</ele>
        <time>2026-08-13T13:04:04.490Z</time>
      </trkpt>
      <trkpt lat="44.4998" lon="5.96156">
        <ele>1603.1</ele>
        <time>2026-08-13T13:04:08.312Z</time>
      </trkpt>
      <trkpt lat="44.49975" lon="5.9615">
        <ele>1602.4</ele>
        <time>2026-08-13T13:04:14.355Z</time>
      </trkpt>
      <trkpt lat="44.49972" lon="5.96148">
        <ele>1601.6</ele>
        <time>2026-08-13T13:04:17.543Z</time>
      </trkpt>
      <trkpt lat="44.49969" lon="5.96143">
        <ele>1601.7</ele>
        <time>2026-08-13T13:04:22.510Z</time>
      </trkpt>
      <trkpt lat="44.49966" lon="5.96136">
        <ele>1602.4</ele>
        <time>2026-08-13T13:04:30.309Z</time>
      </trkpt>
      <trkpt lat="44.49963" lon="5.96133">
        <ele>1602.1</ele>
        <time>2026-08-13T13:04:33.747Z</time>
      </trkpt>
      <trkpt lat="44.49959" lon="5.9613">
        <ele>1601.5</ele>
        <time>2026-08-13T13:04:37.873Z</time>
      </trkpt>
      <trkpt lat="44.49957" lon="5.96125">
        <ele>1602.2</ele>
        <time>2026-08-13T13:04:44.293Z</time>
      </trkpt>
      <trkpt lat="44.49956" lon="5.96119">
        <ele>1603.7</ele>
        <time>2026-08-13T13:04:58.983Z</time>
      </trkpt>
      <trkpt lat="44.49948" lon="5.96108">
        <ele>1604.2</ele>
        <time>2026-08-13T13:05:11.469Z</time>
      </trkpt>
      <trkpt lat="44.49944" lon="5.96099">
        <ele>1605.3</ele>
        <time>2026-08-13T13:05:22.387Z</time>
      </trkpt>
      <trkpt lat="44.4994" lon="5.9609">
        <ele>1606.6</ele>
        <time>2026-08-13T13:05:34.290Z</time>
      </trkpt>
      <trkpt lat="44.49934" lon="5.96083">
        <ele>1606.7</ele>
        <time>2026-08-13T13:05:42.483Z</time>
      </trkpt>
      <trkpt lat="44.49924" lon="5.96077">
        <ele>1605.4</ele>
        <time>2026-08-13T13:05:52.413Z</time>
      </trkpt>
      <trkpt lat="44.49914" lon="5.96067">
        <ele>1605.3</ele>
        <time>2026-08-13T13:06:04.876Z</time>
      </trkpt>
      <trkpt lat="44.49909" lon="5.96061">
        <ele>1605.5</ele>
        <time>2026-08-13T13:06:12.008Z</time>
      </trkpt>
      <trkpt lat="44.49905" lon="5.96051">
        <ele>1607.4</ele>
        <time>2026-08-13T13:06:28.193Z</time>
      </trkpt>
      <trkpt lat="44.49901" lon="5.96039">
        <ele>1610.3</ele>
        <time>2026-08-13T13:06:54.599Z</time>
      </trkpt>
      <trkpt lat="44.49898" lon="5.96028">
        <ele>1613.2</ele>
        <time>2026-08-13T13:07:23.273Z</time>
      </trkpt>
      <trkpt lat="44.49893" lon="5.96015">
        <ele>1616.5</ele>
        <time>2026-08-13T13:07:53.676Z</time>
      </trkpt>
      <trkpt lat="44.49891" lon="5.96012">
        <ele>1617</ele>
        <time>2026-08-13T13:07:58.267Z</time>
      </trkpt>
      <trkpt lat="44.49886" lon="5.96006">
        <ele>1617.4</ele>
        <time>2026-08-13T13:08:05.856Z</time>
      </trkpt>
      <trkpt lat="44.49876" lon="5.95998">
        <ele>1616.1</ele>
        <time>2026-08-13T13:08:16.395Z</time>
      </trkpt>
      <trkpt lat="44.4987" lon="5.95992">
        <ele>1615.4</ele>
        <time>2026-08-13T13:08:23.205Z</time>
      </trkpt>
      <trkpt lat="44.49868" lon="5.95989">
        <ele>1615.5</ele>
        <time>2026-08-13T13:08:26.402Z</time>
      </trkpt>
      <trkpt lat="44.49867" lon="5.95986">
        <ele>1616.1</ele>
        <time>2026-08-13T13:08:31.534Z</time>
      </trkpt>
      <trkpt lat="44.49865" lon="5.95982">
        <ele>1616.5</ele>
        <time>2026-08-13T13:08:36.130Z</time>
      </trkpt>
      <trkpt lat="44.49864" lon="5.95975">
        <ele>1618.3</ele>
        <time>2026-08-13T13:08:54.299Z</time>
      </trkpt>
      <trkpt lat="44.49856" lon="5.95966">
        <ele>1618.6</ele>
        <time>2026-08-13T13:09:05.389Z</time>
      </trkpt>
      <trkpt lat="44.49847" lon="5.95954">
        <ele>1620.5</ele>
        <time>2026-08-13T13:09:23.749Z</time>
      </trkpt>
      <trkpt lat="44.49839" lon="5.95946">
        <ele>1621.6</ele>
        <time>2026-08-13T13:09:36.608Z</time>
      </trkpt>
      <trkpt lat="44.49831" lon="5.95935">
        <ele>1623.9</ele>
        <time>2026-08-13T13:09:56.511Z</time>
      </trkpt>
      <trkpt lat="44.49826" lon="5.95929">
        <ele>1625.5</ele>
        <time>2026-08-13T13:10:10.145Z</time>
      </trkpt>
      <trkpt lat="44.49818" lon="5.95923">
        <ele>1626.8</ele>
        <time>2026-08-13T13:10:23.154Z</time>
      </trkpt>
      <trkpt lat="44.49807" lon="5.95911">
        <ele>1629.7</ele>
        <time>2026-08-13T13:10:48.180Z</time>
      </trkpt>
      <trkpt lat="44.498" lon="5.95903">
        <ele>1631.2</ele>
        <time>2026-08-13T13:11:02.117Z</time>
      </trkpt>
      <trkpt lat="44.49787" lon="5.95893">
        <ele>1632.2</ele>
        <time>2026-08-13T13:11:19.473Z</time>
      </trkpt>
      <trkpt lat="44.49778" lon="5.95889">
        <ele>1632</ele>
        <time>2026-08-13T13:11:28.874Z</time>
      </trkpt>
      <trkpt lat="44.49774" lon="5.95886">
        <ele>1632.8</ele>
        <time>2026-08-13T13:11:36.124Z</time>
      </trkpt>
      <trkpt lat="44.4977" lon="5.95883">
        <ele>1633.6</ele>
        <time>2026-08-13T13:11:43.375Z</time>
      </trkpt>
      <trkpt lat="44.49758" lon="5.95875">
        <ele>1635.9</ele>
        <time>2026-08-13T13:12:04.374Z</time>
      </trkpt>
      <trkpt lat="44.49745" lon="5.95867">
        <ele>1638.8</ele>
        <time>2026-08-13T13:12:29.496Z</time>
      </trkpt>
      <trkpt lat="44.49737" lon="5.95862">
        <ele>1641.1</ele>
        <time>2026-08-13T13:12:49.274Z</time>
      </trkpt>
      <trkpt lat="44.49725" lon="5.95858">
        <ele>1643.4</ele>
        <time>2026-08-13T13:13:09.707Z</time>
      </trkpt>
      <trkpt lat="44.49714" lon="5.95854">
        <ele>1643.1</ele>
        <time>2026-08-13T13:13:20.942Z</time>
      </trkpt>
      <trkpt lat="44.49708" lon="5.95852">
        <ele>1642.2</ele>
        <time>2026-08-13T13:13:26.541Z</time>
      </trkpt>
      <trkpt lat="44.49703" lon="5.95844">
        <ele>1643.3</ele>
        <time>2026-08-13T13:13:37.477Z</time>
      </trkpt>
      <trkpt lat="44.49699" lon="5.95833">
        <ele>1645</ele>
        <time>2026-08-13T13:13:52.418Z</time>
      </trkpt>
      <trkpt lat="44.49696" lon="5.95821">
        <ele>1644.7</ele>
        <time>2026-08-13T13:14:01.308Z</time>
      </trkpt>
      <trkpt lat="44.49696" lon="5.95812">
        <ele>1645.4</ele>
        <time>2026-08-13T13:14:09.642Z</time>
      </trkpt>
      <trkpt lat="44.49696" lon="5.95805">
        <ele>1645.9</ele>
        <time>2026-08-13T13:14:15.973Z</time>
      </trkpt>
      <trkpt lat="44.49697" lon="5.95798">
        <ele>1646.8</ele>
        <time>2026-08-13T13:14:24.122Z</time>
      </trkpt>
      <trkpt lat="44.49698" lon="5.95792">
        <ele>1647.6</ele>
        <time>2026-08-13T13:14:31.288Z</time>
      </trkpt>
      <trkpt lat="44.49699" lon="5.95787">
        <ele>1648.4</ele>
        <time>2026-08-13T13:14:38.148Z</time>
      </trkpt>
      <trkpt lat="44.497" lon="5.95777">
        <ele>1649.4</ele>
        <time>2026-08-13T13:14:48.336Z</time>
      </trkpt>
      <trkpt lat="44.49702" lon="5.95769">
        <ele>1650.4</ele>
        <time>2026-08-13T13:14:57.645Z</time>
      </trkpt>
      <trkpt lat="44.49704" lon="5.9576">
        <ele>1651.4</ele>
        <time>2026-08-13T13:15:07.451Z</time>
      </trkpt>
      <trkpt lat="44.49706" lon="5.95751">
        <ele>1652.5</ele>
        <time>2026-08-13T13:15:17.741Z</time>
      </trkpt>
      <trkpt lat="44.49709" lon="5.95735">
        <ele>1654.4</ele>
        <time>2026-08-13T13:15:35.647Z</time>
      </trkpt>
      <trkpt lat="44.49708" lon="5.95724">
        <ele>1653.8</ele>
        <time>2026-08-13T13:15:43.059Z</time>
      </trkpt>
      <trkpt lat="44.49705" lon="5.95714">
        <ele>1652.1</ele>
        <time>2026-08-13T13:15:50.310Z</time>
      </trkpt>
      <trkpt lat="44.49703" lon="5.9571">
        <ele>1651</ele>
        <time>2026-08-13T13:15:54.236Z</time>
      </trkpt>
      <trkpt lat="44.49702" lon="5.95699">
        <ele>1650.7</ele>
        <time>2026-08-13T13:16:01.942Z</time>
      </trkpt>
      <trkpt lat="44.497" lon="5.95692">
        <ele>1649.7</ele>
        <time>2026-08-13T13:16:06.863Z</time>
      </trkpt>
      <trkpt lat="44.49699" lon="5.95686">
        <ele>1649.5</ele>
        <time>2026-08-13T13:16:11.107Z</time>
      </trkpt>
      <trkpt lat="44.49697" lon="5.9568">
        <ele>1648.6</ele>
        <time>2026-08-13T13:16:15.439Z</time>
      </trkpt>
      <trkpt lat="44.49696" lon="5.95672">
        <ele>1648.5</ele>
        <time>2026-08-13T13:16:21.239Z</time>
      </trkpt>
      <trkpt lat="44.49697" lon="5.95668">
        <ele>1649.4</ele>
        <time>2026-08-13T13:16:29.306Z</time>
      </trkpt>
      <trkpt lat="44.49698" lon="5.95662">
        <ele>1649.5</ele>
        <time>2026-08-13T13:16:34.001Z</time>
      </trkpt>
      <trkpt lat="44.49702" lon="5.95654">
        <ele>1651</ele>
        <time>2026-08-13T13:16:46.869Z</time>
      </trkpt>
      <trkpt lat="44.49706" lon="5.95648">
        <ele>1652.6</ele>
        <time>2026-08-13T13:17:00.756Z</time>
      </trkpt>
      <trkpt lat="44.49712" lon="5.95637">
        <ele>1654.7</ele>
        <time>2026-08-13T13:17:18.807Z</time>
      </trkpt>
      <trkpt lat="44.49719" lon="5.95626">
        <ele>1655.9</ele>
        <time>2026-08-13T13:17:32.649Z</time>
      </trkpt>
      <trkpt lat="44.49727" lon="5.95613">
        <ele>1657.2</ele>
        <time>2026-08-13T13:17:48.426Z</time>
      </trkpt>
      <trkpt lat="44.49732" lon="5.95603">
        <ele>1658.5</ele>
        <time>2026-08-13T13:18:01.150Z</time>
      </trkpt>
      <trkpt lat="44.49735" lon="5.95594">
        <ele>1658.9</ele>
        <time>2026-08-13T13:18:09.245Z</time>
      </trkpt>
      <trkpt lat="44.49737" lon="5.95588">
        <ele>1659.2</ele>
        <time>2026-08-13T13:18:14.725Z</time>
      </trkpt>
      <trkpt lat="44.49738" lon="5.95583">
        <ele>1659</ele>
        <time>2026-08-13T13:18:18.268Z</time>
      </trkpt>
      <trkpt lat="44.49739" lon="5.95578">
        <ele>1659</ele>
        <time>2026-08-13T13:18:22.075Z</time>
      </trkpt>
      <trkpt lat="44.49741" lon="5.95571">
        <ele>1659.3</ele>
        <time>2026-08-13T13:18:28.210Z</time>
      </trkpt>
      <trkpt lat="44.49741" lon="5.95567">
        <ele>1658.9</ele>
        <time>2026-08-13T13:18:30.801Z</time>
      </trkpt>
      <trkpt lat="44.49742" lon="5.95563">
        <ele>1659</ele>
        <time>2026-08-13T13:18:34.094Z</time>
      </trkpt>
      <trkpt lat="44.49742" lon="5.9556">
        <ele>1658.6</ele>
        <time>2026-08-13T13:18:36.053Z</time>
      </trkpt>
      <trkpt lat="44.49745" lon="5.95552">
        <ele>1659.7</ele>
        <time>2026-08-13T13:18:46.156Z</time>
      </trkpt>
      <trkpt lat="44.49748" lon="5.95543">
        <ele>1660.9</ele>
        <time>2026-08-13T13:18:57.212Z</time>
      </trkpt>
      <trkpt lat="44.49749" lon="5.95534">
        <ele>1660.8</ele>
        <time>2026-08-13T13:19:03.734Z</time>
      </trkpt>
      <trkpt lat="44.49749" lon="5.95528">
        <ele>1660.4</ele>
        <time>2026-08-13T13:19:07.692Z</time>
      </trkpt>
      <trkpt lat="44.49749" lon="5.95523">
        <ele>1660</ele>
        <time>2026-08-13T13:19:10.958Z</time>
      </trkpt>
      <trkpt lat="44.49751" lon="5.9552">
        <ele>1661</ele>
        <time>2026-08-13T13:19:20.754Z</time>
      </trkpt>
      <trkpt lat="44.49755" lon="5.95514">
        <ele>1663</ele>
        <time>2026-08-13T13:19:40.346Z</time>
      </trkpt>
      <trkpt lat="44.49759" lon="5.95505">
        <ele>1664.8</ele>
        <time>2026-08-13T13:19:55.675Z</time>
      </trkpt>
      <trkpt lat="44.4976" lon="5.95496">
        <ele>1665</ele>
        <time>2026-08-13T13:20:02.720Z</time>
      </trkpt>
      <trkpt lat="44.4976" lon="5.95485">
        <ele>1664.6</ele>
        <time>2026-08-13T13:20:10.250Z</time>
      </trkpt>
      <trkpt lat="44.4976" lon="5.95473">
        <ele>1664.1</ele>
        <time>2026-08-13T13:20:18.401Z</time>
      </trkpt>
      <trkpt lat="44.4976" lon="5.95456">
        <ele>1665.3</ele>
        <time>2026-08-13T13:20:33.727Z</time>
      </trkpt>
      <trkpt lat="44.49759" lon="5.95441">
        <ele>1665.8</ele>
        <time>2026-08-13T13:20:45.748Z</time>
      </trkpt>
      <trkpt lat="44.49756" lon="5.95423">
        <ele>1665.2</ele>
        <time>2026-08-13T13:20:58.479Z</time>
      </trkpt>
      <trkpt lat="44.49754" lon="5.95407">
        <ele>1666.2</ele>
        <time>2026-08-13T13:21:12.662Z</time>
      </trkpt>
      <trkpt lat="44.49752" lon="5.95399">
        <ele>1666.4</ele>
        <time>2026-08-13T13:21:19.247Z</time>
      </trkpt>
      <trkpt lat="44.4975" lon="5.95393">
        <ele>1666.3</ele>
        <time>2026-08-13T13:21:23.950Z</time>
      </trkpt>
      <trkpt lat="44.49745" lon="5.95373">
        <ele>1666.6</ele>
        <time>2026-08-13T13:21:40.014Z</time>
      </trkpt>
      <trkpt lat="44.49741" lon="5.95361">
        <ele>1666.2</ele>
        <time>2026-08-13T13:21:49.170Z</time>
      </trkpt>
      <trkpt lat="44.49739" lon="5.95349">
        <ele>1666</ele>
        <time>2026-08-13T13:21:57.903Z</time>
      </trkpt>
      <trkpt lat="44.49738" lon="5.9534">
        <ele>1666.2</ele>
        <time>2026-08-13T13:22:04.948Z</time>
      </trkpt>
      <trkpt lat="44.49738" lon="5.95332">
        <ele>1667</ele>
        <time>2026-08-13T13:22:13.053Z</time>
      </trkpt>
      <trkpt lat="44.49738" lon="5.95328">
        <ele>1667.5</ele>
        <time>2026-08-13T13:22:17.596Z</time>
      </trkpt>
      <trkpt lat="44.49738" lon="5.95323">
        <ele>1668.1</ele>
        <time>2026-08-13T13:22:23.139Z</time>
      </trkpt>
      <trkpt lat="44.49737" lon="5.9532">
        <ele>1667.8</ele>
        <time>2026-08-13T13:22:25.290Z</time>
      </trkpt>
      <trkpt lat="44.49736" lon="5.95317">
        <ele>1667.5</ele>
        <time>2026-08-13T13:22:27.441Z</time>
      </trkpt>
      <trkpt lat="44.49735" lon="5.95314">
        <ele>1667.1</ele>
        <time>2026-08-13T13:22:29.590Z</time>
      </trkpt>
      <trkpt lat="44.49732" lon="5.95307">
        <ele>1665.9</ele>
        <time>2026-08-13T13:22:34.985Z</time>
      </trkpt>
      <trkpt lat="44.4973" lon="5.95292">
        <ele>1666.4</ele>
        <time>2026-08-13T13:22:47.146Z</time>
      </trkpt>
      <trkpt lat="44.49728" lon="5.9528">
        <ele>1666.6</ele>
        <time>2026-08-13T13:22:56.536Z</time>
      </trkpt>
      <trkpt lat="44.49726" lon="5.95271">
        <ele>1666.1</ele>
        <time>2026-08-13T13:23:02.845Z</time>
      </trkpt>
      <trkpt lat="44.49725" lon="5.95264">
        <ele>1665.9</ele>
        <time>2026-08-13T13:23:07.798Z</time>
      </trkpt>
      <trkpt lat="44.49724" lon="5.95257">
        <ele>1665.7</ele>
        <time>2026-08-13T13:23:12.751Z</time>
      </trkpt>
      <trkpt lat="44.4972" lon="5.95243">
        <ele>1665.1</ele>
        <time>2026-08-13T13:23:23.022Z</time>
      </trkpt>
      <trkpt lat="44.49715" lon="5.9523">
        <ele>1665</ele>
        <time>2026-08-13T13:23:33.690Z</time>
      </trkpt>
      <trkpt lat="44.4971" lon="5.95224">
        <ele>1663.5</ele>
        <time>2026-08-13T13:23:39.909Z</time>
      </trkpt>
      <trkpt lat="44.49707" lon="5.95218">
        <ele>1663.2</ele>
        <time>2026-08-13T13:23:44.891Z</time>
      </trkpt>
      <trkpt lat="44.49701" lon="5.95206">
        <ele>1662.4</ele>
        <time>2026-08-13T13:23:54.681Z</time>
      </trkpt>
      <trkpt lat="44.49699" lon="5.952">
        <ele>1662.4</ele>
        <time>2026-08-13T13:23:59.535Z</time>
      </trkpt>
      <trkpt lat="44.49699" lon="5.95193">
        <ele>1663.7</ele>
        <time>2026-08-13T13:24:10.697Z</time>
      </trkpt>
      <trkpt lat="44.49699" lon="5.95187">
        <ele>1664.8</ele>
        <time>2026-08-13T13:24:20.121Z</time>
      </trkpt>
      <trkpt lat="44.49697" lon="5.95181">
        <ele>1664.8</ele>
        <time>2026-08-13T13:24:24.975Z</time>
      </trkpt>
      <trkpt lat="44.49694" lon="5.9517">
        <ele>1665.1</ele>
        <time>2026-08-13T13:24:34.171Z</time>
      </trkpt>
      <trkpt lat="44.49693" lon="5.95164">
        <ele>1665.4</ele>
        <time>2026-08-13T13:24:39.325Z</time>
      </trkpt>
      <trkpt lat="44.49694" lon="5.95159">
        <ele>1666.3</ele>
        <time>2026-08-13T13:24:46.994Z</time>
      </trkpt>
      <trkpt lat="44.49694" lon="5.95154">
        <ele>1666.6</ele>
        <time>2026-08-13T13:24:51.336Z</time>
      </trkpt>
      <trkpt lat="44.49694" lon="5.95149">
        <ele>1667</ele>
        <time>2026-08-13T13:24:56.005Z</time>
      </trkpt>
      <trkpt lat="44.49694" lon="5.95142">
        <ele>1667.5</ele>
        <time>2026-08-13T13:25:02.336Z</time>
      </trkpt>
      <trkpt lat="44.49693" lon="5.95134">
        <ele>1667.1</ele>
        <time>2026-08-13T13:25:07.797Z</time>
      </trkpt>
      <trkpt lat="44.4969" lon="5.9512">
        <ele>1665.4</ele>
        <time>2026-08-13T13:25:17.271Z</time>
      </trkpt>
      <trkpt lat="44.49686" lon="5.95109">
        <ele>1663.3</ele>
        <time>2026-08-13T13:25:25.698Z</time>
      </trkpt>
      <trkpt lat="44.49681" lon="5.95095">
        <ele>1661.7</ele>
        <time>2026-08-13T13:25:35.839Z</time>
      </trkpt>
      <trkpt lat="44.49678" lon="5.9508">
        <ele>1661.2</ele>
        <time>2026-08-13T13:25:46.575Z</time>
      </trkpt>
      <trkpt lat="44.49675" lon="5.95064">
        <ele>1660.7</ele>
        <time>2026-08-13T13:25:58.010Z</time>
      </trkpt>
      <trkpt lat="44.49672" lon="5.95046">
        <ele>1660.2</ele>
        <time>2026-08-13T13:26:10.856Z</time>
      </trkpt>
      <trkpt lat="44.49671" lon="5.9503">
        <ele>1660.8</ele>
        <time>2026-08-13T13:26:23.829Z</time>
      </trkpt>
      <trkpt lat="44.4967" lon="5.95024">
        <ele>1660.6</ele>
        <time>2026-08-13T13:26:28.072Z</time>
      </trkpt>
      <trkpt lat="44.49669" lon="5.95019">
        <ele>1660.2</ele>
        <time>2026-08-13T13:26:31.471Z</time>
      </trkpt>
      <trkpt lat="44.49669" lon="5.95017">
        <ele>1660.4</ele>
        <time>2026-08-13T13:26:33.497Z</time>
      </trkpt>
      <trkpt lat="44.49668" lon="5.95014">
        <ele>1659.9</ele>
        <time>2026-08-13T13:26:35.694Z</time>
      </trkpt>
      <trkpt lat="44.49668" lon="5.9501">
        <ele>1660.2</ele>
        <time>2026-08-13T13:26:39.360Z</time>
      </trkpt>
      <trkpt lat="44.49667" lon="5.95003">
        <ele>1660</ele>
        <time>2026-08-13T13:26:44.313Z</time>
      </trkpt>
      <trkpt lat="44.49666" lon="5.94994">
        <ele>1660.2</ele>
        <time>2026-08-13T13:26:51.357Z</time>
      </trkpt>
      <trkpt lat="44.49664" lon="5.94982">
        <ele>1660.1</ele>
        <time>2026-08-13T13:27:00.233Z</time>
      </trkpt>
      <trkpt lat="44.49661" lon="5.94968">
        <ele>1659.7</ele>
        <time>2026-08-13T13:27:10.386Z</time>
      </trkpt>
      <trkpt lat="44.49656" lon="5.94951">
        <ele>1658.8</ele>
        <time>2026-08-13T13:27:22.755Z</time>
      </trkpt>
      <trkpt lat="44.49652" lon="5.94938">
        <ele>1657.9</ele>
        <time>2026-08-13T13:27:32.124Z</time>
      </trkpt>
      <trkpt lat="44.4965" lon="5.94929">
        <ele>1657.8</ele>
        <time>2026-08-13T13:27:38.878Z</time>
      </trkpt>
      <trkpt lat="44.49648" lon="5.94921">
        <ele>1657.6</ele>
        <time>2026-08-13T13:27:44.805Z</time>
      </trkpt>
      <trkpt lat="44.49646" lon="5.94915">
        <ele>1657.1</ele>
        <time>2026-08-13T13:27:49.143Z</time>
      </trkpt>
      <trkpt lat="44.49645" lon="5.94907">
        <ele>1657.5</ele>
        <time>2026-08-13T13:27:55.949Z</time>
      </trkpt>
      <trkpt lat="44.49643" lon="5.94899">
        <ele>1657.3</ele>
        <time>2026-08-13T13:28:01.876Z</time>
      </trkpt>
      <trkpt lat="44.49641" lon="5.94892">
        <ele>1656.9</ele>
        <time>2026-08-13T13:28:06.922Z</time>
      </trkpt>
      <trkpt lat="44.49637" lon="5.94884">
        <ele>1655.8</ele>
        <time>2026-08-13T13:28:13.250Z</time>
      </trkpt>
      <trkpt lat="44.49635" lon="5.94873">
        <ele>1656.6</ele>
        <time>2026-08-13T13:28:23.480Z</time>
      </trkpt>
      <trkpt lat="44.49633" lon="5.94864">
        <ele>1657.1</ele>
        <time>2026-08-13T13:28:31.478Z</time>
      </trkpt>
      <trkpt lat="44.4963" lon="5.94856">
        <ele>1656.9</ele>
        <time>2026-08-13T13:28:37.813Z</time>
      </trkpt>
      <trkpt lat="44.49627" lon="5.94846">
        <ele>1657.2</ele>
        <time>2026-08-13T13:28:46.335Z</time>
      </trkpt>
      <trkpt lat="44.49623" lon="5.94839">
        <ele>1656.2</ele>
        <time>2026-08-13T13:28:52.143Z</time>
      </trkpt>
      <trkpt lat="44.49619" lon="5.94833">
        <ele>1654.9</ele>
        <time>2026-08-13T13:28:57.644Z</time>
      </trkpt>
      <trkpt lat="44.49616" lon="5.94824">
        <ele>1655.1</ele>
        <time>2026-08-13T13:29:05.291Z</time>
      </trkpt>
      <trkpt lat="44.49612" lon="5.94811">
        <ele>1655.4</ele>
        <time>2026-08-13T13:29:16.219Z</time>
      </trkpt>
      <trkpt lat="44.49606" lon="5.948">
        <ele>1654.5</ele>
        <time>2026-08-13T13:29:25.370Z</time>
      </trkpt>
      <trkpt lat="44.496" lon="5.94786">
        <ele>1654.5</ele>
        <time>2026-08-13T13:29:37.341Z</time>
      </trkpt>
      <trkpt lat="44.49595" lon="5.94772">
        <ele>1654.6</ele>
        <time>2026-08-13T13:29:48.986Z</time>
      </trkpt>
      <trkpt lat="44.49592" lon="5.94764">
        <ele>1654.1</ele>
        <time>2026-08-13T13:29:55.019Z</time>
      </trkpt>
      <trkpt lat="44.4959" lon="5.94757">
        <ele>1654</ele>
        <time>2026-08-13T13:30:00.394Z</time>
      </trkpt>
      <trkpt lat="44.4959" lon="5.9475">
        <ele>1655.1</ele>
        <time>2026-08-13T13:30:09.802Z</time>
      </trkpt>
      <trkpt lat="44.4959" lon="5.94743">
        <ele>1655.8</ele>
        <time>2026-08-13T13:30:16.894Z</time>
      </trkpt>
      <trkpt lat="44.4959" lon="5.94738">
        <ele>1656.4</ele>
        <time>2026-08-13T13:30:22.438Z</time>
      </trkpt>
      <trkpt lat="44.4959" lon="5.94725">
        <ele>1657.8</ele>
        <time>2026-08-13T13:30:36.058Z</time>
      </trkpt>
      <trkpt lat="44.49589" lon="5.9472">
        <ele>1657.8</ele>
        <time>2026-08-13T13:30:39.864Z</time>
      </trkpt>
      <trkpt lat="44.49585" lon="5.94714">
        <ele>1656.2</ele>
        <time>2026-08-13T13:30:45.793Z</time>
      </trkpt>
      <trkpt lat="44.49582" lon="5.94708">
        <ele>1655.4</ele>
        <time>2026-08-13T13:30:50.538Z</time>
      </trkpt>
      <trkpt lat="44.49582" lon="5.94705">
        <ele>1655.9</ele>
        <time>2026-08-13T13:30:54.797Z</time>
      </trkpt>
      <trkpt lat="44.49582" lon="5.94702">
        <ele>1656.3</ele>
        <time>2026-08-13T13:30:58.347Z</time>
      </trkpt>
      <trkpt lat="44.49578" lon="5.94697">
        <ele>1655.3</ele>
        <time>2026-08-13T13:31:03.252Z</time>
      </trkpt>
      <trkpt lat="44.49573" lon="5.94687">
        <ele>1655.5</ele>
        <time>2026-08-13T13:31:12.561Z</time>
      </trkpt>
      <trkpt lat="44.49565" lon="5.94671">
        <ele>1656.5</ele>
        <time>2026-08-13T13:31:29.037Z</time>
      </trkpt>
      <trkpt lat="44.4956" lon="5.94662">
        <ele>1657</ele>
        <time>2026-08-13T13:31:38.435Z</time>
      </trkpt>
      <trkpt lat="44.49552" lon="5.94648">
        <ele>1657</ele>
        <time>2026-08-13T13:31:51.583Z</time>
      </trkpt>
      <trkpt lat="44.49547" lon="5.9464">
        <ele>1656.7</ele>
        <time>2026-08-13T13:31:58.960Z</time>
      </trkpt>
      <trkpt lat="44.49545" lon="5.94634">
        <ele>1657</ele>
        <time>2026-08-13T13:32:04.441Z</time>
      </trkpt>
      <trkpt lat="44.49534" lon="5.94611">
        <ele>1656.2</ele>
        <time>2026-08-13T13:32:23.625Z</time>
      </trkpt>
      <trkpt lat="44.49527" lon="5.94593">
        <ele>1655.9</ele>
        <time>2026-08-13T13:32:38.199Z</time>
      </trkpt>
      <trkpt lat="44.49522" lon="5.94576">
        <ele>1656.6</ele>
        <time>2026-08-13T13:32:53.083Z</time>
      </trkpt>
      <trkpt lat="44.49517" lon="5.94561">
        <ele>1657.1</ele>
        <time>2026-08-13T13:33:06.183Z</time>
      </trkpt>
      <trkpt lat="44.49515" lon="5.94554">
        <ele>1656.9</ele>
        <time>2026-08-13T13:33:11.428Z</time>
      </trkpt>
      <trkpt lat="44.49515" lon="5.94549">
        <ele>1656.2</ele>
        <time>2026-08-13T13:33:14.709Z</time>
      </trkpt>
      <trkpt lat="44.49517" lon="5.94542">
        <ele>1656.3</ele>
        <time>2026-08-13T13:33:20.412Z</time>
      </trkpt>
      <trkpt lat="44.4952" lon="5.94533">
        <ele>1656.9</ele>
        <time>2026-08-13T13:33:29.051Z</time>
      </trkpt>
      <trkpt lat="44.49524" lon="5.94523">
        <ele>1657.5</ele>
        <time>2026-08-13T13:33:38.755Z</time>
      </trkpt>
      <trkpt lat="44.49527" lon="5.94515">
        <ele>1657.3</ele>
        <time>2026-08-13T13:33:45.090Z</time>
      </trkpt>
      <trkpt lat="44.4953" lon="5.94507">
        <ele>1657.2</ele>
        <time>2026-08-13T13:33:51.561Z</time>
      </trkpt>
      <trkpt lat="44.49532" lon="5.94501">
        <ele>1657.1</ele>
        <time>2026-08-13T13:33:56.265Z</time>
      </trkpt>
      <trkpt lat="44.49533" lon="5.94494">
        <ele>1657.4</ele>
        <time>2026-08-13T13:34:02.113Z</time>
      </trkpt>
      <trkpt lat="44.49533" lon="5.94485">
        <ele>1657</ele>
        <time>2026-08-13T13:34:08.203Z</time>
      </trkpt>
      <trkpt lat="44.49533" lon="5.94476">
        <ele>1656.7</ele>
        <time>2026-08-13T13:34:14.393Z</time>
      </trkpt>
      <trkpt lat="44.49534" lon="5.94445">
        <ele>1657.5</ele>
        <time>2026-08-13T13:34:38.644Z</time>
      </trkpt>
      <trkpt lat="44.49533" lon="5.94412">
        <ele>1657.4</ele>
        <time>2026-08-13T13:35:02.693Z</time>
      </trkpt>
      <trkpt lat="44.49534" lon="5.94387">
        <ele>1657.9</ele>
        <time>2026-08-13T13:35:21.958Z</time>
      </trkpt>
      <trkpt lat="44.49534" lon="5.94375">
        <ele>1657</ele>
        <time>2026-08-13T13:35:29.822Z</time>
      </trkpt>
      <trkpt lat="44.49534" lon="5.94354">
        <ele>1656</ele>
        <time>2026-08-13T13:35:43.972Z</time>
      </trkpt>
      <trkpt lat="44.49535" lon="5.94345">
        <ele>1656.5</ele>
        <time>2026-08-13T13:35:51.747Z</time>
      </trkpt>
      <trkpt lat="44.49535" lon="5.94339">
        <ele>1656.5</ele>
        <time>2026-08-13T13:35:56.144Z</time>
      </trkpt>
      <trkpt lat="44.49535" lon="5.94334">
        <ele>1656.4</ele>
        <time>2026-08-13T13:35:59.663Z</time>
      </trkpt>
      <trkpt lat="44.49535" lon="5.94333">
        <ele>1656.4</ele>
        <time>2026-08-13T13:36:00.396Z</time>
        <extensions>
          <visugpx:TrkExtension xmlns:visugpx="https://www.visugpx.com/editgpx/">
            <visugpx:node>5</visugpx:node>
            </visugpx:TrkExtension>
        </extensions>
      </trkpt>
      <trkpt lat="44.49535" lon="5.94334">
        <ele>1656.4</ele>
        <time>2026-08-13T13:36:01.129Z</time>
      </trkpt>
      <trkpt lat="44.49536" lon="5.94328">
        <ele>1656.2</ele>
        <time>2026-08-13T13:36:05.373Z</time>
      </trkpt>
      <trkpt lat="44.49537" lon="5.94323">
        <ele>1656</ele>
        <time>2026-08-13T13:36:08.916Z</time>
      </trkpt>
      <trkpt lat="44.4954" lon="5.94318">
        <ele>1657.2</ele>
        <time>2026-08-13T13:36:19.200Z</time>
      </trkpt>
      <trkpt lat="44.49542" lon="5.94313">
        <ele>1657.8</ele>
        <time>2026-08-13T13:36:25.126Z</time>
      </trkpt>
      <trkpt lat="44.49543" lon="5.94308">
        <ele>1657.8</ele>
        <time>2026-08-13T13:36:28.932Z</time>
      </trkpt>
      <trkpt lat="44.49544" lon="5.94301">
        <ele>1657.8</ele>
        <time>2026-08-13T13:36:34.165Z</time>
      </trkpt>
      <trkpt lat="44.49546" lon="5.94304">
        <ele>1659.4</ele>
        <time>2026-08-13T13:36:51.861Z</time>
      </trkpt>
      <trkpt lat="44.49547" lon="5.94307">
        <ele>1660.3</ele>
        <time>2026-08-13T13:37:01.633Z</time>
      </trkpt>
      <trkpt lat="44.49548" lon="5.94312">
        <ele>1661.7</ele>
        <time>2026-08-13T13:37:16.710Z</time>
      </trkpt>
      <trkpt lat="44.49548" lon="5.94318">
        <ele>1662.4</ele>
        <time>2026-08-13T13:37:23.259Z</time>
      </trkpt>
      <trkpt lat="44.49548" lon="5.94323">
        <ele>1663.1</ele>
        <time>2026-08-13T13:37:29.382Z</time>
      </trkpt>
      <trkpt lat="44.49547" lon="5.94327">
        <ele>1662.9</ele>
        <time>2026-08-13T13:37:32.240Z</time>
      </trkpt>
      <trkpt lat="44.49547" lon="5.94332">
        <ele>1663.6</ele>
        <time>2026-08-13T13:37:38.364Z</time>
      </trkpt>
      <trkpt lat="44.49548" lon="5.94339">
        <ele>1664.5</ele>
        <time>2026-08-13T13:37:46.514Z</time>
      </trkpt>
      <trkpt lat="44.49548" lon="5.94346">
        <ele>1664.7</ele>
        <time>2026-08-13T13:37:52.026Z</time>
      </trkpt>
      <trkpt lat="44.49549" lon="5.94351">
        <ele>1665.5</ele>
        <time>2026-08-13T13:37:58.886Z</time>
      </trkpt>
      <trkpt lat="44.4955" lon="5.94354">
        <ele>1666.2</ele>
        <time>2026-08-13T13:38:05.147Z</time>
      </trkpt>
      <trkpt lat="44.49551" lon="5.94358">
        <ele>1667</ele>
        <time>2026-08-13T13:38:12.037Z</time>
      </trkpt>
      <trkpt lat="44.49551" lon="5.94364">
        <ele>1667.3</ele>
        <time>2026-08-13T13:38:17.077Z</time>
      </trkpt>
      <trkpt lat="44.49552" lon="5.94375">
        <ele>1668.7</ele>
        <time>2026-08-13T13:38:29.748Z</time>
      </trkpt>
      <trkpt lat="44.49553" lon="5.94384">
        <ele>1670</ele>
        <time>2026-08-13T13:38:41.064Z</time>
      </trkpt>
      <trkpt lat="44.49555" lon="5.94392">
        <ele>1671.6</ele>
        <time>2026-08-13T13:38:54.844Z</time>
      </trkpt>
      <trkpt lat="44.49556" lon="5.94395">
        <ele>1672.3</ele>
        <time>2026-08-13T13:39:01.105Z</time>
      </trkpt>
      <trkpt lat="44.49556" lon="5.94398">
        <ele>1672.3</ele>
        <time>2026-08-13T13:39:03.303Z</time>
      </trkpt>
      <trkpt lat="44.49556" lon="5.94404">
        <ele>1672.3</ele>
        <time>2026-08-13T13:39:07.701Z</time>
      </trkpt>
      <trkpt lat="44.49557" lon="5.94411">
        <ele>1673.1</ele>
        <time>2026-08-13T13:39:15.330Z</time>
      </trkpt>
      <trkpt lat="44.49558" lon="5.94416">
        <ele>1673.8</ele>
        <time>2026-08-13T13:39:21.522Z</time>
      </trkpt>
      <trkpt lat="44.49559" lon="5.94421">
        <ele>1674.8</ele>
        <time>2026-08-13T13:39:30.174Z</time>
      </trkpt>
      <trkpt lat="44.49559" lon="5.94425">
        <ele>1674.9</ele>
        <time>2026-08-13T13:39:33.293Z</time>
      </trkpt>
      <trkpt lat="44.4956" lon="5.9443">
        <ele>1675.9</ele>
        <time>2026-08-13T13:39:41.946Z</time>
      </trkpt>
      <trkpt lat="44.49561" lon="5.94433">
        <ele>1676.8</ele>
        <time>2026-08-13T13:39:51.718Z</time>
      </trkpt>
      <trkpt lat="44.49562" lon="5.94437">
        <ele>1677.8</ele>
        <time>2026-08-13T13:40:01.274Z</time>
      </trkpt>
      <trkpt lat="44.49563" lon="5.94443">
        <ele>1678.8</ele>
        <time>2026-08-13T13:40:09.802Z</time>
      </trkpt>
      <trkpt lat="44.49563" lon="5.9445">
        <ele>1678.7</ele>
        <time>2026-08-13T13:40:14.781Z</time>
      </trkpt>
      <trkpt lat="44.49565" lon="5.94457">
        <ele>1680.2</ele>
        <time>2026-08-13T13:40:27.881Z</time>
      </trkpt>
      <trkpt lat="44.49567" lon="5.94464">
        <ele>1681.7</ele>
        <time>2026-08-13T13:40:40.981Z</time>
      </trkpt>
      <trkpt lat="44.4957" lon="5.94478">
        <ele>1684.1</ele>
        <time>2026-08-13T13:41:01.434Z</time>
      </trkpt>
      <trkpt lat="44.49572" lon="5.94491">
        <ele>1685.9</ele>
        <time>2026-08-13T13:41:17.335Z</time>
      </trkpt>
      <trkpt lat="44.49574" lon="5.94505">
        <ele>1688.3</ele>
        <time>2026-08-13T13:41:37.775Z</time>
      </trkpt>
      <trkpt lat="44.49575" lon="5.94511">
        <ele>1689.8</ele>
        <time>2026-08-13T13:41:52.464Z</time>
      </trkpt>
      <trkpt lat="44.49576" lon="5.94515">
        <ele>1691.1</ele>
        <time>2026-08-13T13:42:08.397Z</time>
      </trkpt>
      <trkpt lat="44.49576" lon="5.94519">
        <ele>1691.6</ele>
        <time>2026-08-13T13:42:12.940Z</time>
      </trkpt>
      <trkpt lat="44.49575" lon="5.94524">
        <ele>1691.5</ele>
        <time>2026-08-13T13:42:16.599Z</time>
      </trkpt>
      <trkpt lat="44.49574" lon="5.94532">
        <ele>1691</ele>
        <time>2026-08-13T13:42:21.984Z</time>
      </trkpt>
      <trkpt lat="44.49576" lon="5.9454">
        <ele>1691.9</ele>
        <time>2026-08-13T13:42:30.806Z</time>
      </trkpt>
      <trkpt lat="44.49577" lon="5.94546">
        <ele>1692.1</ele>
        <time>2026-08-13T13:42:35.712Z</time>
      </trkpt>
      <trkpt lat="44.49579" lon="5.94552">
        <ele>1692.8</ele>
        <time>2026-08-13T13:42:42.590Z</time>
      </trkpt>
      <trkpt lat="44.49582" lon="5.94556">
        <ele>1694.1</ele>
        <time>2026-08-13T13:42:54.584Z</time>
      </trkpt>
      <trkpt lat="44.49589" lon="5.94565">
        <ele>1695.7</ele>
        <time>2026-08-13T13:43:09.359Z</time>
      </trkpt>
      <trkpt lat="44.49594" lon="5.94573">
        <ele>1696.4</ele>
        <time>2026-08-13T13:43:18.785Z</time>
      </trkpt>
      <trkpt lat="44.49597" lon="5.94577">
        <ele>1697</ele>
        <time>2026-08-13T13:43:24.752Z</time>
      </trkpt>
      <trkpt lat="44.496" lon="5.94581">
        <ele>1697.6</ele>
        <time>2026-08-13T13:43:30.718Z</time>
      </trkpt>
      <trkpt lat="44.49602" lon="5.94585">
        <ele>1697.7</ele>
        <time>2026-08-13T13:43:34.482Z</time>
      </trkpt>
      <trkpt lat="44.49605" lon="5.94588">
        <ele>1698.5</ele>
        <time>2026-08-13T13:43:41.336Z</time>
      </trkpt>
      <trkpt lat="44.49608" lon="5.94591">
        <ele>1699.4</ele>
        <time>2026-08-13T13:43:49.007Z</time>
      </trkpt>
      <trkpt lat="44.49621" lon="5.94606">
        <ele>1702.3</ele>
        <time>2026-08-13T13:44:15.538Z</time>
      </trkpt>
      <trkpt lat="44.49625" lon="5.94612">
        <ele>1702.7</ele>
        <time>2026-08-13T13:44:22.408Z</time>
      </trkpt>
      <trkpt lat="44.49631" lon="5.94619">
        <ele>1703.9</ele>
        <time>2026-08-13T13:44:33.975Z</time>
      </trkpt>
      <trkpt lat="44.49636" lon="5.94626">
        <ele>1704.7</ele>
        <time>2026-08-13T13:44:43.254Z</time>
      </trkpt>
      <trkpt lat="44.49638" lon="5.94629">
        <ele>1705</ele>
        <time>2026-08-13T13:44:46.990Z</time>
      </trkpt>
      <trkpt lat="44.49643" lon="5.94636">
        <ele>1706.1</ele>
        <time>2026-08-13T13:44:57.527Z</time>
      </trkpt>
      <trkpt lat="44.49647" lon="5.94639">
        <ele>1707.6</ele>
        <time>2026-08-13T13:45:11.858Z</time>
      </trkpt>
      <trkpt lat="44.49649" lon="5.94641">
        <ele>1708.3</ele>
        <time>2026-08-13T13:45:18.017Z</time>
      </trkpt>
      <trkpt lat="44.49652" lon="5.94642">
        <ele>1709.8</ele>
        <time>2026-08-13T13:45:36.647Z</time>
      </trkpt>
      <trkpt lat="44.49654" lon="5.94646">
        <ele>1710.1</ele>
        <time>2026-08-13T13:45:40.910Z</time>
      </trkpt>
      <trkpt lat="44.49657" lon="5.9465">
        <ele>1710.9</ele>
        <time>2026-08-13T13:45:47.939Z</time>
      </trkpt>
      <trkpt lat="44.49659" lon="5.94652">
        <ele>1711.6</ele>
        <time>2026-08-13T13:45:54.098Z</time>
      </trkpt>
      <trkpt lat="44.49661" lon="5.94653">
        <ele>1712.6</ele>
        <time>2026-08-13T13:46:06.926Z</time>
      </trkpt>
      <trkpt lat="44.49663" lon="5.9466">
        <ele>1712.2</ele>
        <time>2026-08-13T13:46:11.973Z</time>
      </trkpt>
      <trkpt lat="44.49665" lon="5.94664">
        <ele>1712.6</ele>
        <time>2026-08-13T13:46:16.569Z</time>
      </trkpt>
      <trkpt lat="44.49667" lon="5.94669">
        <ele>1712.8</ele>
        <time>2026-08-13T13:46:21.166Z</time>
      </trkpt>
      <trkpt lat="44.4967" lon="5.94674">
        <ele>1713.9</ele>
        <time>2026-08-13T13:46:30.534Z</time>
      </trkpt>
      <trkpt lat="44.49671" lon="5.94676">
        <ele>1714.2</ele>
        <time>2026-08-13T13:46:33.278Z</time>
      </trkpt>
      <trkpt lat="44.49674" lon="5.94682">
        <ele>1715</ele>
        <time>2026-08-13T13:46:41.007Z</time>
      </trkpt>
      <trkpt lat="44.49676" lon="5.94687">
        <ele>1715.2</ele>
        <time>2026-08-13T13:46:45.604Z</time>
      </trkpt>
      <trkpt lat="44.4968" lon="5.94692">
        <ele>1716.7</ele>
        <time>2026-08-13T13:46:58.719Z</time>
      </trkpt>
      <trkpt lat="44.49684" lon="5.94696">
        <ele>1718.4</ele>
        <time>2026-08-13T13:47:15.559Z</time>
      </trkpt>
      <trkpt lat="44.49687" lon="5.94699">
        <ele>1720</ele>
        <time>2026-08-13T13:47:35.327Z</time>
      </trkpt>
      <trkpt lat="44.49689" lon="5.94702">
        <ele>1720.9</ele>
        <time>2026-08-13T13:47:43.527Z</time>
      </trkpt>
      <trkpt lat="44.49691" lon="5.94709">
        <ele>1721.3</ele>
        <time>2026-08-13T13:47:49.924Z</time>
      </trkpt>
      <trkpt lat="44.49692" lon="5.94717">
        <ele>1721.1</ele>
        <time>2026-08-13T13:47:55.592Z</time>
      </trkpt>
      <trkpt lat="44.49693" lon="5.94725">
        <ele>1720.9</ele>
        <time>2026-08-13T13:48:01.259Z</time>
      </trkpt>
      <trkpt lat="44.49693" lon="5.94731">
        <ele>1720.5</ele>
        <time>2026-08-13T13:48:05.218Z</time>
      </trkpt>
      <trkpt lat="44.49696" lon="5.94736">
        <ele>1722.1</ele>
        <time>2026-08-13T13:48:20.964Z</time>
      </trkpt>
      <trkpt lat="44.49698" lon="5.94741">
        <ele>1723</ele>
        <time>2026-08-13T13:48:28.662Z</time>
      </trkpt>
      <trkpt lat="44.49701" lon="5.94744">
        <ele>1724.8</ele>
        <time>2026-08-13T13:48:50.925Z</time>
      </trkpt>
      <trkpt lat="44.49703" lon="5.94748">
        <ele>1725.7</ele>
        <time>2026-08-13T13:48:58.642Z</time>
      </trkpt>
      <trkpt lat="44.49705" lon="5.94751">
        <ele>1726.6</ele>
        <time>2026-08-13T13:49:06.842Z</time>
      </trkpt>
      <trkpt lat="44.49706" lon="5.94756">
        <ele>1726.1</ele>
        <time>2026-08-13T13:49:10.209Z</time>
      </trkpt>
      <trkpt lat="44.49709" lon="5.9476">
        <ele>1727.1</ele>
        <time>2026-08-13T13:49:18.728Z</time>
      </trkpt>
      <trkpt lat="44.49712" lon="5.94763">
        <ele>1728.3</ele>
        <time>2026-08-13T13:49:30.067Z</time>
      </trkpt>
      <trkpt lat="44.49714" lon="5.94765">
        <ele>1729.1</ele>
        <time>2026-08-13T13:49:37.626Z</time>
      </trkpt>
      <trkpt lat="44.49715" lon="5.94768">
        <ele>1729</ele>
        <time>2026-08-13T13:49:39.915Z</time>
      </trkpt>
      <trkpt lat="44.4972" lon="5.94775">
        <ele>1730.3</ele>
        <time>2026-08-13T13:49:51.517Z</time>
      </trkpt>
      <trkpt lat="44.49727" lon="5.94786">
        <ele>1731.9</ele>
        <time>2026-08-13T13:50:07.020Z</time>
      </trkpt>
      <trkpt lat="44.49735" lon="5.94799">
        <ele>1733.4</ele>
        <time>2026-08-13T13:50:23.526Z</time>
      </trkpt>
      <trkpt lat="44.49738" lon="5.94801">
        <ele>1734.6</ele>
        <time>2026-08-13T13:50:35.884Z</time>
      </trkpt>
      <trkpt lat="44.49741" lon="5.94802">
        <ele>1736</ele>
        <time>2026-08-13T13:50:53.682Z</time>
      </trkpt>
      <trkpt lat="44.49745" lon="5.94803">
        <ele>1737.9</ele>
        <time>2026-08-13T13:51:18.229Z</time>
      </trkpt>
      <trkpt lat="44.49747" lon="5.94805">
        <ele>1738.5</ele>
        <time>2026-08-13T13:51:23.343Z</time>
      </trkpt>
      <trkpt lat="44.49754" lon="5.94816">
        <ele>1741.1</ele>
        <time>2026-08-13T13:51:45.522Z</time>
      </trkpt>
      <trkpt lat="44.49757" lon="5.94824">
        <ele>1742</ele>
        <time>2026-08-13T13:51:54.661Z</time>
      </trkpt>
      <trkpt lat="44.49761" lon="5.94833">
        <ele>1743.6</ele>
        <time>2026-08-13T13:52:08.427Z</time>
      </trkpt>
      <trkpt lat="44.49764" lon="5.94841">
        <ele>1745.3</ele>
        <time>2026-08-13T13:52:23.057Z</time>
      </trkpt>
      <trkpt lat="44.49766" lon="5.94853">
        <ele>1746.2</ele>
        <time>2026-08-13T13:52:34.268Z</time>
      </trkpt>
      <trkpt lat="44.49768" lon="5.94859">
        <ele>1747.4</ele>
        <time>2026-08-13T13:52:44.532Z</time>
      </trkpt>
      <trkpt lat="44.49768" lon="5.94866">
        <ele>1747.1</ele>
        <time>2026-08-13T13:52:49.279Z</time>
      </trkpt>
      <trkpt lat="44.4977" lon="5.94873">
        <ele>1748.3</ele>
        <time>2026-08-13T13:52:59.528Z</time>
      </trkpt>
      <trkpt lat="44.49771" lon="5.94877">
        <ele>1748.8</ele>
        <time>2026-08-13T13:53:04.183Z</time>
      </trkpt>
      <trkpt lat="44.49771" lon="5.94879">
        <ele>1748.7</ele>
        <time>2026-08-13T13:53:05.526Z</time>
      </trkpt>
      <trkpt lat="44.49771" lon="5.94883">
        <ele>1748.6</ele>
        <time>2026-08-13T13:53:08.316Z</time>
      </trkpt>
      <trkpt lat="44.49772" lon="5.94887">
        <ele>1749.1</ele>
        <time>2026-08-13T13:53:12.970Z</time>
      </trkpt>
      <trkpt lat="44.49775" lon="5.94892">
        <ele>1750.7</ele>
        <time>2026-08-13T13:53:28.716Z</time>
      </trkpt>
      <trkpt lat="44.49777" lon="5.94898">
        <ele>1751.5</ele>
        <time>2026-08-13T13:53:36.087Z</time>
      </trkpt>
      <trkpt lat="44.49779" lon="5.94904">
        <ele>1752.5</ele>
        <time>2026-08-13T13:53:44.689Z</time>
      </trkpt>
      <trkpt lat="44.49782" lon="5.94915">
        <ele>1753.6</ele>
        <time>2026-08-13T13:53:56.293Z</time>
      </trkpt>
      <trkpt lat="44.49785" lon="5.94925">
        <ele>1753.7</ele>
        <time>2026-08-13T13:54:04.416Z</time>
      </trkpt>
      <trkpt lat="44.49788" lon="5.94936">
        <ele>1753.2</ele>
        <time>2026-08-13T13:54:12.406Z</time>
      </trkpt>
      <trkpt lat="44.4979" lon="5.94944">
        <ele>1752.5</ele>
        <time>2026-08-13T13:54:17.934Z</time>
      </trkpt>
      <trkpt lat="44.49792" lon="5.94948">
        <ele>1753.2</ele>
        <time>2026-08-13T13:54:24.021Z</time>
      </trkpt>
      <trkpt lat="44.49796" lon="5.94953">
        <ele>1755</ele>
        <time>2026-08-13T13:54:41.425Z</time>
      </trkpt>
      <trkpt lat="44.49798" lon="5.94958">
        <ele>1755.5</ele>
        <time>2026-08-13T13:54:46.933Z</time>
      </trkpt>
      <trkpt lat="44.49801" lon="5.94966">
        <ele>1756.1</ele>
        <time>2026-08-13T13:54:54.959Z</time>
      </trkpt>
      <trkpt lat="44.49806" lon="5.94982">
        <ele>1756.6</ele>
        <time>2026-08-13T13:55:08.717Z</time>
      </trkpt>
      <trkpt lat="44.4981" lon="5.94995">
        <ele>1757.2</ele>
        <time>2026-08-13T13:55:20.328Z</time>
      </trkpt>
      <trkpt lat="44.49813" lon="5.95003">
        <ele>1757.7</ele>
        <time>2026-08-13T13:55:28.053Z</time>
      </trkpt>
      <trkpt lat="44.49817" lon="5.95013">
        <ele>1758</ele>
        <time>2026-08-13T13:55:37.022Z</time>
      </trkpt>
      <trkpt lat="44.4982" lon="5.95022">
        <ele>1757.8</ele>
        <time>2026-08-13T13:55:44.011Z</time>
      </trkpt>
      <trkpt lat="44.49824" lon="5.95035">
        <ele>1757.6</ele>
        <time>2026-08-13T13:55:54.085Z</time>
      </trkpt>
      <trkpt lat="44.49825" lon="5.95041">
        <ele>1757</ele>
        <time>2026-08-13T13:55:58.079Z</time>
      </trkpt>
      <trkpt lat="44.49826" lon="5.95045">
        <ele>1756.9</ele>
        <time>2026-08-13T13:56:01.042Z</time>
      </trkpt>
      <trkpt lat="44.49829" lon="5.95052">
        <ele>1757.2</ele>
        <time>2026-08-13T13:56:07.626Z</time>
      </trkpt>
      <trkpt lat="44.49834" lon="5.95063">
        <ele>1758.5</ele>
        <time>2026-08-13T13:56:20.821Z</time>
      </trkpt>
      <trkpt lat="44.4984" lon="5.95076">
        <ele>1760.9</ele>
        <time>2026-08-13T13:56:41.383Z</time>
      </trkpt>
      <trkpt lat="44.49843" lon="5.95083">
        <ele>1761.7</ele>
        <time>2026-08-13T13:56:49.585Z</time>
      </trkpt>
      <trkpt lat="44.49845" lon="5.9509">
        <ele>1762.3</ele>
        <time>2026-08-13T13:56:56.615Z</time>
      </trkpt>
      <trkpt lat="44.49846" lon="5.95097">
        <ele>1762.2</ele>
        <time>2026-08-13T13:57:01.696Z</time>
      </trkpt>
      <trkpt lat="44.49849" lon="5.95109">
        <ele>1762.8</ele>
        <time>2026-08-13T13:57:12.282Z</time>
      </trkpt>
      <trkpt lat="44.4985" lon="5.95118">
        <ele>1762.7</ele>
        <time>2026-08-13T13:57:18.803Z</time>
      </trkpt>
      <trkpt lat="44.49852" lon="5.95124">
        <ele>1763.5</ele>
        <time>2026-08-13T13:57:26.174Z</time>
      </trkpt>
      <trkpt lat="44.49854" lon="5.95131">
        <ele>1764.2</ele>
        <time>2026-08-13T13:57:33.586Z</time>
      </trkpt>
      <trkpt lat="44.49856" lon="5.95138">
        <ele>1764.9</ele>
        <time>2026-08-13T13:57:40.999Z</time>
      </trkpt>
      <trkpt lat="44.49857" lon="5.95148">
        <ele>1764.6</ele>
        <time>2026-08-13T13:57:47.984Z</time>
      </trkpt>
      <trkpt lat="44.4986" lon="5.95158">
        <ele>1765.3</ele>
        <time>2026-08-13T13:57:57.554Z</time>
      </trkpt>
      <trkpt lat="44.49862" lon="5.95166">
        <ele>1765.7</ele>
        <time>2026-08-13T13:58:04.611Z</time>
      </trkpt>
      <trkpt lat="44.49866" lon="5.95175">
        <ele>1767.6</ele>
        <time>2026-08-13T13:58:20.842Z</time>
      </trkpt>
      <trkpt lat="44.49869" lon="5.95182">
        <ele>1769</ele>
        <time>2026-08-13T13:58:32.767Z</time>
      </trkpt>
      <trkpt lat="44.49872" lon="5.9519">
        <ele>1770.1</ele>
        <time>2026-08-13T13:58:42.869Z</time>
      </trkpt>
      <trkpt lat="44.49876" lon="5.952">
        <ele>1771</ele>
        <time>2026-08-13T13:58:53.516Z</time>
      </trkpt>
      <trkpt lat="44.49882" lon="5.95212">
        <ele>1772.1</ele>
        <time>2026-08-13T13:59:06.948Z</time>
      </trkpt>
      <trkpt lat="44.49885" lon="5.95219">
        <ele>1772.4</ele>
        <time>2026-08-13T13:59:13.532Z</time>
      </trkpt>
      <trkpt lat="44.49888" lon="5.95229">
        <ele>1772.3</ele>
        <time>2026-08-13T13:59:21.327Z</time>
      </trkpt>
      <trkpt lat="44.49895" lon="5.95244">
        <ele>1773.9</ele>
        <time>2026-08-13T13:59:38.692Z</time>
      </trkpt>
      <trkpt lat="44.49895" lon="5.95247">
        <ele>1773.3</ele>
        <time>2026-08-13T13:59:40.890Z</time>
      </trkpt>
      <trkpt lat="44.49895" lon="5.9525">
        <ele>1772.7</ele>
        <time>2026-08-13T13:59:43.089Z</time>
      </trkpt>
      <trkpt lat="44.49898" lon="5.95255">
        <ele>1774</ele>
        <time>2026-08-13T13:59:54.443Z</time>
      </trkpt>
      <trkpt lat="44.499" lon="5.95258">
        <ele>1774.9</ele>
        <time>2026-08-13T14:00:02.643Z</time>
      </trkpt>
      <trkpt lat="44.49902" lon="5.95264">
        <ele>1775.5</ele>
        <time>2026-08-13T14:00:09.093Z</time>
      </trkpt>
      <trkpt lat="44.49905" lon="5.95273">
        <ele>1776.4</ele>
        <time>2026-08-13T14:00:18.769Z</time>
      </trkpt>
      <trkpt lat="44.49906" lon="5.95279">
        <ele>1776.4</ele>
        <time>2026-08-13T14:00:23.285Z</time>
      </trkpt>
      <trkpt lat="44.49907" lon="5.9528">
        <ele>1777</ele>
        <time>2026-08-13T14:00:30.706Z</time>
      </trkpt>
      <trkpt lat="44.49908" lon="5.95286">
        <ele>1777.3</ele>
        <time>2026-08-13T14:00:35.860Z</time>
      </trkpt>
      <trkpt lat="44.49909" lon="5.95289">
        <ele>1777.8</ele>
        <time>2026-08-13T14:00:40.161Z</time>
      </trkpt>
      <trkpt lat="44.4991" lon="5.95296">
        <ele>1778.1</ele>
        <time>2026-08-13T14:00:46.009Z</time>
      </trkpt>
      <trkpt lat="44.4991" lon="5.95302">
        <ele>1777.8</ele>
        <time>2026-08-13T14:00:50.039Z</time>
      </trkpt>
      <trkpt lat="44.49911" lon="5.95307">
        <ele>1778.2</ele>
        <time>2026-08-13T14:00:54.834Z</time>
      </trkpt>
      <trkpt lat="44.49912" lon="5.95311">
        <ele>1778.6</ele>
        <time>2026-08-13T14:00:59.027Z</time>
      </trkpt>
      <trkpt lat="44.49913" lon="5.95314">
        <ele>1779</ele>
        <time>2026-08-13T14:01:02.712Z</time>
      </trkpt>
      <trkpt lat="44.49913" lon="5.95326">
        <ele>1778.2</ele>
        <time>2026-08-13T14:01:10.630Z</time>
      </trkpt>
      <trkpt lat="44.49914" lon="5.95333">
        <ele>1778.3</ele>
        <time>2026-08-13T14:01:16.039Z</time>
      </trkpt>
      <trkpt lat="44.49916" lon="5.95335">
        <ele>1779.4</ele>
        <time>2026-08-13T14:01:29.924Z</time>
      </trkpt>
      <trkpt lat="44.49917" lon="5.95337">
        <ele>1779.8</ele>
        <time>2026-08-13T14:01:33.333Z</time>
      </trkpt>
      <trkpt lat="44.49922" lon="5.95355">
        <ele>1781.1</ele>
        <time>2026-08-13T14:01:50.542Z</time>
      </trkpt>
      <trkpt lat="44.49925" lon="5.95365">
        <ele>1782</ele>
        <time>2026-08-13T14:02:00.791Z</time>
      </trkpt>
      <trkpt lat="44.49926" lon="5.95369">
        <ele>1782.3</ele>
        <time>2026-08-13T14:02:04.615Z</time>
      </trkpt>
      <trkpt lat="44.49927" lon="5.95372">
        <ele>1782.7</ele>
        <time>2026-08-13T14:02:08.300Z</time>
      </trkpt>
      <trkpt lat="44.49933" lon="5.95389">
        <ele>1785.2</ele>
        <time>2026-08-13T14:02:30.576Z</time>
      </trkpt>
      <trkpt lat="44.49935" lon="5.95394">
        <ele>1785.9</ele>
        <time>2026-08-13T14:02:36.996Z</time>
      </trkpt>
      <trkpt lat="44.4994" lon="5.95406">
        <ele>1787.6</ele>
        <time>2026-08-13T14:02:52.576Z</time>
      </trkpt>
      <trkpt lat="44.49941" lon="5.95412">
        <ele>1787.4</ele>
        <time>2026-08-13T14:02:56.820Z</time>
      </trkpt>
      <trkpt lat="44.49941" lon="5.95415">
        <ele>1787</ele>
        <time>2026-08-13T14:02:58.779Z</time>
      </trkpt>
      <trkpt lat="44.49945" lon="5.95425">
        <ele>1788.5</ele>
        <time>2026-08-13T14:03:12.178Z</time>
      </trkpt>
      <trkpt lat="44.49947" lon="5.95429">
        <ele>1789.4</ele>
        <time>2026-08-13T14:03:19.895Z</time>
      </trkpt>
      <trkpt lat="44.49949" lon="5.95437">
        <ele>1789.9</ele>
        <time>2026-08-13T14:03:27.231Z</time>
      </trkpt>
      <trkpt lat="44.49951" lon="5.95442">
        <ele>1790.7</ele>
        <time>2026-08-13T14:03:34.235Z</time>
      </trkpt>
      <trkpt lat="44.49953" lon="5.95447">
        <ele>1791.6</ele>
        <time>2026-08-13T14:03:41.934Z</time>
      </trkpt>
      <trkpt lat="44.49955" lon="5.95453">
        <ele>1792.3</ele>
        <time>2026-08-13T14:03:48.811Z</time>
      </trkpt>
      <trkpt lat="44.49956" lon="5.95455">
        <ele>1792.8</ele>
        <time>2026-08-13T14:03:53.223Z</time>
      </trkpt>
      <trkpt lat="44.49957" lon="5.95463">
        <ele>1792.6</ele>
        <time>2026-08-13T14:03:58.890Z</time>
      </trkpt>
      <trkpt lat="44.49963" lon="5.9548">
        <ele>1795.1</ele>
        <time>2026-08-13T14:04:21.166Z</time>
      </trkpt>
      <trkpt lat="44.49969" lon="5.95499">
        <ele>1797.9</ele>
        <time>2026-08-13T14:04:45.936Z</time>
      </trkpt>
      <trkpt lat="44.49969" lon="5.95503">
        <ele>1797.2</ele>
        <time>2026-08-13T14:04:48.692Z</time>
      </trkpt>
      <trkpt lat="44.4997" lon="5.9551">
        <ele>1796.4</ele>
        <time>2026-08-13T14:04:53.315Z</time>
      </trkpt>
      <trkpt lat="44.49971" lon="5.95515">
        <ele>1796</ele>
        <time>2026-08-13T14:04:56.713Z</time>
      </trkpt>
      <trkpt lat="44.49976" lon="5.95524">
        <ele>1797.9</ele>
        <time>2026-08-13T14:05:12.897Z</time>
      </trkpt>
      <trkpt lat="44.49978" lon="5.95527">
        <ele>1798.9</ele>
        <time>2026-08-13T14:05:22.693Z</time>
      </trkpt>
      <trkpt lat="44.49985" lon="5.95539">
        <ele>1800.9</ele>
        <time>2026-08-13T14:05:40.648Z</time>
      </trkpt>
      <trkpt lat="44.49988" lon="5.95545">
        <ele>1801.5</ele>
        <time>2026-08-13T14:05:47.541Z</time>
      </trkpt>
      <trkpt lat="44.49994" lon="5.95562">
        <ele>1801.3</ele>
        <time>2026-08-13T14:06:01.134Z</time>
      </trkpt>
      <trkpt lat="44.49996" lon="5.95569">
        <ele>1801</ele>
        <time>2026-08-13T14:06:06.269Z</time>
      </trkpt>
      <trkpt lat="44.49998" lon="5.95575">
        <ele>1800.9</ele>
        <time>2026-08-13T14:06:10.973Z</time>
      </trkpt>
      <trkpt lat="44.49999" lon="5.95575">
        <ele>1801.6</ele>
        <time>2026-08-13T14:06:17.014Z</time>
      </trkpt>
      <trkpt lat="44.49999" lon="5.95575">
        <ele>1801.6</ele>
        <time>2026-08-13T14:06:17.014Z</time>
      </trkpt>
      <trkpt lat="44.50001" lon="5.95577">
        <ele>1802.8</ele>
        <time>2026-08-13T14:06:31.856Z</time>
      </trkpt>
      <trkpt lat="44.50002" lon="5.9558">
        <ele>1803</ele>
        <time>2026-08-13T14:06:34.735Z</time>
      </trkpt>
      <trkpt lat="44.50003" lon="5.95581">
        <ele>1803.6</ele>
        <time>2026-08-13T14:06:42.156Z</time>
      </trkpt>
      <trkpt lat="44.50004" lon="5.95582">
        <ele>1804.3</ele>
        <time>2026-08-13T14:06:49.577Z</time>
      </trkpt>
      <trkpt lat="44.50008" lon="5.95592">
        <ele>1805.7</ele>
        <time>2026-08-13T14:07:02.417Z</time>
      </trkpt>
      <trkpt lat="44.50008" lon="5.95593">
        <ele>1805.4</ele>
        <time>2026-08-13T14:07:03.915Z</time>
      </trkpt>
      <trkpt lat="44.5001" lon="5.95596">
        <ele>1806.5</ele>
        <time>2026-08-13T14:07:15.684Z</time>
      </trkpt>
      <trkpt lat="44.50011" lon="5.95599">
        <ele>1806.5</ele>
        <time>2026-08-13T14:07:18.111Z</time>
      </trkpt>
      <trkpt lat="44.50014" lon="5.95608">
        <ele>1806.5</ele>
        <time>2026-08-13T14:07:25.392Z</time>
      </trkpt>
      <trkpt lat="44.50015" lon="5.9561">
        <ele>1806.7</ele>
        <time>2026-08-13T14:07:27.690Z</time>
      </trkpt>
      <trkpt lat="44.50016" lon="5.95612">
        <ele>1806.9</ele>
        <time>2026-08-13T14:07:29.988Z</time>
      </trkpt>
      <trkpt lat="44.50016" lon="5.95614">
        <ele>1806.3</ele>
        <time>2026-08-13T14:07:32.983Z</time>
      </trkpt>
      <trkpt lat="44.50016" lon="5.95619">
        <ele>1805.1</ele>
        <time>2026-08-13T14:07:37.305Z</time>
      </trkpt>
      <trkpt lat="44.50018" lon="5.95623">
        <ele>1805.3</ele>
        <time>2026-08-13T14:07:41.293Z</time>
      </trkpt>
      <trkpt lat="44.50019" lon="5.95627">
        <ele>1804.7</ele>
        <time>2026-08-13T14:07:44.078Z</time>
      </trkpt>
      <trkpt lat="44.50021" lon="5.9563">
        <ele>1804.9</ele>
        <time>2026-08-13T14:07:47.513Z</time>
      </trkpt>
      <trkpt lat="44.50023" lon="5.95632">
        <ele>1805.3</ele>
        <time>2026-08-13T14:07:51.263Z</time>
      </trkpt>
      <trkpt lat="44.50026" lon="5.95634">
        <ele>1806.1</ele>
        <time>2026-08-13T14:07:58.078Z</time>
      </trkpt>
      <trkpt lat="44.50031" lon="5.95636">
        <ele>1807.1</ele>
        <time>2026-08-13T14:08:06.876Z</time>
      </trkpt>
      <trkpt lat="44.50038" lon="5.95639">
        <ele>1807.9</ele>
        <time>2026-08-13T14:08:16.386Z</time>
      </trkpt>
      <trkpt lat="44.50046" lon="5.95642">
        <ele>1808.8</ele>
        <time>2026-08-13T14:08:27.126Z</time>
      </trkpt>
      <trkpt lat="44.50048" lon="5.95643">
        <ele>1808.9</ele>
        <time>2026-08-13T14:08:29.504Z</time>
      </trkpt>
      <trkpt lat="44.50058" lon="5.95647">
        <ele>1810.2</ele>
        <time>2026-08-13T14:08:43.623Z</time>
      </trkpt>
      <trkpt lat="44.50064" lon="5.95651">
        <ele>1810.7</ele>
        <time>2026-08-13T14:08:51.541Z</time>
      </trkpt>
      <trkpt lat="44.50068" lon="5.95653">
        <ele>1811.3</ele>
        <time>2026-08-13T14:08:57.593Z</time>
      </trkpt>
      <trkpt lat="44.50073" lon="5.95658">
        <ele>1810.7</ele>
        <time>2026-08-13T14:09:03.259Z</time>
      </trkpt>
      <trkpt lat="44.50082" lon="5.95663">
        <ele>1811.5</ele>
        <time>2026-08-13T14:09:15.002Z</time>
      </trkpt>
      <trkpt lat="44.50082" lon="5.95663">
        <ele>1811.5</ele>
        <time>2026-08-13T14:09:15.002Z</time>
      </trkpt>
      <trkpt lat="44.50086" lon="5.95666">
        <ele>1812.2</ele>
        <time>2026-08-13T14:09:21.737Z</time>
      </trkpt>
      <trkpt lat="44.5009" lon="5.95669">
        <ele>1813.3</ele>
        <time>2026-08-13T14:09:31.109Z</time>
      </trkpt>
      <trkpt lat="44.50094" lon="5.9567">
        <ele>1815.4</ele>
        <time>2026-08-13T14:09:55.657Z</time>
      </trkpt>
      <trkpt lat="44.501" lon="5.95674">
        <ele>1816.9</ele>
        <time>2026-08-13T14:10:08.455Z</time>
      </trkpt>
      <trkpt lat="44.50108" lon="5.95683">
        <ele>1816</ele>
        <time>2026-08-13T14:10:17.980Z</time>
      </trkpt>
      <trkpt lat="44.50112" lon="5.95685">
        <ele>1817.3</ele>
        <time>2026-08-13T14:10:29.799Z</time>
      </trkpt>
      <trkpt lat="44.50117" lon="5.95688">
        <ele>1820.1</ele>
        <time>2026-08-13T14:11:02.657Z</time>
      </trkpt>
      <trkpt lat="44.50132" lon="5.95702">
        <ele>1823.2</ele>
        <time>2026-08-13T14:11:31.031Z</time>
      </trkpt>
      <trkpt lat="44.50136" lon="5.95705">
        <ele>1824.1</ele>
        <time>2026-08-13T14:11:38.882Z</time>
      </trkpt>
      <trkpt lat="44.5014" lon="5.95709">
        <ele>1824.4</ele>
        <time>2026-08-13T14:11:44.552Z</time>
      </trkpt>
      <trkpt lat="44.50148" lon="5.95715">
        <ele>1829.7</ele>
        <time>2026-08-13T14:12:39.365Z</time>
      </trkpt>
      <trkpt lat="44.50169" lon="5.95734">
        <ele>1839.3</ele>
        <time>2026-08-13T14:14:24.476Z</time>
      </trkpt>
      <trkpt lat="44.50172" lon="5.95737">
        <ele>1841.4</ele>
        <time>2026-08-13T14:14:46.738Z</time>
      </trkpt>
      <trkpt lat="44.50178" lon="5.95739">
        <ele>1849.3</ele>
        <time>2026-08-13T14:15:23.998Z</time>
      </trkpt>
      <trkpt lat="44.50182" lon="5.95742">
        <ele>1852.7</ele>
        <time>2026-08-13T14:15:51.404Z</time>
      </trkpt>
      <trkpt lat="44.50186" lon="5.95746">
        <ele>1855</ele>
        <time>2026-08-13T14:16:21.087Z</time>
      </trkpt>
      <trkpt lat="44.50194" lon="5.95754">
        <ele>1859.3</ele>
        <time>2026-08-13T14:17:14.537Z</time>
      </trkpt>
      <trkpt lat="44.50197" lon="5.95758">
        <ele>1860.4</ele>
        <time>2026-08-13T14:17:24.019Z</time>
      </trkpt>
      <trkpt lat="44.50198" lon="5.95759">
        <ele>1861.2</ele>
        <time>2026-08-13T14:17:31.440Z</time>
      </trkpt>
      <trkpt lat="44.50203" lon="5.95766">
        <ele>1862.6</ele>
        <time>2026-08-13T14:17:43.657Z</time>
      </trkpt>
      <trkpt lat="44.50208" lon="5.95774">
        <ele>1862.5</ele>
        <time>2026-08-13T14:17:51.297Z</time>
      </trkpt>
      <trkpt lat="44.50211" lon="5.9578">
        <ele>1861.3</ele>
        <time>2026-08-13T14:17:56.245Z</time>
      </trkpt>
      <trkpt lat="44.50213" lon="5.95786">
        <ele>1858.5</ele>
        <time>2026-08-13T14:18:10.514Z</time>
      </trkpt>
      <trkpt lat="44.50216" lon="5.95792">
        <ele>1857</ele>
        <time>2026-08-13T14:18:15.964Z</time>
      </trkpt>
      <trkpt lat="44.5023" lon="5.95815">
        <ele>1853.5</ele>
        <time>2026-08-13T14:18:35.557Z</time>
      </trkpt>
      <trkpt lat="44.50233" lon="5.95821">
        <ele>1851.9</ele>
        <time>2026-08-13T14:18:41.280Z</time>
      </trkpt>
      <trkpt lat="44.50238" lon="5.95826">
        <ele>1852.9</ele>
        <time>2026-08-13T14:18:50.655Z</time>
      </trkpt>
      <trkpt lat="44.5024" lon="5.95831">
        <ele>1850.2</ele>
        <time>2026-08-13T14:19:03.006Z</time>
      </trkpt>
      <trkpt lat="44.50242" lon="5.95833">
        <ele>1850.3</ele>
        <time>2026-08-13T14:19:05.722Z</time>
      </trkpt>
      <trkpt lat="44.50245" lon="5.95839">
        <ele>1849.5</ele>
        <time>2026-08-13T14:19:10.466Z</time>
      </trkpt>
      <trkpt lat="44.50248" lon="5.95843">
        <ele>1849.8</ele>
        <time>2026-08-13T14:19:15.368Z</time>
      </trkpt>
      <trkpt lat="44.50251" lon="5.9585">
        <ele>1848.3</ele>
        <time>2026-08-13T14:19:21.099Z</time>
      </trkpt>
      <trkpt lat="44.50253" lon="5.95854">
        <ele>1847.7</ele>
        <time>2026-08-13T14:19:24.271Z</time>
      </trkpt>
      <trkpt lat="44.50257" lon="5.9586">
        <ele>1847.4</ele>
        <time>2026-08-13T14:19:29.892Z</time>
      </trkpt>
      <trkpt lat="44.50264" lon="5.95872">
        <ele>1848.2</ele>
        <time>2026-08-13T14:19:42.980Z</time>
      </trkpt>
      <trkpt lat="44.50267" lon="5.9588">
        <ele>1846.9</ele>
        <time>2026-08-13T14:19:48.932Z</time>
      </trkpt>
      <trkpt lat="44.50269" lon="5.95882">
        <ele>1847.4</ele>
        <time>2026-08-13T14:19:53.267Z</time>
      </trkpt>
      <trkpt lat="44.50272" lon="5.95889">
        <ele>1846</ele>
        <time>2026-08-13T14:19:58.854Z</time>
      </trkpt>
      <trkpt lat="44.50273" lon="5.95895">
        <ele>1844.9</ele>
        <time>2026-08-13T14:20:03.129Z</time>
      </trkpt>
      <trkpt lat="44.50275" lon="5.95898">
        <ele>1845.3</ele>
        <time>2026-08-13T14:20:07.243Z</time>
      </trkpt>
      <trkpt lat="44.50282" lon="5.95903">
        <ele>1848.8</ele>
        <time>2026-08-13T14:20:51.290Z</time>
      </trkpt>
      <trkpt lat="44.50283" lon="5.95904">
        <ele>1849.2</ele>
        <time>2026-08-13T14:20:55.069Z</time>
      </trkpt>
      <trkpt lat="44.50286" lon="5.95908">
        <ele>1849.9</ele>
        <time>2026-08-13T14:21:01.523Z</time>
      </trkpt>
      <trkpt lat="44.50294" lon="5.95914">
        <ele>1852.4</ele>
        <time>2026-08-13T14:21:23.275Z</time>
      </trkpt>
      <trkpt lat="44.50296" lon="5.95917">
        <ele>1852</ele>
        <time>2026-08-13T14:21:25.937Z</time>
      </trkpt>
      <trkpt lat="44.503" lon="5.9592">
        <ele>1853.1</ele>
        <time>2026-08-13T14:21:35.309Z</time>
      </trkpt>
      <trkpt lat="44.50303" lon="5.95923">
        <ele>1853.6</ele>
        <time>2026-08-13T14:21:40.472Z</time>
      </trkpt>
      <trkpt lat="44.50309" lon="5.95925">
        <ele>1856.7</ele>
        <time>2026-08-13T14:22:17.732Z</time>
      </trkpt>
      <trkpt lat="44.50315" lon="5.9593">
        <ele>1858.3</ele>
        <time>2026-08-13T14:22:31.370Z</time>
      </trkpt>
      <trkpt lat="44.50316" lon="5.95933">
        <ele>1857.2</ele>
        <time>2026-08-13T14:22:38.504Z</time>
      </trkpt>
      <trkpt lat="44.50323" lon="5.95936">
        <ele>1859.7</ele>
        <time>2026-08-13T14:23:03.002Z</time>
      </trkpt>
      <trkpt lat="44.50328" lon="5.95942">
        <ele>1858.2</ele>
        <time>2026-08-13T14:23:09.221Z</time>
      </trkpt>
      <trkpt lat="44.50333" lon="5.95945">
        <ele>1858.6</ele>
        <time>2026-08-13T14:23:15.677Z</time>
      </trkpt>
      <trkpt lat="44.50335" lon="5.95948">
        <ele>1858.2</ele>
        <time>2026-08-13T14:23:18.339Z</time>
      </trkpt>
      <trkpt lat="44.5034" lon="5.9595">
        <ele>1860.2</ele>
        <time>2026-08-13T14:23:40.269Z</time>
      </trkpt>
      <trkpt lat="44.50342" lon="5.95952">
        <ele>1860.3</ele>
        <time>2026-08-13T14:23:42.985Z</time>
      </trkpt>
      <trkpt lat="44.50344" lon="5.95953">
        <ele>1860.9</ele>
        <time>2026-08-13T14:23:48.248Z</time>
      </trkpt>
      <trkpt lat="44.50347" lon="5.95953">
        <ele>1862.6</ele>
        <time>2026-08-13T14:24:06.373Z</time>
      </trkpt>
      <trkpt lat="44.5035" lon="5.95955">
        <ele>1863.1</ele>
        <time>2026-08-13T14:24:11.245Z</time>
      </trkpt>
      <trkpt lat="44.50358" lon="5.95959">
        <ele>1864.9</ele>
        <time>2026-08-13T14:24:26.726Z</time>
      </trkpt>
      <trkpt lat="44.50362" lon="5.95962">
        <ele>1864.9</ele>
        <time>2026-08-13T14:24:31.387Z</time>
      </trkpt>
      <trkpt lat="44.50372" lon="5.95967">
        <ele>1866.4</ele>
        <time>2026-08-13T14:24:46.516Z</time>
      </trkpt>
      <trkpt lat="44.50378" lon="5.95972">
        <ele>1865.1</ele>
        <time>2026-08-13T14:24:52.904Z</time>
      </trkpt>
      <trkpt lat="44.50381" lon="5.95973">
        <ele>1865.9</ele>
        <time>2026-08-13T14:24:59.768Z</time>
      </trkpt>
      <trkpt lat="44.50385" lon="5.95976">
        <ele>1865.9</ele>
        <time>2026-08-13T14:25:04.429Z</time>
      </trkpt>
      <trkpt lat="44.50389" lon="5.95977">
        <ele>1867.2</ele>
        <time>2026-08-13T14:25:16.567Z</time>
      </trkpt>
      <trkpt lat="44.50394" lon="5.95981">
        <ele>1867.8</ele>
        <time>2026-08-13T14:25:23.945Z</time>
      </trkpt>
      <trkpt lat="44.50399" lon="5.95983">
        <ele>1869.6</ele>
        <time>2026-08-13T14:25:41.784Z</time>
      </trkpt>
      <trkpt lat="44.50407" lon="5.95985">
        <ele>1872.8</ele>
        <time>2026-08-13T14:26:17.742Z</time>
      </trkpt>
      <trkpt lat="44.50411" lon="5.95986">
        <ele>1874.3</ele>
        <time>2026-08-13T14:26:33.518Z</time>
      </trkpt>
      <trkpt lat="44.50415" lon="5.95987">
        <ele>1875.8</ele>
        <time>2026-08-13T14:26:49.294Z</time>
      </trkpt>
      <trkpt lat="44.50418" lon="5.95989">
        <ele>1875.9</ele>
        <time>2026-08-13T14:26:52.891Z</time>
      </trkpt>
      <trkpt lat="44.50429" lon="5.95993">
        <ele>1880.1</ele>
        <time>2026-08-13T14:27:37.113Z</time>
      </trkpt>
      <trkpt lat="44.50437" lon="5.95995">
        <ele>1883.6</ele>
        <time>2026-08-13T14:28:20.069Z</time>
      </trkpt>
      <trkpt lat="44.5044" lon="5.95997">
        <ele>1883.5</ele>
        <time>2026-08-13T14:28:23.337Z</time>
      </trkpt>
      <trkpt lat="44.50444" lon="5.95998">
        <ele>1885</ele>
        <time>2026-08-13T14:28:39.113Z</time>
      </trkpt>
      <trkpt lat="44.50447" lon="5.95999">
        <ele>1886.2</ele>
        <time>2026-08-13T14:28:52.432Z</time>
      </trkpt>
      <trkpt lat="44.50449" lon="5.96001">
        <ele>1885.7</ele>
        <time>2026-08-13T14:28:54.703Z</time>
      </trkpt>
      <trkpt lat="44.50453" lon="5.96002">
        <ele>1887.9</ele>
        <time>2026-08-13T14:29:19.250Z</time>
      </trkpt>
      <trkpt lat="44.5046" lon="5.96006">
        <ele>1889.2</ele>
        <time>2026-08-13T14:29:31.151Z</time>
      </trkpt>
      <trkpt lat="44.50462" lon="5.96006">
        <ele>1890.6</ele>
        <time>2026-08-13T14:29:43.234Z</time>
      </trkpt>
      <trkpt lat="44.50468" lon="5.96008">
        <ele>1892.8</ele>
        <time>2026-08-13T14:30:05.625Z</time>
      </trkpt>
      <trkpt lat="44.50469" lon="5.96009">
        <ele>1892.4</ele>
        <time>2026-08-13T14:30:07.056Z</time>
      </trkpt>
      <trkpt lat="44.50471" lon="5.96012">
        <ele>1890.4</ele>
        <time>2026-08-13T14:30:15.903Z</time>
      </trkpt>
      <trkpt lat="44.50477" lon="5.96016">
        <ele>1889.1</ele>
        <time>2026-08-13T14:30:22.013Z</time>
      </trkpt>
      <trkpt lat="44.50483" lon="5.96018">
        <ele>1890</ele>
        <time>2026-08-13T14:30:30.929Z</time>
      </trkpt>
      <trkpt lat="44.50487" lon="5.96021">
        <ele>1888.5</ele>
        <time>2026-08-13T14:30:36.307Z</time>
      </trkpt>
      <trkpt lat="44.50494" lon="5.96027">
        <ele>1884.9</ele>
        <time>2026-08-13T14:30:57.966Z</time>
      </trkpt>
      <trkpt lat="44.50496" lon="5.96028">
        <ele>1884.9</ele>
        <time>2026-08-13T14:31:00.148Z</time>
      </trkpt>
      <trkpt lat="44.50499" lon="5.96031">
        <ele>1884.9</ele>
        <time>2026-08-13T14:31:03.934Z</time>
      </trkpt>
      <trkpt lat="44.50502" lon="5.96037">
        <ele>1883.4</ele>
        <time>2026-08-13T14:31:09.384Z</time>
      </trkpt>
      <trkpt lat="44.50506" lon="5.96041">
        <ele>1883.5</ele>
        <time>2026-08-13T14:31:14.609Z</time>
      </trkpt>
      <trkpt lat="44.50508" lon="5.96043">
        <ele>1883.5</ele>
        <time>2026-08-13T14:31:17.133Z</time>
      </trkpt>
      <trkpt lat="44.50512" lon="5.96045">
        <ele>1884.5</ele>
        <time>2026-08-13T14:31:25.650Z</time>
      </trkpt>
      <trkpt lat="44.50512" lon="5.96045">
        <ele>1884.5</ele>
        <time>2026-08-13T14:31:25.650Z</time>
      </trkpt>
      <trkpt lat="44.50515" lon="5.96046">
        <ele>1885.6</ele>
        <time>2026-08-13T14:31:36.846Z</time>
      </trkpt>
      <trkpt lat="44.50522" lon="5.96052">
        <ele>1886</ele>
        <time>2026-08-13T14:31:46.066Z</time>
      </trkpt>
      <trkpt lat="44.50525" lon="5.96055">
        <ele>1885.9</ele>
        <time>2026-08-13T14:31:49.705Z</time>
      </trkpt>
      <trkpt lat="44.50528" lon="5.96059">
        <ele>1885.4</ele>
        <time>2026-08-13T14:31:53.483Z</time>
      </trkpt>
      <trkpt lat="44.50532" lon="5.9606">
        <ele>1886.5</ele>
        <time>2026-08-13T14:32:03.007Z</time>
      </trkpt>
      <trkpt lat="44.50537" lon="5.96063">
        <ele>1886.8</ele>
        <time>2026-08-13T14:32:09.203Z</time>
      </trkpt>
      <trkpt lat="44.50539" lon="5.96063">
        <ele>1887.6</ele>
        <time>2026-08-13T14:32:18.341Z</time>
      </trkpt>
      <trkpt lat="44.50542" lon="5.96063">
        <ele>1888.7</ele>
        <time>2026-08-13T14:32:29.832Z</time>
      </trkpt>
      <trkpt lat="44.50549" lon="5.96069">
        <ele>1887.5</ele>
        <time>2026-08-13T14:32:37.281Z</time>
      </trkpt>
      <trkpt lat="44.50552" lon="5.96071">
        <ele>1887.3</ele>
        <time>2026-08-13T14:32:40.438Z</time>
      </trkpt>
      <trkpt lat="44.5056" lon="5.96072">
        <ele>1889.8</ele>
        <time>2026-08-13T14:33:03.384Z</time>
      </trkpt>
      <trkpt lat="44.50567" lon="5.96077">
        <ele>1889.1</ele>
        <time>2026-08-13T14:33:10.671Z</time>
      </trkpt>
      <trkpt lat="44.50576" lon="5.96081">
        <ele>1889.4</ele>
        <time>2026-08-13T14:33:20.928Z</time>
      </trkpt>
      <trkpt lat="44.50579" lon="5.96083">
        <ele>1888.7</ele>
        <time>2026-08-13T14:33:24.016Z</time>
      </trkpt>
      <trkpt lat="44.50589" lon="5.96088">
        <ele>1891.5</ele>
        <time>2026-08-13T14:33:48.114Z</time>
      </trkpt>
      <trkpt lat="44.5059" lon="5.96089">
        <ele>1891.6</ele>
        <time>2026-08-13T14:33:49.600Z</time>
      </trkpt>
      <trkpt lat="44.50596" lon="5.96091">
        <ele>1894.5</ele>
        <time>2026-08-13T14:34:26.860Z</time>
      </trkpt>
      <trkpt lat="44.50597" lon="5.96092">
        <ele>1894.5</ele>
        <time>2026-08-13T14:34:28.122Z</time>
      </trkpt>
      <trkpt lat="44.50602" lon="5.96096">
        <ele>1894.7</ele>
        <time>2026-08-13T14:34:34.411Z</time>
      </trkpt>
      <trkpt lat="44.50607" lon="5.96099">
        <ele>1895.4</ele>
        <time>2026-08-13T14:34:41.875Z</time>
      </trkpt>
      <trkpt lat="44.50609" lon="5.96102">
        <ele>1894</ele>
        <time>2026-08-13T14:34:50.722Z</time>
      </trkpt>
      <trkpt lat="44.50612" lon="5.96103">
        <ele>1895</ele>
        <time>2026-08-13T14:35:00.144Z</time>
      </trkpt>
      <trkpt lat="44.50614" lon="5.96103">
        <ele>1896.7</ele>
        <time>2026-08-13T14:35:12.227Z</time>
      </trkpt>
      <trkpt lat="44.50622" lon="5.96107">
        <ele>1899.7</ele>
        <time>2026-08-13T14:35:42.487Z</time>
      </trkpt>
      <trkpt lat="44.50624" lon="5.96108">
        <ele>1900.5</ele>
        <time>2026-08-13T14:35:51.075Z</time>
      </trkpt>
      <trkpt lat="44.50629" lon="5.96111">
        <ele>1901.9</ele>
        <time>2026-08-13T14:36:03.072Z</time>
      </trkpt>
      <trkpt lat="44.50633" lon="5.96115">
        <ele>1901.4</ele>
        <time>2026-08-13T14:36:07.594Z</time>
      </trkpt>
      <trkpt lat="44.5064" lon="5.96119">
        <ele>1902.8</ele>
        <time>2026-08-13T14:36:20.059Z</time>
      </trkpt>
      <trkpt lat="44.50647" lon="5.96124">
        <ele>1904.3</ele>
        <time>2026-08-13T14:36:33.285Z</time>
      </trkpt>
      <trkpt lat="44.50652" lon="5.96128">
        <ele>1905</ele>
        <time>2026-08-13T14:36:41.024Z</time>
      </trkpt>
      <trkpt lat="44.50656" lon="5.9613">
        <ele>1906.9</ele>
        <time>2026-08-13T14:37:04.996Z</time>
      </trkpt>
      <trkpt lat="44.50662" lon="5.96136">
        <ele>1907.1</ele>
        <time>2026-08-13T14:37:12.933Z</time>
      </trkpt>
      <trkpt lat="44.50666" lon="5.96141">
        <ele>1906.6</ele>
        <time>2026-08-13T14:37:17.890Z</time>
      </trkpt>
      <trkpt lat="44.50672" lon="5.96145">
        <ele>1908.2</ele>
        <time>2026-08-13T14:37:31.519Z</time>
      </trkpt>
      <trkpt lat="44.50679" lon="5.96152">
        <ele>1907.5</ele>
        <time>2026-08-13T14:37:39.540Z</time>
      </trkpt>
      <trkpt lat="44.50683" lon="5.96157">
        <ele>1906</ele>
        <time>2026-08-13T14:37:45.040Z</time>
      </trkpt>
      <trkpt lat="44.50688" lon="5.96163">
        <ele>1904</ele>
        <time>2026-08-13T14:37:52.202Z</time>
      </trkpt>
      <trkpt lat="44.50691" lon="5.96166">
        <ele>1903.3</ele>
        <time>2026-08-13T14:37:55.581Z</time>
      </trkpt>
      <trkpt lat="44.50697" lon="5.96169">
        <ele>1904.2</ele>
        <time>2026-08-13T14:38:04.658Z</time>
      </trkpt>
      <trkpt lat="44.50701" lon="5.96174">
        <ele>1901.3</ele>
        <time>2026-08-13T14:38:20.846Z</time>
      </trkpt>
      <trkpt lat="44.50706" lon="5.96177">
        <ele>1900.9</ele>
        <time>2026-08-13T14:38:25.952Z</time>
      </trkpt>
      <trkpt lat="44.50707" lon="5.9618">
        <ele>1898.2</ele>
        <time>2026-08-13T14:38:33.086Z</time>
      </trkpt>
      <trkpt lat="44.50711" lon="5.96182">
        <ele>1898</ele>
        <time>2026-08-13T14:38:37.179Z</time>
      </trkpt>
      <trkpt lat="44.50717" lon="5.96184">
        <ele>1898.8</ele>
        <time>2026-08-13T14:38:45.668Z</time>
      </trkpt>
      <trkpt lat="44.50731" lon="5.96189">
        <ele>1899.4</ele>
        <time>2026-08-13T14:39:01.665Z</time>
      </trkpt>
      <trkpt lat="44.50752" lon="5.96193">
        <ele>1903.7</ele>
        <time>2026-08-13T14:39:38.972Z</time>
      </trkpt>
      <trkpt lat="44.50757" lon="5.96194">
        <ele>1904.6</ele>
        <time>2026-08-13T14:39:47.096Z</time>
      </trkpt>
      <trkpt lat="44.50763" lon="5.96196">
        <ele>1904.7</ele>
        <time>2026-08-13T14:39:53.608Z</time>
      </trkpt>
      <trkpt lat="44.50769" lon="5.96198">
        <ele>1904.8</ele>
        <time>2026-08-13T14:40:00.119Z</time>
      </trkpt>
      <trkpt lat="44.50776" lon="5.96201">
        <ele>1904</ele>
        <time>2026-08-13T14:40:06.830Z</time>
      </trkpt>
      <trkpt lat="44.50781" lon="5.96203">
        <ele>1903.5</ele>
        <time>2026-08-13T14:40:11.631Z</time>
      </trkpt>
      <trkpt lat="44.50785" lon="5.96203">
        <ele>1905</ele>
        <time>2026-08-13T14:40:27.656Z</time>
      </trkpt>
      <trkpt lat="44.50788" lon="5.96205">
        <ele>1903.6</ele>
        <time>2026-08-13T14:40:34.695Z</time>
      </trkpt>
      <trkpt lat="44.50789" lon="5.96207">
        <ele>1901.3</ele>
        <time>2026-08-13T14:40:39.957Z</time>
      </trkpt>
      <trkpt lat="44.50799" lon="5.96211">
        <ele>1899.5</ele>
        <time>2026-08-13T14:40:49.427Z</time>
      </trkpt>
      <trkpt lat="44.50801" lon="5.96212">
        <ele>1898.8</ele>
        <time>2026-08-13T14:40:51.935Z</time>
      </trkpt>
      <trkpt lat="44.5081" lon="5.96218">
        <ele>1893.9</ele>
        <time>2026-08-13T14:41:22.038Z</time>
      </trkpt>
      <trkpt lat="44.50813" lon="5.96221">
        <ele>1890.9</ele>
        <time>2026-08-13T14:41:33.169Z</time>
      </trkpt>
      <trkpt lat="44.50822" lon="5.96227">
        <ele>1889.7</ele>
        <time>2026-08-13T14:41:42.264Z</time>
      </trkpt>
      <trkpt lat="44.50825" lon="5.96231">
        <ele>1888</ele>
        <time>2026-08-13T14:41:50.132Z</time>
      </trkpt>
      <trkpt lat="44.5083" lon="5.96233">
        <ele>1888.6</ele>
        <time>2026-08-13T14:41:57.001Z</time>
      </trkpt>
      <trkpt lat="44.50832" lon="5.96236">
        <ele>1887.1</ele>
        <time>2026-08-13T14:42:05.848Z</time>
      </trkpt>
      <trkpt lat="44.50839" lon="5.9624">
        <ele>1887.4</ele>
        <time>2026-08-13T14:42:14.188Z</time>
      </trkpt>
      <trkpt lat="44.50845" lon="5.96245">
        <ele>1886.2</ele>
        <time>2026-08-13T14:42:20.541Z</time>
      </trkpt>
      <trkpt lat="44.50848" lon="5.96247">
        <ele>1885.9</ele>
        <time>2026-08-13T14:42:23.620Z</time>
      </trkpt>
      <trkpt lat="44.50857" lon="5.96255">
        <ele>1884.7</ele>
        <time>2026-08-13T14:42:33.375Z</time>
      </trkpt>
      <trkpt lat="44.50859" lon="5.96258">
        <ele>1884</ele>
        <time>2026-08-13T14:42:36.180Z</time>
      </trkpt>
      <trkpt lat="44.50862" lon="5.9626">
        <ele>1884.2</ele>
        <time>2026-08-13T14:42:40.005Z</time>
      </trkpt>
      <trkpt lat="44.50871" lon="5.96264">
        <ele>1884.8</ele>
        <time>2026-08-13T14:42:50.960Z</time>
      </trkpt>
      <trkpt lat="44.50879" lon="5.96268">
        <ele>1884.9</ele>
        <time>2026-08-13T14:42:59.859Z</time>
      </trkpt>
      <trkpt lat="44.50886" lon="5.96269">
        <ele>1886.3</ele>
        <time>2026-08-13T14:43:12.063Z</time>
      </trkpt>
      <trkpt lat="44.50889" lon="5.96271">
        <ele>1885.9</ele>
        <time>2026-08-13T14:43:15.094Z</time>
      </trkpt>
      <trkpt lat="44.50893" lon="5.96271">
        <ele>1885.9</ele>
        <time>2026-08-13T14:43:19.204Z</time>
      </trkpt>
      <trkpt lat="44.50903" lon="5.96275">
        <ele>1883.6</ele>
        <time>2026-08-13T14:43:28.962Z</time>
      </trkpt>
      <trkpt lat="44.50911" lon="5.96276">
        <ele>1883</ele>
        <time>2026-08-13T14:43:36.496Z</time>
      </trkpt>
      <trkpt lat="44.50915" lon="5.96276">
        <ele>1883</ele>
        <time>2026-08-13T14:43:40.606Z</time>
      </trkpt>
      <trkpt lat="44.50918" lon="5.96275">
        <ele>1883.4</ele>
        <time>2026-08-13T14:43:44.850Z</time>
      </trkpt>
      <trkpt lat="44.50927" lon="5.96276">
        <ele>1881.2</ele>
        <time>2026-08-13T14:43:53.550Z</time>
      </trkpt>
      <trkpt lat="44.50936" lon="5.96275">
        <ele>1880.2</ele>
        <time>2026-08-13T14:44:01.821Z</time>
      </trkpt>
      <trkpt lat="44.5094" lon="5.96275">
        <ele>1879.5</ele>
        <time>2026-08-13T14:44:05.466Z</time>
      </trkpt>
      <trkpt lat="44.50952" lon="5.96272">
        <ele>1879.4</ele>
        <time>2026-08-13T14:44:17.833Z</time>
      </trkpt>
      <trkpt lat="44.50956" lon="5.96271">
        <ele>1879.5</ele>
        <time>2026-08-13T14:44:22.188Z</time>
      </trkpt>
      <trkpt lat="44.50961" lon="5.96269">
        <ele>1880</ele>
        <time>2026-08-13T14:44:28.712Z</time>
      </trkpt>
      <trkpt lat="44.50969" lon="5.96268">
        <ele>1879.4</ele>
        <time>2026-08-13T14:44:36.246Z</time>
      </trkpt>
      <trkpt lat="44.5097" lon="5.96268">
        <ele>1879.3</ele>
        <time>2026-08-13T14:44:37.167Z</time>
      </trkpt>
      <trkpt lat="44.5098" lon="5.96269">
        <ele>1876.9</ele>
        <time>2026-08-13T14:44:46.772Z</time>
      </trkpt>
      <trkpt lat="44.5099" lon="5.96267">
        <ele>1876.3</ele>
        <time>2026-08-13T14:44:56.382Z</time>
      </trkpt>
      <trkpt lat="44.50994" lon="5.96267">
        <ele>1875.5</ele>
        <time>2026-08-13T14:45:00.071Z</time>
      </trkpt>
      <trkpt lat="44.51001" lon="5.96265">
        <ele>1875.6</ele>
        <time>2026-08-13T14:45:07.584Z</time>
      </trkpt>
      <trkpt lat="44.51005" lon="5.96262">
        <ele>1877</ele>
        <time>2026-08-13T14:45:20.371Z</time>
      </trkpt>
      <trkpt lat="44.51014" lon="5.9626">
        <ele>1876.8</ele>
        <time>2026-08-13T14:45:29.434Z</time>
      </trkpt>
      <trkpt lat="44.51016" lon="5.96259">
        <ele>1877.2</ele>
        <time>2026-08-13T14:45:32.976Z</time>
      </trkpt>
      <trkpt lat="44.51019" lon="5.9626">
        <ele>1876</ele>
        <time>2026-08-13T14:45:37.904Z</time>
      </trkpt>
      <trkpt lat="44.51021" lon="5.96261">
        <ele>1875</ele>
        <time>2026-08-13T14:45:44.318Z</time>
      </trkpt>
      <trkpt lat="44.51023" lon="5.96261">
        <ele>1874.7</ele>
        <time>2026-08-13T14:45:46.133Z</time>
        <extensions>
          <visugpx:TrkExtension xmlns:visugpx="https://www.visugpx.com/editgpx/">
            <visugpx:node>6</visugpx:node>
            </visugpx:TrkExtension>
        </extensions>
      </trkpt>
      <trkpt lat="44.51021" lon="5.96261">
        <ele>1875</ele>
        <time>2026-08-13T14:45:49.062Z</time>
      </trkpt>
      <trkpt lat="44.51019" lon="5.9626">
        <ele>1876</ele>
        <time>2026-08-13T14:46:01.890Z</time>
      </trkpt>
      <trkpt lat="44.51016" lon="5.96259">
        <ele>1877.2</ele>
        <time>2026-08-13T14:46:15.209Z</time>
      </trkpt>
      <trkpt lat="44.51014" lon="5.9626">
        <ele>1876.8</ele>
        <time>2026-08-13T14:46:17.154Z</time>
      </trkpt>
      <trkpt lat="44.51005" lon="5.96262">
        <ele>1877</ele>
        <time>2026-08-13T14:46:26.874Z</time>
      </trkpt>
      <trkpt lat="44.51001" lon="5.96265">
        <ele>1875.6</ele>
        <time>2026-08-13T14:46:31.877Z</time>
      </trkpt>
      <trkpt lat="44.50994" lon="5.96267">
        <ele>1875.5</ele>
        <time>2026-08-13T14:46:39.063Z</time>
      </trkpt>
      <trkpt lat="44.5099" lon="5.96267">
        <ele>1876.3</ele>
        <time>2026-08-13T14:46:46.028Z</time>
      </trkpt>
      <trkpt lat="44.5098" lon="5.96269">
        <ele>1876.9</ele>
        <time>2026-08-13T14:46:57.641Z</time>
      </trkpt>
      <trkpt lat="44.5097" lon="5.96268">
        <ele>1879.3</ele>
        <time>2026-08-13T14:47:18.082Z</time>
      </trkpt>
      <trkpt lat="44.50969" lon="5.96268">
        <ele>1879.4</ele>
        <time>2026-08-13T14:47:19.349Z</time>
      </trkpt>
      <trkpt lat="44.50961" lon="5.96269">
        <ele>1880</ele>
        <time>2026-08-13T14:47:28.909Z</time>
      </trkpt>
      <trkpt lat="44.50956" lon="5.96271">
        <ele>1879.5</ele>
        <time>2026-08-13T14:47:33.711Z</time>
      </trkpt>
      <trkpt lat="44.50952" lon="5.96272">
        <ele>1879.4</ele>
        <time>2026-08-13T14:47:37.737Z</time>
      </trkpt>
      <trkpt lat="44.5094" lon="5.96275">
        <ele>1879.5</ele>
        <time>2026-08-13T14:47:50.432Z</time>
      </trkpt>
      <trkpt lat="44.50936" lon="5.96275">
        <ele>1880.2</ele>
        <time>2026-08-13T14:47:56.795Z</time>
      </trkpt>
      <trkpt lat="44.50927" lon="5.96276">
        <ele>1881.2</ele>
        <time>2026-08-13T14:48:08.571Z</time>
      </trkpt>
      <trkpt lat="44.50918" lon="5.96275">
        <ele>1883.4</ele>
        <time>2026-08-13T14:48:27.320Z</time>
      </trkpt>
      <trkpt lat="44.50915" lon="5.96276">
        <ele>1883</ele>
        <time>2026-08-13T14:48:30.126Z</time>
      </trkpt>
      <trkpt lat="44.50911" lon="5.96276">
        <ele>1883</ele>
        <time>2026-08-13T14:48:34.237Z</time>
      </trkpt>
      <trkpt lat="44.50903" lon="5.96275">
        <ele>1883.6</ele>
        <time>2026-08-13T14:48:43.797Z</time>
      </trkpt>
      <trkpt lat="44.50893" lon="5.96271">
        <ele>1885.9</ele>
        <time>2026-08-13T14:49:03.459Z</time>
      </trkpt>
      <trkpt lat="44.50889" lon="5.96271">
        <ele>1885.9</ele>
        <time>2026-08-13T14:49:07.569Z</time>
      </trkpt>
      <trkpt lat="44.50886" lon="5.96269">
        <ele>1886.3</ele>
        <time>2026-08-13T14:49:12.020Z</time>
      </trkpt>
      <trkpt lat="44.50879" lon="5.96268">
        <ele>1884.9</ele>
        <time>2026-08-13T14:49:18.505Z</time>
      </trkpt>
      <trkpt lat="44.50871" lon="5.96264">
        <ele>1884.8</ele>
        <time>2026-08-13T14:49:27.076Z</time>
      </trkpt>
      <trkpt lat="44.50862" lon="5.9626">
        <ele>1884.2</ele>
        <time>2026-08-13T14:49:36.021Z</time>
      </trkpt>
      <trkpt lat="44.50859" lon="5.96258">
        <ele>1884</ele>
        <time>2026-08-13T14:49:39.179Z</time>
      </trkpt>
      <trkpt lat="44.50857" lon="5.96255">
        <ele>1884.7</ele>
        <time>2026-08-13T14:49:45.141Z</time>
      </trkpt>
      <trkpt lat="44.50848" lon="5.96247">
        <ele>1885.9</ele>
        <time>2026-08-13T14:49:59.111Z</time>
      </trkpt>
      <trkpt lat="44.50845" lon="5.96245">
        <ele>1886.2</ele>
        <time>2026-08-13T14:50:03.217Z</time>
      </trkpt>
      <trkpt lat="44.50839" lon="5.9624">
        <ele>1887.4</ele>
        <time>2026-08-13T14:50:14.204Z</time>
      </trkpt>
      <trkpt lat="44.50832" lon="5.96236">
        <ele>1887.1</ele>
        <time>2026-08-13T14:50:21.552Z</time>
      </trkpt>
      <trkpt lat="44.5083" lon="5.96233">
        <ele>1888.6</ele>
        <time>2026-08-13T14:50:39.246Z</time>
      </trkpt>
      <trkpt lat="44.50825" lon="5.96231">
        <ele>1888</ele>
        <time>2026-08-13T14:50:44.000Z</time>
      </trkpt>
      <trkpt lat="44.50822" lon="5.96227">
        <ele>1889.7</ele>
        <time>2026-08-13T14:51:03.950Z</time>
      </trkpt>
      <trkpt lat="44.50813" lon="5.96221">
        <ele>1890.9</ele>
        <time>2026-08-13T14:51:17.303Z</time>
      </trkpt>
      <trkpt lat="44.5081" lon="5.96218">
        <ele>1893.9</ele>
        <time>2026-08-13T14:51:39.565Z</time>
      </trkpt>
      <trkpt lat="44.50801" lon="5.96212">
        <ele>1898.8</ele>
        <time>2026-08-13T14:52:39.771Z</time>
      </trkpt>
      <trkpt lat="44.50799" lon="5.96211">
        <ele>1899.5</ele>
        <time>2026-08-13T14:52:46.444Z</time>
      </trkpt>
      <trkpt lat="44.50789" lon="5.96207">
        <ele>1901.3</ele>
        <time>2026-08-13T14:53:02.879Z</time>
      </trkpt>
      <trkpt lat="44.50788" lon="5.96205">
        <ele>1903.6</ele>
        <time>2026-08-13T14:53:13.403Z</time>
      </trkpt>
      <trkpt lat="44.50785" lon="5.96203">
        <ele>1905</ele>
        <time>2026-08-13T14:53:30.255Z</time>
      </trkpt>
      <trkpt lat="44.50781" lon="5.96203">
        <ele>1903.5</ele>
        <time>2026-08-13T14:53:36.090Z</time>
      </trkpt>
      <trkpt lat="44.50776" lon="5.96201">
        <ele>1904</ele>
        <time>2026-08-13T14:53:42.614Z</time>
      </trkpt>
      <trkpt lat="44.50769" lon="5.96198">
        <ele>1904.8</ele>
        <time>2026-08-13T14:53:52.124Z</time>
      </trkpt>
      <trkpt lat="44.50763" lon="5.96196">
        <ele>1904.7</ele>
        <time>2026-08-13T14:53:58.308Z</time>
      </trkpt>
      <trkpt lat="44.50757" lon="5.96194">
        <ele>1904.6</ele>
        <time>2026-08-13T14:54:04.491Z</time>
      </trkpt>
      <trkpt lat="44.50752" lon="5.96193">
        <ele>1903.7</ele>
        <time>2026-08-13T14:54:09.098Z</time>
      </trkpt>
      <trkpt lat="44.50731" lon="5.96189">
        <ele>1899.4</ele>
        <time>2026-08-13T14:54:28.681Z</time>
      </trkpt>
      <trkpt lat="44.50717" lon="5.96184">
        <ele>1898.8</ele>
        <time>2026-08-13T14:54:42.695Z</time>
      </trkpt>
      <trkpt lat="44.50711" lon="5.96182">
        <ele>1898</ele>
        <time>2026-08-13T14:54:48.307Z</time>
      </trkpt>
      <trkpt lat="44.50707" lon="5.9618">
        <ele>1898.2</ele>
        <time>2026-08-13T14:54:53.064Z</time>
      </trkpt>
      <trkpt lat="44.50706" lon="5.96177">
        <ele>1900.9</ele>
        <time>2026-08-13T14:55:07.332Z</time>
      </trkpt>
      <trkpt lat="44.50701" lon="5.96174">
        <ele>1901.3</ele>
        <time>2026-08-13T14:55:13.788Z</time>
      </trkpt>
      <trkpt lat="44.50697" lon="5.96169">
        <ele>1904.2</ele>
        <time>2026-08-13T14:55:46.162Z</time>
      </trkpt>
      <trkpt lat="44.50691" lon="5.96166">
        <ele>1903.3</ele>
        <time>2026-08-13T14:55:51.948Z</time>
      </trkpt>
      <trkpt lat="44.50688" lon="5.96163">
        <ele>1904</ele>
        <time>2026-08-13T14:55:58.130Z</time>
      </trkpt>
      <trkpt lat="44.50683" lon="5.96157">
        <ele>1906</ele>
        <time>2026-08-13T14:56:16.243Z</time>
      </trkpt>
      <trkpt lat="44.50679" lon="5.96152">
        <ele>1907.5</ele>
        <time>2026-08-13T14:56:29.358Z</time>
      </trkpt>
      <trkpt lat="44.50672" lon="5.96145">
        <ele>1908.2</ele>
        <time>2026-08-13T14:56:39.757Z</time>
      </trkpt>
      <trkpt lat="44.50666" lon="5.96141">
        <ele>1906.6</ele>
        <time>2026-08-13T14:56:46.134Z</time>
      </trkpt>
      <trkpt lat="44.50662" lon="5.96136">
        <ele>1907.1</ele>
        <time>2026-08-13T14:56:52.810Z</time>
      </trkpt>
      <trkpt lat="44.50656" lon="5.9613">
        <ele>1906.9</ele>
        <time>2026-08-13T14:57:00.088Z</time>
      </trkpt>
      <trkpt lat="44.50652" lon="5.96128">
        <ele>1905</ele>
        <time>2026-08-13T14:57:12.917Z</time>
      </trkpt>
      <trkpt lat="44.50647" lon="5.96124">
        <ele>1904.3</ele>
        <time>2026-08-13T14:57:18.168Z</time>
      </trkpt>
      <trkpt lat="44.5064" lon="5.96119">
        <ele>1902.8</ele>
        <time>2026-08-13T14:57:25.374Z</time>
      </trkpt>
      <trkpt lat="44.50633" lon="5.96115">
        <ele>1901.4</ele>
        <time>2026-08-13T14:57:32.288Z</time>
      </trkpt>
      <trkpt lat="44.50629" lon="5.96111">
        <ele>1901.9</ele>
        <time>2026-08-13T14:57:38.544Z</time>
      </trkpt>
      <trkpt lat="44.50624" lon="5.96108">
        <ele>1900.5</ele>
        <time>2026-08-13T14:57:43.894Z</time>
      </trkpt>
      <trkpt lat="44.50622" lon="5.96107">
        <ele>1899.7</ele>
        <time>2026-08-13T14:57:47.025Z</time>
      </trkpt>
      <trkpt lat="44.50614" lon="5.96103">
        <ele>1896.7</ele>
        <time>2026-08-13T14:57:58.077Z</time>
      </trkpt>
      <trkpt lat="44.50612" lon="5.96103">
        <ele>1895</ele>
        <time>2026-08-13T14:58:04.118Z</time>
      </trkpt>
      <trkpt lat="44.50609" lon="5.96102">
        <ele>1894</ele>
        <time>2026-08-13T14:58:07.692Z</time>
      </trkpt>
      <trkpt lat="44.50607" lon="5.96099">
        <ele>1895.4</ele>
        <time>2026-08-13T14:58:25.386Z</time>
      </trkpt>
      <trkpt lat="44.50602" lon="5.96096">
        <ele>1894.7</ele>
        <time>2026-08-13T14:58:30.337Z</time>
      </trkpt>
      <trkpt lat="44.50597" lon="5.96092">
        <ele>1894.5</ele>
        <time>2026-08-13T14:58:35.967Z</time>
      </trkpt>
      <trkpt lat="44.50596" lon="5.96091">
        <ele>1894.5</ele>
        <time>2026-08-13T14:58:37.230Z</time>
      </trkpt>
      <trkpt lat="44.5059" lon="5.96089">
        <ele>1891.6</ele>
        <time>2026-08-13T14:58:55.859Z</time>
      </trkpt>
      <trkpt lat="44.50589" lon="5.96088">
        <ele>1891.5</ele>
        <time>2026-08-13T14:58:57.005Z</time>
      </trkpt>
      <trkpt lat="44.50579" lon="5.96083">
        <ele>1888.7</ele>
        <time>2026-08-13T14:59:07.563Z</time>
      </trkpt>
      <trkpt lat="44.50576" lon="5.96081">
        <ele>1889.4</ele>
        <time>2026-08-13T14:59:13.589Z</time>
      </trkpt>
      <trkpt lat="44.50567" lon="5.96077">
        <ele>1889.1</ele>
        <time>2026-08-13T14:59:22.858Z</time>
      </trkpt>
      <trkpt lat="44.5056" lon="5.96072">
        <ele>1889.8</ele>
        <time>2026-08-13T14:59:32.541Z</time>
      </trkpt>
      <trkpt lat="44.50552" lon="5.96071">
        <ele>1887.3</ele>
        <time>2026-08-13T14:59:41.469Z</time>
      </trkpt>
      <trkpt lat="44.50549" lon="5.96069">
        <ele>1887.5</ele>
        <time>2026-08-13T14:59:45.295Z</time>
      </trkpt>
      <trkpt lat="44.50542" lon="5.96063">
        <ele>1888.7</ele>
        <time>2026-08-13T14:59:57.168Z</time>
      </trkpt>
      <trkpt lat="44.50539" lon="5.96063">
        <ele>1887.6</ele>
        <time>2026-08-13T15:00:01.344Z</time>
      </trkpt>
      <trkpt lat="44.50537" lon="5.96063">
        <ele>1886.8</ele>
        <time>2026-08-13T15:00:04.811Z</time>
      </trkpt>
      <trkpt lat="44.50532" lon="5.9606">
        <ele>1886.5</ele>
        <time>2026-08-13T15:00:10.007Z</time>
      </trkpt>
      <trkpt lat="44.50528" lon="5.96059">
        <ele>1885.4</ele>
        <time>2026-08-13T15:00:14.100Z</time>
      </trkpt>
      <trkpt lat="44.50525" lon="5.96055">
        <ele>1885.9</ele>
        <time>2026-08-13T15:00:19.653Z</time>
      </trkpt>
      <trkpt lat="44.50522" lon="5.96052">
        <ele>1886</ele>
        <time>2026-08-13T15:00:23.621Z</time>
      </trkpt>
      <trkpt lat="44.50515" lon="5.96046">
        <ele>1885.6</ele>
        <time>2026-08-13T15:00:31.514Z</time>
      </trkpt>
      <trkpt lat="44.50512" lon="5.96045">
        <ele>1884.5</ele>
        <time>2026-08-13T15:00:35.594Z</time>
      </trkpt>
      <trkpt lat="44.50512" lon="5.96045">
        <ele>1884.5</ele>
        <time>2026-08-13T15:00:35.594Z</time>
      </trkpt>
      <trkpt lat="44.50508" lon="5.96043">
        <ele>1883.5</ele>
        <time>2026-08-13T15:00:39.642Z</time>
      </trkpt>
      <trkpt lat="44.50506" lon="5.96041">
        <ele>1883.5</ele>
        <time>2026-08-13T15:00:42.167Z</time>
      </trkpt>
      <trkpt lat="44.50502" lon="5.96037">
        <ele>1883.4</ele>
        <time>2026-08-13T15:00:47.064Z</time>
      </trkpt>
      <trkpt lat="44.50499" lon="5.96031">
        <ele>1884.9</ele>
        <time>2026-08-13T15:01:00.299Z</time>
      </trkpt>
      <trkpt lat="44.50496" lon="5.96028">
        <ele>1884.9</ele>
        <time>2026-08-13T15:01:04.085Z</time>
      </trkpt>
      <trkpt lat="44.50494" lon="5.96027">
        <ele>1884.9</ele>
        <time>2026-08-13T15:01:06.267Z</time>
      </trkpt>
      <trkpt lat="44.50487" lon="5.96021">
        <ele>1888.5</ele>
        <time>2026-08-13T15:01:51.106Z</time>
      </trkpt>
      <trkpt lat="44.50483" lon="5.96018">
        <ele>1890</ele>
        <time>2026-08-13T15:02:05.437Z</time>
      </trkpt>
      <trkpt lat="44.50477" lon="5.96016">
        <ele>1889.1</ele>
        <time>2026-08-13T15:02:11.036Z</time>
      </trkpt>
      <trkpt lat="44.50471" lon="5.96012">
        <ele>1890.4</ele>
        <time>2026-08-13T15:02:22.418Z</time>
      </trkpt>
      <trkpt lat="44.50469" lon="5.96009">
        <ele>1892.4</ele>
        <time>2026-08-13T15:02:40.113Z</time>
      </trkpt>
      <trkpt lat="44.50468" lon="5.96008">
        <ele>1892.8</ele>
        <time>2026-08-13T15:02:43.893Z</time>
      </trkpt>
      <trkpt lat="44.50462" lon="5.96006">
        <ele>1890.6</ele>
        <time>2026-08-13T15:02:52.052Z</time>
      </trkpt>
      <trkpt lat="44.5046" lon="5.96006">
        <ele>1889.2</ele>
        <time>2026-08-13T15:02:58.094Z</time>
      </trkpt>
      <trkpt lat="44.50453" lon="5.96002">
        <ele>1887.9</ele>
        <time>2026-08-13T15:03:04.975Z</time>
      </trkpt>
      <trkpt lat="44.50449" lon="5.96001">
        <ele>1885.7</ele>
        <time>2026-08-13T15:03:17.249Z</time>
      </trkpt>
      <trkpt lat="44.50447" lon="5.95999">
        <ele>1886.2</ele>
        <time>2026-08-13T15:03:21.584Z</time>
      </trkpt>
      <trkpt lat="44.50444" lon="5.95998">
        <ele>1885</ele>
        <time>2026-08-13T15:03:26.511Z</time>
      </trkpt>
      <trkpt lat="44.5044" lon="5.95997">
        <ele>1883.5</ele>
        <time>2026-08-13T15:03:32.245Z</time>
      </trkpt>
      <trkpt lat="44.50437" lon="5.95995">
        <ele>1883.6</ele>
        <time>2026-08-13T15:03:35.842Z</time>
      </trkpt>
      <trkpt lat="44.50429" lon="5.95993">
        <ele>1880.1</ele>
        <time>2026-08-13T15:03:55.046Z</time>
      </trkpt>
      <trkpt lat="44.50418" lon="5.95989">
        <ele>1875.9</ele>
        <time>2026-08-13T15:04:11.118Z</time>
      </trkpt>
      <trkpt lat="44.50415" lon="5.95987">
        <ele>1875.8</ele>
        <time>2026-08-13T15:04:14.386Z</time>
      </trkpt>
      <trkpt lat="44.50411" lon="5.95986">
        <ele>1874.3</ele>
        <time>2026-08-13T15:04:20.119Z</time>
      </trkpt>
      <trkpt lat="44.50407" lon="5.95985">
        <ele>1872.8</ele>
        <time>2026-08-13T15:04:25.852Z</time>
      </trkpt>
      <trkpt lat="44.50399" lon="5.95983">
        <ele>1869.6</ele>
        <time>2026-08-13T15:04:39.279Z</time>
      </trkpt>
      <trkpt lat="44.50394" lon="5.95981">
        <ele>1867.8</ele>
        <time>2026-08-13T15:04:45.835Z</time>
      </trkpt>
      <trkpt lat="44.50389" lon="5.95977">
        <ele>1867.2</ele>
        <time>2026-08-13T15:04:51.127Z</time>
      </trkpt>
      <trkpt lat="44.50385" lon="5.95976">
        <ele>1865.9</ele>
        <time>2026-08-13T15:04:55.768Z</time>
      </trkpt>
      <trkpt lat="44.50381" lon="5.95973">
        <ele>1865.9</ele>
        <time>2026-08-13T15:05:00.429Z</time>
      </trkpt>
      <trkpt lat="44.50378" lon="5.95972">
        <ele>1865.1</ele>
        <time>2026-08-13T15:05:03.473Z</time>
      </trkpt>
      <trkpt lat="44.50372" lon="5.95967">
        <ele>1866.4</ele>
        <time>2026-08-13T15:05:15.026Z</time>
      </trkpt>
      <trkpt lat="44.50362" lon="5.95962">
        <ele>1864.9</ele>
        <time>2026-08-13T15:05:24.668Z</time>
      </trkpt>
      <trkpt lat="44.50358" lon="5.95959">
        <ele>1864.9</ele>
        <time>2026-08-13T15:05:29.330Z</time>
      </trkpt>
      <trkpt lat="44.5035" lon="5.95955">
        <ele>1863.1</ele>
        <time>2026-08-13T15:05:37.233Z</time>
      </trkpt>
      <trkpt lat="44.50347" lon="5.95953">
        <ele>1862.6</ele>
        <time>2026-08-13T15:05:40.248Z</time>
      </trkpt>
      <trkpt lat="44.50344" lon="5.95953">
        <ele>1860.9</ele>
        <time>2026-08-13T15:05:49.310Z</time>
      </trkpt>
      <trkpt lat="44.50342" lon="5.95952">
        <ele>1860.3</ele>
        <time>2026-08-13T15:05:51.502Z</time>
      </trkpt>
      <trkpt lat="44.5034" lon="5.9595">
        <ele>1860.2</ele>
        <time>2026-08-13T15:05:53.888Z</time>
      </trkpt>
      <trkpt lat="44.50335" lon="5.95948">
        <ele>1858.2</ele>
        <time>2026-08-13T15:06:01.945Z</time>
      </trkpt>
      <trkpt lat="44.50333" lon="5.95945">
        <ele>1858.6</ele>
        <time>2026-08-13T15:06:06.060Z</time>
      </trkpt>
      <trkpt lat="44.50328" lon="5.95942">
        <ele>1858.2</ele>
        <time>2026-08-13T15:06:11.166Z</time>
      </trkpt>
      <trkpt lat="44.50323" lon="5.95936">
        <ele>1859.7</ele>
        <time>2026-08-13T15:06:23.956Z</time>
      </trkpt>
      <trkpt lat="44.50316" lon="5.95933">
        <ele>1857.2</ele>
        <time>2026-08-13T15:06:33.008Z</time>
      </trkpt>
      <trkpt lat="44.50315" lon="5.9593">
        <ele>1858.3</ele>
        <time>2026-08-13T15:06:47.099Z</time>
      </trkpt>
      <trkpt lat="44.50309" lon="5.95925">
        <ele>1856.7</ele>
        <time>2026-08-13T15:06:53.705Z</time>
      </trkpt>
      <trkpt lat="44.50303" lon="5.95923">
        <ele>1853.6</ele>
        <time>2026-08-13T15:07:12.335Z</time>
      </trkpt>
      <trkpt lat="44.503" lon="5.9592">
        <ele>1853.1</ele>
        <time>2026-08-13T15:07:15.684Z</time>
      </trkpt>
      <trkpt lat="44.50296" lon="5.95917">
        <ele>1852</ele>
        <time>2026-08-13T15:07:20.048Z</time>
      </trkpt>
      <trkpt lat="44.50294" lon="5.95914">
        <ele>1852.4</ele>
        <time>2026-08-13T15:07:24.162Z</time>
      </trkpt>
      <trkpt lat="44.50286" lon="5.95908">
        <ele>1849.9</ele>
        <time>2026-08-13T15:07:33.390Z</time>
      </trkpt>
      <trkpt lat="44.50283" lon="5.95904">
        <ele>1849.2</ele>
        <time>2026-08-13T15:07:37.156Z</time>
      </trkpt>
      <trkpt lat="44.50282" lon="5.95903">
        <ele>1848.8</ele>
        <time>2026-08-13T15:07:38.586Z</time>
      </trkpt>
      <trkpt lat="44.50275" lon="5.95898">
        <ele>1845.3</ele>
        <time>2026-08-13T15:08:02.317Z</time>
      </trkpt>
      <trkpt lat="44.50273" lon="5.95895">
        <ele>1844.9</ele>
        <time>2026-08-13T15:08:04.979Z</time>
      </trkpt>
      <trkpt lat="44.50272" lon="5.95889">
        <ele>1846</ele>
        <time>2026-08-13T15:08:14.372Z</time>
      </trkpt>
      <trkpt lat="44.50269" lon="5.95882">
        <ele>1847.4</ele>
        <time>2026-08-13T15:08:26.297Z</time>
      </trkpt>
      <trkpt lat="44.50267" lon="5.9588">
        <ele>1846.9</ele>
        <time>2026-08-13T15:08:28.568Z</time>
      </trkpt>
      <trkpt lat="44.50264" lon="5.95872">
        <ele>1848.2</ele>
        <time>2026-08-13T15:08:39.863Z</time>
      </trkpt>
      <trkpt lat="44.50257" lon="5.9586">
        <ele>1847.4</ele>
        <time>2026-08-13T15:08:50.255Z</time>
      </trkpt>
      <trkpt lat="44.50253" lon="5.95854">
        <ele>1847.7</ele>
        <time>2026-08-13T15:08:56.872Z</time>
      </trkpt>
      <trkpt lat="44.50251" lon="5.9585">
        <ele>1848.3</ele>
        <time>2026-08-13T15:09:02.362Z</time>
      </trkpt>
      <trkpt lat="44.50248" lon="5.95843">
        <ele>1849.8</ele>
        <time>2026-08-13T15:09:15.217Z</time>
      </trkpt>
      <trkpt lat="44.50245" lon="5.95839">
        <ele>1849.5</ele>
        <time>2026-08-13T15:09:19.107Z</time>
      </trkpt>
      <trkpt lat="44.50242" lon="5.95833">
        <ele>1850.3</ele>
        <time>2026-08-13T15:09:26.836Z</time>
      </trkpt>
      <trkpt lat="44.5024" lon="5.95831">
        <ele>1850.2</ele>
        <time>2026-08-13T15:09:29.221Z</time>
      </trkpt>
      <trkpt lat="44.50238" lon="5.95826">
        <ele>1852.9</ele>
        <time>2026-08-13T15:09:53.923Z</time>
      </trkpt>
      <trkpt lat="44.50233" lon="5.95821">
        <ele>1851.9</ele>
        <time>2026-08-13T15:09:59.503Z</time>
      </trkpt>
      <trkpt lat="44.5023" lon="5.95815">
        <ele>1853.5</ele>
        <time>2026-08-13T15:10:14.051Z</time>
      </trkpt>
      <trkpt lat="44.50216" lon="5.95792">
        <ele>1857</ele>
        <time>2026-08-13T15:10:46.913Z</time>
      </trkpt>
      <trkpt lat="44.50213" lon="5.95786">
        <ele>1858.5</ele>
        <time>2026-08-13T15:11:00.148Z</time>
      </trkpt>
      <trkpt lat="44.50211" lon="5.9578">
        <ele>1861.3</ele>
        <time>2026-08-13T15:11:28.686Z</time>
      </trkpt>
      <trkpt lat="44.50208" lon="5.95774">
        <ele>1862.5</ele>
        <time>2026-08-13T15:11:38.914Z</time>
      </trkpt>
      <trkpt lat="44.50203" lon="5.95766">
        <ele>1862.6</ele>
        <time>2026-08-13T15:11:46.882Z</time>
      </trkpt>
      <trkpt lat="44.50198" lon="5.95759">
        <ele>1861.2</ele>
        <time>2026-08-13T15:11:53.390Z</time>
      </trkpt>
      <trkpt lat="44.50197" lon="5.95758">
        <ele>1860.4</ele>
        <time>2026-08-13T15:11:57.100Z</time>
      </trkpt>
      <trkpt lat="44.50194" lon="5.95754">
        <ele>1859.3</ele>
        <time>2026-08-13T15:12:01.232Z</time>
      </trkpt>
      <trkpt lat="44.50186" lon="5.95746">
        <ele>1855</ele>
        <time>2026-08-13T15:12:26.726Z</time>
      </trkpt>
      <trkpt lat="44.50182" lon="5.95742">
        <ele>1852.7</ele>
        <time>2026-08-13T15:12:41.567Z</time>
      </trkpt>
      <trkpt lat="44.50178" lon="5.95739">
        <ele>1849.3</ele>
        <time>2026-08-13T15:12:55.271Z</time>
      </trkpt>
      <trkpt lat="44.50172" lon="5.95737">
        <ele>1841.4</ele>
        <time>2026-08-13T15:13:13.901Z</time>
      </trkpt>
      <trkpt lat="44.50169" lon="5.95734">
        <ele>1839.3</ele>
        <time>2026-08-13T15:13:25.032Z</time>
      </trkpt>
      <trkpt lat="44.50148" lon="5.95715">
        <ele>1829.7</ele>
        <time>2026-08-13T15:14:03.626Z</time>
      </trkpt>
      <trkpt lat="44.5014" lon="5.95709">
        <ele>1824.4</ele>
        <time>2026-08-13T15:14:31.033Z</time>
      </trkpt>
      <trkpt lat="44.50136" lon="5.95705">
        <ele>1824.1</ele>
        <time>2026-08-13T15:14:35.699Z</time>
      </trkpt>
      <trkpt lat="44.50132" lon="5.95702">
        <ele>1823.2</ele>
        <time>2026-08-13T15:14:39.878Z</time>
      </trkpt>
      <trkpt lat="44.50117" lon="5.95688">
        <ele>1820.1</ele>
        <time>2026-08-13T15:14:56.283Z</time>
      </trkpt>
      <trkpt lat="44.50112" lon="5.95685">
        <ele>1817.3</ele>
        <time>2026-08-13T15:15:12.711Z</time>
      </trkpt>
      <trkpt lat="44.50108" lon="5.95683">
        <ele>1816</ele>
        <time>2026-08-13T15:15:17.362Z</time>
      </trkpt>
      <trkpt lat="44.501" lon="5.95674">
        <ele>1816.9</ele>
        <time>2026-08-13T15:15:29.962Z</time>
      </trkpt>
      <trkpt lat="44.50094" lon="5.9567">
        <ele>1815.4</ele>
        <time>2026-08-13T15:15:36.225Z</time>
      </trkpt>
      <trkpt lat="44.5009" lon="5.95669">
        <ele>1813.3</ele>
        <time>2026-08-13T15:15:48.499Z</time>
      </trkpt>
      <trkpt lat="44.50086" lon="5.95666">
        <ele>1812.2</ele>
        <time>2026-08-13T15:15:52.863Z</time>
      </trkpt>
      <trkpt lat="44.50082" lon="5.95663">
        <ele>1811.5</ele>
        <time>2026-08-13T15:15:56.981Z</time>
      </trkpt>
      <trkpt lat="44.50082" lon="5.95663">
        <ele>1811.5</ele>
        <time>2026-08-13T15:15:56.981Z</time>
      </trkpt>
      <trkpt lat="44.50073" lon="5.95658">
        <ele>1810.7</ele>
        <time>2026-08-13T15:16:06.004Z</time>
      </trkpt>
      <trkpt lat="44.50068" lon="5.95653">
        <ele>1811.3</ele>
        <time>2026-08-13T15:16:13.741Z</time>
      </trkpt>
      <trkpt lat="44.50064" lon="5.95651">
        <ele>1810.7</ele>
        <time>2026-08-13T15:16:17.598Z</time>
      </trkpt>
      <trkpt lat="44.50058" lon="5.95647">
        <ele>1810.2</ele>
        <time>2026-08-13T15:16:23.827Z</time>
      </trkpt>
      <trkpt lat="44.50048" lon="5.95643">
        <ele>1808.9</ele>
        <time>2026-08-13T15:16:33.303Z</time>
      </trkpt>
      <trkpt lat="44.50046" lon="5.95642">
        <ele>1808.8</ele>
        <time>2026-08-13T15:16:35.350Z</time>
      </trkpt>
      <trkpt lat="44.50038" lon="5.95639">
        <ele>1807.9</ele>
        <time>2026-08-13T15:16:42.945Z</time>
      </trkpt>
      <trkpt lat="44.50031" lon="5.95636">
        <ele>1807.1</ele>
        <time>2026-08-13T15:16:49.656Z</time>
      </trkpt>
      <trkpt lat="44.50026" lon="5.95634">
        <ele>1806.1</ele>
        <time>2026-08-13T15:16:54.428Z</time>
      </trkpt>
      <trkpt lat="44.50023" lon="5.95632">
        <ele>1805.3</ele>
        <time>2026-08-13T15:16:57.617Z</time>
      </trkpt>
      <trkpt lat="44.50021" lon="5.9563">
        <ele>1804.9</ele>
        <time>2026-08-13T15:16:59.849Z</time>
      </trkpt>
      <trkpt lat="44.50019" lon="5.95627">
        <ele>1804.7</ele>
        <time>2026-08-13T15:17:02.612Z</time>
      </trkpt>
      <trkpt lat="44.50018" lon="5.95623">
        <ele>1805.3</ele>
        <time>2026-08-13T15:17:07.845Z</time>
      </trkpt>
      <trkpt lat="44.50016" lon="5.95619">
        <ele>1805.1</ele>
        <time>2026-08-13T15:17:11.167Z</time>
      </trkpt>
      <trkpt lat="44.50016" lon="5.95614">
        <ele>1806.3</ele>
        <time>2026-08-13T15:17:22.785Z</time>
      </trkpt>
      <trkpt lat="44.50016" lon="5.95612">
        <ele>1806.9</ele>
        <time>2026-08-13T15:17:29.994Z</time>
      </trkpt>
      <trkpt lat="44.50015" lon="5.9561">
        <ele>1806.7</ele>
        <time>2026-08-13T15:17:31.587Z</time>
      </trkpt>
      <trkpt lat="44.50014" lon="5.95608">
        <ele>1806.5</ele>
        <time>2026-08-13T15:17:33.181Z</time>
      </trkpt>
      <trkpt lat="44.50011" lon="5.95599">
        <ele>1806.5</ele>
        <time>2026-08-13T15:17:40.462Z</time>
      </trkpt>
      <trkpt lat="44.5001" lon="5.95596">
        <ele>1806.5</ele>
        <time>2026-08-13T15:17:42.889Z</time>
      </trkpt>
      <trkpt lat="44.50008" lon="5.95593">
        <ele>1805.4</ele>
        <time>2026-08-13T15:17:47.176Z</time>
      </trkpt>
      <trkpt lat="44.50008" lon="5.95592">
        <ele>1805.7</ele>
        <time>2026-08-13T15:17:50.780Z</time>
      </trkpt>
      <trkpt lat="44.50004" lon="5.95582">
        <ele>1804.3</ele>
        <time>2026-08-13T15:17:58.223Z</time>
      </trkpt>
      <trkpt lat="44.50003" lon="5.95581">
        <ele>1803.6</ele>
        <time>2026-08-13T15:18:01.933Z</time>
      </trkpt>
      <trkpt lat="44.50002" lon="5.9558">
        <ele>1803</ele>
        <time>2026-08-13T15:18:05.644Z</time>
      </trkpt>
      <trkpt lat="44.50001" lon="5.95577">
        <ele>1802.8</ele>
        <time>2026-08-13T15:18:07.842Z</time>
      </trkpt>
      <trkpt lat="44.49999" lon="5.95575">
        <ele>1801.6</ele>
        <time>2026-08-13T15:18:15.263Z</time>
      </trkpt>
      <trkpt lat="44.49999" lon="5.95575">
        <ele>1801.6</ele>
        <time>2026-08-13T15:18:15.263Z</time>
      </trkpt>
      <trkpt lat="44.49998" lon="5.95575">
        <ele>1800.9</ele>
        <time>2026-08-13T15:18:18.284Z</time>
      </trkpt>
      <trkpt lat="44.49996" lon="5.95569">
        <ele>1801</ele>
        <time>2026-08-13T15:18:23.315Z</time>
      </trkpt>
      <trkpt lat="44.49994" lon="5.95562">
        <ele>1801.3</ele>
        <time>2026-08-13T15:18:29.450Z</time>
      </trkpt>
      <trkpt lat="44.49988" lon="5.95545">
        <ele>1801.5</ele>
        <time>2026-08-13T15:18:43.699Z</time>
      </trkpt>
      <trkpt lat="44.49985" lon="5.95539">
        <ele>1800.9</ele>
        <time>2026-08-13T15:18:48.479Z</time>
      </trkpt>
      <trkpt lat="44.49978" lon="5.95527">
        <ele>1798.9</ele>
        <time>2026-08-13T15:18:58.574Z</time>
      </trkpt>
      <trkpt lat="44.49976" lon="5.95524">
        <ele>1797.9</ele>
        <time>2026-08-13T15:19:02.194Z</time>
      </trkpt>
      <trkpt lat="44.49971" lon="5.95515">
        <ele>1796</ele>
        <time>2026-08-13T15:19:09.933Z</time>
      </trkpt>
      <trkpt lat="44.4997" lon="5.9551">
        <ele>1796.4</ele>
        <time>2026-08-13T15:19:14.728Z</time>
      </trkpt>
      <trkpt lat="44.49969" lon="5.95503">
        <ele>1797.2</ele>
        <time>2026-08-13T15:19:22.356Z</time>
      </trkpt>
      <trkpt lat="44.49969" lon="5.95499">
        <ele>1797.9</ele>
        <time>2026-08-13T15:19:28.324Z</time>
      </trkpt>
      <trkpt lat="44.49963" lon="5.9548">
        <ele>1795.1</ele>
        <time>2026-08-13T15:19:41.904Z</time>
      </trkpt>
      <trkpt lat="44.49957" lon="5.95463">
        <ele>1792.6</ele>
        <time>2026-08-13T15:19:54.276Z</time>
      </trkpt>
      <trkpt lat="44.49956" lon="5.95455">
        <ele>1792.8</ele>
        <time>2026-08-13T15:20:00.603Z</time>
      </trkpt>
      <trkpt lat="44.49955" lon="5.95453">
        <ele>1792.3</ele>
        <time>2026-08-13T15:20:02.420Z</time>
      </trkpt>
      <trkpt lat="44.49953" lon="5.95447">
        <ele>1791.6</ele>
        <time>2026-08-13T15:20:06.708Z</time>
      </trkpt>
      <trkpt lat="44.49951" lon="5.95442">
        <ele>1790.7</ele>
        <time>2026-08-13T15:20:10.541Z</time>
      </trkpt>
      <trkpt lat="44.49949" lon="5.95437">
        <ele>1789.9</ele>
        <time>2026-08-13T15:20:14.301Z</time>
      </trkpt>
      <trkpt lat="44.49947" lon="5.95429">
        <ele>1789.4</ele>
        <time>2026-08-13T15:20:19.936Z</time>
      </trkpt>
      <trkpt lat="44.49945" lon="5.95425">
        <ele>1788.5</ele>
        <time>2026-08-13T15:20:23.369Z</time>
      </trkpt>
      <trkpt lat="44.49941" lon="5.95415">
        <ele>1787</ele>
        <time>2026-08-13T15:20:30.843Z</time>
      </trkpt>
      <trkpt lat="44.49941" lon="5.95412">
        <ele>1787.4</ele>
        <time>2026-08-13T15:20:34.394Z</time>
      </trkpt>
      <trkpt lat="44.4994" lon="5.95406">
        <ele>1787.6</ele>
        <time>2026-08-13T15:20:39.300Z</time>
      </trkpt>
      <trkpt lat="44.49935" lon="5.95394">
        <ele>1785.9</ele>
        <time>2026-08-13T15:20:48.323Z</time>
      </trkpt>
      <trkpt lat="44.49933" lon="5.95389">
        <ele>1785.2</ele>
        <time>2026-08-13T15:20:52.044Z</time>
      </trkpt>
      <trkpt lat="44.49927" lon="5.95372">
        <ele>1782.7</ele>
        <time>2026-08-13T15:21:04.416Z</time>
      </trkpt>
      <trkpt lat="44.49926" lon="5.95369">
        <ele>1782.3</ele>
        <time>2026-08-13T15:21:06.565Z</time>
      </trkpt>
      <trkpt lat="44.49925" lon="5.95365">
        <ele>1782</ele>
        <time>2026-08-13T15:21:09.352Z</time>
      </trkpt>
      <trkpt lat="44.49922" lon="5.95355">
        <ele>1781.1</ele>
        <time>2026-08-13T15:21:16.424Z</time>
      </trkpt>
      <trkpt lat="44.49917" lon="5.95337">
        <ele>1779.8</ele>
        <time>2026-08-13T15:21:29.161Z</time>
      </trkpt>
      <trkpt lat="44.49916" lon="5.95335">
        <ele>1779.4</ele>
        <time>2026-08-13T15:21:30.811Z</time>
      </trkpt>
      <trkpt lat="44.49914" lon="5.95333">
        <ele>1778.3</ele>
        <time>2026-08-13T15:21:38.232Z</time>
      </trkpt>
      <trkpt lat="44.49913" lon="5.95326">
        <ele>1778.2</ele>
        <time>2026-08-13T15:21:43.313Z</time>
      </trkpt>
      <trkpt lat="44.49913" lon="5.95314">
        <ele>1779</ele>
        <time>2026-08-13T15:21:53.979Z</time>
      </trkpt>
      <trkpt lat="44.49912" lon="5.95311">
        <ele>1778.6</ele>
        <time>2026-08-13T15:21:56.128Z</time>
      </trkpt>
      <trkpt lat="44.49911" lon="5.95307">
        <ele>1778.2</ele>
        <time>2026-08-13T15:21:58.878Z</time>
      </trkpt>
      <trkpt lat="44.4991" lon="5.95302">
        <ele>1777.8</ele>
        <time>2026-08-13T15:22:02.275Z</time>
      </trkpt>
      <trkpt lat="44.4991" lon="5.95296">
        <ele>1778.1</ele>
        <time>2026-08-13T15:22:07.315Z</time>
      </trkpt>
      <trkpt lat="44.49909" lon="5.95289">
        <ele>1777.8</ele>
        <time>2026-08-13T15:22:12.162Z</time>
      </trkpt>
      <trkpt lat="44.49908" lon="5.95286">
        <ele>1777.3</ele>
        <time>2026-08-13T15:22:14.359Z</time>
      </trkpt>
      <trkpt lat="44.49907" lon="5.9528">
        <ele>1777</ele>
        <time>2026-08-13T15:22:18.505Z</time>
      </trkpt>
      <trkpt lat="44.49906" lon="5.95279">
        <ele>1776.4</ele>
        <time>2026-08-13T15:22:22.215Z</time>
      </trkpt>
      <trkpt lat="44.49905" lon="5.95273">
        <ele>1776.4</ele>
        <time>2026-08-13T15:22:26.731Z</time>
      </trkpt>
      <trkpt lat="44.49902" lon="5.95264">
        <ele>1775.5</ele>
        <time>2026-08-13T15:22:33.184Z</time>
      </trkpt>
      <trkpt lat="44.499" lon="5.95258">
        <ele>1774.9</ele>
        <time>2026-08-13T15:22:37.487Z</time>
      </trkpt>
      <trkpt lat="44.49898" lon="5.95255">
        <ele>1774</ele>
        <time>2026-08-13T15:22:40.705Z</time>
      </trkpt>
      <trkpt lat="44.49895" lon="5.9525">
        <ele>1772.7</ele>
        <time>2026-08-13T15:22:45.478Z</time>
      </trkpt>
      <trkpt lat="44.49895" lon="5.95247">
        <ele>1773.3</ele>
        <time>2026-08-13T15:22:50.727Z</time>
      </trkpt>
      <trkpt lat="44.49895" lon="5.95244">
        <ele>1773.9</ele>
        <time>2026-08-13T15:22:55.977Z</time>
      </trkpt>
      <trkpt lat="44.49888" lon="5.95229">
        <ele>1772.3</ele>
        <time>2026-08-13T15:23:07.627Z</time>
      </trkpt>
      <trkpt lat="44.49885" lon="5.95219">
        <ele>1772.4</ele>
        <time>2026-08-13T15:23:15.750Z</time>
      </trkpt>
      <trkpt lat="44.49882" lon="5.95212">
        <ele>1772.1</ele>
        <time>2026-08-13T15:23:21.337Z</time>
      </trkpt>
      <trkpt lat="44.49876" lon="5.952">
        <ele>1771</ele>
        <time>2026-08-13T15:23:30.940Z</time>
      </trkpt>
      <trkpt lat="44.49872" lon="5.9519">
        <ele>1770.1</ele>
        <time>2026-08-13T15:23:38.435Z</time>
      </trkpt>
      <trkpt lat="44.49869" lon="5.95182">
        <ele>1769</ele>
        <time>2026-08-13T15:23:44.301Z</time>
      </trkpt>
      <trkpt lat="44.49866" lon="5.95175">
        <ele>1767.6</ele>
        <time>2026-08-13T15:23:49.889Z</time>
      </trkpt>
      <trkpt lat="44.49862" lon="5.95166">
        <ele>1765.7</ele>
        <time>2026-08-13T15:23:57.257Z</time>
      </trkpt>
      <trkpt lat="44.4986" lon="5.95158">
        <ele>1765.3</ele>
        <time>2026-08-13T15:24:02.972Z</time>
      </trkpt>
      <trkpt lat="44.49857" lon="5.95148">
        <ele>1764.6</ele>
        <time>2026-08-13T15:24:10.143Z</time>
      </trkpt>
      <trkpt lat="44.49856" lon="5.95138">
        <ele>1764.9</ele>
        <time>2026-08-13T15:24:18.121Z</time>
      </trkpt>
      <trkpt lat="44.49854" lon="5.95131">
        <ele>1764.2</ele>
        <time>2026-08-13T15:24:23.015Z</time>
      </trkpt>
      <trkpt lat="44.49852" lon="5.95124">
        <ele>1763.5</ele>
        <time>2026-08-13T15:24:27.910Z</time>
      </trkpt>
      <trkpt lat="44.4985" lon="5.95118">
        <ele>1762.7</ele>
        <time>2026-08-13T15:24:32.207Z</time>
      </trkpt>
      <trkpt lat="44.49849" lon="5.95109">
        <ele>1762.8</ele>
        <time>2026-08-13T15:24:39.057Z</time>
      </trkpt>
      <trkpt lat="44.49846" lon="5.95097">
        <ele>1762.2</ele>
        <time>2026-08-13T15:24:47.629Z</time>
      </trkpt>
      <trkpt lat="44.49845" lon="5.9509">
        <ele>1762.3</ele>
        <time>2026-08-13T15:24:53.039Z</time>
      </trkpt>
      <trkpt lat="44.49843" lon="5.95083">
        <ele>1761.7</ele>
        <time>2026-08-13T15:24:57.965Z</time>
      </trkpt>
      <trkpt lat="44.4984" lon="5.95076">
        <ele>1760.9</ele>
        <time>2026-08-13T15:25:03.258Z</time>
      </trkpt>
      <trkpt lat="44.49834" lon="5.95063">
        <ele>1758.5</ele>
        <time>2026-08-13T15:25:13.583Z</time>
      </trkpt>
      <trkpt lat="44.49829" lon="5.95052">
        <ele>1757.2</ele>
        <time>2026-08-13T15:25:22.034Z</time>
      </trkpt>
      <trkpt lat="44.49826" lon="5.95045">
        <ele>1756.9</ele>
        <time>2026-08-13T15:25:27.621Z</time>
      </trkpt>
      <trkpt lat="44.49825" lon="5.95041">
        <ele>1757</ele>
        <time>2026-08-13T15:25:30.914Z</time>
      </trkpt>
      <trkpt lat="44.49824" lon="5.95035">
        <ele>1757.6</ele>
        <time>2026-08-13T15:25:37.087Z</time>
      </trkpt>
      <trkpt lat="44.4982" lon="5.95022">
        <ele>1757.8</ele>
        <time>2026-08-13T15:25:47.817Z</time>
      </trkpt>
      <trkpt lat="44.49817" lon="5.95013">
        <ele>1758</ele>
        <time>2026-08-13T15:25:55.464Z</time>
      </trkpt>
      <trkpt lat="44.49813" lon="5.95003">
        <ele>1757.7</ele>
        <time>2026-08-13T15:26:03.443Z</time>
      </trkpt>
      <trkpt lat="44.4981" lon="5.94995">
        <ele>1757.2</ele>
        <time>2026-08-13T15:26:09.476Z</time>
      </trkpt>
      <trkpt lat="44.49806" lon="5.94982">
        <ele>1756.6</ele>
        <time>2026-08-13T15:26:19.083Z</time>
      </trkpt>
      <trkpt lat="44.49801" lon="5.94966">
        <ele>1756.1</ele>
        <time>2026-08-13T15:26:31.189Z</time>
      </trkpt>
      <trkpt lat="44.49798" lon="5.94958">
        <ele>1755.5</ele>
        <time>2026-08-13T15:26:37.154Z</time>
      </trkpt>
      <trkpt lat="44.49796" lon="5.94953">
        <ele>1755</ele>
        <time>2026-08-13T15:26:40.883Z</time>
      </trkpt>
      <trkpt lat="44.49792" lon="5.94948">
        <ele>1753.2</ele>
        <time>2026-08-13T15:26:47.362Z</time>
      </trkpt>
      <trkpt lat="44.4979" lon="5.94944">
        <ele>1752.5</ele>
        <time>2026-08-13T15:26:50.577Z</time>
      </trkpt>
      <trkpt lat="44.49788" lon="5.94936">
        <ele>1753.2</ele>
        <time>2026-08-13T15:26:58.574Z</time>
      </trkpt>
      <trkpt lat="44.49785" lon="5.94925">
        <ele>1753.7</ele>
        <time>2026-08-13T15:27:08.234Z</time>
      </trkpt>
      <trkpt lat="44.49782" lon="5.94915">
        <ele>1753.6</ele>
        <time>2026-08-13T15:27:16.029Z</time>
      </trkpt>
      <trkpt lat="44.49779" lon="5.94904">
        <ele>1752.5</ele>
        <time>2026-08-13T15:27:23.672Z</time>
      </trkpt>
      <trkpt lat="44.49777" lon="5.94898">
        <ele>1751.5</ele>
        <time>2026-08-13T15:27:28.066Z</time>
      </trkpt>
      <trkpt lat="44.49775" lon="5.94892">
        <ele>1750.7</ele>
        <time>2026-08-13T15:27:32.364Z</time>
      </trkpt>
      <trkpt lat="44.49772" lon="5.94887">
        <ele>1749.1</ele>
        <time>2026-08-13T15:27:38.169Z</time>
      </trkpt>
      <trkpt lat="44.49771" lon="5.94883">
        <ele>1748.6</ele>
        <time>2026-08-13T15:27:40.918Z</time>
      </trkpt>
      <trkpt lat="44.49771" lon="5.94879">
        <ele>1748.7</ele>
        <time>2026-08-13T15:27:44.037Z</time>
      </trkpt>
      <trkpt lat="44.49771" lon="5.94877">
        <ele>1748.8</ele>
        <time>2026-08-13T15:27:45.717Z</time>
      </trkpt>
      <trkpt lat="44.4977" lon="5.94873">
        <ele>1748.3</ele>
        <time>2026-08-13T15:27:48.465Z</time>
      </trkpt>
      <trkpt lat="44.49768" lon="5.94866">
        <ele>1747.1</ele>
        <time>2026-08-13T15:27:53.522Z</time>
      </trkpt>
      <trkpt lat="44.49768" lon="5.94859">
        <ele>1747.4</ele>
        <time>2026-08-13T15:27:59.271Z</time>
      </trkpt>
      <trkpt lat="44.49766" lon="5.94853">
        <ele>1746.2</ele>
        <time>2026-08-13T15:28:03.893Z</time>
      </trkpt>
      <trkpt lat="44.49764" lon="5.94841">
        <ele>1745.3</ele>
        <time>2026-08-13T15:28:11.980Z</time>
      </trkpt>
      <trkpt lat="44.49761" lon="5.94833">
        <ele>1743.6</ele>
        <time>2026-08-13T15:28:18.390Z</time>
      </trkpt>
      <trkpt lat="44.49757" lon="5.94824">
        <ele>1742</ele>
        <time>2026-08-13T15:28:25.426Z</time>
      </trkpt>
      <trkpt lat="44.49754" lon="5.94816">
        <ele>1741.1</ele>
        <time>2026-08-13T15:28:31.282Z</time>
      </trkpt>
      <trkpt lat="44.49747" lon="5.94805">
        <ele>1738.5</ele>
        <time>2026-08-13T15:28:41.465Z</time>
      </trkpt>
      <trkpt lat="44.49745" lon="5.94803">
        <ele>1737.9</ele>
        <time>2026-08-13T15:28:43.834Z</time>
      </trkpt>
      <trkpt lat="44.49741" lon="5.94802">
        <ele>1736</ele>
        <time>2026-08-13T15:28:56.108Z</time>
      </trkpt>
      <trkpt lat="44.49738" lon="5.94801">
        <ele>1734.6</ele>
        <time>2026-08-13T15:29:05.423Z</time>
      </trkpt>
      <trkpt lat="44.49735" lon="5.94799">
        <ele>1733.4</ele>
        <time>2026-08-13T15:29:09.917Z</time>
      </trkpt>
      <trkpt lat="44.49727" lon="5.94786">
        <ele>1731.9</ele>
        <time>2026-08-13T15:29:21.086Z</time>
      </trkpt>
      <trkpt lat="44.4972" lon="5.94775">
        <ele>1730.3</ele>
        <time>2026-08-13T15:29:30.631Z</time>
      </trkpt>
      <trkpt lat="44.49715" lon="5.94768">
        <ele>1729</ele>
        <time>2026-08-13T15:29:37.091Z</time>
      </trkpt>
      <trkpt lat="44.49714" lon="5.94765">
        <ele>1729.1</ele>
        <time>2026-08-13T15:29:39.711Z</time>
      </trkpt>
      <trkpt lat="44.49712" lon="5.94763">
        <ele>1728.3</ele>
        <time>2026-08-13T15:29:42.571Z</time>
      </trkpt>
      <trkpt lat="44.49709" lon="5.9476">
        <ele>1727.1</ele>
        <time>2026-08-13T15:29:46.862Z</time>
      </trkpt>
      <trkpt lat="44.49706" lon="5.94756">
        <ele>1726.1</ele>
        <time>2026-08-13T15:29:50.840Z</time>
      </trkpt>
      <trkpt lat="44.49705" lon="5.94751">
        <ele>1726.6</ele>
        <time>2026-08-13T15:29:56.018Z</time>
      </trkpt>
      <trkpt lat="44.49703" lon="5.94748">
        <ele>1725.7</ele>
        <time>2026-08-13T15:29:59.236Z</time>
      </trkpt>
      <trkpt lat="44.49701" lon="5.94744">
        <ele>1724.8</ele>
        <time>2026-08-13T15:30:02.669Z</time>
      </trkpt>
      <trkpt lat="44.49698" lon="5.94741">
        <ele>1723</ele>
        <time>2026-08-13T15:30:13.801Z</time>
      </trkpt>
      <trkpt lat="44.49696" lon="5.94736">
        <ele>1722.1</ele>
        <time>2026-08-13T15:30:17.634Z</time>
      </trkpt>
      <trkpt lat="44.49693" lon="5.94731">
        <ele>1720.5</ele>
        <time>2026-08-13T15:30:23.439Z</time>
      </trkpt>
      <trkpt lat="44.49693" lon="5.94725">
        <ele>1720.9</ele>
        <time>2026-08-13T15:30:28.772Z</time>
      </trkpt>
      <trkpt lat="44.49692" lon="5.94717">
        <ele>1721.1</ele>
        <time>2026-08-13T15:30:35.099Z</time>
      </trkpt>
      <trkpt lat="44.49691" lon="5.94709">
        <ele>1721.3</ele>
        <time>2026-08-13T15:30:41.427Z</time>
      </trkpt>
      <trkpt lat="44.49689" lon="5.94702">
        <ele>1720.9</ele>
        <time>2026-08-13T15:30:46.473Z</time>
      </trkpt>
      <trkpt lat="44.49687" lon="5.94699">
        <ele>1720</ele>
        <time>2026-08-13T15:30:49.691Z</time>
      </trkpt>
      <trkpt lat="44.49684" lon="5.94696">
        <ele>1718.4</ele>
        <time>2026-08-13T15:30:58.808Z</time>
      </trkpt>
      <trkpt lat="44.4968" lon="5.94692">
        <ele>1716.7</ele>
        <time>2026-08-13T15:31:04.998Z</time>
      </trkpt>
      <trkpt lat="44.49676" lon="5.94687">
        <ele>1715.2</ele>
        <time>2026-08-13T15:31:10.498Z</time>
      </trkpt>
      <trkpt lat="44.49674" lon="5.94682">
        <ele>1715</ele>
        <time>2026-08-13T15:31:14.431Z</time>
      </trkpt>
      <trkpt lat="44.49671" lon="5.94676">
        <ele>1714.2</ele>
        <time>2026-08-13T15:31:19.176Z</time>
      </trkpt>
      <trkpt lat="44.4967" lon="5.94674">
        <ele>1713.9</ele>
        <time>2026-08-13T15:31:20.762Z</time>
      </trkpt>
      <trkpt lat="44.49667" lon="5.94669">
        <ele>1712.8</ele>
        <time>2026-08-13T15:31:25.208Z</time>
      </trkpt>
      <trkpt lat="44.49665" lon="5.94664">
        <ele>1712.6</ele>
        <time>2026-08-13T15:31:29.141Z</time>
      </trkpt>
      <trkpt lat="44.49663" lon="5.9466">
        <ele>1712.2</ele>
        <time>2026-08-13T15:31:32.328Z</time>
      </trkpt>
      <trkpt lat="44.49661" lon="5.94653">
        <ele>1712.6</ele>
        <time>2026-08-13T15:31:38.725Z</time>
      </trkpt>
      <trkpt lat="44.49659" lon="5.94652">
        <ele>1711.6</ele>
        <time>2026-08-13T15:31:45.139Z</time>
      </trkpt>
      <trkpt lat="44.49657" lon="5.9465">
        <ele>1710.9</ele>
        <time>2026-08-13T15:31:47.689Z</time>
      </trkpt>
      <trkpt lat="44.49654" lon="5.94646">
        <ele>1710.1</ele>
        <time>2026-08-13T15:31:51.491Z</time>
      </trkpt>
      <trkpt lat="44.49652" lon="5.94642">
        <ele>1709.8</ele>
        <time>2026-08-13T15:31:54.730Z</time>
      </trkpt>
      <trkpt lat="44.49649" lon="5.94641">
        <ele>1708.3</ele>
        <time>2026-08-13T15:32:04.045Z</time>
      </trkpt>
      <trkpt lat="44.49647" lon="5.94639">
        <ele>1707.6</ele>
        <time>2026-08-13T15:32:06.595Z</time>
      </trkpt>
      <trkpt lat="44.49643" lon="5.94636">
        <ele>1706.1</ele>
        <time>2026-08-13T15:32:11.972Z</time>
      </trkpt>
      <trkpt lat="44.49638" lon="5.94629">
        <ele>1705</ele>
        <time>2026-08-13T15:32:18.388Z</time>
      </trkpt>
      <trkpt lat="44.49636" lon="5.94626">
        <ele>1704.7</ele>
        <time>2026-08-13T15:32:21.083Z</time>
      </trkpt>
      <trkpt lat="44.49631" lon="5.94619">
        <ele>1703.9</ele>
        <time>2026-08-13T15:32:27.549Z</time>
      </trkpt>
      <trkpt lat="44.49625" lon="5.94612">
        <ele>1702.7</ele>
        <time>2026-08-13T15:32:34.636Z</time>
      </trkpt>
      <trkpt lat="44.49621" lon="5.94606">
        <ele>1702.3</ele>
        <time>2026-08-13T15:32:40.161Z</time>
      </trkpt>
      <trkpt lat="44.49608" lon="5.94591">
        <ele>1699.4</ele>
        <time>2026-08-13T15:32:55.490Z</time>
      </trkpt>
      <trkpt lat="44.49605" lon="5.94588">
        <ele>1698.5</ele>
        <time>2026-08-13T15:32:59.043Z</time>
      </trkpt>
      <trkpt lat="44.49602" lon="5.94585">
        <ele>1697.7</ele>
        <time>2026-08-13T15:33:02.488Z</time>
      </trkpt>
      <trkpt lat="44.496" lon="5.94581">
        <ele>1697.6</ele>
        <time>2026-08-13T15:33:05.922Z</time>
      </trkpt>
      <trkpt lat="44.49597" lon="5.94577">
        <ele>1697</ele>
        <time>2026-08-13T15:33:09.681Z</time>
      </trkpt>
      <trkpt lat="44.49594" lon="5.94573">
        <ele>1696.4</ele>
        <time>2026-08-13T15:33:13.440Z</time>
      </trkpt>
      <trkpt lat="44.49589" lon="5.94565">
        <ele>1695.7</ele>
        <time>2026-08-13T15:33:20.464Z</time>
      </trkpt>
      <trkpt lat="44.49582" lon="5.94556">
        <ele>1694.1</ele>
        <time>2026-08-13T15:33:29.103Z</time>
      </trkpt>
      <trkpt lat="44.49579" lon="5.94552">
        <ele>1692.8</ele>
        <time>2026-08-13T15:33:33.743Z</time>
      </trkpt>
      <trkpt lat="44.49577" lon="5.94546">
        <ele>1692.1</ele>
        <time>2026-08-13T15:33:38.032Z</time>
      </trkpt>
      <trkpt lat="44.49576" lon="5.9454">
        <ele>1691.9</ele>
        <time>2026-08-13T15:33:42.275Z</time>
      </trkpt>
      <trkpt lat="44.49574" lon="5.94532">
        <ele>1691</ele>
        <time>2026-08-13T15:33:47.764Z</time>
      </trkpt>
      <trkpt lat="44.49575" lon="5.94524">
        <ele>1691.5</ele>
        <time>2026-08-13T15:33:54.856Z</time>
      </trkpt>
      <trkpt lat="44.49576" lon="5.94519">
        <ele>1691.6</ele>
        <time>2026-08-13T15:33:58.844Z</time>
      </trkpt>
      <trkpt lat="44.49576" lon="5.94515">
        <ele>1691.1</ele>
        <time>2026-08-13T15:34:01.443Z</time>
      </trkpt>
      <trkpt lat="44.49575" lon="5.94511">
        <ele>1689.8</ele>
        <time>2026-08-13T15:34:08.523Z</time>
      </trkpt>
      <trkpt lat="44.49574" lon="5.94505">
        <ele>1688.3</ele>
        <time>2026-08-13T15:34:13.952Z</time>
      </trkpt>
      <trkpt lat="44.49572" lon="5.94491">
        <ele>1685.9</ele>
        <time>2026-08-13T15:34:23.664Z</time>
      </trkpt>
      <trkpt lat="44.4957" lon="5.94478">
        <ele>1684.1</ele>
        <time>2026-08-13T15:34:32.360Z</time>
      </trkpt>
      <trkpt lat="44.49567" lon="5.94464">
        <ele>1681.7</ele>
        <time>2026-08-13T15:34:42.238Z</time>
      </trkpt>
      <trkpt lat="44.49565" lon="5.94457">
        <ele>1680.2</ele>
        <time>2026-08-13T15:34:47.746Z</time>
      </trkpt>
      <trkpt lat="44.49563" lon="5.9445">
        <ele>1678.7</ele>
        <time>2026-08-13T15:34:53.254Z</time>
      </trkpt>
      <trkpt lat="44.49563" lon="5.94443">
        <ele>1678.8</ele>
        <time>2026-08-13T15:34:58.562Z</time>
      </trkpt>
      <trkpt lat="44.49562" lon="5.94437">
        <ele>1677.8</ele>
        <time>2026-08-13T15:35:02.714Z</time>
      </trkpt>
      <trkpt lat="44.49561" lon="5.94433">
        <ele>1676.8</ele>
        <time>2026-08-13T15:35:06.299Z</time>
      </trkpt>
      <trkpt lat="44.4956" lon="5.9443">
        <ele>1675.9</ele>
        <time>2026-08-13T15:35:09.875Z</time>
      </trkpt>
      <trkpt lat="44.49559" lon="5.94425">
        <ele>1674.9</ele>
        <time>2026-08-13T15:35:13.601Z</time>
      </trkpt>
      <trkpt lat="44.49559" lon="5.94421">
        <ele>1674.8</ele>
        <time>2026-08-13T15:35:16.390Z</time>
      </trkpt>
      <trkpt lat="44.49558" lon="5.94416">
        <ele>1673.8</ele>
        <time>2026-08-13T15:35:20.116Z</time>
      </trkpt>
      <trkpt lat="44.49557" lon="5.94411">
        <ele>1673.1</ele>
        <time>2026-08-13T15:35:23.510Z</time>
      </trkpt>
      <trkpt lat="44.49556" lon="5.94404">
        <ele>1672.3</ele>
        <time>2026-08-13T15:35:28.134Z</time>
      </trkpt>
      <trkpt lat="44.49556" lon="5.94398">
        <ele>1672.3</ele>
        <time>2026-08-13T15:35:32.532Z</time>
      </trkpt>
      <trkpt lat="44.49556" lon="5.94395">
        <ele>1672.3</ele>
        <time>2026-08-13T15:35:34.731Z</time>
      </trkpt>
      <trkpt lat="44.49555" lon="5.94392">
        <ele>1671.6</ele>
        <time>2026-08-13T15:35:37.250Z</time>
      </trkpt>
      <trkpt lat="44.49553" lon="5.94384">
        <ele>1670</ele>
        <time>2026-08-13T15:35:43.273Z</time>
      </trkpt>
      <trkpt lat="44.49552" lon="5.94375">
        <ele>1668.7</ele>
        <time>2026-08-13T15:35:49.265Z</time>
      </trkpt>
      <trkpt lat="44.49551" lon="5.94364">
        <ele>1667.3</ele>
        <time>2026-08-13T15:35:56.476Z</time>
      </trkpt>
      <trkpt lat="44.49551" lon="5.94358">
        <ele>1667</ele>
        <time>2026-08-13T15:36:00.507Z</time>
      </trkpt>
      <trkpt lat="44.4955" lon="5.94354">
        <ele>1666.2</ele>
        <time>2026-08-13T15:36:03.518Z</time>
      </trkpt>
      <trkpt lat="44.49549" lon="5.94351">
        <ele>1665.5</ele>
        <time>2026-08-13T15:36:06.038Z</time>
      </trkpt>
      <trkpt lat="44.49548" lon="5.94346">
        <ele>1664.7</ele>
        <time>2026-08-13T15:36:09.496Z</time>
      </trkpt>
      <trkpt lat="44.49548" lon="5.94339">
        <ele>1664.5</ele>
        <time>2026-08-13T15:36:14.348Z</time>
      </trkpt>
      <trkpt lat="44.49547" lon="5.94332">
        <ele>1663.6</ele>
        <time>2026-08-13T15:36:18.991Z</time>
      </trkpt>
      <trkpt lat="44.49547" lon="5.94327">
        <ele>1662.9</ele>
        <time>2026-08-13T15:36:22.272Z</time>
      </trkpt>
      <trkpt lat="44.49548" lon="5.94323">
        <ele>1663.1</ele>
        <time>2026-08-13T15:36:25.801Z</time>
      </trkpt>
      <trkpt lat="44.49548" lon="5.94318">
        <ele>1662.4</ele>
        <time>2026-08-13T15:36:29.082Z</time>
      </trkpt>
      <trkpt lat="44.49548" lon="5.94312">
        <ele>1661.7</ele>
        <time>2026-08-13T15:36:32.971Z</time>
      </trkpt>
      <trkpt lat="44.49547" lon="5.94307">
        <ele>1660.3</ele>
        <time>2026-08-13T15:36:38.472Z</time>
      </trkpt>
      <trkpt lat="44.49546" lon="5.94304">
        <ele>1659.4</ele>
        <time>2026-08-13T15:36:42.048Z</time>
      </trkpt>
      <trkpt lat="44.49544" lon="5.94301">
        <ele>1657.8</ele>
        <time>2026-08-13T15:36:50.896Z</time>
      </trkpt>
      <trkpt lat="44.49546" lon="5.94298">
        <ele>1658.9</ele>
        <time>2026-08-13T15:37:02.664Z</time>
      </trkpt>
      <trkpt lat="44.49547" lon="5.94296">
        <ele>1659.5</ele>
        <time>2026-08-13T15:37:08.584Z</time>
      </trkpt>
      <trkpt lat="44.49546" lon="5.94294">
        <ele>1658.6</ele>
        <time>2026-08-13T15:37:13.847Z</time>
      </trkpt>
      <trkpt lat="44.49545" lon="5.94292">
        <ele>1657.8</ele>
        <time>2026-08-13T15:37:19.110Z</time>
      </trkpt>
      <trkpt lat="44.49545" lon="5.94284">
        <ele>1657.2</ele>
        <time>2026-08-13T15:37:24.353Z</time>
      </trkpt>
      <trkpt lat="44.49546" lon="5.9428">
        <ele>1657.6</ele>
        <time>2026-08-13T15:37:28.546Z</time>
      </trkpt>
      <trkpt lat="44.49548" lon="5.94279">
        <ele>1658.9</ele>
        <time>2026-08-13T15:37:41.374Z</time>
      </trkpt>
      <trkpt lat="44.49548" lon="5.94278">
        <ele>1658.8</ele>
        <time>2026-08-13T15:37:42.022Z</time>
      </trkpt>
      <trkpt lat="44.49548" lon="5.94276">
        <ele>1659.4</ele>
        <time>2026-08-13T15:37:49.230Z</time>
      </trkpt>
      <trkpt lat="44.49543" lon="5.94269">
        <ele>1658.4</ele>
        <time>2026-08-13T15:37:55.648Z</time>
      </trkpt>
      <trkpt lat="44.49537" lon="5.94265">
        <ele>1655.8</ele>
        <time>2026-08-13T15:38:06.431Z</time>
      </trkpt>
      <trkpt lat="44.49527" lon="5.9426">
        <ele>1650.9</ele>
        <time>2026-08-13T15:38:38.502Z</time>
      </trkpt>
      <trkpt lat="44.49523" lon="5.94255">
        <ele>1650.2</ele>
        <time>2026-08-13T15:38:43.378Z</time>
      </trkpt>
      <trkpt lat="44.49521" lon="5.94251">
        <ele>1650.5</ele>
        <time>2026-08-13T15:38:47.641Z</time>
      </trkpt>
      <trkpt lat="44.49518" lon="5.94249">
        <ele>1649.3</ele>
        <time>2026-08-13T15:38:52.135Z</time>
      </trkpt>
      <trkpt lat="44.49515" lon="5.94244">
        <ele>1648.9</ele>
        <time>2026-08-13T15:38:56.469Z</time>
      </trkpt>
      <trkpt lat="44.49512" lon="5.94237">
        <ele>1649.2</ele>
        <time>2026-08-13T15:39:03.053Z</time>
      </trkpt>
      <trkpt lat="44.4951" lon="5.94235">
        <ele>1648.6</ele>
        <time>2026-08-13T15:39:05.422Z</time>
      </trkpt>
      <trkpt lat="44.49508" lon="5.94232">
        <ele>1648.4</ele>
        <time>2026-08-13T15:39:08.185Z</time>
      </trkpt>
      <trkpt lat="44.49506" lon="5.9423">
        <ele>1647.8</ele>
        <time>2026-08-13T15:39:10.554Z</time>
      </trkpt>
      <trkpt lat="44.49506" lon="5.94229">
        <ele>1648.1</ele>
        <time>2026-08-13T15:39:14.158Z</time>
      </trkpt>
      <trkpt lat="44.49506" lon="5.94224">
        <ele>1649.7</ele>
        <time>2026-08-13T15:39:34.376Z</time>
      </trkpt>
      <trkpt lat="44.49507" lon="5.94221">
        <ele>1650.8</ele>
        <time>2026-08-13T15:39:48.468Z</time>
      </trkpt>
      <trkpt lat="44.49506" lon="5.94217">
        <ele>1650.2</ele>
        <time>2026-08-13T15:39:51.253Z</time>
        <extensions>
          <visugpx:TrkExtension xmlns:visugpx="https://www.visugpx.com/editgpx/">
            <visugpx:node>7</visugpx:node>
            </visugpx:TrkExtension>
        </extensions>
      </trkpt>
      <trkpt lat="44.49506" lon="5.94215">
        <ele>1650.2</ele>
        <time>2026-08-13T15:39:52.719Z</time>
      </trkpt>
      <trkpt lat="44.49505" lon="5.94209">
        <ele>1649.6</ele>
        <time>2026-08-13T15:39:56.713Z</time>
      </trkpt>
      <trkpt lat="44.49506" lon="5.94205">
        <ele>1650.1</ele>
        <time>2026-08-13T15:40:01.368Z</time>
      </trkpt>
      <trkpt lat="44.49506" lon="5.94203">
        <ele>1650.1</ele>
        <time>2026-08-13T15:40:02.834Z</time>
      </trkpt>
      <trkpt lat="44.49504" lon="5.94197">
        <ele>1649</ele>
        <time>2026-08-13T15:40:07.323Z</time>
      </trkpt>
      <trkpt lat="44.49504" lon="5.94194">
        <ele>1649</ele>
        <time>2026-08-13T15:40:09.522Z</time>
      </trkpt>
      <trkpt lat="44.49503" lon="5.94191">
        <ele>1648.2</ele>
        <time>2026-08-13T15:40:12.410Z</time>
      </trkpt>
      <trkpt lat="44.49502" lon="5.94186">
        <ele>1647.1</ele>
        <time>2026-08-13T15:40:16.367Z</time>
      </trkpt>
      <trkpt lat="44.49502" lon="5.94183">
        <ele>1646.8</ele>
        <time>2026-08-13T15:40:18.310Z</time>
      </trkpt>
      <trkpt lat="44.49501" lon="5.94179">
        <ele>1645.9</ele>
        <time>2026-08-13T15:40:21.546Z</time>
      </trkpt>
      <trkpt lat="44.49502" lon="5.94174">
        <ele>1645.9</ele>
        <time>2026-08-13T15:40:25.353Z</time>
      </trkpt>
      <trkpt lat="44.495" lon="5.94166">
        <ele>1643.9</ele>
        <time>2026-08-13T15:40:32.523Z</time>
      </trkpt>
      <trkpt lat="44.495" lon="5.94165">
        <ele>1643.8</ele>
        <time>2026-08-13T15:40:33.171Z</time>
      </trkpt>
      <trkpt lat="44.495" lon="5.94159">
        <ele>1643.2</ele>
        <time>2026-08-13T15:40:37.059Z</time>
      </trkpt>
      <trkpt lat="44.495" lon="5.94154">
        <ele>1642.6</ele>
        <time>2026-08-13T15:40:40.303Z</time>
      </trkpt>
      <trkpt lat="44.49503" lon="5.94149">
        <ele>1643.7</ele>
        <time>2026-08-13T15:40:49.671Z</time>
      </trkpt>
      <trkpt lat="44.49503" lon="5.94145">
        <ele>1643.3</ele>
        <time>2026-08-13T15:40:52.262Z</time>
      </trkpt>
      <trkpt lat="44.49502" lon="5.94138">
        <ele>1641.9</ele>
        <time>2026-08-13T15:40:57.435Z</time>
      </trkpt>
      <trkpt lat="44.49503" lon="5.94136">
        <ele>1642</ele>
        <time>2026-08-13T15:40:59.429Z</time>
      </trkpt>
      <trkpt lat="44.49502" lon="5.94133">
        <ele>1640.8</ele>
        <time>2026-08-13T15:41:06.564Z</time>
      </trkpt>
      <trkpt lat="44.49502" lon="5.94126">
        <ele>1639.3</ele>
        <time>2026-08-13T15:41:11.947Z</time>
      </trkpt>
      <trkpt lat="44.49504" lon="5.94123">
        <ele>1639.8</ele>
        <time>2026-08-13T15:41:16.538Z</time>
      </trkpt>
      <trkpt lat="44.49505" lon="5.94109">
        <ele>1637.7</ele>
        <time>2026-08-13T15:41:25.856Z</time>
      </trkpt>
      <trkpt lat="44.49506" lon="5.94105">
        <ele>1638</ele>
        <time>2026-08-13T15:41:29.680Z</time>
      </trkpt>
      <trkpt lat="44.49505" lon="5.94103">
        <ele>1637.2</ele>
        <time>2026-08-13T15:41:34.943Z</time>
      </trkpt>
      <trkpt lat="44.49502" lon="5.94083">
        <ele>1634.1</ele>
        <time>2026-08-13T15:41:48.516Z</time>
      </trkpt>
      <trkpt lat="44.49501" lon="5.9408">
        <ele>1633.6</ele>
        <time>2026-08-13T15:41:50.713Z</time>
      </trkpt>
      <trkpt lat="44.495" lon="5.94071">
        <ele>1633</ele>
        <time>2026-08-13T15:41:56.728Z</time>
      </trkpt>
      <trkpt lat="44.49498" lon="5.94064">
        <ele>1632</ele>
        <time>2026-08-13T15:42:01.649Z</time>
      </trkpt>
      <trkpt lat="44.49498" lon="5.94055">
        <ele>1632</ele>
        <time>2026-08-13T15:42:08.246Z</time>
      </trkpt>
      <trkpt lat="44.49499" lon="5.94048">
        <ele>1633.2</ele>
        <time>2026-08-13T15:42:18.466Z</time>
      </trkpt>
      <trkpt lat="44.49496" lon="5.94045">
        <ele>1631.8</ele>
        <time>2026-08-13T15:42:24.005Z</time>
      </trkpt>
      <trkpt lat="44.49495" lon="5.94042">
        <ele>1631.5</ele>
        <time>2026-08-13T15:42:26.156Z</time>
      </trkpt>
      <trkpt lat="44.49495" lon="5.94039">
        <ele>1631.8</ele>
        <time>2026-08-13T15:42:29.196Z</time>
      </trkpt>
      <trkpt lat="44.49492" lon="5.94033">
        <ele>1630.4</ele>
        <time>2026-08-13T15:42:34.432Z</time>
      </trkpt>
      <trkpt lat="44.49491" lon="5.9403">
        <ele>1630</ele>
        <time>2026-08-13T15:42:36.581Z</time>
      </trkpt>
      <trkpt lat="44.4949" lon="5.94028">
        <ele>1629.5</ele>
        <time>2026-08-13T15:42:38.398Z</time>
      </trkpt>
      <trkpt lat="44.49488" lon="5.94024">
        <ele>1628.2</ele>
        <time>2026-08-13T15:42:43.424Z</time>
      </trkpt>
      <trkpt lat="44.49488" lon="5.94019">
        <ele>1628.2</ele>
        <time>2026-08-13T15:42:47.089Z</time>
      </trkpt>
      <trkpt lat="44.49488" lon="5.94007">
        <ele>1628.2</ele>
        <time>2026-08-13T15:42:55.885Z</time>
      </trkpt>
      <trkpt lat="44.49489" lon="5.94004">
        <ele>1628.9</ele>
        <time>2026-08-13T15:43:02.146Z</time>
      </trkpt>
      <trkpt lat="44.49489" lon="5.94001">
        <ele>1628.9</ele>
        <time>2026-08-13T15:43:04.345Z</time>
      </trkpt>
      <trkpt lat="44.49487" lon="5.93994">
        <ele>1627.4</ele>
        <time>2026-08-13T15:43:09.853Z</time>
      </trkpt>
      <trkpt lat="44.49486" lon="5.93991">
        <ele>1626.6</ele>
        <time>2026-08-13T15:43:12.741Z</time>
      </trkpt>
      <trkpt lat="44.49485" lon="5.93991">
        <ele>1626</ele>
        <time>2026-08-13T15:43:15.761Z</time>
      </trkpt>
      <trkpt lat="44.49482" lon="5.93981">
        <ele>1623.7</ele>
        <time>2026-08-13T15:43:24.034Z</time>
      </trkpt>
      <trkpt lat="44.49482" lon="5.93975">
        <ele>1623.4</ele>
        <time>2026-08-13T15:43:28.064Z</time>
      </trkpt>
      <trkpt lat="44.49481" lon="5.93972">
        <ele>1622.7</ele>
        <time>2026-08-13T15:43:30.584Z</time>
      </trkpt>
      <trkpt lat="44.4948" lon="5.93969">
        <ele>1622</ele>
        <time>2026-08-13T15:43:33.103Z</time>
      </trkpt>
      <trkpt lat="44.49477" lon="5.93966">
        <ele>1620</ele>
        <time>2026-08-13T15:43:44.235Z</time>
      </trkpt>
      <trkpt lat="44.49477" lon="5.93965">
        <ele>1620</ele>
        <time>2026-08-13T15:43:44.968Z</time>
      </trkpt>
      <trkpt lat="44.49476" lon="5.93959">
        <ele>1619.3</ele>
        <time>2026-08-13T15:43:48.960Z</time>
      </trkpt>
      <trkpt lat="44.49475" lon="5.93956">
        <ele>1618.7</ele>
        <time>2026-08-13T15:43:51.271Z</time>
      </trkpt>
      <trkpt lat="44.49472" lon="5.93951">
        <ele>1616.9</ele>
        <time>2026-08-13T15:43:58.569Z</time>
      </trkpt>
      <trkpt lat="44.49469" lon="5.93944">
        <ele>1615.1</ele>
        <time>2026-08-13T15:44:05.002Z</time>
      </trkpt>
      <trkpt lat="44.49467" lon="5.93943">
        <ele>1613.9</ele>
        <time>2026-08-13T15:44:11.416Z</time>
      </trkpt>
      <trkpt lat="44.49467" lon="5.93946">
        <ele>1614</ele>
        <time>2026-08-13T15:44:13.811Z</time>
      </trkpt>
      <trkpt lat="44.49468" lon="5.93949">
        <ele>1614.5</ele>
        <time>2026-08-13T15:44:18.112Z</time>
      </trkpt>
      <trkpt lat="44.49468" lon="5.93952">
        <ele>1614.5</ele>
        <time>2026-08-13T15:44:20.311Z</time>
      </trkpt>
      <trkpt lat="44.4947" lon="5.93957">
        <ele>1615.6</ele>
        <time>2026-08-13T15:44:29.820Z</time>
      </trkpt>
      <trkpt lat="44.4947" lon="5.93961">
        <ele>1615.6</ele>
        <time>2026-08-13T15:44:32.752Z</time>
      </trkpt>
      <trkpt lat="44.49468" lon="5.93966">
        <ele>1614.3</ele>
        <time>2026-08-13T15:44:37.392Z</time>
      </trkpt>
      <trkpt lat="44.49468" lon="5.93967">
        <ele>1614.3</ele>
        <time>2026-08-13T15:44:38.125Z</time>
      </trkpt>
      <trkpt lat="44.49469" lon="5.9397">
        <ele>1614.9</ele>
        <time>2026-08-13T15:44:43.257Z</time>
      </trkpt>
      <trkpt lat="44.49469" lon="5.93973">
        <ele>1614.9</ele>
        <time>2026-08-13T15:44:45.456Z</time>
      </trkpt>
      <trkpt lat="44.49469" lon="5.93976">
        <ele>1615</ele>
        <time>2026-08-13T15:44:47.851Z</time>
      </trkpt>
      <trkpt lat="44.49468" lon="5.93978">
        <ele>1614.5</ele>
        <time>2026-08-13T15:44:49.668Z</time>
      </trkpt>
      <trkpt lat="44.49467" lon="5.93979">
        <ele>1613.9</ele>
        <time>2026-08-13T15:44:53.378Z</time>
      </trkpt>
      <trkpt lat="44.49465" lon="5.93983">
        <ele>1612.7</ele>
        <time>2026-08-13T15:44:57.738Z</time>
      </trkpt>
      <trkpt lat="44.49465" lon="5.93986">
        <ele>1612.8</ele>
        <time>2026-08-13T15:45:00.133Z</time>
      </trkpt>
      <trkpt lat="44.49465" lon="5.93987">
        <ele>1612.9</ele>
        <time>2026-08-13T15:45:01.146Z</time>
      </trkpt>
      <trkpt lat="44.49464" lon="5.93995">
        <ele>1612.5</ele>
        <time>2026-08-13T15:45:06.607Z</time>
      </trkpt>
      <trkpt lat="44.49464" lon="5.93999">
        <ele>1612.6</ele>
        <time>2026-08-13T15:45:09.727Z</time>
      </trkpt>
      <trkpt lat="44.49462" lon="5.94006">
        <ele>1611.5</ele>
        <time>2026-08-13T15:45:14.703Z</time>
      </trkpt>
      <trkpt lat="44.49459" lon="5.94009">
        <ele>1609.7</ele>
        <time>2026-08-13T15:45:25.834Z</time>
      </trkpt>
      <trkpt lat="44.49459" lon="5.94011">
        <ele>1609.8</ele>
        <time>2026-08-13T15:45:27.514Z</time>
      </trkpt>
      <trkpt lat="44.49457" lon="5.94012">
        <ele>1608.6</ele>
        <time>2026-08-13T15:45:33.929Z</time>
      </trkpt>
      <trkpt lat="44.49456" lon="5.94014">
        <ele>1608.1</ele>
        <time>2026-08-13T15:45:35.745Z</time>
      </trkpt>
      <trkpt lat="44.49454" lon="5.94022">
        <ele>1607.2</ele>
        <time>2026-08-13T15:45:41.234Z</time>
      </trkpt>
      <trkpt lat="44.49454" lon="5.94026">
        <ele>1607.4</ele>
        <time>2026-08-13T15:45:44.594Z</time>
      </trkpt>
      <trkpt lat="44.4945" lon="5.94034">
        <ele>1605.9</ele>
        <time>2026-08-13T15:45:51.097Z</time>
      </trkpt>
      <trkpt lat="44.49447" lon="5.94036">
        <ele>1604.5</ele>
        <time>2026-08-13T15:45:58.136Z</time>
      </trkpt>
      <trkpt lat="44.49445" lon="5.9404">
        <ele>1604</ele>
        <time>2026-08-13T15:46:01.300Z</time>
      </trkpt>
      <trkpt lat="44.49443" lon="5.94044">
        <ele>1603.4</ele>
        <time>2026-08-13T15:46:04.472Z</time>
      </trkpt>
      <trkpt lat="44.49441" lon="5.94048">
        <ele>1602.6</ele>
        <time>2026-08-13T15:46:07.771Z</time>
      </trkpt>
      <trkpt lat="44.49439" lon="5.9405">
        <ele>1601.6</ele>
        <time>2026-08-13T15:46:12.290Z</time>
      </trkpt>
      <trkpt lat="44.49437" lon="5.94053">
        <ele>1600.6</ele>
        <time>2026-08-13T15:46:15.910Z</time>
      </trkpt>
      <trkpt lat="44.49435" lon="5.94054">
        <ele>1599.4</ele>
        <time>2026-08-13T15:46:22.324Z</time>
      </trkpt>
      <trkpt lat="44.49432" lon="5.94057">
        <ele>1597.6</ele>
        <time>2026-08-13T15:46:33.456Z</time>
      </trkpt>
      <trkpt lat="44.49429" lon="5.94062">
        <ele>1596.1</ele>
        <time>2026-08-13T15:46:38.813Z</time>
      </trkpt>
      <trkpt lat="44.49423" lon="5.9408">
        <ele>1594</ele>
        <time>2026-08-13T15:46:51.679Z</time>
      </trkpt>
      <trkpt lat="44.49422" lon="5.94082">
        <ele>1593.5</ele>
        <time>2026-08-13T15:46:53.495Z</time>
      </trkpt>
      <trkpt lat="44.49419" lon="5.94089">
        <ele>1591.6</ele>
        <time>2026-08-13T15:47:00.291Z</time>
      </trkpt>
      <trkpt lat="44.49417" lon="5.94099">
        <ele>1590.2</ele>
        <time>2026-08-13T15:47:07.079Z</time>
      </trkpt>
      <trkpt lat="44.49413" lon="5.94111">
        <ele>1587.4</ele>
        <time>2026-08-13T15:47:17.157Z</time>
      </trkpt>
      <trkpt lat="44.49413" lon="5.94115">
        <ele>1587.1</ele>
        <time>2026-08-13T15:47:19.778Z</time>
      </trkpt>
      <trkpt lat="44.49413" lon="5.94118">
        <ele>1586.9</ele>
        <time>2026-08-13T15:47:21.758Z</time>
      </trkpt>
      <trkpt lat="44.49415" lon="5.94122">
        <ele>1588</ele>
        <time>2026-08-13T15:47:31.940Z</time>
      </trkpt>
      <trkpt lat="44.49417" lon="5.94126">
        <ele>1589.2</ele>
        <time>2026-08-13T15:47:43.781Z</time>
      </trkpt>
      <trkpt lat="44.49418" lon="5.9413">
        <ele>1589.6</ele>
        <time>2026-08-13T15:47:47.974Z</time>
      </trkpt>
      <trkpt lat="44.49418" lon="5.94135">
        <ele>1589.2</ele>
        <time>2026-08-13T15:47:51.239Z</time>
      </trkpt>
      <trkpt lat="44.49419" lon="5.94138">
        <ele>1589.7</ele>
        <time>2026-08-13T15:47:55.540Z</time>
      </trkpt>
      <trkpt lat="44.49418" lon="5.94142">
        <ele>1588.8</ele>
        <time>2026-08-13T15:47:58.776Z</time>
      </trkpt>
      <trkpt lat="44.49418" lon="5.94149">
        <ele>1588.6</ele>
        <time>2026-08-13T15:48:03.629Z</time>
      </trkpt>
      <trkpt lat="44.49417" lon="5.94153">
        <ele>1587.7</ele>
        <time>2026-08-13T15:48:06.865Z</time>
      </trkpt>
      <trkpt lat="44.49417" lon="5.9416">
        <ele>1587.5</ele>
        <time>2026-08-13T15:48:11.717Z</time>
      </trkpt>
      <trkpt lat="44.49416" lon="5.94163">
        <ele>1586.7</ele>
        <time>2026-08-13T15:48:14.604Z</time>
      </trkpt>
      <trkpt lat="44.49415" lon="5.94164">
        <ele>1586</ele>
        <time>2026-08-13T15:48:18.315Z</time>
      </trkpt>
      <trkpt lat="44.49411" lon="5.94175">
        <ele>1583.1</ele>
        <time>2026-08-13T15:48:28.703Z</time>
      </trkpt>
      <trkpt lat="44.49411" lon="5.94184">
        <ele>1583.1</ele>
        <time>2026-08-13T15:48:35.300Z</time>
      </trkpt>
      <trkpt lat="44.49409" lon="5.94188">
        <ele>1581.8</ele>
        <time>2026-08-13T15:48:40.326Z</time>
      </trkpt>
      <trkpt lat="44.49407" lon="5.94192">
        <ele>1580.4</ele>
        <time>2026-08-13T15:48:46.455Z</time>
      </trkpt>
      <trkpt lat="44.49406" lon="5.94195">
        <ele>1579.7</ele>
        <time>2026-08-13T15:48:48.974Z</time>
      </trkpt>
      <trkpt lat="44.49405" lon="5.94202">
        <ele>1578.7</ele>
        <time>2026-08-13T15:48:53.660Z</time>
      </trkpt>
      <trkpt lat="44.49403" lon="5.9421">
        <ele>1577.1</ele>
        <time>2026-08-13T15:48:59.682Z</time>
      </trkpt>
      <trkpt lat="44.494" lon="5.94215">
        <ele>1574.9</ele>
        <time>2026-08-13T15:49:13.761Z</time>
      </trkpt>
      <trkpt lat="44.494" lon="5.94218">
        <ele>1574.8</ele>
        <time>2026-08-13T15:49:15.824Z</time>
      </trkpt>
      <trkpt lat="44.49401" lon="5.94227">
        <ele>1574.4</ele>
        <time>2026-08-13T15:49:21.992Z</time>
      </trkpt>
      <trkpt lat="44.494" lon="5.94232">
        <ele>1572.8</ele>
        <time>2026-08-13T15:49:30.887Z</time>
      </trkpt>
      <trkpt lat="44.494" lon="5.94234">
        <ele>1572.5</ele>
        <time>2026-08-13T15:49:32.212Z</time>
      </trkpt>
      <trkpt lat="44.494" lon="5.94236">
        <ele>1572.1</ele>
        <time>2026-08-13T15:49:33.678Z</time>
      </trkpt>
      <trkpt lat="44.49401" lon="5.9424">
        <ele>1572.1</ele>
        <time>2026-08-13T15:49:36.785Z</time>
      </trkpt>
      <trkpt lat="44.49401" lon="5.94242">
        <ele>1571.7</ele>
        <time>2026-08-13T15:49:38.250Z</time>
      </trkpt>
      <trkpt lat="44.49404" lon="5.94261">
        <ele>1569.9</ele>
        <time>2026-08-13T15:49:50.884Z</time>
      </trkpt>
      <trkpt lat="44.49406" lon="5.94269">
        <ele>1569.4</ele>
        <time>2026-08-13T15:49:56.520Z</time>
      </trkpt>
      <trkpt lat="44.49408" lon="5.94282">
        <ele>1568.5</ele>
        <time>2026-08-13T15:50:05.287Z</time>
      </trkpt>
      <trkpt lat="44.49406" lon="5.94294">
        <ele>1566.9</ele>
        <time>2026-08-13T15:50:13.316Z</time>
      </trkpt>
      <trkpt lat="44.49407" lon="5.94295">
        <ele>1567.5</ele>
        <time>2026-08-13T15:50:20.737Z</time>
      </trkpt>
      <trkpt lat="44.49408" lon="5.94297">
        <ele>1568</ele>
        <time>2026-08-13T15:50:25.149Z</time>
      </trkpt>
      <trkpt lat="44.49407" lon="5.94298">
        <ele>1567.4</ele>
        <time>2026-08-13T15:50:28.859Z</time>
      </trkpt>
      <trkpt lat="44.49405" lon="5.943">
        <ele>1566.1</ele>
        <time>2026-08-13T15:50:36.280Z</time>
      </trkpt>
      <trkpt lat="44.49404" lon="5.94307">
        <ele>1565.5</ele>
        <time>2026-08-13T15:50:40.932Z</time>
      </trkpt>
      <trkpt lat="44.494" lon="5.94315">
        <ele>1564.6</ele>
        <time>2026-08-13T15:50:47.275Z</time>
      </trkpt>
      <trkpt lat="44.49399" lon="5.94318">
        <ele>1564.5</ele>
        <time>2026-08-13T15:50:49.564Z</time>
      </trkpt>
      <trkpt lat="44.49397" lon="5.94321">
        <ele>1563.7</ele>
        <time>2026-08-13T15:50:52.529Z</time>
      </trkpt>
      <trkpt lat="44.49397" lon="5.94322">
        <ele>1563.9</ele>
        <time>2026-08-13T15:50:54.279Z</time>
      </trkpt>
      <trkpt lat="44.49396" lon="5.94325">
        <ele>1563.7</ele>
        <time>2026-08-13T15:50:56.477Z</time>
      </trkpt>
      <trkpt lat="44.49396" lon="5.94333">
        <ele>1565.1</ele>
        <time>2026-08-13T15:51:08.413Z</time>
      </trkpt>
      <trkpt lat="44.49393" lon="5.94335">
        <ele>1563</ele>
        <time>2026-08-13T15:51:18.448Z</time>
      </trkpt>
      <trkpt lat="44.49391" lon="5.94337">
        <ele>1561.5</ele>
        <time>2026-08-13T15:51:25.869Z</time>
      </trkpt>
      <trkpt lat="44.49391" lon="5.94339">
        <ele>1561.5</ele>
        <time>2026-08-13T15:51:27.335Z</time>
      </trkpt>
      <trkpt lat="44.49391" lon="5.9434">
        <ele>1561.5</ele>
        <time>2026-08-13T15:51:28.068Z</time>
      </trkpt>
      <trkpt lat="44.4939" lon="5.94345">
        <ele>1560.8</ele>
        <time>2026-08-13T15:51:31.462Z</time>
      </trkpt>
      <trkpt lat="44.49387" lon="5.94349">
        <ele>1558.7</ele>
        <time>2026-08-13T15:51:43.969Z</time>
      </trkpt>
      <trkpt lat="44.49386" lon="5.9435">
        <ele>1558.1</ele>
        <time>2026-08-13T15:51:47.679Z</time>
      </trkpt>
      <trkpt lat="44.49385" lon="5.94362">
        <ele>1557.2</ele>
        <time>2026-08-13T15:51:55.600Z</time>
      </trkpt>
      <trkpt lat="44.49386" lon="5.9437">
        <ele>1557.1</ele>
        <time>2026-08-13T15:52:01.400Z</time>
      </trkpt>
      <trkpt lat="44.49385" lon="5.94371">
        <ele>1556.3</ele>
        <time>2026-08-13T15:52:05.111Z</time>
      </trkpt>
      <trkpt lat="44.49384" lon="5.94376">
        <ele>1555</ele>
        <time>2026-08-13T15:52:09.881Z</time>
      </trkpt>
      <trkpt lat="44.49385" lon="5.94379">
        <ele>1555.4</ele>
        <time>2026-08-13T15:52:13.566Z</time>
      </trkpt>
      <trkpt lat="44.49384" lon="5.94388">
        <ele>1553.8</ele>
        <time>2026-08-13T15:52:19.850Z</time>
      </trkpt>
      <trkpt lat="44.49384" lon="5.94391">
        <ele>1553.3</ele>
        <time>2026-08-13T15:52:21.885Z</time>
      </trkpt>
      <trkpt lat="44.49384" lon="5.94393">
        <ele>1552.9</ele>
        <time>2026-08-13T15:52:23.351Z</time>
      </trkpt>
      <trkpt lat="44.49384" lon="5.94393">
        <ele>1552.9</ele>
        <time>2026-08-13T15:52:23.351Z</time>
        <extensions>
          <visugpx:TrkExtension xmlns:visugpx="https://www.visugpx.com/editgpx/">
            <visugpx:node>8</visugpx:node>
            </visugpx:TrkExtension>
        </extensions>
      </trkpt>
      <trkpt lat="44.49384" lon="5.94393">
        <ele>1552.9</ele>
        <time>2026-08-13T15:52:23.351Z</time>
      </trkpt>
      <trkpt lat="44.49383" lon="5.94394">
        <ele>1552.1</ele>
        <time>2026-08-13T15:52:27.062Z</time>
      </trkpt>
      <trkpt lat="44.49383" lon="5.94391">
        <ele>1552.6</ele>
        <time>2026-08-13T15:52:31.320Z</time>
      </trkpt>
      <trkpt lat="44.49382" lon="5.9439">
        <ele>1552.1</ele>
        <time>2026-08-13T15:52:33.580Z</time>
      </trkpt>
      <trkpt lat="44.49379" lon="5.94378">
        <ele>1551.4</ele>
        <time>2026-08-13T15:52:42.071Z</time>
      </trkpt>
      <trkpt lat="44.49379" lon="5.94373">
        <ele>1552</ele>
        <time>2026-08-13T15:52:47.614Z</time>
      </trkpt>
      <trkpt lat="44.49376" lon="5.94364">
        <ele>1550.9</ele>
        <time>2026-08-13T15:52:54.048Z</time>
      </trkpt>
      <trkpt lat="44.49374" lon="5.9436">
        <ele>1549.8</ele>
        <time>2026-08-13T15:52:57.974Z</time>
      </trkpt>
      <trkpt lat="44.49371" lon="5.94353">
        <ele>1548</ele>
        <time>2026-08-13T15:53:04.406Z</time>
      </trkpt>
      <trkpt lat="44.49369" lon="5.9435">
        <ele>1546.7</ele>
        <time>2026-08-13T15:53:12.767Z</time>
      </trkpt>
      <trkpt lat="44.49368" lon="5.94344">
        <ele>1546.2</ele>
        <time>2026-08-13T15:53:16.788Z</time>
      </trkpt>
      <trkpt lat="44.49367" lon="5.94344">
        <ele>1545.5</ele>
        <time>2026-08-13T15:53:19.809Z</time>
      </trkpt>
      <trkpt lat="44.49368" lon="5.94335">
        <ele>1546.4</ele>
        <time>2026-08-13T15:53:28.990Z</time>
      </trkpt>
      <trkpt lat="44.49366" lon="5.9433">
        <ele>1545</ele>
        <time>2026-08-13T15:53:34.064Z</time>
      </trkpt>
      <trkpt lat="44.49366" lon="5.94327">
        <ele>1544.8</ele>
        <time>2026-08-13T15:53:36.043Z</time>
      </trkpt>
      <trkpt lat="44.49365" lon="5.94326">
        <ele>1544.1</ele>
        <time>2026-08-13T15:53:39.754Z</time>
      </trkpt>
      <trkpt lat="44.49366" lon="5.94323">
        <ele>1544.6</ele>
        <time>2026-08-13T15:53:44.055Z</time>
      </trkpt>
      <trkpt lat="44.49364" lon="5.94316">
        <ele>1543.1</ele>
        <time>2026-08-13T15:53:49.564Z</time>
      </trkpt>
      <trkpt lat="44.49366" lon="5.9431">
        <ele>1543.9</ele>
        <time>2026-08-13T15:53:56.934Z</time>
      </trkpt>
      <trkpt lat="44.49366" lon="5.94309">
        <ele>1543.8</ele>
        <time>2026-08-13T15:53:57.582Z</time>
      </trkpt>
      <trkpt lat="44.49365" lon="5.94305">
        <ele>1543.1</ele>
        <time>2026-08-13T15:54:00.451Z</time>
      </trkpt>
      <trkpt lat="44.49365" lon="5.94303">
        <ele>1543.1</ele>
        <time>2026-08-13T15:54:01.917Z</time>
      </trkpt>
      <trkpt lat="44.49364" lon="5.94298">
        <ele>1542.6</ele>
        <time>2026-08-13T15:54:05.284Z</time>
      </trkpt>
      <trkpt lat="44.49362" lon="5.94296">
        <ele>1541.5</ele>
        <time>2026-08-13T15:54:12.706Z</time>
      </trkpt>
      <trkpt lat="44.49361" lon="5.94292">
        <ele>1540.9</ele>
        <time>2026-08-13T15:54:15.491Z</time>
      </trkpt>
      <trkpt lat="44.49361" lon="5.94288">
        <ele>1540.9</ele>
        <time>2026-08-13T15:54:18.423Z</time>
      </trkpt>
      <trkpt lat="44.49362" lon="5.94285">
        <ele>1541.5</ele>
        <time>2026-08-13T15:54:23.555Z</time>
      </trkpt>
      <trkpt lat="44.49362" lon="5.94282">
        <ele>1541.5</ele>
        <time>2026-08-13T15:54:25.754Z</time>
      </trkpt>
      <trkpt lat="44.4936" lon="5.94279">
        <ele>1540.4</ele>
        <time>2026-08-13T15:54:30.041Z</time>
      </trkpt>
      <trkpt lat="44.49359" lon="5.94277">
        <ele>1540</ele>
        <time>2026-08-13T15:54:31.690Z</time>
      </trkpt>
      <trkpt lat="44.49359" lon="5.94275">
        <ele>1540.3</ele>
        <time>2026-08-13T15:54:34.274Z</time>
      </trkpt>
      <trkpt lat="44.49358" lon="5.94271">
        <ele>1540.3</ele>
        <time>2026-08-13T15:54:37.381Z</time>
      </trkpt>
      <trkpt lat="44.49355" lon="5.94268">
        <ele>1539</ele>
        <time>2026-08-13T15:54:42.166Z</time>
      </trkpt>
      <trkpt lat="44.49351" lon="5.94257">
        <ele>1538.3</ele>
        <time>2026-08-13T15:54:50.396Z</time>
      </trkpt>
      <trkpt lat="44.49348" lon="5.94251">
        <ele>1537.3</ele>
        <time>2026-08-13T15:54:55.191Z</time>
      </trkpt>
      <trkpt lat="44.49345" lon="5.94246">
        <ele>1536.3</ele>
        <time>2026-08-13T15:54:59.537Z</time>
      </trkpt>
      <trkpt lat="44.49344" lon="5.94244">
        <ele>1536</ele>
        <time>2026-08-13T15:55:01.123Z</time>
      </trkpt>
      <trkpt lat="44.49342" lon="5.9424">
        <ele>1535.4</ele>
        <time>2026-08-13T15:55:04.296Z</time>
      </trkpt>
      <trkpt lat="44.49338" lon="5.94235">
        <ele>1533.8</ele>
        <time>2026-08-13T15:55:10.045Z</time>
      </trkpt>
      <trkpt lat="44.49333" lon="5.94222">
        <ele>1532.8</ele>
        <time>2026-08-13T15:55:19.781Z</time>
      </trkpt>
      <trkpt lat="44.49331" lon="5.94215">
        <ele>1531.6</ele>
        <time>2026-08-13T15:55:24.838Z</time>
      </trkpt>
      <trkpt lat="44.49331" lon="5.94209">
        <ele>1531.6</ele>
        <time>2026-08-13T15:55:29.236Z</time>
      </trkpt>
      <trkpt lat="44.49329" lon="5.94207">
        <ele>1530.3</ele>
        <time>2026-08-13T15:55:36.657Z</time>
      </trkpt>
      <trkpt lat="44.49326" lon="5.94198">
        <ele>1528.5</ele>
        <time>2026-08-13T15:55:43.590Z</time>
      </trkpt>
      <trkpt lat="44.49326" lon="5.94196">
        <ele>1528.5</ele>
        <time>2026-08-13T15:55:45.056Z</time>
      </trkpt>
      <trkpt lat="44.49326" lon="5.94189">
        <ele>1528.4</ele>
        <time>2026-08-13T15:55:50.036Z</time>
      </trkpt>
      <trkpt lat="44.49325" lon="5.94186">
        <ele>1527.7</ele>
        <time>2026-08-13T15:55:52.555Z</time>
      </trkpt>
      <trkpt lat="44.49323" lon="5.9418">
        <ele>1526.3</ele>
        <time>2026-08-13T15:55:57.594Z</time>
      </trkpt>
      <trkpt lat="44.49323" lon="5.94177">
        <ele>1526.3</ele>
        <time>2026-08-13T15:55:59.793Z</time>
      </trkpt>
      <trkpt lat="44.49322" lon="5.94167">
        <ele>1525.5</ele>
        <time>2026-08-13T15:56:06.392Z</time>
      </trkpt>
      <trkpt lat="44.49321" lon="5.94165">
        <ele>1524.9</ele>
        <time>2026-08-13T15:56:08.572Z</time>
      </trkpt>
      <trkpt lat="44.4932" lon="5.94163">
        <ele>1524.3</ele>
        <time>2026-08-13T15:56:10.752Z</time>
      </trkpt>
      <trkpt lat="44.49319" lon="5.94159">
        <ele>1523.7</ele>
        <time>2026-08-13T15:56:13.537Z</time>
      </trkpt>
      <trkpt lat="44.49319" lon="5.94156">
        <ele>1523.7</ele>
        <time>2026-08-13T15:56:15.736Z</time>
      </trkpt>
      <trkpt lat="44.4932" lon="5.94154">
        <ele>1524.3</ele>
        <time>2026-08-13T15:56:21.656Z</time>
      </trkpt>
      <trkpt lat="44.4932" lon="5.9415">
        <ele>1524.3</ele>
        <time>2026-08-13T15:56:24.588Z</time>
      </trkpt>
      <trkpt lat="44.49316" lon="5.94144">
        <ele>1521.8</ele>
        <time>2026-08-13T15:56:37.775Z</time>
      </trkpt>
      <trkpt lat="44.49314" lon="5.94136">
        <ele>1520.4</ele>
        <time>2026-08-13T15:56:43.513Z</time>
      </trkpt>
      <trkpt lat="44.49314" lon="5.94133">
        <ele>1520.3</ele>
        <time>2026-08-13T15:56:45.576Z</time>
      </trkpt>
      <trkpt lat="44.49314" lon="5.94131">
        <ele>1520.3</ele>
        <time>2026-08-13T15:56:47.042Z</time>
      </trkpt>
      <trkpt lat="44.49314" lon="5.94121">
        <ele>1520.1</ele>
        <time>2026-08-13T15:56:54.079Z</time>
      </trkpt>
      <trkpt lat="44.49312" lon="5.94113">
        <ele>1518.7</ele>
        <time>2026-08-13T15:56:59.817Z</time>
      </trkpt>
      <trkpt lat="44.49308" lon="5.94101">
        <ele>1516.1</ele>
        <time>2026-08-13T15:57:09.419Z</time>
      </trkpt>
      <trkpt lat="44.49308" lon="5.941">
        <ele>1516.1</ele>
        <time>2026-08-13T15:57:10.152Z</time>
      </trkpt>
      <trkpt lat="44.49308" lon="5.94098">
        <ele>1516</ele>
        <time>2026-08-13T15:57:11.496Z</time>
      </trkpt>
      <trkpt lat="44.49308" lon="5.94094">
        <ele>1515.9</ele>
        <time>2026-08-13T15:57:14.285Z</time>
      </trkpt>
      <trkpt lat="44.49307" lon="5.94091">
        <ele>1515.2</ele>
        <time>2026-08-13T15:57:16.805Z</time>
      </trkpt>
      <trkpt lat="44.49306" lon="5.94087">
        <ele>1514.4</ele>
        <time>2026-08-13T15:57:19.816Z</time>
      </trkpt>
      <trkpt lat="44.49306" lon="5.94081">
        <ele>1514.3</ele>
        <time>2026-08-13T15:57:24.065Z</time>
      </trkpt>
      <trkpt lat="44.49306" lon="5.94078">
        <ele>1514.3</ele>
        <time>2026-08-13T15:57:26.264Z</time>
      </trkpt>
      <trkpt lat="44.49305" lon="5.94072">
        <ele>1513.6</ele>
        <time>2026-08-13T15:57:30.256Z</time>
      </trkpt>
      <trkpt lat="44.49304" lon="5.94068">
        <ele>1513</ele>
        <time>2026-08-13T15:57:33.041Z</time>
      </trkpt>
      <trkpt lat="44.49303" lon="5.94063">
        <ele>1512.3</ele>
        <time>2026-08-13T15:57:36.435Z</time>
      </trkpt>
      <trkpt lat="44.49302" lon="5.9406">
        <ele>1511.7</ele>
        <time>2026-08-13T15:57:38.746Z</time>
      </trkpt>
      <trkpt lat="44.493" lon="5.94053">
        <ele>1510.6</ele>
        <time>2026-08-13T15:57:43.722Z</time>
      </trkpt>
      <trkpt lat="44.49299" lon="5.94048">
        <ele>1510.4</ele>
        <time>2026-08-13T15:57:47.266Z</time>
      </trkpt>
      <trkpt lat="44.49297" lon="5.94041">
        <ele>1509.7</ele>
        <time>2026-08-13T15:57:52.161Z</time>
      </trkpt>
      <trkpt lat="44.49296" lon="5.94037">
        <ele>1509.4</ele>
        <time>2026-08-13T15:57:54.948Z</time>
      </trkpt>
      <trkpt lat="44.49294" lon="5.94031">
        <ele>1508.4</ele>
        <time>2026-08-13T15:57:59.343Z</time>
      </trkpt>
      <trkpt lat="44.49292" lon="5.94029">
        <ele>1507.2</ele>
        <time>2026-08-13T15:58:06.764Z</time>
      </trkpt>
      <trkpt lat="44.49291" lon="5.94027">
        <ele>1506.6</ele>
        <time>2026-08-13T15:58:08.944Z</time>
      </trkpt>
      <trkpt lat="44.49289" lon="5.94018">
        <ele>1505.6</ele>
        <time>2026-08-13T15:58:15.048Z</time>
      </trkpt>
      <trkpt lat="44.49288" lon="5.94013">
        <ele>1505.1</ele>
        <time>2026-08-13T15:58:18.415Z</time>
      </trkpt>
      <trkpt lat="44.49287" lon="5.94021">
        <ele>1504</ele>
        <time>2026-08-13T15:58:23.726Z</time>
      </trkpt>
      <trkpt lat="44.49285" lon="5.94037">
        <ele>1501.7</ele>
        <time>2026-08-13T15:58:34.402Z</time>
      </trkpt>
      <trkpt lat="44.49285" lon="5.94054">
        <ele>1500.8</ele>
        <time>2026-08-13T15:58:45.782Z</time>
      </trkpt>
      <trkpt lat="44.49283" lon="5.94069">
        <ele>1499.4</ele>
        <time>2026-08-13T15:58:55.691Z</time>
      </trkpt>
      <trkpt lat="44.49279" lon="5.94092">
        <ele>1497.1</ele>
        <time>2026-08-13T15:59:11.039Z</time>
      </trkpt>
      <trkpt lat="44.49277" lon="5.94106">
        <ele>1496.4</ele>
        <time>2026-08-13T15:59:20.643Z</time>
      </trkpt>
      <trkpt lat="44.49275" lon="5.94119">
        <ele>1495</ele>
        <time>2026-08-13T15:59:29.255Z</time>
      </trkpt>
      <trkpt lat="44.49272" lon="5.94137">
        <ele>1492.5</ele>
        <time>2026-08-13T15:59:41.341Z</time>
      </trkpt>
      <trkpt lat="44.49267" lon="5.9417">
        <ele>1488.9</ele>
        <time>2026-08-13T16:00:03.186Z</time>
      </trkpt>
      <trkpt lat="44.49266" lon="5.94182">
        <ele>1487.8</ele>
        <time>2026-08-13T16:00:11.034Z</time>
      </trkpt>
      <trkpt lat="44.49265" lon="5.94192">
        <ele>1486.8</ele>
        <time>2026-08-13T16:00:17.578Z</time>
      </trkpt>
      <trkpt lat="44.49266" lon="5.94203">
        <ele>1487.1</ele>
        <time>2026-08-13T16:00:26.275Z</time>
      </trkpt>
      <trkpt lat="44.49268" lon="5.94219">
        <ele>1487.8</ele>
        <time>2026-08-13T16:00:39.626Z</time>
      </trkpt>
      <trkpt lat="44.49268" lon="5.94231">
        <ele>1486.6</ele>
        <time>2026-08-13T16:00:47.401Z</time>
      </trkpt>
      <trkpt lat="44.49268" lon="5.94247">
        <ele>1484.7</ele>
        <time>2026-08-13T16:00:57.778Z</time>
      </trkpt>
      <trkpt lat="44.49266" lon="5.9427">
        <ele>1482.1</ele>
        <time>2026-08-13T16:01:12.786Z</time>
      </trkpt>
      <trkpt lat="44.49265" lon="5.9428">
        <ele>1481.1</ele>
        <time>2026-08-13T16:01:19.330Z</time>
      </trkpt>
      <trkpt lat="44.49265" lon="5.94294">
        <ele>1480.8</ele>
        <time>2026-08-13T16:01:29.156Z</time>
      </trkpt>
      <trkpt lat="44.49266" lon="5.94301">
        <ele>1481.2</ele>
        <time>2026-08-13T16:01:35.273Z</time>
      </trkpt>
      <trkpt lat="44.49264" lon="5.94308">
        <ele>1480.2</ele>
        <time>2026-08-13T16:01:40.195Z</time>
      </trkpt>
      <trkpt lat="44.49262" lon="5.94314">
        <ele>1479.7</ele>
        <time>2026-08-13T16:01:44.534Z</time>
      </trkpt>
      <trkpt lat="44.49258" lon="5.94328">
        <ele>1478.6</ele>
        <time>2026-08-13T16:01:54.432Z</time>
      </trkpt>
      <trkpt lat="44.49255" lon="5.94343">
        <ele>1478.2</ele>
        <time>2026-08-13T16:02:05.285Z</time>
      </trkpt>
      <trkpt lat="44.49251" lon="5.94359">
        <ele>1477.4</ele>
        <time>2026-08-13T16:02:16.715Z</time>
      </trkpt>
      <trkpt lat="44.49245" lon="5.94383">
        <ele>1476.4</ele>
        <time>2026-08-13T16:02:34.049Z</time>
      </trkpt>
      <trkpt lat="44.49241" lon="5.94395">
        <ele>1476.5</ele>
        <time>2026-08-13T16:02:43.929Z</time>
      </trkpt>
      <trkpt lat="44.49236" lon="5.94404">
        <ele>1476.5</ele>
        <time>2026-08-13T16:02:52.290Z</time>
      </trkpt>
      <trkpt lat="44.49233" lon="5.94408">
        <ele>1476.2</ele>
        <time>2026-08-13T16:02:56.181Z</time>
      </trkpt>
      <trkpt lat="44.49229" lon="5.94412">
        <ele>1475.5</ele>
        <time>2026-08-13T16:03:00.643Z</time>
      </trkpt>
      <trkpt lat="44.49227" lon="5.94414">
        <ele>1475.2</ele>
        <time>2026-08-13T16:03:02.884Z</time>
        <extensions>
          <visugpx:TrkExtension xmlns:visugpx="https://www.visugpx.com/editgpx/">
            <visugpx:node>9</visugpx:node>
            </visugpx:TrkExtension>
        </extensions>
      </trkpt>
      <trkpt lat="44.49225" lon="5.94415">
        <ele>1474.7</ele>
        <time>2026-08-13T16:03:04.908Z</time>
      </trkpt>
      <trkpt lat="44.4922" lon="5.94418">
        <ele>1473.7</ele>
        <time>2026-08-13T16:03:09.880Z</time>
      </trkpt>
      <trkpt lat="44.49213" lon="5.9442">
        <ele>1471.9</ele>
        <time>2026-08-13T16:03:16.847Z</time>
      </trkpt>
      <trkpt lat="44.49208" lon="5.94423">
        <ele>1471.3</ele>
        <time>2026-08-13T16:03:21.831Z</time>
      </trkpt>
      <trkpt lat="44.492" lon="5.94428">
        <ele>1470.4</ele>
        <time>2026-08-13T16:03:29.889Z</time>
      </trkpt>
      <trkpt lat="44.49192" lon="5.94435">
        <ele>1470.6</ele>
        <time>2026-08-13T16:03:39.935Z</time>
      </trkpt>
      <trkpt lat="44.49181" lon="5.94442">
        <ele>1470.2</ele>
        <time>2026-08-13T16:03:51.774Z</time>
      </trkpt>
      <trkpt lat="44.49166" lon="5.94449">
        <ele>1468.3</ele>
        <time>2026-08-13T16:04:06.203Z</time>
      </trkpt>
      <trkpt lat="44.49149" lon="5.94457">
        <ele>1465.7</ele>
        <time>2026-08-13T16:04:22.484Z</time>
      </trkpt>
      <trkpt lat="44.49138" lon="5.94465">
        <ele>1464.6</ele>
        <time>2026-08-13T16:04:33.983Z</time>
      </trkpt>
      <trkpt lat="44.49129" lon="5.94471">
        <ele>1463.1</ele>
        <time>2026-08-13T16:04:43.030Z</time>
      </trkpt>
      <trkpt lat="44.49124" lon="5.94477">
        <ele>1462.4</ele>
        <time>2026-08-13T16:04:49.073Z</time>
      </trkpt>
      <trkpt lat="44.49119" lon="5.94482">
        <ele>1461.2</ele>
        <time>2026-08-13T16:04:54.720Z</time>
      </trkpt>
      <trkpt lat="44.49116" lon="5.94486">
        <ele>1460.5</ele>
        <time>2026-08-13T16:04:58.487Z</time>
      </trkpt>
      <trkpt lat="44.49114" lon="5.9449">
        <ele>1460.2</ele>
        <time>2026-08-13T16:05:01.726Z</time>
      </trkpt>
      <trkpt lat="44.49112" lon="5.94496">
        <ele>1460</ele>
        <time>2026-08-13T16:05:06.305Z</time>
      </trkpt>
      <trkpt lat="44.49111" lon="5.94506">
        <ele>1460.2</ele>
        <time>2026-08-13T16:05:14.071Z</time>
      </trkpt>
      <trkpt lat="44.49108" lon="5.94535">
        <ele>1459.4</ele>
        <time>2026-08-13T16:05:34.428Z</time>
      </trkpt>
      <trkpt lat="44.49107" lon="5.94559">
        <ele>1458.9</ele>
        <time>2026-08-13T16:05:51.322Z</time>
      </trkpt>
      <trkpt lat="44.49104" lon="5.94582">
        <ele>1457.4</ele>
        <time>2026-08-13T16:06:06.786Z</time>
      </trkpt>
      <trkpt lat="44.49098" lon="5.94614">
        <ele>1454.9</ele>
        <time>2026-08-13T16:06:28.462Z</time>
      </trkpt>
      <trkpt lat="44.49092" lon="5.94649">
        <ele>1452</ele>
        <time>2026-08-13T16:06:51.966Z</time>
      </trkpt>
      <trkpt lat="44.4909" lon="5.94662">
        <ele>1451.4</ele>
        <time>2026-08-13T16:07:00.957Z</time>
      </trkpt>
      <trkpt lat="44.49086" lon="5.94685">
        <ele>1450</ele>
        <time>2026-08-13T16:07:16.694Z</time>
      </trkpt>
      <trkpt lat="44.49083" lon="5.94698">
        <ele>1449</ele>
        <time>2026-08-13T16:07:25.661Z</time>
      </trkpt>
      <trkpt lat="44.49083" lon="5.94702">
        <ele>1449.1</ele>
        <time>2026-08-13T16:07:28.781Z</time>
      </trkpt>
      <trkpt lat="44.4908" lon="5.94715">
        <ele>1448.1</ele>
        <time>2026-08-13T16:07:37.747Z</time>
      </trkpt>
      <trkpt lat="44.49075" lon="5.94726">
        <ele>1446.4</ele>
        <time>2026-08-13T16:07:46.249Z</time>
      </trkpt>
      <trkpt lat="44.49068" lon="5.94738">
        <ele>1444.3</ele>
        <time>2026-08-13T16:07:56.387Z</time>
      </trkpt>
      <trkpt lat="44.49063" lon="5.94748">
        <ele>1443.4</ele>
        <time>2026-08-13T16:08:04.398Z</time>
      </trkpt>
      <trkpt lat="44.49054" lon="5.94757">
        <ele>1441.2</ele>
        <time>2026-08-13T16:08:14.586Z</time>
      </trkpt>
      <trkpt lat="44.49046" lon="5.94764">
        <ele>1439.4</ele>
        <time>2026-08-13T16:08:23.236Z</time>
      </trkpt>
      <trkpt lat="44.49041" lon="5.94769">
        <ele>1438.5</ele>
        <time>2026-08-13T16:08:28.812Z</time>
      </trkpt>
      <trkpt lat="44.49037" lon="5.94774">
        <ele>1438.1</ele>
        <time>2026-08-13T16:08:33.839Z</time>
      </trkpt>
      <trkpt lat="44.49033" lon="5.94785">
        <ele>1437.8</ele>
        <time>2026-08-13T16:08:42.461Z</time>
      </trkpt>
      <trkpt lat="44.49029" lon="5.94801">
        <ele>1437.9</ele>
        <time>2026-08-13T16:08:55.058Z</time>
      </trkpt>
      <trkpt lat="44.49025" lon="5.94814">
        <ele>1436.3</ele>
        <time>2026-08-13T16:09:04.230Z</time>
      </trkpt>
      <trkpt lat="44.49023" lon="5.94821">
        <ele>1435.1</ele>
        <time>2026-08-13T16:09:09.287Z</time>
      </trkpt>
      <trkpt lat="44.49021" lon="5.94825">
        <ele>1434.2</ele>
        <time>2026-08-13T16:09:12.720Z</time>
      </trkpt>
      <trkpt lat="44.4902" lon="5.94828">
        <ele>1433.7</ele>
        <time>2026-08-13T16:09:14.917Z</time>
      </trkpt>
      <trkpt lat="44.49019" lon="5.94832">
        <ele>1433.2</ele>
        <time>2026-08-13T16:09:17.666Z</time>
      </trkpt>
      <trkpt lat="44.49019" lon="5.94836">
        <ele>1432.4</ele>
        <time>2026-08-13T16:09:20.597Z</time>
      </trkpt>
      <trkpt lat="44.4902" lon="5.94839">
        <ele>1431.9</ele>
        <time>2026-08-13T16:09:22.795Z</time>
      </trkpt>
      <trkpt lat="44.49021" lon="5.94841">
        <ele>1431.5</ele>
        <time>2026-08-13T16:09:24.444Z</time>
      </trkpt>
      <trkpt lat="44.49023" lon="5.94843">
        <ele>1431.4</ele>
        <time>2026-08-13T16:09:26.830Z</time>
      </trkpt>
      <trkpt lat="44.49032" lon="5.94846">
        <ele>1431.1</ele>
        <time>2026-08-13T16:09:35.904Z</time>
      </trkpt>
      <trkpt lat="44.49045" lon="5.94845">
        <ele>1430.9</ele>
        <time>2026-08-13T16:09:48.974Z</time>
      </trkpt>
      <trkpt lat="44.49059" lon="5.94844">
        <ele>1430.1</ele>
        <time>2026-08-13T16:10:02.342Z</time>
      </trkpt>
      <trkpt lat="44.4907" lon="5.94843">
        <ele>1428.2</ele>
        <time>2026-08-13T16:10:12.378Z</time>
      </trkpt>
      <trkpt lat="44.49078" lon="5.94843">
        <ele>1426.6</ele>
        <time>2026-08-13T16:10:19.755Z</time>
      </trkpt>
      <trkpt lat="44.49084" lon="5.94841">
        <ele>1426.3</ele>
        <time>2026-08-13T16:10:25.689Z</time>
      </trkpt>
      <trkpt lat="44.4909" lon="5.94838">
        <ele>1426.6</ele>
        <time>2026-08-13T16:10:32.824Z</time>
      </trkpt>
      <trkpt lat="44.49096" lon="5.94832">
        <ele>1428.3</ele>
        <time>2026-08-13T16:10:47.310Z</time>
      </trkpt>
      <trkpt lat="44.491" lon="5.94829">
        <ele>1429</ele>
        <time>2026-08-13T16:10:54.045Z</time>
      </trkpt>
      <trkpt lat="44.49108" lon="5.94828">
        <ele>1428.2</ele>
        <time>2026-08-13T16:11:01.446Z</time>
      </trkpt>
      <trkpt lat="44.49118" lon="5.94828">
        <ele>1427.8</ele>
        <time>2026-08-13T16:11:11.164Z</time>
      </trkpt>
      <trkpt lat="44.49128" lon="5.94828">
        <ele>1428.1</ele>
        <time>2026-08-13T16:11:21.991Z</time>
      </trkpt>
      <trkpt lat="44.49133" lon="5.94829">
        <ele>1427.7</ele>
        <time>2026-08-13T16:11:26.712Z</time>
      </trkpt>
      <trkpt lat="44.49137" lon="5.9483">
        <ele>1427.4</ele>
        <time>2026-08-13T16:11:30.526Z</time>
      </trkpt>
      <trkpt lat="44.49139" lon="5.94834">
        <ele>1425.8</ele>
        <time>2026-08-13T16:11:41.052Z</time>
      </trkpt>
      <trkpt lat="44.49141" lon="5.94836">
        <ele>1425.6</ele>
        <time>2026-08-13T16:11:43.344Z</time>
      </trkpt>
      <trkpt lat="44.49143" lon="5.94841">
        <ele>1424.3</ele>
        <time>2026-08-13T16:11:47.984Z</time>
      </trkpt>
      <trkpt lat="44.49145" lon="5.94848">
        <ele>1422.3</ele>
        <time>2026-08-13T16:11:55.687Z</time>
      </trkpt>
      <trkpt lat="44.49149" lon="5.94855">
        <ele>1421.2</ele>
        <time>2026-08-13T16:12:01.511Z</time>
      </trkpt>
      <trkpt lat="44.49155" lon="5.94866">
        <ele>1420.2</ele>
        <time>2026-08-13T16:12:10.606Z</time>
      </trkpt>
      <trkpt lat="44.49166" lon="5.94884">
        <ele>1420.8</ele>
        <time>2026-08-13T16:12:29.106Z</time>
      </trkpt>
      <trkpt lat="44.4917" lon="5.94894">
        <ele>1420.2</ele>
        <time>2026-08-13T16:12:36.786Z</time>
      </trkpt>
      <trkpt lat="44.4918" lon="5.9491">
        <ele>1420.7</ele>
        <time>2026-08-13T16:12:53.309Z</time>
      </trkpt>
      <trkpt lat="44.49183" lon="5.94917">
        <ele>1420.4</ele>
        <time>2026-08-13T16:12:58.896Z</time>
      </trkpt>
      <trkpt lat="44.49191" lon="5.94931">
        <ele>1420.1</ele>
        <time>2026-08-13T16:13:11.598Z</time>
      </trkpt>
      <trkpt lat="44.49199" lon="5.94945">
        <ele>1419.8</ele>
        <time>2026-08-13T16:13:24.299Z</time>
      </trkpt>
      <trkpt lat="44.49207" lon="5.94958">
        <ele>1419.8</ele>
        <time>2026-08-13T16:13:36.884Z</time>
      </trkpt>
      <trkpt lat="44.49214" lon="5.94969">
        <ele>1419.6</ele>
        <time>2026-08-13T16:13:47.385Z</time>
      </trkpt>
      <trkpt lat="44.49218" lon="5.94977">
        <ele>1419.2</ele>
        <time>2026-08-13T16:13:54.028Z</time>
      </trkpt>
      <trkpt lat="44.4922" lon="5.94984">
        <ele>1418.2</ele>
        <time>2026-08-13T16:13:58.950Z</time>
      </trkpt>
      <trkpt lat="44.49223" lon="5.94996">
        <ele>1416.4</ele>
        <time>2026-08-13T16:14:07.307Z</time>
      </trkpt>
      <trkpt lat="44.49224" lon="5.94998">
        <ele>1416.3</ele>
        <time>2026-08-13T16:14:08.967Z</time>
        <extensions>
          <visugpx:TrkExtension xmlns:visugpx="https://www.visugpx.com/editgpx/">
            <visugpx:node>10</visugpx:node>
            </visugpx:TrkExtension>
        </extensions>
      </trkpt>
      <trkpt lat="44.49226" lon="5.9501">
        <ele>1414.9</ele>
        <time>2026-08-13T16:14:16.951Z</time>
      </trkpt>
      <trkpt lat="44.49227" lon="5.9502">
        <ele>1413.5</ele>
        <time>2026-08-13T16:14:23.571Z</time>
      </trkpt>
      <trkpt lat="44.49228" lon="5.95025">
        <ele>1413</ele>
        <time>2026-08-13T16:14:26.938Z</time>
      </trkpt>
      <trkpt lat="44.4923" lon="5.95035">
        <ele>1412.6</ele>
        <time>2026-08-13T16:14:34.025Z</time>
      </trkpt>
      <trkpt lat="44.49235" lon="5.9505">
        <ele>1413.1</ele>
        <time>2026-08-13T16:14:47.125Z</time>
      </trkpt>
      <trkpt lat="44.49241" lon="5.95067">
        <ele>1413.5</ele>
        <time>2026-08-13T16:15:01.762Z</time>
      </trkpt>
      <trkpt lat="44.4925" lon="5.9509">
        <ele>1413.8</ele>
        <time>2026-08-13T16:15:21.514Z</time>
      </trkpt>
      <trkpt lat="44.49258" lon="5.95111">
        <ele>1413.8</ele>
        <time>2026-08-13T16:15:38.965Z</time>
      </trkpt>
      <trkpt lat="44.49267" lon="5.95135">
        <ele>1412.3</ele>
        <time>2026-08-13T16:15:57.065Z</time>
      </trkpt>
      <trkpt lat="44.49275" lon="5.95159">
        <ele>1410.5</ele>
        <time>2026-08-13T16:16:14.524Z</time>
      </trkpt>
      <trkpt lat="44.49283" lon="5.95182">
        <ele>1410.2</ele>
        <time>2026-08-13T16:16:32.820Z</time>
      </trkpt>
      <trkpt lat="44.49289" lon="5.95198">
        <ele>1410.9</ele>
        <time>2026-08-13T16:16:47.482Z</time>
      </trkpt>
      <trkpt lat="44.4929" lon="5.95204">
        <ele>1410.9</ele>
        <time>2026-08-13T16:16:51.998Z</time>
      </trkpt>
      <trkpt lat="44.4929" lon="5.95209">
        <ele>1410.4</ele>
        <time>2026-08-13T16:16:55.238Z</time>
      </trkpt>
      <trkpt lat="44.4929" lon="5.95215">
        <ele>1409.9</ele>
        <time>2026-08-13T16:16:59.149Z</time>
      </trkpt>
      <trkpt lat="44.49289" lon="5.95223">
        <ele>1408.8</ele>
        <time>2026-08-13T16:17:04.460Z</time>
      </trkpt>
      <trkpt lat="44.49288" lon="5.9523">
        <ele>1407.9</ele>
        <time>2026-08-13T16:17:09.103Z</time>
      </trkpt>
      <trkpt lat="44.49289" lon="5.95239">
        <ele>1407.6</ele>
        <time>2026-08-13T16:17:15.372Z</time>
      </trkpt>
      <trkpt lat="44.49289" lon="5.95246">
        <ele>1407.1</ele>
        <time>2026-08-13T16:17:19.972Z</time>
      </trkpt>
      <trkpt lat="44.49291" lon="5.95256">
        <ele>1407.4</ele>
        <time>2026-08-13T16:17:28.159Z</time>
      </trkpt>
      <trkpt lat="44.49293" lon="5.95267">
        <ele>1407.7</ele>
        <time>2026-08-13T16:17:37.046Z</time>
      </trkpt>
      <trkpt lat="44.49294" lon="5.95278">
        <ele>1407.6</ele>
        <time>2026-08-13T16:17:45.019Z</time>
      </trkpt>
      <trkpt lat="44.49294" lon="5.95291">
        <ele>1407</ele>
        <time>2026-08-13T16:17:53.795Z</time>
      </trkpt>
      <trkpt lat="44.49294" lon="5.95302">
        <ele>1406.6</ele>
        <time>2026-08-13T16:18:01.326Z</time>
      </trkpt>
      <trkpt lat="44.49293" lon="5.95315">
        <ele>1406.2</ele>
        <time>2026-08-13T16:18:10.359Z</time>
      </trkpt>
      <trkpt lat="44.49292" lon="5.95327">
        <ele>1406</ele>
        <time>2026-08-13T16:18:18.916Z</time>
      </trkpt>
      <trkpt lat="44.4929" lon="5.9534">
        <ele>1405.5</ele>
        <time>2026-08-13T16:18:28.004Z</time>
      </trkpt>
      <trkpt lat="44.49289" lon="5.95349">
        <ele>1405.4</ele>
        <time>2026-08-13T16:18:34.526Z</time>
      </trkpt>
      <trkpt lat="44.49286" lon="5.9536">
        <ele>1404.5</ele>
        <time>2026-08-13T16:18:42.236Z</time>
      </trkpt>
      <trkpt lat="44.49282" lon="5.95376">
        <ele>1402.9</ele>
        <time>2026-08-13T16:18:53.236Z</time>
      </trkpt>
      <trkpt lat="44.49278" lon="5.9539">
        <ele>1401.1</ele>
        <time>2026-08-13T16:19:03.019Z</time>
      </trkpt>
      <trkpt lat="44.49277" lon="5.95402">
        <ele>1400.6</ele>
        <time>2026-08-13T16:19:11.229Z</time>
      </trkpt>
      <trkpt lat="44.49277" lon="5.95411">
        <ele>1400.6</ele>
        <time>2026-08-13T16:19:17.826Z</time>
      </trkpt>
      <trkpt lat="44.49278" lon="5.95424">
        <ele>1400.6</ele>
        <time>2026-08-13T16:19:27.411Z</time>
      </trkpt>
      <trkpt lat="44.4928" lon="5.95438">
        <ele>1400.6</ele>
        <time>2026-08-13T16:19:37.876Z</time>
      </trkpt>
      <trkpt lat="44.4928" lon="5.95451">
        <ele>1400.1</ele>
        <time>2026-08-13T16:19:46.748Z</time>
      </trkpt>
      <trkpt lat="44.49278" lon="5.9546">
        <ele>1399.1</ele>
        <time>2026-08-13T16:19:52.852Z</time>
      </trkpt>
      <trkpt lat="44.49277" lon="5.95466">
        <ele>1398.6</ele>
        <time>2026-08-13T16:19:56.874Z</time>
      </trkpt>
      <trkpt lat="44.49273" lon="5.95473">
        <ele>1396.8</ele>
        <time>2026-08-13T16:20:03.461Z</time>
      </trkpt>
      <trkpt lat="44.49269" lon="5.9548">
        <ele>1394.9</ele>
        <time>2026-08-13T16:20:10.296Z</time>
      </trkpt>
      <trkpt lat="44.49268" lon="5.95485">
        <ele>1394.4</ele>
        <time>2026-08-13T16:20:13.663Z</time>
      </trkpt>
      <trkpt lat="44.49267" lon="5.95494">
        <ele>1394</ele>
        <time>2026-08-13T16:20:19.831Z</time>
      </trkpt>
      <trkpt lat="44.49266" lon="5.95507">
        <ele>1393.1</ele>
        <time>2026-08-13T16:20:28.442Z</time>
      </trkpt>
      <trkpt lat="44.49267" lon="5.95519">
        <ele>1393</ele>
        <time>2026-08-13T16:20:37.142Z</time>
      </trkpt>
      <trkpt lat="44.49269" lon="5.95527">
        <ele>1393.6</ele>
        <time>2026-08-13T16:20:44.790Z</time>
      </trkpt>
      <trkpt lat="44.49271" lon="5.95531">
        <ele>1394.7</ele>
        <time>2026-08-13T16:20:54.973Z</time>
      </trkpt>
      <trkpt lat="44.49273" lon="5.95539">
        <ele>1395.9</ele>
        <time>2026-08-13T16:21:05.440Z</time>
      </trkpt>
      <trkpt lat="44.49274" lon="5.95546">
        <ele>1396.7</ele>
        <time>2026-08-13T16:21:13.069Z</time>
      </trkpt>
      <trkpt lat="44.49273" lon="5.95557">
        <ele>1396.5</ele>
        <time>2026-08-13T16:21:20.901Z</time>
      </trkpt>
      <trkpt lat="44.4927" lon="5.95571">
        <ele>1395.8</ele>
        <time>2026-08-13T16:21:30.748Z</time>
      </trkpt>
      <trkpt lat="44.49264" lon="5.95588">
        <ele>1393.8</ele>
        <time>2026-08-13T16:21:43.030Z</time>
      </trkpt>
      <trkpt lat="44.49256" lon="5.95605">
        <ele>1392.2</ele>
        <time>2026-08-13T16:21:56.344Z</time>
      </trkpt>
      <trkpt lat="44.49254" lon="5.95615">
        <ele>1392.9</ele>
        <time>2026-08-13T16:22:05.601Z</time>
      </trkpt>
      <trkpt lat="44.49252" lon="5.95622">
        <ele>1393.1</ele>
        <time>2026-08-13T16:22:11.506Z</time>
      </trkpt>
      <trkpt lat="44.4925" lon="5.95629">
        <ele>1393.2</ele>
        <time>2026-08-13T16:22:17.209Z</time>
      </trkpt>
      <trkpt lat="44.49244" lon="5.95646">
        <ele>1392.8</ele>
        <time>2026-08-13T16:22:30.530Z</time>
      </trkpt>
      <trkpt lat="44.49238" lon="5.95662">
        <ele>1392.2</ele>
        <time>2026-08-13T16:22:42.966Z</time>
      </trkpt>
      <trkpt lat="44.49231" lon="5.95682">
        <ele>1390.7</ele>
        <time>2026-08-13T16:22:57.657Z</time>
      </trkpt>
      <trkpt lat="44.49228" lon="5.95694">
        <ele>1389.9</ele>
        <time>2026-08-13T16:23:06.077Z</time>
      </trkpt>
      <trkpt lat="44.49223" lon="5.95714">
        <ele>1388.7</ele>
        <time>2026-08-13T16:23:20.203Z</time>
      </trkpt>
      <trkpt lat="44.49216" lon="5.95735">
        <ele>1387</ele>
        <time>2026-08-13T16:23:35.413Z</time>
      </trkpt>
      <trkpt lat="44.49209" lon="5.95754">
        <ele>1385.2</ele>
        <time>2026-08-13T16:23:49.347Z</time>
      </trkpt>
      <trkpt lat="44.49203" lon="5.95775">
        <ele>1383</ele>
        <time>2026-08-13T16:24:04.013Z</time>
      </trkpt>
      <trkpt lat="44.492" lon="5.95792">
        <ele>1382.3</ele>
        <time>2026-08-13T16:24:15.938Z</time>
      </trkpt>
      <trkpt lat="44.49197" lon="5.95808">
        <ele>1381.6</ele>
        <time>2026-08-13T16:24:27.166Z</time>
      </trkpt>
      <trkpt lat="44.49193" lon="5.95823">
        <ele>1379.9</ele>
        <time>2026-08-13T16:24:37.536Z</time>
      </trkpt>
      <trkpt lat="44.4919" lon="5.95837">
        <ele>1378.8</ele>
        <time>2026-08-13T16:24:47.114Z</time>
      </trkpt>
      <trkpt lat="44.49187" lon="5.95847">
        <ele>1377.4</ele>
        <time>2026-08-13T16:24:54.180Z</time>
      </trkpt>
      <trkpt lat="44.49185" lon="5.95859">
        <ele>1376.6</ele>
        <time>2026-08-13T16:25:02.325Z</time>
      </trkpt>
      <trkpt lat="44.49184" lon="5.95872">
        <ele>1375.5</ele>
        <time>2026-08-13T16:25:10.845Z</time>
      </trkpt>
      <trkpt lat="44.49184" lon="5.95881">
        <ele>1374.9</ele>
        <time>2026-08-13T16:25:16.783Z</time>
      </trkpt>
      <trkpt lat="44.49186" lon="5.95894">
        <ele>1374.7</ele>
        <time>2026-08-13T16:25:26.230Z</time>
      </trkpt>
      <trkpt lat="44.49188" lon="5.95902">
        <ele>1374.5</ele>
        <time>2026-08-13T16:25:32.157Z</time>
      </trkpt>
      <trkpt lat="44.4919" lon="5.95912">
        <ele>1374</ele>
        <time>2026-08-13T16:25:39.151Z</time>
      </trkpt>
      <trkpt lat="44.49193" lon="5.95927">
        <ele>1372.3</ele>
        <time>2026-08-13T16:25:49.239Z</time>
      </trkpt>
      <trkpt lat="44.49197" lon="5.95939">
        <ele>1371.2</ele>
        <time>2026-08-13T16:25:57.875Z</time>
      </trkpt>
      <trkpt lat="44.49198" lon="5.95944">
        <ele>1370.5</ele>
        <time>2026-08-13T16:26:01.269Z</time>
      </trkpt>
      <trkpt lat="44.49202" lon="5.95952">
        <ele>1371</ele>
        <time>2026-08-13T16:26:09.507Z</time>
      </trkpt>
      <trkpt lat="44.49206" lon="5.95961">
        <ele>1371.4</ele>
        <time>2026-08-13T16:26:18.082Z</time>
      </trkpt>
      <trkpt lat="44.49209" lon="5.95977">
        <ele>1370.9</ele>
        <time>2026-08-13T16:26:29.519Z</time>
      </trkpt>
      <trkpt lat="44.4921" lon="5.95986">
        <ele>1370.7</ele>
        <time>2026-08-13T16:26:35.906Z</time>
      </trkpt>
      <trkpt lat="44.4921" lon="5.95993">
        <ele>1370.2</ele>
        <time>2026-08-13T16:26:40.506Z</time>
      </trkpt>
      <trkpt lat="44.4921" lon="5.96001">
        <ele>1369.7</ele>
        <time>2026-08-13T16:26:45.805Z</time>
      </trkpt>
      <trkpt lat="44.49209" lon="5.96007">
        <ele>1369</ele>
        <time>2026-08-13T16:26:49.797Z</time>
      </trkpt>
      <trkpt lat="44.49208" lon="5.96018">
        <ele>1368.2</ele>
        <time>2026-08-13T16:26:57.080Z</time>
      </trkpt>
      <trkpt lat="44.49207" lon="5.96033">
        <ele>1367</ele>
        <time>2026-08-13T16:27:06.922Z</time>
      </trkpt>
      <trkpt lat="44.49208" lon="5.96053">
        <ele>1366</ele>
        <time>2026-08-13T16:27:20.394Z</time>
      </trkpt>
      <trkpt lat="44.4921" lon="5.96076">
        <ele>1363.8</ele>
        <time>2026-08-13T16:27:35.424Z</time>
      </trkpt>
      <trkpt lat="44.49214" lon="5.96096">
        <ele>1362.3</ele>
        <time>2026-08-13T16:27:49.066Z</time>
      </trkpt>
      <trkpt lat="44.49219" lon="5.96119">
        <ele>1361.1</ele>
        <time>2026-08-13T16:28:05.221Z</time>
      </trkpt>
      <trkpt lat="44.49222" lon="5.96128">
        <ele>1361.7</ele>
        <time>2026-08-13T16:28:13.860Z</time>
      </trkpt>
      <trkpt lat="44.49222" lon="5.96136">
        <ele>1361.1</ele>
        <time>2026-08-13T16:28:19.103Z</time>
      </trkpt>
      <trkpt lat="44.49221" lon="5.96143">
        <ele>1360.4</ele>
        <time>2026-08-13T16:28:23.730Z</time>
      </trkpt>
      <trkpt lat="44.49219" lon="5.96156">
        <ele>1359.3</ele>
        <time>2026-08-13T16:28:32.403Z</time>
      </trkpt>
      <trkpt lat="44.49216" lon="5.9618">
        <ele>1357.3</ele>
        <time>2026-08-13T16:28:48.297Z</time>
      </trkpt>
      <trkpt lat="44.49211" lon="5.96207">
        <ele>1353.8</ele>
        <time>2026-08-13T16:29:06.433Z</time>
      </trkpt>
      <trkpt lat="44.49209" lon="5.96217">
        <ele>1352.5</ele>
        <time>2026-08-13T16:29:13.185Z</time>
      </trkpt>
      <trkpt lat="44.49209" lon="5.96227">
        <ele>1351.3</ele>
        <time>2026-08-13T16:29:19.673Z</time>
      </trkpt>
      <trkpt lat="44.4921" lon="5.96237">
        <ele>1349.7</ele>
        <time>2026-08-13T16:29:26.438Z</time>
      </trkpt>
      <trkpt lat="44.49215" lon="5.96247">
        <ele>1349.3</ele>
        <time>2026-08-13T16:29:34.846Z</time>
      </trkpt>
      <trkpt lat="44.49222" lon="5.96256">
        <ele>1348.8</ele>
        <time>2026-08-13T16:29:43.945Z</time>
      </trkpt>
      <trkpt lat="44.49229" lon="5.96262">
        <ele>1348</ele>
        <time>2026-08-13T16:29:51.515Z</time>
      </trkpt>
      <trkpt lat="44.49238" lon="5.96266">
        <ele>1348.4</ele>
        <time>2026-08-13T16:30:01.988Z</time>
      </trkpt>
      <trkpt lat="44.49248" lon="5.96271">
        <ele>1348.8</ele>
        <time>2026-08-13T16:30:13.655Z</time>
      </trkpt>
      <trkpt lat="44.49252" lon="5.96272">
        <ele>1349.4</ele>
        <time>2026-08-13T16:30:19.561Z</time>
      </trkpt>
      <trkpt lat="44.49256" lon="5.96275">
        <ele>1349.6</ele>
        <time>2026-08-13T16:30:24.611Z</time>
      </trkpt>
      <trkpt lat="44.49259" lon="5.9628">
        <ele>1349.1</ele>
        <time>2026-08-13T16:30:28.888Z</time>
      </trkpt>
      <trkpt lat="44.49263" lon="5.96287">
        <ele>1348.7</ele>
        <time>2026-08-13T16:30:34.956Z</time>
      </trkpt>
      <trkpt lat="44.49267" lon="5.96298">
        <ele>1347.9</ele>
        <time>2026-08-13T16:30:43.117Z</time>
      </trkpt>
      <trkpt lat="44.49272" lon="5.96312">
        <ele>1347.9</ele>
        <time>2026-08-13T16:30:54.593Z</time>
      </trkpt>
      <trkpt lat="44.49275" lon="5.96326">
        <ele>1348.2</ele>
        <time>2026-08-13T16:31:05.857Z</time>
      </trkpt>
      <trkpt lat="44.49275" lon="5.96337">
        <ele>1347</ele>
        <time>2026-08-13T16:31:12.980Z</time>
      </trkpt>
      <trkpt lat="44.49276" lon="5.96347">
        <ele>1345.7</ele>
        <time>2026-08-13T16:31:19.556Z</time>
      </trkpt>
      <trkpt lat="44.49277" lon="5.96353">
        <ele>1345.1</ele>
        <time>2026-08-13T16:31:23.550Z</time>
      </trkpt>
      <trkpt lat="44.49281" lon="5.96359">
        <ele>1345.8</ele>
        <time>2026-08-13T16:31:31.379Z</time>
      </trkpt>
      <trkpt lat="44.49286" lon="5.96365">
        <ele>1346.5</ele>
        <time>2026-08-13T16:31:39.862Z</time>
      </trkpt>
      <trkpt lat="44.49294" lon="5.96375">
        <ele>1346.9</ele>
        <time>2026-08-13T16:31:51.632Z</time>
      </trkpt>
      <trkpt lat="44.49302" lon="5.96388">
        <ele>1346</ele>
        <time>2026-08-13T16:32:03.132Z</time>
      </trkpt>
      <trkpt lat="44.4931" lon="5.964">
        <ele>1343.4</ele>
        <time>2026-08-13T16:32:14.135Z</time>
      </trkpt>
      <trkpt lat="44.49318" lon="5.9641">
        <ele>1341</ele>
        <time>2026-08-13T16:32:24.220Z</time>
      </trkpt>
      <trkpt lat="44.49323" lon="5.96412">
        <ele>1341</ele>
        <time>2026-08-13T16:32:29.563Z</time>
      </trkpt>
      <trkpt lat="44.49326" lon="5.96413">
        <ele>1341.1</ele>
        <time>2026-08-13T16:32:32.917Z</time>
      </trkpt>
      <trkpt lat="44.49328" lon="5.96413">
        <ele>1341.3</ele>
        <time>2026-08-13T16:32:35.452Z</time>
      </trkpt>
      <trkpt lat="44.49331" lon="5.96413">
        <ele>1341.7</ele>
        <time>2026-08-13T16:32:39.626Z</time>
      </trkpt>
      <trkpt lat="44.49335" lon="5.96413">
        <ele>1342.2</ele>
        <time>2026-08-13T16:32:45.056Z</time>
      </trkpt>
      <trkpt lat="44.49338" lon="5.96414">
        <ele>1342.1</ele>
        <time>2026-08-13T16:32:48.081Z</time>
      </trkpt>
      <trkpt lat="44.49343" lon="5.96416">
        <ele>1341.9</ele>
        <time>2026-08-13T16:32:53.143Z</time>
      </trkpt>
      <trkpt lat="44.49344" lon="5.96417">
        <ele>1341.7</ele>
        <time>2026-08-13T16:32:54.259Z</time>
      </trkpt>
      <trkpt lat="44.49346" lon="5.96419">
        <ele>1341.3</ele>
        <time>2026-08-13T16:32:56.491Z</time>
      </trkpt>
      <trkpt lat="44.49353" lon="5.96427">
        <ele>1340</ele>
        <time>2026-08-13T16:33:04.691Z</time>
      </trkpt>
      <trkpt lat="44.49358" lon="5.96435">
        <ele>1338.7</ele>
        <time>2026-08-13T16:33:11.597Z</time>
      </trkpt>
      <trkpt lat="44.49365" lon="5.96444">
        <ele>1337.8</ele>
        <time>2026-08-13T16:33:20.376Z</time>
      </trkpt>
      <trkpt lat="44.49371" lon="5.96456">
        <ele>1336.7</ele>
        <time>2026-08-13T16:33:29.979Z</time>
      </trkpt>
      <trkpt lat="44.49361" lon="5.96454">
        <ele>1335.3</ele>
        <time>2026-08-13T16:33:39.156Z</time>
      </trkpt>
      <trkpt lat="44.49353" lon="5.9645">
        <ele>1334.8</ele>
        <time>2026-08-13T16:33:47.241Z</time>
      </trkpt>
      <trkpt lat="44.49346" lon="5.96446">
        <ele>1334.5</ele>
        <time>2026-08-13T16:33:54.590Z</time>
        <extensions>
          <visugpx:TrkExtension xmlns:visugpx="https://www.visugpx.com/editgpx/">
            <visugpx:node>11</visugpx:node>
            </visugpx:TrkExtension>
        </extensions>
      </trkpt>
      <trkpt lat="44.49353" lon="5.9645">
        <ele>1334.8</ele>
      </trkpt>
      <trkpt lat="44.49361" lon="5.96454">
        <ele>1335.3</ele>
      </trkpt>
      <trkpt lat="44.49371" lon="5.96456">
        <ele>1336.7</ele>
      </trkpt>
      <trkpt lat="44.49365" lon="5.96444">
        <ele>1337.8</ele>
      </trkpt>
      <trkpt lat="44.49358" lon="5.96435">
        <ele>1338.7</ele>
      </trkpt>
      <trkpt lat="44.49353" lon="5.96427">
        <ele>1340</ele>
      </trkpt>
      <trkpt lat="44.49346" lon="5.96419">
        <ele>1341.3</ele>
      </trkpt>
      <trkpt lat="44.49344" lon="5.96417">
        <ele>1341.7</ele>
      </trkpt>
      <trkpt lat="44.49343" lon="5.96416">
        <ele>1341.9</ele>
      </trkpt>
      <trkpt lat="44.49338" lon="5.96414">
        <ele>1342.1</ele>
      </trkpt>
      <trkpt lat="44.49335" lon="5.96413">
        <ele>1342.2</ele>
      </trkpt>
      <trkpt lat="44.49331" lon="5.96413">
        <ele>1341.7</ele>
      </trkpt>
      <trkpt lat="44.49328" lon="5.96413">
        <ele>1341.3</ele>
      </trkpt>
      <trkpt lat="44.49326" lon="5.96413">
        <ele>1341.1</ele>
      </trkpt>
      <trkpt lat="44.49323" lon="5.96412">
        <ele>1341</ele>
      </trkpt>
      <trkpt lat="44.49318" lon="5.9641">
        <ele>1341</ele>
      </trkpt>
      <trkpt lat="44.4931" lon="5.964">
        <ele>1343.4</ele>
      </trkpt>
      <trkpt lat="44.49302" lon="5.96388">
        <ele>1346</ele>
      </trkpt>
      <trkpt lat="44.49294" lon="5.96375">
        <ele>1346.9</ele>
      </trkpt>
      <trkpt lat="44.49286" lon="5.96365">
        <ele>1346.5</ele>
      </trkpt>
      <trkpt lat="44.49281" lon="5.96359">
        <ele>1345.8</ele>
      </trkpt>
      <trkpt lat="44.49277" lon="5.96353">
        <ele>1345.1</ele>
      </trkpt>
      <trkpt lat="44.49276" lon="5.96347">
        <ele>1345.7</ele>
      </trkpt>
      <trkpt lat="44.49275" lon="5.96337">
        <ele>1347</ele>
      </trkpt>
      <trkpt lat="44.49275" lon="5.96326">
        <ele>1348.2</ele>
      </trkpt>
      <trkpt lat="44.49272" lon="5.96312">
        <ele>1347.9</ele>
      </trkpt>
      <trkpt lat="44.49267" lon="5.96298">
        <ele>1347.9</ele>
      </trkpt>
      <trkpt lat="44.49263" lon="5.96287">
        <ele>1348.7</ele>
      </trkpt>
      <trkpt lat="44.49259" lon="5.9628">
        <ele>1349.1</ele>
      </trkpt>
      <trkpt lat="44.49256" lon="5.96275">
        <ele>1349.6</ele>
      </trkpt>
      <trkpt lat="44.49252" lon="5.96272">
        <ele>1349.4</ele>
      </trkpt>
      <trkpt lat="44.49248" lon="5.96271">
        <ele>1348.8</ele>
      </trkpt>
      <trkpt lat="44.49238" lon="5.96266">
        <ele>1348.4</ele>
      </trkpt>
      <trkpt lat="44.49229" lon="5.96262">
        <ele>1348</ele>
      </trkpt>
      <trkpt lat="44.49222" lon="5.96256">
        <ele>1348.8</ele>
      </trkpt>
      <trkpt lat="44.49215" lon="5.96247">
        <ele>1349.3</ele>
      </trkpt>
      <trkpt lat="44.4921" lon="5.96237">
        <ele>1349.7</ele>
      </trkpt>
      <trkpt lat="44.49209" lon="5.96227">
        <ele>1351.3</ele>
      </trkpt>
      <trkpt lat="44.49209" lon="5.96217">
        <ele>1352.5</ele>
      </trkpt>
      <trkpt lat="44.49211" lon="5.96207">
        <ele>1353.8</ele>
      </trkpt>
      <trkpt lat="44.49216" lon="5.9618">
        <ele>1357.3</ele>
      </trkpt>
      <trkpt lat="44.49219" lon="5.96156">
        <ele>1359.3</ele>
      </trkpt>
      <trkpt lat="44.49221" lon="5.96143">
        <ele>1360.4</ele>
      </trkpt>
      <trkpt lat="44.49222" lon="5.96136">
        <ele>1361.1</ele>
      </trkpt>
      <trkpt lat="44.49222" lon="5.96128">
        <ele>1361.7</ele>
      </trkpt>
      <trkpt lat="44.49219" lon="5.96119">
        <ele>1361.1</ele>
      </trkpt>
      <trkpt lat="44.49214" lon="5.96096">
        <ele>1362.3</ele>
      </trkpt>
      <trkpt lat="44.4921" lon="5.96076">
        <ele>1363.8</ele>
      </trkpt>
      <trkpt lat="44.49208" lon="5.96053">
        <ele>1366</ele>
      </trkpt>
      <trkpt lat="44.49207" lon="5.96033">
        <ele>1367</ele>
      </trkpt>
      <trkpt lat="44.49208" lon="5.96018">
        <ele>1368.2</ele>
      </trkpt>
      <trkpt lat="44.49209" lon="5.96007">
        <ele>1369</ele>
      </trkpt>
      <trkpt lat="44.4921" lon="5.96001">
        <ele>1369.7</ele>
      </trkpt>
      <trkpt lat="44.4921" lon="5.95993">
        <ele>1370.2</ele>
      </trkpt>
      <trkpt lat="44.4921" lon="5.95986">
        <ele>1370.7</ele>
      </trkpt>
      <trkpt lat="44.49209" lon="5.95977">
        <ele>1370.9</ele>
      </trkpt>
      <trkpt lat="44.49206" lon="5.95961">
        <ele>1371.4</ele>
      </trkpt>
      <trkpt lat="44.49202" lon="5.95952">
        <ele>1371</ele>
      </trkpt>
      <trkpt lat="44.49198" lon="5.95944">
        <ele>1370.5</ele>
      </trkpt>
      <trkpt lat="44.49197" lon="5.95939">
        <ele>1371.2</ele>
      </trkpt>
      <trkpt lat="44.49193" lon="5.95927">
        <ele>1372.3</ele>
      </trkpt>
      <trkpt lat="44.4919" lon="5.95912">
        <ele>1374</ele>
      </trkpt>
      <trkpt lat="44.49188" lon="5.95902">
        <ele>1374.5</ele>
      </trkpt>
      <trkpt lat="44.49186" lon="5.95894">
        <ele>1374.7</ele>
      </trkpt>
      <trkpt lat="44.49184" lon="5.95881">
        <ele>1374.9</ele>
      </trkpt>
      <trkpt lat="44.49184" lon="5.95872">
        <ele>1375.5</ele>
      </trkpt>
      <trkpt lat="44.49185" lon="5.95859">
        <ele>1376.6</ele>
      </trkpt>
      <trkpt lat="44.49187" lon="5.95847">
        <ele>1377.4</ele>
      </trkpt>
      <trkpt lat="44.4919" lon="5.95837">
        <ele>1378.8</ele>
      </trkpt>
      <trkpt lat="44.49193" lon="5.95823">
        <ele>1379.9</ele>
      </trkpt>
      <trkpt lat="44.49197" lon="5.95808">
        <ele>1381.6</ele>
      </trkpt>
      <trkpt lat="44.492" lon="5.95792">
        <ele>1382.3</ele>
      </trkpt>
      <trkpt lat="44.49203" lon="5.95775">
        <ele>1383</ele>
      </trkpt>
      <trkpt lat="44.49209" lon="5.95754">
        <ele>1385.2</ele>
      </trkpt>
      <trkpt lat="44.49216" lon="5.95735">
        <ele>1387</ele>
      </trkpt>
      <trkpt lat="44.49223" lon="5.95714">
        <ele>1388.7</ele>
      </trkpt>
      <trkpt lat="44.49228" lon="5.95694">
        <ele>1389.9</ele>
      </trkpt>
      <trkpt lat="44.49231" lon="5.95682">
        <ele>1390.7</ele>
      </trkpt>
      <trkpt lat="44.49238" lon="5.95662">
        <ele>1392.2</ele>
      </trkpt>
      <trkpt lat="44.49244" lon="5.95646">
        <ele>1392.8</ele>
      </trkpt>
      <trkpt lat="44.4925" lon="5.95629">
        <ele>1393.2</ele>
      </trkpt>
      <trkpt lat="44.49252" lon="5.95622">
        <ele>1393.1</ele>
      </trkpt>
      <trkpt lat="44.49254" lon="5.95615">
        <ele>1392.9</ele>
      </trkpt>
      <trkpt lat="44.49256" lon="5.95605">
        <ele>1392.2</ele>
      </trkpt>
      <trkpt lat="44.49264" lon="5.95588">
        <ele>1393.8</ele>
      </trkpt>
      <trkpt lat="44.4927" lon="5.95571">
        <ele>1395.8</ele>
      </trkpt>
      <trkpt lat="44.49273" lon="5.95557">
        <ele>1396.5</ele>
      </trkpt>
      <trkpt lat="44.49274" lon="5.95546">
        <ele>1396.7</ele>
      </trkpt>
      <trkpt lat="44.49273" lon="5.95539">
        <ele>1395.9</ele>
      </trkpt>
      <trkpt lat="44.49271" lon="5.95531">
        <ele>1394.7</ele>
      </trkpt>
      <trkpt lat="44.49269" lon="5.95527">
        <ele>1393.6</ele>
      </trkpt>
      <trkpt lat="44.49267" lon="5.95519">
        <ele>1393</ele>
      </trkpt>
      <trkpt lat="44.49266" lon="5.95507">
        <ele>1393.1</ele>
      </trkpt>
      <trkpt lat="44.49267" lon="5.95494">
        <ele>1394</ele>
      </trkpt>
      <trkpt lat="44.49268" lon="5.95485">
        <ele>1394.4</ele>
      </trkpt>
      <trkpt lat="44.49269" lon="5.9548">
        <ele>1394.9</ele>
      </trkpt>
      <trkpt lat="44.49273" lon="5.95473">
        <ele>1396.8</ele>
      </trkpt>
      <trkpt lat="44.49277" lon="5.95466">
        <ele>1398.6</ele>
      </trkpt>
      <trkpt lat="44.49278" lon="5.9546">
        <ele>1399.1</ele>
      </trkpt>
      <trkpt lat="44.4928" lon="5.95451">
        <ele>1400.1</ele>
      </trkpt>
      <trkpt lat="44.4928" lon="5.95438">
        <ele>1400.6</ele>
      </trkpt>
      <trkpt lat="44.49278" lon="5.95424">
        <ele>1400.6</ele>
      </trkpt>
      <trkpt lat="44.49277" lon="5.95411">
        <ele>1400.6</ele>
      </trkpt>
      <trkpt lat="44.49277" lon="5.95402">
        <ele>1400.6</ele>
      </trkpt>
      <trkpt lat="44.49278" lon="5.9539">
        <ele>1401.1</ele>
      </trkpt>
      <trkpt lat="44.49282" lon="5.95376">
        <ele>1402.9</ele>
      </trkpt>
      <trkpt lat="44.49286" lon="5.9536">
        <ele>1404.5</ele>
      </trkpt>
      <trkpt lat="44.49289" lon="5.95349">
        <ele>1405.4</ele>
      </trkpt>
      <trkpt lat="44.4929" lon="5.9534">
        <ele>1405.5</ele>
      </trkpt>
      <trkpt lat="44.49292" lon="5.95327">
        <ele>1406</ele>
      </trkpt>
      <trkpt lat="44.49293" lon="5.95315">
        <ele>1406.2</ele>
      </trkpt>
      <trkpt lat="44.49294" lon="5.95302">
        <ele>1406.6</ele>
      </trkpt>
      <trkpt lat="44.49294" lon="5.95291">
        <ele>1407</ele>
      </trkpt>
      <trkpt lat="44.49294" lon="5.95278">
        <ele>1407.6</ele>
      </trkpt>
      <trkpt lat="44.49293" lon="5.95267">
        <ele>1407.7</ele>
      </trkpt>
      <trkpt lat="44.49291" lon="5.95256">
        <ele>1407.4</ele>
      </trkpt>
      <trkpt lat="44.49289" lon="5.95246">
        <ele>1407.1</ele>
      </trkpt>
      <trkpt lat="44.49289" lon="5.95239">
        <ele>1407.6</ele>
      </trkpt>
      <trkpt lat="44.49288" lon="5.9523">
        <ele>1407.9</ele>
      </trkpt>
      <trkpt lat="44.49289" lon="5.95223">
        <ele>1408.8</ele>
      </trkpt>
      <trkpt lat="44.4929" lon="5.95215">
        <ele>1409.9</ele>
      </trkpt>
      <trkpt lat="44.4929" lon="5.95209">
        <ele>1410.4</ele>
      </trkpt>
      <trkpt lat="44.4929" lon="5.95204">
        <ele>1410.9</ele>
      </trkpt>
      <trkpt lat="44.49289" lon="5.95198">
        <ele>1410.9</ele>
      </trkpt>
      <trkpt lat="44.49283" lon="5.95182">
        <ele>1410.2</ele>
      </trkpt>
      <trkpt lat="44.49275" lon="5.95159">
        <ele>1410.5</ele>
      </trkpt>
      <trkpt lat="44.49267" lon="5.95135">
        <ele>1412.3</ele>
      </trkpt>
      <trkpt lat="44.49258" lon="5.95111">
        <ele>1413.8</ele>
      </trkpt>
      <trkpt lat="44.4925" lon="5.9509">
        <ele>1413.8</ele>
      </trkpt>
      <trkpt lat="44.49241" lon="5.95067">
        <ele>1413.5</ele>
      </trkpt>
      <trkpt lat="44.49235" lon="5.9505">
        <ele>1413.1</ele>
      </trkpt>
      <trkpt lat="44.4923" lon="5.95035">
        <ele>1412.6</ele>
      </trkpt>
      <trkpt lat="44.49228" lon="5.95025">
        <ele>1413</ele>
      </trkpt>
      <trkpt lat="44.49227" lon="5.9502">
        <ele>1413.5</ele>
      </trkpt>
      <trkpt lat="44.49226" lon="5.9501">
        <ele>1414.9</ele>
      </trkpt>
      <trkpt lat="44.49223" lon="5.94996">
        <ele>1416.4</ele>
      </trkpt>
      <trkpt lat="44.4922" lon="5.94984">
        <ele>1418.2</ele>
      </trkpt>
      <trkpt lat="44.49218" lon="5.94977">
        <ele>1419.2</ele>
      </trkpt>
      <trkpt lat="44.49214" lon="5.94969">
        <ele>1419.6</ele>
      </trkpt>
      <trkpt lat="44.49207" lon="5.94958">
        <ele>1419.8</ele>
      </trkpt>
      <trkpt lat="44.49199" lon="5.94945">
        <ele>1419.8</ele>
      </trkpt>
      <trkpt lat="44.49191" lon="5.94931">
        <ele>1420.1</ele>
      </trkpt>
      <trkpt lat="44.49183" lon="5.94917">
        <ele>1420.4</ele>
      </trkpt>
      <trkpt lat="44.4918" lon="5.9491">
        <ele>1420.7</ele>
      </trkpt>
      <trkpt lat="44.4917" lon="5.94894">
        <ele>1420.2</ele>
      </trkpt>
      <trkpt lat="44.49166" lon="5.94884">
        <ele>1420.8</ele>
      </trkpt>
      <trkpt lat="44.49155" lon="5.94866">
        <ele>1420.2</ele>
      </trkpt>
      <trkpt lat="44.49149" lon="5.94855">
        <ele>1421.2</ele>
      </trkpt>
      <trkpt lat="44.49145" lon="5.94848">
        <ele>1422.3</ele>
      </trkpt>
      <trkpt lat="44.49143" lon="5.94841">
        <ele>1424.3</ele>
      </trkpt>
      <trkpt lat="44.49141" lon="5.94836">
        <ele>1425.6</ele>
      </trkpt>
      <trkpt lat="44.49139" lon="5.94834">
        <ele>1425.8</ele>
      </trkpt>
      <trkpt lat="44.49137" lon="5.9483">
        <ele>1427.4</ele>
      </trkpt>
      <trkpt lat="44.49133" lon="5.94829">
        <ele>1427.7</ele>
      </trkpt>
      <trkpt lat="44.49128" lon="5.94828">
        <ele>1428.1</ele>
      </trkpt>
      <trkpt lat="44.49118" lon="5.94828">
        <ele>1427.8</ele>
      </trkpt>
      <trkpt lat="44.49108" lon="5.94828">
        <ele>1428.2</ele>
      </trkpt>
      <trkpt lat="44.491" lon="5.94829">
        <ele>1429</ele>
      </trkpt>
      <trkpt lat="44.49096" lon="5.94832">
        <ele>1428.3</ele>
      </trkpt>
      <trkpt lat="44.4909" lon="5.94838">
        <ele>1426.6</ele>
      </trkpt>
      <trkpt lat="44.49084" lon="5.94841">
        <ele>1426.3</ele>
      </trkpt>
      <trkpt lat="44.49078" lon="5.94843">
        <ele>1426.6</ele>
      </trkpt>
      <trkpt lat="44.4907" lon="5.94843">
        <ele>1428.2</ele>
      </trkpt>
      <trkpt lat="44.49059" lon="5.94844">
        <ele>1430.1</ele>
      </trkpt>
      <trkpt lat="44.49045" lon="5.94845">
        <ele>1430.9</ele>
      </trkpt>
      <trkpt lat="44.49032" lon="5.94846">
        <ele>1431.1</ele>
      </trkpt>
      <trkpt lat="44.49023" lon="5.94843">
        <ele>1431.4</ele>
      </trkpt>
      <trkpt lat="44.49021" lon="5.94841">
        <ele>1431.5</ele>
      </trkpt>
      <trkpt lat="44.4902" lon="5.94839">
        <ele>1431.9</ele>
      </trkpt>
      <trkpt lat="44.49019" lon="5.94836">
        <ele>1432.4</ele>
      </trkpt>
      <trkpt lat="44.49019" lon="5.94832">
        <ele>1433.2</ele>
      </trkpt>
      <trkpt lat="44.4902" lon="5.94828">
        <ele>1433.7</ele>
      </trkpt>
      <trkpt lat="44.49021" lon="5.94825">
        <ele>1434.2</ele>
      </trkpt>
      <trkpt lat="44.49023" lon="5.94821">
        <ele>1435.1</ele>
      </trkpt>
      <trkpt lat="44.49025" lon="5.94814">
        <ele>1436.3</ele>
      </trkpt>
      <trkpt lat="44.49029" lon="5.94801">
        <ele>1437.9</ele>
      </trkpt>
      <trkpt lat="44.49033" lon="5.94785">
        <ele>1437.8</ele>
      </trkpt>
      <trkpt lat="44.49037" lon="5.94774">
        <ele>1438.1</ele>
      </trkpt>
      <trkpt lat="44.49041" lon="5.94769">
        <ele>1438.5</ele>
      </trkpt>
      <trkpt lat="44.49046" lon="5.94764">
        <ele>1439.4</ele>
      </trkpt>
      <trkpt lat="44.49054" lon="5.94757">
        <ele>1441.2</ele>
      </trkpt>
      <trkpt lat="44.49063" lon="5.94748">
        <ele>1443.4</ele>
      </trkpt>
      <trkpt lat="44.49068" lon="5.94738">
        <ele>1444.3</ele>
      </trkpt>
      <trkpt lat="44.49075" lon="5.94726">
        <ele>1446.4</ele>
      </trkpt>
      <trkpt lat="44.4908" lon="5.94715">
        <ele>1448.1</ele>
      </trkpt>
      <trkpt lat="44.49083" lon="5.94702">
        <ele>1449.1</ele>
      </trkpt>
      <trkpt lat="44.49083" lon="5.94698">
        <ele>1449</ele>
      </trkpt>
      <trkpt lat="44.49086" lon="5.94685">
        <ele>1450</ele>
      </trkpt>
      <trkpt lat="44.4909" lon="5.94662">
        <ele>1451.4</ele>
      </trkpt>
      <trkpt lat="44.49092" lon="5.94649">
        <ele>1452</ele>
      </trkpt>
      <trkpt lat="44.49098" lon="5.94614">
        <ele>1454.9</ele>
      </trkpt>
      <trkpt lat="44.49104" lon="5.94582">
        <ele>1457.4</ele>
      </trkpt>
      <trkpt lat="44.49107" lon="5.94559">
        <ele>1458.9</ele>
      </trkpt>
      <trkpt lat="44.49108" lon="5.94535">
        <ele>1459.4</ele>
      </trkpt>
      <trkpt lat="44.49111" lon="5.94506">
        <ele>1460.2</ele>
      </trkpt>
      <trkpt lat="44.49112" lon="5.94496">
        <ele>1460</ele>
      </trkpt>
      <trkpt lat="44.49114" lon="5.9449">
        <ele>1460.2</ele>
      </trkpt>
      <trkpt lat="44.49116" lon="5.94486">
        <ele>1460.5</ele>
      </trkpt>
      <trkpt lat="44.49119" lon="5.94482">
        <ele>1461.2</ele>
      </trkpt>
      <trkpt lat="44.49124" lon="5.94477">
        <ele>1462.4</ele>
      </trkpt>
      <trkpt lat="44.49129" lon="5.94471">
        <ele>1463.1</ele>
      </trkpt>
      <trkpt lat="44.49138" lon="5.94465">
        <ele>1464.6</ele>
      </trkpt>
      <trkpt lat="44.49149" lon="5.94457">
        <ele>1465.7</ele>
      </trkpt>
      <trkpt lat="44.49166" lon="5.94449">
        <ele>1468.3</ele>
      </trkpt>
      <trkpt lat="44.49181" lon="5.94442">
        <ele>1470.2</ele>
      </trkpt>
      <trkpt lat="44.49192" lon="5.94435">
        <ele>1470.6</ele>
      </trkpt>
      <trkpt lat="44.492" lon="5.94428">
        <ele>1470.4</ele>
      </trkpt>
      <trkpt lat="44.49208" lon="5.94423">
        <ele>1471.3</ele>
      </trkpt>
      <trkpt lat="44.49213" lon="5.9442">
        <ele>1471.9</ele>
      </trkpt>
      <trkpt lat="44.4922" lon="5.94418">
        <ele>1473.7</ele>
      </trkpt>
      <trkpt lat="44.49225" lon="5.94415">
        <ele>1474.7</ele>
      </trkpt>
      <trkpt lat="44.49229" lon="5.94412">
        <ele>1475.5</ele>
      </trkpt>
      <trkpt lat="44.49233" lon="5.94408">
        <ele>1476.2</ele>
      </trkpt>
      <trkpt lat="44.49236" lon="5.94404">
        <ele>1476.5</ele>
      </trkpt>
      <trkpt lat="44.49241" lon="5.94395">
        <ele>1476.5</ele>
      </trkpt>
      <trkpt lat="44.49245" lon="5.94383">
        <ele>1476.4</ele>
      </trkpt>
      <trkpt lat="44.49251" lon="5.94359">
        <ele>1477.4</ele>
      </trkpt>
      <trkpt lat="44.49255" lon="5.94343">
        <ele>1478.2</ele>
      </trkpt>
      <trkpt lat="44.49258" lon="5.94328">
        <ele>1478.6</ele>
      </trkpt>
      <trkpt lat="44.49262" lon="5.94314">
        <ele>1479.7</ele>
      </trkpt>
      <trkpt lat="44.49264" lon="5.94308">
        <ele>1480.2</ele>
      </trkpt>
      <trkpt lat="44.49266" lon="5.94301">
        <ele>1481.2</ele>
      </trkpt>
      <trkpt lat="44.49265" lon="5.94294">
        <ele>1480.8</ele>
      </trkpt>
      <trkpt lat="44.49265" lon="5.9428">
        <ele>1481.1</ele>
      </trkpt>
      <trkpt lat="44.49266" lon="5.9427">
        <ele>1482.1</ele>
      </trkpt>
      <trkpt lat="44.49268" lon="5.94247">
        <ele>1484.7</ele>
      </trkpt>
      <trkpt lat="44.49268" lon="5.94231">
        <ele>1486.6</ele>
      </trkpt>
      <trkpt lat="44.49268" lon="5.94219">
        <ele>1487.8</ele>
      </trkpt>
      <trkpt lat="44.49266" lon="5.94203">
        <ele>1487.1</ele>
      </trkpt>
      <trkpt lat="44.49265" lon="5.94192">
        <ele>1486.8</ele>
      </trkpt>
      <trkpt lat="44.49266" lon="5.94182">
        <ele>1487.8</ele>
      </trkpt>
      <trkpt lat="44.49267" lon="5.9417">
        <ele>1488.9</ele>
      </trkpt>
      <trkpt lat="44.49272" lon="5.94137">
        <ele>1492.5</ele>
      </trkpt>
      <trkpt lat="44.49275" lon="5.94119">
        <ele>1495</ele>
      </trkpt>
      <trkpt lat="44.49277" lon="5.94106">
        <ele>1496.4</ele>
      </trkpt>
      <trkpt lat="44.49279" lon="5.94092">
        <ele>1497.1</ele>
      </trkpt>
      <trkpt lat="44.49283" lon="5.94069">
        <ele>1499.4</ele>
      </trkpt>
      <trkpt lat="44.49285" lon="5.94054">
        <ele>1500.8</ele>
      </trkpt>
      <trkpt lat="44.49285" lon="5.94037">
        <ele>1501.7</ele>
      </trkpt>
      <trkpt lat="44.49287" lon="5.94021">
        <ele>1504</ele>
      </trkpt>
      <trkpt lat="44.49288" lon="5.94013">
        <ele>1505.1</ele>
      </trkpt>
      <trkpt lat="44.49289" lon="5.94001">
        <ele>1506.4</ele>
      </trkpt>
      <trkpt lat="44.4929" lon="5.93992">
        <ele>1508.3</ele>
      </trkpt>
      <trkpt lat="44.49289" lon="5.93983">
        <ele>1508.7</ele>
      </trkpt>
      <trkpt lat="44.49288" lon="5.93975">
        <ele>1509</ele>
      </trkpt>
      <trkpt lat="44.49284" lon="5.93958">
        <ele>1508.3</ele>
      </trkpt>
      <trkpt lat="44.4928" lon="5.93943">
        <ele>1507.5</ele>
      </trkpt>
      <trkpt lat="44.49278" lon="5.93932">
        <ele>1507</ele>
      </trkpt>
      <trkpt lat="44.49277" lon="5.93922">
        <ele>1507.1</ele>
      </trkpt>
      <trkpt lat="44.49277" lon="5.93915">
        <ele>1507.5</ele>
      </trkpt>
      <trkpt lat="44.49276" lon="5.93907">
        <ele>1506.9</ele>
      </trkpt>
      <trkpt lat="44.49274" lon="5.93901">
        <ele>1505.6</ele>
      </trkpt>
      <trkpt lat="44.49274" lon="5.939">
        <ele>1505.7</ele>
      </trkpt>
      <trkpt lat="44.49272" lon="5.93893">
        <ele>1504.6</ele>
      </trkpt>
      <trkpt lat="44.49271" lon="5.93886">
        <ele>1503.9</ele>
      </trkpt>
      <trkpt lat="44.49274" lon="5.93886">
        <ele>1505.6</ele>
      </trkpt>
      <trkpt lat="44.49276" lon="5.93887">
        <ele>1506.8</ele>
      </trkpt>
      <trkpt lat="44.49276" lon="5.93885">
        <ele>1506.7</ele>
      </trkpt>
      <trkpt lat="44.49277" lon="5.93884">
        <ele>1507.2</ele>
      </trkpt>
      <trkpt lat="44.49278" lon="5.93884">
        <ele>1507.8</ele>
      </trkpt>
      <trkpt lat="44.49279" lon="5.93885">
        <ele>1508.4</ele>
      </trkpt>
      <trkpt lat="44.49279" lon="5.93886">
        <ele>1508.5</ele>
      </trkpt>
      <trkpt lat="44.4928" lon="5.93886">
        <ele>1509.1</ele>
      </trkpt>
      <trkpt lat="44.4928" lon="5.93886">
        <ele>1509.1</ele>
      </trkpt>
      <trkpt lat="44.4928" lon="5.93887">
        <ele>1509.1</ele>
      </trkpt>
      <trkpt lat="44.49281" lon="5.93888">
        <ele>1509.8</ele>
      </trkpt>
      <trkpt lat="44.49282" lon="5.93888">
        <ele>1510.4</ele>
      </trkpt>
      <trkpt lat="44.49284" lon="5.93891">
        <ele>1511.6</ele>
      </trkpt>
      <trkpt lat="44.49285" lon="5.93892">
        <ele>1512.2</ele>
      </trkpt>
      <trkpt lat="44.49287" lon="5.93891">
        <ele>1513.4</ele>
      </trkpt>
      <trkpt lat="44.49288" lon="5.93891">
        <ele>1513.9</ele>
      </trkpt>
      <trkpt lat="44.49288" lon="5.93891">
        <ele>1513.9</ele>
      </trkpt>
      <trkpt lat="44.4929" lon="5.93893">
        <ele>1515.2</ele>
      </trkpt>
      <trkpt lat="44.4929" lon="5.93894">
        <ele>1515.2</ele>
      </trkpt>
      <trkpt lat="44.49292" lon="5.93893">
        <ele>1516.3</ele>
      </trkpt>
      <trkpt lat="44.49294" lon="5.93894">
        <ele>1517.6</ele>
      </trkpt>
      <trkpt lat="44.49295" lon="5.93894">
        <ele>1518.1</ele>
      </trkpt>
      <trkpt lat="44.49297" lon="5.93897">
        <ele>1519.5</ele>
      </trkpt>
      <trkpt lat="44.49297" lon="5.93896">
        <ele>1519.4</ele>
      </trkpt>
      <trkpt lat="44.49299" lon="5.93898">
        <ele>1520.7</ele>
      </trkpt>
      <trkpt lat="44.493" lon="5.93897">
        <ele>1521.3</ele>
      </trkpt>
      <trkpt lat="44.49301" lon="5.93897">
        <ele>1521.9</ele>
      </trkpt>
      <trkpt lat="44.49302" lon="5.93899">
        <ele>1522.6</ele>
      </trkpt>
      <trkpt lat="44.49303" lon="5.939">
        <ele>1523.3</ele>
      </trkpt>
      <trkpt lat="44.49303" lon="5.93901">
        <ele>1523.3</ele>
      </trkpt>
      <trkpt lat="44.49305" lon="5.93903">
        <ele>1524.7</ele>
      </trkpt>
      <trkpt lat="44.49305" lon="5.93903">
        <ele>1524.7</ele>
      </trkpt>
      <trkpt lat="44.49307" lon="5.93905">
        <ele>1526</ele>
      </trkpt>
      <trkpt lat="44.4931" lon="5.93904">
        <ele>1527.8</ele>
      </trkpt>
      <trkpt lat="44.49311" lon="5.93905">
        <ele>1528.5</ele>
      </trkpt>
      <trkpt lat="44.49312" lon="5.93904">
        <ele>1529</ele>
      </trkpt>
      <trkpt lat="44.49313" lon="5.93906">
        <ele>1529.8</ele>
      </trkpt>
      <trkpt lat="44.49314" lon="5.93907">
        <ele>1530.5</ele>
      </trkpt>
      <trkpt lat="44.49317" lon="5.93908">
        <ele>1532.4</ele>
      </trkpt>
      <trkpt lat="44.49318" lon="5.93908">
        <ele>1533</ele>
      </trkpt>
      <trkpt lat="44.49318" lon="5.93907">
        <ele>1532.9</ele>
      </trkpt>
      <trkpt lat="44.49319" lon="5.93905">
        <ele>1533.4</ele>
      </trkpt>
      <trkpt lat="44.49323" lon="5.93903">
        <ele>1535.7</ele>
      </trkpt>
      <trkpt lat="44.49324" lon="5.93903">
        <ele>1536.3</ele>
      </trkpt>
      <trkpt lat="44.49329" lon="5.93906">
        <ele>1539.6</ele>
      </trkpt>
      <trkpt lat="44.4933" lon="5.93909">
        <ele>1540.4</ele>
      </trkpt>
      <trkpt lat="44.4933" lon="5.9391">
        <ele>1540.5</ele>
      </trkpt>
      <trkpt lat="44.49332" lon="5.9391">
        <ele>1541.7</ele>
      </trkpt>
      <trkpt lat="44.49333" lon="5.93911">
        <ele>1542.4</ele>
      </trkpt>
      <trkpt lat="44.49335" lon="5.93913">
        <ele>1543.8</ele>
      </trkpt>
      <trkpt lat="44.49335" lon="5.93914">
        <ele>1543.8</ele>
      </trkpt>
      <trkpt lat="44.49336" lon="5.93916">
        <ele>1544.6</ele>
      </trkpt>
      <trkpt lat="44.49337" lon="5.93915">
        <ele>1545.1</ele>
      </trkpt>
      <trkpt lat="44.49338" lon="5.93914">
        <ele>1545.7</ele>
      </trkpt>
      <trkpt lat="44.4934" lon="5.93913">
        <ele>1546.8</ele>
      </trkpt>
      <trkpt lat="44.49341" lon="5.9391">
        <ele>1547.2</ele>
      </trkpt>
      <trkpt lat="44.49342" lon="5.93909">
        <ele>1547.8</ele>
      </trkpt>
      <trkpt lat="44.49343" lon="5.93907">
        <ele>1548.2</ele>
      </trkpt>
      <trkpt lat="44.49344" lon="5.93906">
        <ele>1548.8</ele>
      </trkpt>
      <trkpt lat="44.49345" lon="5.93906">
        <ele>1549.4</ele>
      </trkpt>
      <trkpt lat="44.49348" lon="5.93909">
        <ele>1551.4</ele>
      </trkpt>
      <trkpt lat="44.49349" lon="5.9391">
        <ele>1552.1</ele>
      </trkpt>
      <trkpt lat="44.4935" lon="5.93912">
        <ele>1552.9</ele>
      </trkpt>
      <trkpt lat="44.49352" lon="5.93913">
        <ele>1554.2</ele>
      </trkpt>
      <trkpt lat="44.49354" lon="5.93914">
        <ele>1555.5</ele>
      </trkpt>
      <trkpt lat="44.49355" lon="5.93914">
        <ele>1556.1</ele>
      </trkpt>
      <trkpt lat="44.49355" lon="5.93912">
        <ele>1555.9</ele>
      </trkpt>
      <trkpt lat="44.49358" lon="5.93911">
        <ele>1557.7</ele>
      </trkpt>
      <trkpt lat="44.49359" lon="5.9391">
        <ele>1558.2</ele>
      </trkpt>
      <trkpt lat="44.4936" lon="5.93911">
        <ele>1558.9</ele>
      </trkpt>
      <trkpt lat="44.49362" lon="5.93909">
        <ele>1559.9</ele>
      </trkpt>
      <trkpt lat="44.49364" lon="5.93908">
        <ele>1560.9</ele>
      </trkpt>
      <trkpt lat="44.49366" lon="5.93911">
        <ele>1562.1</ele>
      </trkpt>
      <trkpt lat="44.49371" lon="5.93909">
        <ele>1564.5</ele>
      </trkpt>
      <trkpt lat="44.49373" lon="5.9391">
        <ele>1565.6</ele>
      </trkpt>
      <trkpt lat="44.49373" lon="5.93909">
        <ele>1565.6</ele>
      </trkpt>
      <trkpt lat="44.49375" lon="5.93909">
        <ele>1566.6</ele>
      </trkpt>
      <trkpt lat="44.49377" lon="5.93912">
        <ele>1567.8</ele>
      </trkpt>
      <trkpt lat="44.49378" lon="5.93913">
        <ele>1568.3</ele>
      </trkpt>
      <trkpt lat="44.49379" lon="5.93913">
        <ele>1568.8</ele>
      </trkpt>
      <trkpt lat="44.49382" lon="5.93912">
        <ele>1570.3</ele>
      </trkpt>
      <trkpt lat="44.49385" lon="5.93913">
        <ele>1571.9</ele>
      </trkpt>
      <trkpt lat="44.49388" lon="5.93913">
        <ele>1573.4</ele>
      </trkpt>
      <trkpt lat="44.49389" lon="5.93912">
        <ele>1573.9</ele>
      </trkpt>
      <trkpt lat="44.4939" lon="5.9391">
        <ele>1574.3</ele>
      </trkpt>
      <trkpt lat="44.49392" lon="5.93907">
        <ele>1575.1</ele>
      </trkpt>
      <trkpt lat="44.49394" lon="5.93904">
        <ele>1576</ele>
      </trkpt>
      <trkpt lat="44.49395" lon="5.93905">
        <ele>1576.5</ele>
      </trkpt>
      <trkpt lat="44.49396" lon="5.93905">
        <ele>1577</ele>
      </trkpt>
      <trkpt lat="44.49397" lon="5.93906">
        <ele>1577.5</ele>
      </trkpt>
      <trkpt lat="44.49398" lon="5.93908">
        <ele>1578.1</ele>
      </trkpt>
      <trkpt lat="44.49399" lon="5.93909">
        <ele>1578.6</ele>
      </trkpt>
      <trkpt lat="44.49403" lon="5.93907">
        <ele>1580.4</ele>
      </trkpt>
      <trkpt lat="44.49404" lon="5.93909">
        <ele>1580.9</ele>
      </trkpt>
      <trkpt lat="44.49406" lon="5.93908">
        <ele>1581.9</ele>
      </trkpt>
      <trkpt lat="44.49407" lon="5.93909">
        <ele>1582.4</ele>
      </trkpt>
      <trkpt lat="44.49409" lon="5.93911">
        <ele>1583.4</ele>
      </trkpt>
      <trkpt lat="44.4941" lon="5.93911">
        <ele>1583.8</ele>
      </trkpt>
      <trkpt lat="44.49412" lon="5.9391">
        <ele>1584.8</ele>
      </trkpt>
      <trkpt lat="44.49413" lon="5.9391">
        <ele>1585.3</ele>
      </trkpt>
      <trkpt lat="44.49416" lon="5.93907">
        <ele>1586.7</ele>
      </trkpt>
      <trkpt lat="44.49417" lon="5.93907">
        <ele>1587.2</ele>
      </trkpt>
      <trkpt lat="44.49419" lon="5.93908">
        <ele>1588.2</ele>
      </trkpt>
      <trkpt lat="44.4942" lon="5.93911">
        <ele>1588.7</ele>
      </trkpt>
      <trkpt lat="44.4942" lon="5.93912">
        <ele>1588.7</ele>
      </trkpt>
      <trkpt lat="44.49423" lon="5.93913">
        <ele>1590.3</ele>
      </trkpt>
      <trkpt lat="44.49426" lon="5.93915">
        <ele>1592</ele>
      </trkpt>
      <trkpt lat="44.49428" lon="5.93915">
        <ele>1593</ele>
      </trkpt>
      <trkpt lat="44.4943" lon="5.93916">
        <ele>1594.2</ele>
      </trkpt>
      <trkpt lat="44.49432" lon="5.93915">
        <ele>1595.2</ele>
      </trkpt>
      <trkpt lat="44.49434" lon="5.93915">
        <ele>1596.2</ele>
      </trkpt>
      <trkpt lat="44.49435" lon="5.93917">
        <ele>1596.9</ele>
      </trkpt>
      <trkpt lat="44.49436" lon="5.93917">
        <ele>1597.4</ele>
      </trkpt>
      <trkpt lat="44.49438" lon="5.93916">
        <ele>1598.5</ele>
      </trkpt>
      <trkpt lat="44.49441" lon="5.93917">
        <ele>1600.1</ele>
      </trkpt>
      <trkpt lat="44.49442" lon="5.9392">
        <ele>1600.5</ele>
      </trkpt>
      <trkpt lat="44.49445" lon="5.93922">
        <ele>1602.1</ele>
      </trkpt>
      <trkpt lat="44.49447" lon="5.93924">
        <ele>1603</ele>
      </trkpt>
      <trkpt lat="44.49448" lon="5.93927">
        <ele>1603.4</ele>
      </trkpt>
      <trkpt lat="44.49449" lon="5.93928">
        <ele>1603.9</ele>
      </trkpt>
      <trkpt lat="44.4945" lon="5.93929">
        <ele>1604.4</ele>
      </trkpt>
      <trkpt lat="44.49454" lon="5.93935">
        <ele>1606.5</ele>
      </trkpt>
      <trkpt lat="44.49458" lon="5.93939">
        <ele>1608.7</ele>
      </trkpt>
      <trkpt lat="44.49459" lon="5.93943">
        <ele>1609.4</ele>
      </trkpt>
      <trkpt lat="44.49467" lon="5.93943">
        <ele>1613.9</ele>
      </trkpt>
      <trkpt lat="44.49469" lon="5.93944">
        <ele>1615.1</ele>
      </trkpt>
      <trkpt lat="44.49472" lon="5.93951">
        <ele>1616.9</ele>
      </trkpt>
      <trkpt lat="44.49475" lon="5.93956">
        <ele>1618.7</ele>
      </trkpt>
      <trkpt lat="44.49476" lon="5.93959">
        <ele>1619.3</ele>
      </trkpt>
      <trkpt lat="44.49477" lon="5.93965">
        <ele>1620</ele>
      </trkpt>
      <trkpt lat="44.49477" lon="5.93966">
        <ele>1620</ele>
      </trkpt>
      <trkpt lat="44.4948" lon="5.93969">
        <ele>1622</ele>
      </trkpt>
      <trkpt lat="44.49481" lon="5.93972">
        <ele>1622.7</ele>
      </trkpt>
      <trkpt lat="44.49482" lon="5.93975">
        <ele>1623.4</ele>
      </trkpt>
      <trkpt lat="44.49482" lon="5.93981">
        <ele>1623.7</ele>
      </trkpt>
      <trkpt lat="44.49485" lon="5.93991">
        <ele>1626</ele>
      </trkpt>
      <trkpt lat="44.49486" lon="5.93991">
        <ele>1626.6</ele>
      </trkpt>
      <trkpt lat="44.49487" lon="5.93994">
        <ele>1627.4</ele>
      </trkpt>
      <trkpt lat="44.49489" lon="5.94001">
        <ele>1628.9</ele>
      </trkpt>
      <trkpt lat="44.49489" lon="5.94004">
        <ele>1628.9</ele>
      </trkpt>
      <trkpt lat="44.49488" lon="5.94007">
        <ele>1628.2</ele>
      </trkpt>
      <trkpt lat="44.49488" lon="5.94019">
        <ele>1628.2</ele>
      </trkpt>
      <trkpt lat="44.49488" lon="5.94024">
        <ele>1628.2</ele>
      </trkpt>
      <trkpt lat="44.4949" lon="5.94028">
        <ele>1629.5</ele>
      </trkpt>
      <trkpt lat="44.49491" lon="5.9403">
        <ele>1630</ele>
      </trkpt>
      <trkpt lat="44.49492" lon="5.94033">
        <ele>1630.4</ele>
      </trkpt>
      <trkpt lat="44.49495" lon="5.94039">
        <ele>1631.8</ele>
      </trkpt>
      <trkpt lat="44.49495" lon="5.94042">
        <ele>1631.5</ele>
      </trkpt>
      <trkpt lat="44.49496" lon="5.94045">
        <ele>1631.8</ele>
      </trkpt>
      <trkpt lat="44.49499" lon="5.94048">
        <ele>1633.2</ele>
      </trkpt>
      <trkpt lat="44.49498" lon="5.94055">
        <ele>1632</ele>
      </trkpt>
      <trkpt lat="44.49498" lon="5.94064">
        <ele>1632</ele>
      </trkpt>
      <trkpt lat="44.495" lon="5.94071">
        <ele>1633</ele>
      </trkpt>
      <trkpt lat="44.49501" lon="5.9408">
        <ele>1633.6</ele>
      </trkpt>
      <trkpt lat="44.49502" lon="5.94083">
        <ele>1634.1</ele>
      </trkpt>
      <trkpt lat="44.49505" lon="5.94103">
        <ele>1637.2</ele>
      </trkpt>
      <trkpt lat="44.49506" lon="5.94105">
        <ele>1638</ele>
      </trkpt>
      <trkpt lat="44.49505" lon="5.94109">
        <ele>1637.7</ele>
      </trkpt>
      <trkpt lat="44.49504" lon="5.94123">
        <ele>1639.8</ele>
      </trkpt>
      <trkpt lat="44.49502" lon="5.94126">
        <ele>1639.3</ele>
      </trkpt>
      <trkpt lat="44.49502" lon="5.94133">
        <ele>1640.8</ele>
      </trkpt>
      <trkpt lat="44.49503" lon="5.94136">
        <ele>1642</ele>
      </trkpt>
      <trkpt lat="44.49502" lon="5.94138">
        <ele>1641.9</ele>
      </trkpt>
      <trkpt lat="44.49503" lon="5.94145">
        <ele>1643.3</ele>
      </trkpt>
      <trkpt lat="44.49503" lon="5.94149">
        <ele>1643.7</ele>
      </trkpt>
      <trkpt lat="44.495" lon="5.94154">
        <ele>1642.6</ele>
      </trkpt>
      <trkpt lat="44.495" lon="5.94159">
        <ele>1643.2</ele>
      </trkpt>
      <trkpt lat="44.495" lon="5.94165">
        <ele>1643.8</ele>
      </trkpt>
      <trkpt lat="44.495" lon="5.94166">
        <ele>1643.9</ele>
      </trkpt>
      <trkpt lat="44.49502" lon="5.94174">
        <ele>1645.9</ele>
      </trkpt>
      <trkpt lat="44.49501" lon="5.94179">
        <ele>1645.9</ele>
      </trkpt>
      <trkpt lat="44.49502" lon="5.94183">
        <ele>1646.8</ele>
      </trkpt>
      <trkpt lat="44.49502" lon="5.94186">
        <ele>1647.1</ele>
      </trkpt>
      <trkpt lat="44.49503" lon="5.94191">
        <ele>1648.2</ele>
      </trkpt>
      <trkpt lat="44.49504" lon="5.94194">
        <ele>1649</ele>
      </trkpt>
      <trkpt lat="44.49504" lon="5.94197">
        <ele>1649</ele>
      </trkpt>
      <trkpt lat="44.49506" lon="5.94203">
        <ele>1650.1</ele>
      </trkpt>
      <trkpt lat="44.49506" lon="5.94205">
        <ele>1650.1</ele>
      </trkpt>
      <trkpt lat="44.49505" lon="5.94209">
        <ele>1649.6</ele>
      </trkpt>
      <trkpt lat="44.49506" lon="5.94215">
        <ele>1650.2</ele>
      </trkpt>
      <trkpt lat="44.49507" lon="5.94221">
        <ele>1650.8</ele>
      </trkpt>
      <trkpt lat="44.49506" lon="5.94224">
        <ele>1649.7</ele>
      </trkpt>
      <trkpt lat="44.49506" lon="5.94229">
        <ele>1648.1</ele>
      </trkpt>
      <trkpt lat="44.49506" lon="5.9423">
        <ele>1647.8</ele>
      </trkpt>
      <trkpt lat="44.49508" lon="5.94232">
        <ele>1648.4</ele>
      </trkpt>
      <trkpt lat="44.4951" lon="5.94235">
        <ele>1648.6</ele>
      </trkpt>
      <trkpt lat="44.49512" lon="5.94237">
        <ele>1649.2</ele>
      </trkpt>
      <trkpt lat="44.49515" lon="5.94244">
        <ele>1648.9</ele>
      </trkpt>
      <trkpt lat="44.49518" lon="5.94249">
        <ele>1649.3</ele>
      </trkpt>
      <trkpt lat="44.49521" lon="5.94251">
        <ele>1650.5</ele>
      </trkpt>
      <trkpt lat="44.49523" lon="5.94255">
        <ele>1650.2</ele>
      </trkpt>
      <trkpt lat="44.49527" lon="5.9426">
        <ele>1650.9</ele>
      </trkpt>
      <trkpt lat="44.49537" lon="5.94265">
        <ele>1655.8</ele>
      </trkpt>
      <trkpt lat="44.49543" lon="5.94269">
        <ele>1658.4</ele>
      </trkpt>
      <trkpt lat="44.49548" lon="5.94276">
        <ele>1659.4</ele>
      </trkpt>
      <trkpt lat="44.49548" lon="5.94278">
        <ele>1658.8</ele>
      </trkpt>
      <trkpt lat="44.49548" lon="5.94279">
        <ele>1658.9</ele>
      </trkpt>
      <trkpt lat="44.49546" lon="5.9428">
        <ele>1657.6</ele>
      </trkpt>
      <trkpt lat="44.49545" lon="5.94284">
        <ele>1657.2</ele>
      </trkpt>
      <trkpt lat="44.49545" lon="5.94292">
        <ele>1657.8</ele>
      </trkpt>
      <trkpt lat="44.49546" lon="5.94294">
        <ele>1658.6</ele>
      </trkpt>
      <trkpt lat="44.49547" lon="5.94296">
        <ele>1659.5</ele>
      </trkpt>
      <trkpt lat="44.49546" lon="5.94298">
        <ele>1658.9</ele>
      </trkpt>
      <trkpt lat="44.49544" lon="5.94301">
        <ele>1657.8</ele>
      </trkpt>
      <trkpt lat="44.49543" lon="5.94308">
        <ele>1657.8</ele>
      </trkpt>
      <trkpt lat="44.49542" lon="5.94313">
        <ele>1657.8</ele>
      </trkpt>
      <trkpt lat="44.4954" lon="5.94318">
        <ele>1657.2</ele>
      </trkpt>
      <trkpt lat="44.49537" lon="5.94323">
        <ele>1656</ele>
      </trkpt>
      <trkpt lat="44.49536" lon="5.94328">
        <ele>1656.2</ele>
      </trkpt>
      <trkpt lat="44.49535" lon="5.94334">
        <ele>1656.4</ele>
      </trkpt>
      <trkpt lat="44.49535" lon="5.94339">
        <ele>1656.5</ele>
      </trkpt>
      <trkpt lat="44.49535" lon="5.94345">
        <ele>1656.5</ele>
      </trkpt>
      <trkpt lat="44.49534" lon="5.94354">
        <ele>1656</ele>
      </trkpt>
      <trkpt lat="44.49534" lon="5.94375">
        <ele>1657</ele>
      </trkpt>
      <trkpt lat="44.49534" lon="5.94387">
        <ele>1657.9</ele>
      </trkpt>
      <trkpt lat="44.49533" lon="5.94412">
        <ele>1657.4</ele>
      </trkpt>
      <trkpt lat="44.49534" lon="5.94445">
        <ele>1657.5</ele>
      </trkpt>
      <trkpt lat="44.49533" lon="5.94476">
        <ele>1656.7</ele>
      </trkpt>
      <trkpt lat="44.49533" lon="5.94485">
        <ele>1657</ele>
      </trkpt>
      <trkpt lat="44.49533" lon="5.94494">
        <ele>1657.4</ele>
      </trkpt>
      <trkpt lat="44.49532" lon="5.94501">
        <ele>1657.1</ele>
      </trkpt>
      <trkpt lat="44.4953" lon="5.94507">
        <ele>1657.2</ele>
      </trkpt>
      <trkpt lat="44.49527" lon="5.94515">
        <ele>1657.3</ele>
      </trkpt>
      <trkpt lat="44.49524" lon="5.94523">
        <ele>1657.5</ele>
      </trkpt>
      <trkpt lat="44.4952" lon="5.94533">
        <ele>1656.9</ele>
      </trkpt>
      <trkpt lat="44.49517" lon="5.94542">
        <ele>1656.3</ele>
      </trkpt>
      <trkpt lat="44.49515" lon="5.94549">
        <ele>1656.2</ele>
      </trkpt>
      <trkpt lat="44.49515" lon="5.94554">
        <ele>1656.9</ele>
      </trkpt>
      <trkpt lat="44.49517" lon="5.94561">
        <ele>1657.1</ele>
      </trkpt>
      <trkpt lat="44.49522" lon="5.94576">
        <ele>1656.6</ele>
      </trkpt>
      <trkpt lat="44.49527" lon="5.94593">
        <ele>1655.9</ele>
      </trkpt>
      <trkpt lat="44.49534" lon="5.94611">
        <ele>1656.2</ele>
      </trkpt>
      <trkpt lat="44.49545" lon="5.94634">
        <ele>1657</ele>
      </trkpt>
      <trkpt lat="44.49547" lon="5.9464">
        <ele>1656.7</ele>
      </trkpt>
      <trkpt lat="44.49552" lon="5.94648">
        <ele>1657</ele>
      </trkpt>
      <trkpt lat="44.4956" lon="5.94662">
        <ele>1657</ele>
      </trkpt>
      <trkpt lat="44.49565" lon="5.94671">
        <ele>1656.5</ele>
      </trkpt>
      <trkpt lat="44.49573" lon="5.94687">
        <ele>1655.5</ele>
      </trkpt>
      <trkpt lat="44.49578" lon="5.94697">
        <ele>1655.3</ele>
      </trkpt>
      <trkpt lat="44.49582" lon="5.94702">
        <ele>1656.3</ele>
      </trkpt>
      <trkpt lat="44.49582" lon="5.94705">
        <ele>1655.9</ele>
      </trkpt>
      <trkpt lat="44.49582" lon="5.94708">
        <ele>1655.4</ele>
      </trkpt>
      <trkpt lat="44.49585" lon="5.94714">
        <ele>1656.2</ele>
      </trkpt>
      <trkpt lat="44.49589" lon="5.9472">
        <ele>1657.8</ele>
      </trkpt>
      <trkpt lat="44.4959" lon="5.94725">
        <ele>1657.8</ele>
      </trkpt>
      <trkpt lat="44.4959" lon="5.94738">
        <ele>1656.4</ele>
      </trkpt>
      <trkpt lat="44.4959" lon="5.94743">
        <ele>1655.8</ele>
      </trkpt>
      <trkpt lat="44.4959" lon="5.9475">
        <ele>1655.1</ele>
      </trkpt>
      <trkpt lat="44.4959" lon="5.94757">
        <ele>1654</ele>
      </trkpt>
      <trkpt lat="44.49592" lon="5.94764">
        <ele>1654.1</ele>
      </trkpt>
      <trkpt lat="44.49595" lon="5.94772">
        <ele>1654.6</ele>
      </trkpt>
      <trkpt lat="44.496" lon="5.94786">
        <ele>1654.5</ele>
      </trkpt>
      <trkpt lat="44.49606" lon="5.948">
        <ele>1654.5</ele>
      </trkpt>
      <trkpt lat="44.49612" lon="5.94811">
        <ele>1655.4</ele>
      </trkpt>
      <trkpt lat="44.49616" lon="5.94824">
        <ele>1655.1</ele>
      </trkpt>
      <trkpt lat="44.49619" lon="5.94833">
        <ele>1654.9</ele>
      </trkpt>
      <trkpt lat="44.49623" lon="5.94839">
        <ele>1656.2</ele>
      </trkpt>
      <trkpt lat="44.49627" lon="5.94846">
        <ele>1657.2</ele>
      </trkpt>
      <trkpt lat="44.4963" lon="5.94856">
        <ele>1656.9</ele>
      </trkpt>
      <trkpt lat="44.49633" lon="5.94864">
        <ele>1657.1</ele>
      </trkpt>
      <trkpt lat="44.49635" lon="5.94873">
        <ele>1656.6</ele>
      </trkpt>
      <trkpt lat="44.49637" lon="5.94884">
        <ele>1655.8</ele>
      </trkpt>
      <trkpt lat="44.49641" lon="5.94892">
        <ele>1656.9</ele>
      </trkpt>
      <trkpt lat="44.49643" lon="5.94899">
        <ele>1657.3</ele>
      </trkpt>
      <trkpt lat="44.49645" lon="5.94907">
        <ele>1657.5</ele>
      </trkpt>
      <trkpt lat="44.49646" lon="5.94915">
        <ele>1657.1</ele>
      </trkpt>
      <trkpt lat="44.49648" lon="5.94921">
        <ele>1657.6</ele>
      </trkpt>
      <trkpt lat="44.4965" lon="5.94929">
        <ele>1657.8</ele>
      </trkpt>
      <trkpt lat="44.49652" lon="5.94938">
        <ele>1657.9</ele>
      </trkpt>
      <trkpt lat="44.49656" lon="5.94951">
        <ele>1658.8</ele>
      </trkpt>
      <trkpt lat="44.49661" lon="5.94968">
        <ele>1659.7</ele>
      </trkpt>
      <trkpt lat="44.49664" lon="5.94982">
        <ele>1660.1</ele>
      </trkpt>
      <trkpt lat="44.49666" lon="5.94994">
        <ele>1660.2</ele>
      </trkpt>
      <trkpt lat="44.49667" lon="5.95003">
        <ele>1660</ele>
      </trkpt>
      <trkpt lat="44.49668" lon="5.9501">
        <ele>1660.2</ele>
      </trkpt>
      <trkpt lat="44.49668" lon="5.95014">
        <ele>1659.9</ele>
      </trkpt>
      <trkpt lat="44.49669" lon="5.95017">
        <ele>1660.4</ele>
      </trkpt>
      <trkpt lat="44.49669" lon="5.95019">
        <ele>1660.2</ele>
      </trkpt>
      <trkpt lat="44.4967" lon="5.95024">
        <ele>1660.6</ele>
      </trkpt>
      <trkpt lat="44.49671" lon="5.9503">
        <ele>1660.8</ele>
      </trkpt>
      <trkpt lat="44.49672" lon="5.95046">
        <ele>1660.2</ele>
      </trkpt>
      <trkpt lat="44.49675" lon="5.95064">
        <ele>1660.7</ele>
      </trkpt>
      <trkpt lat="44.49678" lon="5.9508">
        <ele>1661.2</ele>
      </trkpt>
      <trkpt lat="44.49681" lon="5.95095">
        <ele>1661.7</ele>
      </trkpt>
      <trkpt lat="44.49686" lon="5.95109">
        <ele>1663.3</ele>
      </trkpt>
      <trkpt lat="44.4969" lon="5.9512">
        <ele>1665.4</ele>
      </trkpt>
      <trkpt lat="44.49693" lon="5.95134">
        <ele>1667.1</ele>
      </trkpt>
      <trkpt lat="44.49694" lon="5.95142">
        <ele>1667.5</ele>
      </trkpt>
      <trkpt lat="44.49694" lon="5.95149">
        <ele>1667</ele>
      </trkpt>
      <trkpt lat="44.49694" lon="5.95154">
        <ele>1666.6</ele>
      </trkpt>
      <trkpt lat="44.49694" lon="5.95159">
        <ele>1666.3</ele>
      </trkpt>
      <trkpt lat="44.49693" lon="5.95164">
        <ele>1665.4</ele>
      </trkpt>
      <trkpt lat="44.49694" lon="5.9517">
        <ele>1665.1</ele>
      </trkpt>
      <trkpt lat="44.49695" lon="5.95176">
        <ele>1664.6</ele>
        <extensions>
          <visugpx:TrkExtension xmlns:visugpx="https://www.visugpx.com/editgpx/">
            <visugpx:node>12</visugpx:node>
            </visugpx:TrkExtension>
        </extensions>
      </trkpt>
    </trkseg>
  </trk>
</gpx>